<?xml version="1.0" encoding="UTF-8" standalone="no" ?>
<gpx xmlns="http://www.topografix.com/GPX/1/1" xmlns:xsi="http://www.w3.org/2001/XMLSchema-instance" xsi:schemaLocation="http://www.topografix.com/GPX/1/1 http://www.topografix.com/GPX/1/1/gpx.xsd" version="1.1" creator="VisuGPX - https://www.visugpx.com">
  <metadata>
    <name>Guy mocquet 15/10</name>
    <desc><![CDATA[Guy mocquet 15/10]]></desc>
  </metadata>
  <trk>
    <name><![CDATA[15/10/2013 20:19]]></name>
    <desc><![CDATA[]]></desc>
    <trkseg>
      <trkpt lat="48.89243" lon="2.32603">
        <ele>132</ele>
        <time>2013-10-15T18:20:05.394Z</time>
      </trkpt>
      <trkpt lat="48.8924" lon="2.3259">
        <ele>125</ele>
        <time>2013-10-15T18:20:08.530Z</time>
      </trkpt>
      <trkpt lat="48.8924" lon="2.32588">
        <ele>125</ele>
        <time>2013-10-15T18:20:09.543Z</time>
      </trkpt>
      <trkpt lat="48.89244" lon="2.32579">
        <ele>125</ele>
        <time>2013-10-15T18:20:10.504Z</time>
      </trkpt>
      <trkpt lat="48.89246" lon="2.32575">
        <ele>125</ele>
        <time>2013-10-15T18:20:11.530Z</time>
      </trkpt>
      <trkpt lat="48.89251" lon="2.32566">
        <ele>130</ele>
        <time>2013-10-15T18:20:13.469Z</time>
      </trkpt>
      <trkpt lat="48.89253" lon="2.32556">
        <ele>131</ele>
        <time>2013-10-15T18:20:14.472Z</time>
      </trkpt>
      <trkpt lat="48.89254" lon="2.32547">
        <ele>131</ele>
        <time>2013-10-15T18:20:15.532Z</time>
      </trkpt>
      <trkpt lat="48.89255" lon="2.32538">
        <ele>131</ele>
        <time>2013-10-15T18:20:16.546Z</time>
      </trkpt>
      <trkpt lat="48.89256" lon="2.32528">
        <ele>132</ele>
        <time>2013-10-15T18:20:17.479Z</time>
      </trkpt>
      <trkpt lat="48.89257" lon="2.32518">
        <ele>130</ele>
        <time>2013-10-15T18:20:18.468Z</time>
      </trkpt>
      <trkpt lat="48.89258" lon="2.32507">
        <ele>129</ele>
        <time>2013-10-15T18:20:19.530Z</time>
      </trkpt>
      <trkpt lat="48.89258" lon="2.32496">
        <ele>123</ele>
        <time>2013-10-15T18:20:20.528Z</time>
      </trkpt>
      <trkpt lat="48.89258" lon="2.32486">
        <ele>117</ele>
        <time>2013-10-15T18:20:21.532Z</time>
      </trkpt>
      <trkpt lat="48.89256" lon="2.32477">
        <ele>112</ele>
        <time>2013-10-15T18:20:22.548Z</time>
      </trkpt>
      <trkpt lat="48.89254" lon="2.32469">
        <ele>109</ele>
        <time>2013-10-15T18:20:23.534Z</time>
      </trkpt>
      <trkpt lat="48.89253" lon="2.32461">
        <ele>105</ele>
        <time>2013-10-15T18:20:24.531Z</time>
      </trkpt>
      <trkpt lat="48.89252" lon="2.32453">
        <ele>104</ele>
        <time>2013-10-15T18:20:25.580Z</time>
      </trkpt>
      <trkpt lat="48.89251" lon="2.32446">
        <ele>100</ele>
        <time>2013-10-15T18:20:26.535Z</time>
      </trkpt>
      <trkpt lat="48.89249" lon="2.32438">
        <ele>101</ele>
        <time>2013-10-15T18:20:27.531Z</time>
      </trkpt>
      <trkpt lat="48.89248" lon="2.3243">
        <ele>99</ele>
        <time>2013-10-15T18:20:28.541Z</time>
      </trkpt>
      <trkpt lat="48.89246" lon="2.32422">
        <ele>98</ele>
        <time>2013-10-15T18:20:29.536Z</time>
      </trkpt>
      <trkpt lat="48.89244" lon="2.32414">
        <ele>93</ele>
        <time>2013-10-15T18:20:30.530Z</time>
      </trkpt>
      <trkpt lat="48.89242" lon="2.32405">
        <ele>93</ele>
        <time>2013-10-15T18:20:31.535Z</time>
      </trkpt>
      <trkpt lat="48.89239" lon="2.32396">
        <ele>92</ele>
        <time>2013-10-15T18:20:32.536Z</time>
      </trkpt>
      <trkpt lat="48.89237" lon="2.32388">
        <ele>88</ele>
        <time>2013-10-15T18:20:33.537Z</time>
      </trkpt>
      <trkpt lat="48.89234" lon="2.3238">
        <ele>89</ele>
        <time>2013-10-15T18:20:34.533Z</time>
      </trkpt>
      <trkpt lat="48.89232" lon="2.32372">
        <ele>86</ele>
        <time>2013-10-15T18:20:35.535Z</time>
      </trkpt>
      <trkpt lat="48.89229" lon="2.32364">
        <ele>85</ele>
        <time>2013-10-15T18:20:36.520Z</time>
      </trkpt>
      <trkpt lat="48.89227" lon="2.32356">
        <ele>83</ele>
        <time>2013-10-15T18:20:37.545Z</time>
      </trkpt>
      <trkpt lat="48.89224" lon="2.32349">
        <ele>85</ele>
        <time>2013-10-15T18:20:38.501Z</time>
      </trkpt>
      <trkpt lat="48.89223" lon="2.32342">
        <ele>85</ele>
        <time>2013-10-15T18:20:39.477Z</time>
      </trkpt>
      <trkpt lat="48.89221" lon="2.32335">
        <ele>83</ele>
        <time>2013-10-15T18:20:40.503Z</time>
      </trkpt>
      <trkpt lat="48.89219" lon="2.32328">
        <ele>84</ele>
        <time>2013-10-15T18:20:41.504Z</time>
      </trkpt>
      <trkpt lat="48.89218" lon="2.32321">
        <ele>83</ele>
        <time>2013-10-15T18:20:42.501Z</time>
      </trkpt>
      <trkpt lat="48.89215" lon="2.32308">
        <ele>82</ele>
        <time>2013-10-15T18:20:44.504Z</time>
      </trkpt>
      <trkpt lat="48.89214" lon="2.32301">
        <ele>80</ele>
        <time>2013-10-15T18:20:45.504Z</time>
      </trkpt>
      <trkpt lat="48.89213" lon="2.32295">
        <ele>80</ele>
        <time>2013-10-15T18:20:46.578Z</time>
      </trkpt>
      <trkpt lat="48.89211" lon="2.32288">
        <ele>81</ele>
        <time>2013-10-15T18:20:47.616Z</time>
      </trkpt>
      <trkpt lat="48.8921" lon="2.32275">
        <ele>81</ele>
        <time>2013-10-15T18:20:49.497Z</time>
      </trkpt>
      <trkpt lat="48.89209" lon="2.32269">
        <ele>79</ele>
        <time>2013-10-15T18:20:50.513Z</time>
      </trkpt>
      <trkpt lat="48.89207" lon="2.32263">
        <ele>79</ele>
        <time>2013-10-15T18:20:51.505Z</time>
      </trkpt>
      <trkpt lat="48.89205" lon="2.32256">
        <ele>79</ele>
        <time>2013-10-15T18:20:52.512Z</time>
      </trkpt>
      <trkpt lat="48.89203" lon="2.32249">
        <ele>82</ele>
        <time>2013-10-15T18:20:53.498Z</time>
      </trkpt>
      <trkpt lat="48.89201" lon="2.32242">
        <ele>83</ele>
        <time>2013-10-15T18:20:54.511Z</time>
      </trkpt>
      <trkpt lat="48.89199" lon="2.32235">
        <ele>81</ele>
        <time>2013-10-15T18:20:55.509Z</time>
      </trkpt>
      <trkpt lat="48.89198" lon="2.32228">
        <ele>81</ele>
        <time>2013-10-15T18:20:56.501Z</time>
      </trkpt>
      <trkpt lat="48.89197" lon="2.32221">
        <ele>81</ele>
        <time>2013-10-15T18:20:57.505Z</time>
      </trkpt>
      <trkpt lat="48.89196" lon="2.32214">
        <ele>80</ele>
        <time>2013-10-15T18:20:58.488Z</time>
      </trkpt>
      <trkpt lat="48.89192" lon="2.32203">
        <ele>77</ele>
        <time>2013-10-15T18:21:00.474Z</time>
      </trkpt>
      <trkpt lat="48.8919" lon="2.32197">
        <ele>78</ele>
        <time>2013-10-15T18:21:01.515Z</time>
      </trkpt>
      <trkpt lat="48.89187" lon="2.32192">
        <ele>77</ele>
        <time>2013-10-15T18:21:02.487Z</time>
      </trkpt>
      <trkpt lat="48.89185" lon="2.32186">
        <ele>78</ele>
        <time>2013-10-15T18:21:03.510Z</time>
      </trkpt>
      <trkpt lat="48.89183" lon="2.32179">
        <ele>77</ele>
        <time>2013-10-15T18:21:04.554Z</time>
      </trkpt>
      <trkpt lat="48.89181" lon="2.32173">
        <ele>83</ele>
        <time>2013-10-15T18:21:05.517Z</time>
      </trkpt>
      <trkpt lat="48.89179" lon="2.32167">
        <ele>82</ele>
        <time>2013-10-15T18:21:06.512Z</time>
      </trkpt>
      <trkpt lat="48.89177" lon="2.3216">
        <ele>78</ele>
        <time>2013-10-15T18:21:07.517Z</time>
      </trkpt>
      <trkpt lat="48.89176" lon="2.32152">
        <ele>77</ele>
        <time>2013-10-15T18:21:08.510Z</time>
      </trkpt>
      <trkpt lat="48.89176" lon="2.32144">
        <ele>78</ele>
        <time>2013-10-15T18:21:09.472Z</time>
      </trkpt>
      <trkpt lat="48.89175" lon="2.32136">
        <ele>82</ele>
        <time>2013-10-15T18:21:10.505Z</time>
      </trkpt>
      <trkpt lat="48.89173" lon="2.32128">
        <ele>83</ele>
        <time>2013-10-15T18:21:11.508Z</time>
      </trkpt>
      <trkpt lat="48.89172" lon="2.3212">
        <ele>84</ele>
        <time>2013-10-15T18:21:12.506Z</time>
      </trkpt>
      <trkpt lat="48.89169" lon="2.32113">
        <ele>85</ele>
        <time>2013-10-15T18:21:13.505Z</time>
      </trkpt>
      <trkpt lat="48.89167" lon="2.32106">
        <ele>85</ele>
        <time>2013-10-15T18:21:14.508Z</time>
      </trkpt>
      <trkpt lat="48.89165" lon="2.32098">
        <ele>82</ele>
        <time>2013-10-15T18:21:15.511Z</time>
      </trkpt>
      <trkpt lat="48.89163" lon="2.32091">
        <ele>86</ele>
        <time>2013-10-15T18:21:16.509Z</time>
      </trkpt>
      <trkpt lat="48.89162" lon="2.32084">
        <ele>85</ele>
        <time>2013-10-15T18:21:17.516Z</time>
      </trkpt>
      <trkpt lat="48.89161" lon="2.32076">
        <ele>81</ele>
        <time>2013-10-15T18:21:18.508Z</time>
      </trkpt>
      <trkpt lat="48.8916" lon="2.32068">
        <ele>83</ele>
        <time>2013-10-15T18:21:19.508Z</time>
      </trkpt>
      <trkpt lat="48.89159" lon="2.3206">
        <ele>85</ele>
        <time>2013-10-15T18:21:20.507Z</time>
      </trkpt>
      <trkpt lat="48.89158" lon="2.32051">
        <ele>83</ele>
        <time>2013-10-15T18:21:21.513Z</time>
      </trkpt>
      <trkpt lat="48.89156" lon="2.32043">
        <ele>82</ele>
        <time>2013-10-15T18:21:22.503Z</time>
      </trkpt>
      <trkpt lat="48.89154" lon="2.32035">
        <ele>80</ele>
        <time>2013-10-15T18:21:23.508Z</time>
      </trkpt>
      <trkpt lat="48.89151" lon="2.32029">
        <ele>77</ele>
        <time>2013-10-15T18:21:24.509Z</time>
      </trkpt>
      <trkpt lat="48.89149" lon="2.32022">
        <ele>78</ele>
        <time>2013-10-15T18:21:25.509Z</time>
      </trkpt>
      <trkpt lat="48.89146" lon="2.32016">
        <ele>75</ele>
        <time>2013-10-15T18:21:26.514Z</time>
      </trkpt>
      <trkpt lat="48.89144" lon="2.3201">
        <ele>74</ele>
        <time>2013-10-15T18:21:27.508Z</time>
      </trkpt>
      <trkpt lat="48.89142" lon="2.32003">
        <ele>74</ele>
        <time>2013-10-15T18:21:28.515Z</time>
      </trkpt>
      <trkpt lat="48.8914" lon="2.31996">
        <ele>73</ele>
        <time>2013-10-15T18:21:29.516Z</time>
      </trkpt>
      <trkpt lat="48.89139" lon="2.31988">
        <ele>74</ele>
        <time>2013-10-15T18:21:30.499Z</time>
      </trkpt>
      <trkpt lat="48.89138" lon="2.31981">
        <ele>73</ele>
        <time>2013-10-15T18:21:31.499Z</time>
      </trkpt>
      <trkpt lat="48.89137" lon="2.31974">
        <ele>73</ele>
        <time>2013-10-15T18:21:32.498Z</time>
      </trkpt>
      <trkpt lat="48.89136" lon="2.31967">
        <ele>73</ele>
        <time>2013-10-15T18:21:33.510Z</time>
      </trkpt>
      <trkpt lat="48.89135" lon="2.3196">
        <ele>72</ele>
        <time>2013-10-15T18:21:34.518Z</time>
      </trkpt>
      <trkpt lat="48.89135" lon="2.31953">
        <ele>72</ele>
        <time>2013-10-15T18:21:35.520Z</time>
      </trkpt>
      <trkpt lat="48.89136" lon="2.31941">
        <ele>68</ele>
        <time>2013-10-15T18:21:37.452Z</time>
      </trkpt>
      <trkpt lat="48.89135" lon="2.31936">
        <ele>71</ele>
        <time>2013-10-15T18:21:38.682Z</time>
      </trkpt>
      <trkpt lat="48.8913" lon="2.31926">
        <ele>75</ele>
        <time>2013-10-15T18:21:41.477Z</time>
      </trkpt>
      <trkpt lat="48.89128" lon="2.31924">
        <ele>76</ele>
        <time>2013-10-15T18:21:42.454Z</time>
      </trkpt>
      <trkpt lat="48.89123" lon="2.31915">
        <ele>80</ele>
        <time>2013-10-15T18:21:46.507Z</time>
      </trkpt>
      <trkpt lat="48.89122" lon="2.31912">
        <ele>85</ele>
        <time>2013-10-15T18:21:47.594Z</time>
      </trkpt>
      <trkpt lat="48.89123" lon="2.31904">
        <ele>85</ele>
        <time>2013-10-15T18:21:49.501Z</time>
      </trkpt>
      <trkpt lat="48.89125" lon="2.31898">
        <ele>86</ele>
        <time>2013-10-15T18:21:50.514Z</time>
      </trkpt>
      <trkpt lat="48.89128" lon="2.31891">
        <ele>84</ele>
        <time>2013-10-15T18:21:51.521Z</time>
      </trkpt>
      <trkpt lat="48.89131" lon="2.31884">
        <ele>85</ele>
        <time>2013-10-15T18:21:52.513Z</time>
      </trkpt>
      <trkpt lat="48.89134" lon="2.31877">
        <ele>86</ele>
        <time>2013-10-15T18:21:53.518Z</time>
      </trkpt>
      <trkpt lat="48.89136" lon="2.31872">
        <ele>86</ele>
        <time>2013-10-15T18:21:54.512Z</time>
      </trkpt>
      <trkpt lat="48.89141" lon="2.31864">
        <ele>83</ele>
        <time>2013-10-15T18:21:56.513Z</time>
      </trkpt>
      <trkpt lat="48.89143" lon="2.31862">
        <ele>81</ele>
        <time>2013-10-15T18:21:57.526Z</time>
      </trkpt>
      <trkpt lat="48.8915" lon="2.31857">
        <ele>78</ele>
        <time>2013-10-15T18:22:01.505Z</time>
      </trkpt>
      <trkpt lat="48.89152" lon="2.31856">
        <ele>80</ele>
        <time>2013-10-15T18:22:02.526Z</time>
      </trkpt>
      <trkpt lat="48.89157" lon="2.31845">
        <ele>84</ele>
        <time>2013-10-15T18:22:07.518Z</time>
      </trkpt>
      <trkpt lat="48.89158" lon="2.31843">
        <ele>83</ele>
        <time>2013-10-15T18:22:08.530Z</time>
      </trkpt>
      <trkpt lat="48.89151" lon="2.31834">
        <ele>83</ele>
        <time>2013-10-15T18:22:22.525Z</time>
      </trkpt>
      <trkpt lat="48.89148" lon="2.31832">
        <ele>85</ele>
        <time>2013-10-15T18:22:23.522Z</time>
      </trkpt>
      <trkpt lat="48.89144" lon="2.31829">
        <ele>85</ele>
        <time>2013-10-15T18:22:24.522Z</time>
      </trkpt>
      <trkpt lat="48.89139" lon="2.31827">
        <ele>88</ele>
        <time>2013-10-15T18:22:25.522Z</time>
      </trkpt>
      <trkpt lat="48.89134" lon="2.31825">
        <ele>85</ele>
        <time>2013-10-15T18:22:26.518Z</time>
      </trkpt>
      <trkpt lat="48.89129" lon="2.31822">
        <ele>82</ele>
        <time>2013-10-15T18:22:27.514Z</time>
      </trkpt>
      <trkpt lat="48.89123" lon="2.31819">
        <ele>83</ele>
        <time>2013-10-15T18:22:28.522Z</time>
      </trkpt>
      <trkpt lat="48.89118" lon="2.31816">
        <ele>80</ele>
        <time>2013-10-15T18:22:29.529Z</time>
      </trkpt>
      <trkpt lat="48.89112" lon="2.31814">
        <ele>78</ele>
        <time>2013-10-15T18:22:30.525Z</time>
      </trkpt>
      <trkpt lat="48.89107" lon="2.31811">
        <ele>78</ele>
        <time>2013-10-15T18:22:31.521Z</time>
      </trkpt>
      <trkpt lat="48.89102" lon="2.31807">
        <ele>78</ele>
        <time>2013-10-15T18:22:32.518Z</time>
      </trkpt>
      <trkpt lat="48.89098" lon="2.31803">
        <ele>77</ele>
        <time>2013-10-15T18:22:33.525Z</time>
      </trkpt>
      <trkpt lat="48.89093" lon="2.31798">
        <ele>75</ele>
        <time>2013-10-15T18:22:34.517Z</time>
      </trkpt>
      <trkpt lat="48.89089" lon="2.31795">
        <ele>74</ele>
        <time>2013-10-15T18:22:35.529Z</time>
      </trkpt>
      <trkpt lat="48.89084" lon="2.31791">
        <ele>73</ele>
        <time>2013-10-15T18:22:36.518Z</time>
      </trkpt>
      <trkpt lat="48.8908" lon="2.31788">
        <ele>74</ele>
        <time>2013-10-15T18:22:37.550Z</time>
      </trkpt>
      <trkpt lat="48.89075" lon="2.31784">
        <ele>75</ele>
        <time>2013-10-15T18:22:38.526Z</time>
      </trkpt>
      <trkpt lat="48.89071" lon="2.3178">
        <ele>78</ele>
        <time>2013-10-15T18:22:39.491Z</time>
      </trkpt>
      <trkpt lat="48.89066" lon="2.31777">
        <ele>77</ele>
        <time>2013-10-15T18:22:40.518Z</time>
      </trkpt>
      <trkpt lat="48.89061" lon="2.31772">
        <ele>77</ele>
        <time>2013-10-15T18:22:41.520Z</time>
      </trkpt>
      <trkpt lat="48.89057" lon="2.31768">
        <ele>76</ele>
        <time>2013-10-15T18:22:42.527Z</time>
      </trkpt>
      <trkpt lat="48.89052" lon="2.31764">
        <ele>78</ele>
        <time>2013-10-15T18:22:43.520Z</time>
      </trkpt>
      <trkpt lat="48.89048" lon="2.31759">
        <ele>76</ele>
        <time>2013-10-15T18:22:44.520Z</time>
      </trkpt>
      <trkpt lat="48.89043" lon="2.31755">
        <ele>74</ele>
        <time>2013-10-15T18:22:45.526Z</time>
      </trkpt>
      <trkpt lat="48.89039" lon="2.31751">
        <ele>75</ele>
        <time>2013-10-15T18:22:46.530Z</time>
      </trkpt>
      <trkpt lat="48.89034" lon="2.31747">
        <ele>74</ele>
        <time>2013-10-15T18:22:47.525Z</time>
      </trkpt>
      <trkpt lat="48.8903" lon="2.31743">
        <ele>75</ele>
        <time>2013-10-15T18:22:48.522Z</time>
      </trkpt>
      <trkpt lat="48.89026" lon="2.31739">
        <ele>76</ele>
        <time>2013-10-15T18:22:49.536Z</time>
      </trkpt>
      <trkpt lat="48.89021" lon="2.31734">
        <ele>74</ele>
        <time>2013-10-15T18:22:50.523Z</time>
      </trkpt>
      <trkpt lat="48.89016" lon="2.31731">
        <ele>76</ele>
        <time>2013-10-15T18:22:51.532Z</time>
      </trkpt>
      <trkpt lat="48.89012" lon="2.31726">
        <ele>75</ele>
        <time>2013-10-15T18:22:52.521Z</time>
      </trkpt>
      <trkpt lat="48.89007" lon="2.31722">
        <ele>76</ele>
        <time>2013-10-15T18:22:53.523Z</time>
      </trkpt>
      <trkpt lat="48.89002" lon="2.31717">
        <ele>74</ele>
        <time>2013-10-15T18:22:54.533Z</time>
      </trkpt>
      <trkpt lat="48.88998" lon="2.31712">
        <ele>75</ele>
        <time>2013-10-15T18:22:55.544Z</time>
      </trkpt>
      <trkpt lat="48.88993" lon="2.31709">
        <ele>72</ele>
        <time>2013-10-15T18:22:56.521Z</time>
      </trkpt>
      <trkpt lat="48.88988" lon="2.31704">
        <ele>74</ele>
        <time>2013-10-15T18:22:57.523Z</time>
      </trkpt>
      <trkpt lat="48.88983" lon="2.317">
        <ele>76</ele>
        <time>2013-10-15T18:22:58.522Z</time>
      </trkpt>
      <trkpt lat="48.88978" lon="2.31695">
        <ele>76</ele>
        <time>2013-10-15T18:22:59.526Z</time>
      </trkpt>
      <trkpt lat="48.88973" lon="2.31691">
        <ele>74</ele>
        <time>2013-10-15T18:23:00.483Z</time>
      </trkpt>
      <trkpt lat="48.88968" lon="2.31685">
        <ele>79</ele>
        <time>2013-10-15T18:23:01.523Z</time>
      </trkpt>
      <trkpt lat="48.88964" lon="2.3168">
        <ele>84</ele>
        <time>2013-10-15T18:23:02.536Z</time>
      </trkpt>
      <trkpt lat="48.88959" lon="2.31675">
        <ele>84</ele>
        <time>2013-10-15T18:23:03.595Z</time>
      </trkpt>
      <trkpt lat="48.88955" lon="2.3167">
        <ele>83</ele>
        <time>2013-10-15T18:23:04.522Z</time>
      </trkpt>
      <trkpt lat="48.88951" lon="2.31664">
        <ele>82</ele>
        <time>2013-10-15T18:23:05.527Z</time>
      </trkpt>
      <trkpt lat="48.88946" lon="2.31659">
        <ele>83</ele>
        <time>2013-10-15T18:23:06.526Z</time>
      </trkpt>
      <trkpt lat="48.88941" lon="2.31654">
        <ele>81</ele>
        <time>2013-10-15T18:23:07.533Z</time>
      </trkpt>
      <trkpt lat="48.88937" lon="2.3165">
        <ele>78</ele>
        <time>2013-10-15T18:23:08.522Z</time>
      </trkpt>
      <trkpt lat="48.88932" lon="2.31646">
        <ele>77</ele>
        <time>2013-10-15T18:23:09.530Z</time>
      </trkpt>
      <trkpt lat="48.88928" lon="2.31642">
        <ele>75</ele>
        <time>2013-10-15T18:23:10.550Z</time>
      </trkpt>
      <trkpt lat="48.88923" lon="2.31638">
        <ele>75</ele>
        <time>2013-10-15T18:23:11.526Z</time>
      </trkpt>
      <trkpt lat="48.88919" lon="2.31635">
        <ele>76</ele>
        <time>2013-10-15T18:23:12.517Z</time>
      </trkpt>
      <trkpt lat="48.88914" lon="2.3163">
        <ele>74</ele>
        <time>2013-10-15T18:23:13.516Z</time>
      </trkpt>
      <trkpt lat="48.8891" lon="2.31626">
        <ele>73</ele>
        <time>2013-10-15T18:23:14.530Z</time>
      </trkpt>
      <trkpt lat="48.88906" lon="2.31622">
        <ele>76</ele>
        <time>2013-10-15T18:23:15.527Z</time>
      </trkpt>
      <trkpt lat="48.88902" lon="2.31617">
        <ele>77</ele>
        <time>2013-10-15T18:23:16.531Z</time>
      </trkpt>
      <trkpt lat="48.88898" lon="2.31613">
        <ele>78</ele>
        <time>2013-10-15T18:23:17.532Z</time>
      </trkpt>
      <trkpt lat="48.88894" lon="2.31609">
        <ele>80</ele>
        <time>2013-10-15T18:23:18.518Z</time>
      </trkpt>
      <trkpt lat="48.8889" lon="2.31605">
        <ele>79</ele>
        <time>2013-10-15T18:23:19.544Z</time>
      </trkpt>
      <trkpt lat="48.88886" lon="2.31602">
        <ele>78</ele>
        <time>2013-10-15T18:23:20.521Z</time>
      </trkpt>
      <trkpt lat="48.88882" lon="2.31598">
        <ele>76</ele>
        <time>2013-10-15T18:23:21.525Z</time>
      </trkpt>
      <trkpt lat="48.88874" lon="2.31594">
        <ele>77</ele>
        <time>2013-10-15T18:23:23.525Z</time>
      </trkpt>
      <trkpt lat="48.8887" lon="2.31591">
        <ele>80</ele>
        <time>2013-10-15T18:23:24.522Z</time>
      </trkpt>
      <trkpt lat="48.88865" lon="2.31586">
        <ele>85</ele>
        <time>2013-10-15T18:23:26.530Z</time>
      </trkpt>
      <trkpt lat="48.88862" lon="2.31583">
        <ele>85</ele>
        <time>2013-10-15T18:23:27.526Z</time>
      </trkpt>
      <trkpt lat="48.88858" lon="2.31577">
        <ele>81</ele>
        <time>2013-10-15T18:23:29.528Z</time>
      </trkpt>
      <trkpt lat="48.88856" lon="2.31573">
        <ele>81</ele>
        <time>2013-10-15T18:23:30.520Z</time>
      </trkpt>
      <trkpt lat="48.88851" lon="2.31565">
        <ele>80</ele>
        <time>2013-10-15T18:23:32.526Z</time>
      </trkpt>
      <trkpt lat="48.88848" lon="2.31561">
        <ele>82</ele>
        <time>2013-10-15T18:23:33.527Z</time>
      </trkpt>
      <trkpt lat="48.88842" lon="2.31553">
        <ele>84</ele>
        <time>2013-10-15T18:23:35.535Z</time>
      </trkpt>
      <trkpt lat="48.88839" lon="2.31549">
        <ele>84</ele>
        <time>2013-10-15T18:23:36.538Z</time>
      </trkpt>
      <trkpt lat="48.88833" lon="2.31542">
        <ele>80</ele>
        <time>2013-10-15T18:23:38.536Z</time>
      </trkpt>
      <trkpt lat="48.8883" lon="2.31538">
        <ele>79</ele>
        <time>2013-10-15T18:23:39.581Z</time>
      </trkpt>
      <trkpt lat="48.88823" lon="2.31532">
        <ele>81</ele>
        <time>2013-10-15T18:23:41.531Z</time>
      </trkpt>
      <trkpt lat="48.8882" lon="2.31529">
        <ele>83</ele>
        <time>2013-10-15T18:23:42.533Z</time>
      </trkpt>
      <trkpt lat="48.88814" lon="2.31523">
        <ele>84</ele>
        <time>2013-10-15T18:23:44.534Z</time>
      </trkpt>
      <trkpt lat="48.88811" lon="2.3152">
        <ele>82</ele>
        <time>2013-10-15T18:23:45.532Z</time>
      </trkpt>
      <trkpt lat="48.88805" lon="2.31514">
        <ele>84</ele>
        <time>2013-10-15T18:23:47.531Z</time>
      </trkpt>
      <trkpt lat="48.88802" lon="2.31511">
        <ele>85</ele>
        <time>2013-10-15T18:23:48.619Z</time>
      </trkpt>
      <trkpt lat="48.88797" lon="2.31505">
        <ele>85</ele>
        <time>2013-10-15T18:23:50.540Z</time>
      </trkpt>
      <trkpt lat="48.88794" lon="2.31502">
        <ele>83</ele>
        <time>2013-10-15T18:23:51.541Z</time>
      </trkpt>
      <trkpt lat="48.88789" lon="2.31494">
        <ele>81</ele>
        <time>2013-10-15T18:23:53.721Z</time>
      </trkpt>
      <trkpt lat="48.88786" lon="2.3149">
        <ele>79</ele>
        <time>2013-10-15T18:23:54.536Z</time>
      </trkpt>
      <trkpt lat="48.88781" lon="2.31481">
        <ele>83</ele>
        <time>2013-10-15T18:23:56.535Z</time>
      </trkpt>
      <trkpt lat="48.88778" lon="2.31476">
        <ele>85</ele>
        <time>2013-10-15T18:23:57.536Z</time>
      </trkpt>
      <trkpt lat="48.88773" lon="2.31467">
        <ele>87</ele>
        <time>2013-10-15T18:23:59.531Z</time>
      </trkpt>
      <trkpt lat="48.88771" lon="2.31464">
        <ele>85</ele>
        <time>2013-10-15T18:24:00.497Z</time>
      </trkpt>
      <trkpt lat="48.88766" lon="2.31456">
        <ele>87</ele>
        <time>2013-10-15T18:24:02.557Z</time>
      </trkpt>
      <trkpt lat="48.88764" lon="2.31453">
        <ele>89</ele>
        <time>2013-10-15T18:24:03.539Z</time>
      </trkpt>
      <trkpt lat="48.88759" lon="2.31443">
        <ele>89</ele>
        <time>2013-10-15T18:24:06.535Z</time>
      </trkpt>
      <trkpt lat="48.88757" lon="2.3144">
        <ele>90</ele>
        <time>2013-10-15T18:24:07.526Z</time>
      </trkpt>
      <trkpt lat="48.88751" lon="2.31432">
        <ele>84</ele>
        <time>2013-10-15T18:24:11.531Z</time>
      </trkpt>
      <trkpt lat="48.8875" lon="2.31431">
        <ele>83</ele>
        <time>2013-10-15T18:24:12.527Z</time>
      </trkpt>
      <trkpt lat="48.88741" lon="2.31433">
        <ele>81</ele>
        <time>2013-10-15T18:24:19.494Z</time>
      </trkpt>
      <trkpt lat="48.8874" lon="2.31433">
        <ele>83</ele>
        <time>2013-10-15T18:24:20.533Z</time>
      </trkpt>
      <trkpt lat="48.88735" lon="2.31438">
        <ele>77</ele>
        <time>2013-10-15T18:24:31.539Z</time>
      </trkpt>
      <trkpt lat="48.88735" lon="2.31438">
        <ele>76</ele>
        <time>2013-10-15T18:24:32.532Z</time>
      </trkpt>
      <trkpt lat="48.88735" lon="2.31437">
        <ele>73</ele>
        <time>2013-10-15T18:24:34.530Z</time>
      </trkpt>
      <trkpt lat="48.88735" lon="2.31436">
        <ele>72</ele>
        <time>2013-10-15T18:24:35.538Z</time>
      </trkpt>
      <trkpt lat="48.88728" lon="2.31433">
        <ele>82</ele>
        <time>2013-10-15T18:24:44.524Z</time>
      </trkpt>
      <trkpt lat="48.88725" lon="2.31436">
        <ele>81</ele>
        <time>2013-10-15T18:24:45.533Z</time>
      </trkpt>
      <trkpt lat="48.8872" lon="2.31444">
        <ele>81</ele>
        <time>2013-10-15T18:24:47.530Z</time>
      </trkpt>
      <trkpt lat="48.88717" lon="2.3145">
        <ele>80</ele>
        <time>2013-10-15T18:24:48.527Z</time>
      </trkpt>
      <trkpt lat="48.88714" lon="2.31456">
        <ele>82</ele>
        <time>2013-10-15T18:24:49.527Z</time>
      </trkpt>
      <trkpt lat="48.88712" lon="2.31461">
        <ele>83</ele>
        <time>2013-10-15T18:24:50.526Z</time>
      </trkpt>
      <trkpt lat="48.88706" lon="2.31472">
        <ele>82</ele>
        <time>2013-10-15T18:24:52.526Z</time>
      </trkpt>
      <trkpt lat="48.88703" lon="2.31478">
        <ele>83</ele>
        <time>2013-10-15T18:24:53.668Z</time>
      </trkpt>
      <trkpt lat="48.88701" lon="2.31483">
        <ele>82</ele>
        <time>2013-10-15T18:24:54.556Z</time>
      </trkpt>
      <trkpt lat="48.88698" lon="2.31489">
        <ele>83</ele>
        <time>2013-10-15T18:24:55.530Z</time>
      </trkpt>
      <trkpt lat="48.88695" lon="2.31495">
        <ele>83</ele>
        <time>2013-10-15T18:24:56.533Z</time>
      </trkpt>
      <trkpt lat="48.88693" lon="2.315">
        <ele>84</ele>
        <time>2013-10-15T18:24:57.529Z</time>
      </trkpt>
      <trkpt lat="48.88687" lon="2.3151">
        <ele>84</ele>
        <time>2013-10-15T18:24:59.531Z</time>
      </trkpt>
      <trkpt lat="48.88684" lon="2.31515">
        <ele>85</ele>
        <time>2013-10-15T18:25:00.534Z</time>
      </trkpt>
      <trkpt lat="48.88679" lon="2.31526">
        <ele>86</ele>
        <time>2013-10-15T18:25:02.531Z</time>
      </trkpt>
      <trkpt lat="48.88676" lon="2.31531">
        <ele>84</ele>
        <time>2013-10-15T18:25:03.531Z</time>
      </trkpt>
      <trkpt lat="48.88671" lon="2.31541">
        <ele>82</ele>
        <time>2013-10-15T18:25:05.544Z</time>
      </trkpt>
      <trkpt lat="48.88668" lon="2.31546">
        <ele>80</ele>
        <time>2013-10-15T18:25:06.532Z</time>
      </trkpt>
      <trkpt lat="48.88662" lon="2.31556">
        <ele>83</ele>
        <time>2013-10-15T18:25:08.538Z</time>
      </trkpt>
      <trkpt lat="48.88659" lon="2.3156">
        <ele>81</ele>
        <time>2013-10-15T18:25:09.533Z</time>
      </trkpt>
      <trkpt lat="48.88655" lon="2.31569">
        <ele>84</ele>
        <time>2013-10-15T18:25:11.534Z</time>
      </trkpt>
      <trkpt lat="48.88652" lon="2.31573">
        <ele>86</ele>
        <time>2013-10-15T18:25:12.535Z</time>
      </trkpt>
      <trkpt lat="48.88648" lon="2.31581">
        <ele>86</ele>
        <time>2013-10-15T18:25:14.530Z</time>
      </trkpt>
      <trkpt lat="48.88645" lon="2.31586">
        <ele>85</ele>
        <time>2013-10-15T18:25:15.533Z</time>
      </trkpt>
      <trkpt lat="48.88639" lon="2.31595">
        <ele>86</ele>
        <time>2013-10-15T18:25:17.533Z</time>
      </trkpt>
      <trkpt lat="48.88636" lon="2.31599">
        <ele>87</ele>
        <time>2013-10-15T18:25:18.538Z</time>
      </trkpt>
      <trkpt lat="48.8863" lon="2.31608">
        <ele>88</ele>
        <time>2013-10-15T18:25:20.534Z</time>
      </trkpt>
      <trkpt lat="48.88626" lon="2.31613">
        <ele>86</ele>
        <time>2013-10-15T18:25:21.538Z</time>
      </trkpt>
      <trkpt lat="48.88619" lon="2.31622">
        <ele>86</ele>
        <time>2013-10-15T18:25:23.544Z</time>
      </trkpt>
      <trkpt lat="48.88616" lon="2.31626">
        <ele>87</ele>
        <time>2013-10-15T18:25:24.537Z</time>
      </trkpt>
      <trkpt lat="48.88609" lon="2.31634">
        <ele>87</ele>
        <time>2013-10-15T18:25:26.534Z</time>
      </trkpt>
      <trkpt lat="48.88605" lon="2.31639">
        <ele>85</ele>
        <time>2013-10-15T18:25:27.532Z</time>
      </trkpt>
      <trkpt lat="48.88602" lon="2.31643">
        <ele>86</ele>
        <time>2013-10-15T18:25:28.530Z</time>
      </trkpt>
      <trkpt lat="48.88598" lon="2.31647">
        <ele>86</ele>
        <time>2013-10-15T18:25:29.529Z</time>
      </trkpt>
      <trkpt lat="48.88594" lon="2.31652">
        <ele>87</ele>
        <time>2013-10-15T18:25:30.532Z</time>
      </trkpt>
      <trkpt lat="48.8859" lon="2.31655">
        <ele>88</ele>
        <time>2013-10-15T18:25:31.535Z</time>
      </trkpt>
      <trkpt lat="48.88583" lon="2.31662">
        <ele>92</ele>
        <time>2013-10-15T18:25:33.534Z</time>
      </trkpt>
      <trkpt lat="48.8858" lon="2.31666">
        <ele>90</ele>
        <time>2013-10-15T18:25:34.541Z</time>
      </trkpt>
      <trkpt lat="48.88573" lon="2.31671">
        <ele>89</ele>
        <time>2013-10-15T18:25:36.535Z</time>
      </trkpt>
      <trkpt lat="48.8857" lon="2.31674">
        <ele>86</ele>
        <time>2013-10-15T18:25:37.540Z</time>
      </trkpt>
      <trkpt lat="48.88563" lon="2.31674">
        <ele>90</ele>
        <time>2013-10-15T18:25:39.612Z</time>
      </trkpt>
      <trkpt lat="48.8856" lon="2.31672">
        <ele>93</ele>
        <time>2013-10-15T18:25:40.538Z</time>
      </trkpt>
      <trkpt lat="48.88554" lon="2.31669">
        <ele>90</ele>
        <time>2013-10-15T18:25:42.527Z</time>
      </trkpt>
      <trkpt lat="48.88552" lon="2.31664">
        <ele>89</ele>
        <time>2013-10-15T18:25:43.531Z</time>
      </trkpt>
      <trkpt lat="48.8855" lon="2.31655">
        <ele>87</ele>
        <time>2013-10-15T18:25:45.529Z</time>
      </trkpt>
      <trkpt lat="48.88548" lon="2.3165">
        <ele>87</ele>
        <time>2013-10-15T18:25:46.539Z</time>
      </trkpt>
      <trkpt lat="48.88543" lon="2.31639">
        <ele>90</ele>
        <time>2013-10-15T18:25:49.535Z</time>
      </trkpt>
      <trkpt lat="48.88541" lon="2.31638">
        <ele>92</ele>
        <time>2013-10-15T18:25:50.536Z</time>
      </trkpt>
      <trkpt lat="48.88533" lon="2.31631">
        <ele>90</ele>
        <time>2013-10-15T18:25:53.507Z</time>
      </trkpt>
      <trkpt lat="48.8853" lon="2.31628">
        <ele>91</ele>
        <time>2013-10-15T18:25:54.519Z</time>
      </trkpt>
      <trkpt lat="48.88525" lon="2.31621">
        <ele>89</ele>
        <time>2013-10-15T18:25:56.517Z</time>
      </trkpt>
      <trkpt lat="48.88523" lon="2.31618">
        <ele>89</ele>
        <time>2013-10-15T18:25:57.506Z</time>
      </trkpt>
      <trkpt lat="48.88518" lon="2.31608">
        <ele>89</ele>
        <time>2013-10-15T18:26:00.474Z</time>
      </trkpt>
      <trkpt lat="48.88515" lon="2.31604">
        <ele>90</ele>
        <time>2013-10-15T18:26:01.504Z</time>
      </trkpt>
      <trkpt lat="48.8851" lon="2.31599">
        <ele>91</ele>
        <time>2013-10-15T18:26:03.506Z</time>
      </trkpt>
      <trkpt lat="48.88507" lon="2.31597">
        <ele>91</ele>
        <time>2013-10-15T18:26:04.511Z</time>
      </trkpt>
      <trkpt lat="48.88501" lon="2.31592">
        <ele>91</ele>
        <time>2013-10-15T18:26:06.506Z</time>
      </trkpt>
      <trkpt lat="48.88498" lon="2.31589">
        <ele>91</ele>
        <time>2013-10-15T18:26:07.514Z</time>
      </trkpt>
      <trkpt lat="48.88493" lon="2.31582">
        <ele>88</ele>
        <time>2013-10-15T18:26:09.511Z</time>
      </trkpt>
      <trkpt lat="48.8849" lon="2.31578">
        <ele>88</ele>
        <time>2013-10-15T18:26:10.520Z</time>
      </trkpt>
      <trkpt lat="48.88484" lon="2.31571">
        <ele>86</ele>
        <time>2013-10-15T18:26:12.512Z</time>
      </trkpt>
      <trkpt lat="48.88483" lon="2.31567">
        <ele>87</ele>
        <time>2013-10-15T18:26:13.512Z</time>
      </trkpt>
      <trkpt lat="48.88481" lon="2.31558">
        <ele>89</ele>
        <time>2013-10-15T18:26:15.526Z</time>
      </trkpt>
      <trkpt lat="48.8848" lon="2.31553">
        <ele>92</ele>
        <time>2013-10-15T18:26:16.557Z</time>
      </trkpt>
      <trkpt lat="48.8848" lon="2.31541">
        <ele>92</ele>
        <time>2013-10-15T18:26:18.518Z</time>
      </trkpt>
      <trkpt lat="48.8848" lon="2.31536">
        <ele>92</ele>
        <time>2013-10-15T18:26:19.513Z</time>
      </trkpt>
      <trkpt lat="48.8848" lon="2.31525">
        <ele>92</ele>
        <time>2013-10-15T18:26:21.512Z</time>
      </trkpt>
      <trkpt lat="48.8848" lon="2.31522">
        <ele>95</ele>
        <time>2013-10-15T18:26:22.508Z</time>
      </trkpt>
      <trkpt lat="48.88474" lon="2.31515">
        <ele>94</ele>
        <time>2013-10-15T18:26:25.511Z</time>
      </trkpt>
      <trkpt lat="48.88472" lon="2.31513">
        <ele>91</ele>
        <time>2013-10-15T18:26:26.514Z</time>
      </trkpt>
      <trkpt lat="48.88468" lon="2.31507">
        <ele>87</ele>
        <time>2013-10-15T18:26:28.517Z</time>
      </trkpt>
      <trkpt lat="48.88465" lon="2.31504">
        <ele>86</ele>
        <time>2013-10-15T18:26:29.512Z</time>
      </trkpt>
      <trkpt lat="48.8846" lon="2.31493">
        <ele>93</ele>
        <time>2013-10-15T18:26:32.510Z</time>
      </trkpt>
      <trkpt lat="48.88461" lon="2.31489">
        <ele>93</ele>
        <time>2013-10-15T18:26:33.509Z</time>
      </trkpt>
      <trkpt lat="48.88455" lon="2.3148">
        <ele>96</ele>
        <time>2013-10-15T18:26:36.509Z</time>
      </trkpt>
      <trkpt lat="48.88452" lon="2.31478">
        <ele>99</ele>
        <time>2013-10-15T18:26:37.511Z</time>
      </trkpt>
      <trkpt lat="48.88445" lon="2.31472">
        <ele>96</ele>
        <time>2013-10-15T18:26:40.511Z</time>
      </trkpt>
      <trkpt lat="48.88443" lon="2.31469">
        <ele>96</ele>
        <time>2013-10-15T18:26:41.510Z</time>
      </trkpt>
      <trkpt lat="48.88438" lon="2.31461">
        <ele>97</ele>
        <time>2013-10-15T18:26:44.517Z</time>
      </trkpt>
      <trkpt lat="48.88437" lon="2.31457">
        <ele>96</ele>
        <time>2013-10-15T18:26:45.512Z</time>
      </trkpt>
      <trkpt lat="48.88431" lon="2.31448">
        <ele>95</ele>
        <time>2013-10-15T18:26:48.512Z</time>
      </trkpt>
      <trkpt lat="48.88429" lon="2.31445">
        <ele>96</ele>
        <time>2013-10-15T18:26:49.512Z</time>
      </trkpt>
      <trkpt lat="48.88424" lon="2.31439">
        <ele>95</ele>
        <time>2013-10-15T18:26:51.511Z</time>
      </trkpt>
      <trkpt lat="48.88422" lon="2.31435">
        <ele>97</ele>
        <time>2013-10-15T18:26:52.509Z</time>
      </trkpt>
      <trkpt lat="48.88417" lon="2.31426">
        <ele>97</ele>
        <time>2013-10-15T18:26:55.510Z</time>
      </trkpt>
      <trkpt lat="48.88415" lon="2.31423">
        <ele>96</ele>
        <time>2013-10-15T18:26:56.507Z</time>
      </trkpt>
      <trkpt lat="48.88409" lon="2.31416">
        <ele>95</ele>
        <time>2013-10-15T18:27:00.479Z</time>
      </trkpt>
      <trkpt lat="48.88407" lon="2.31414">
        <ele>95</ele>
        <time>2013-10-15T18:27:01.510Z</time>
      </trkpt>
      <trkpt lat="48.88401" lon="2.31407">
        <ele>91</ele>
        <time>2013-10-15T18:27:04.630Z</time>
      </trkpt>
      <trkpt lat="48.88398" lon="2.31404">
        <ele>92</ele>
        <time>2013-10-15T18:27:05.516Z</time>
      </trkpt>
      <trkpt lat="48.88393" lon="2.31397">
        <ele>95</ele>
        <time>2013-10-15T18:27:07.552Z</time>
      </trkpt>
      <trkpt lat="48.8839" lon="2.31394">
        <ele>93</ele>
        <time>2013-10-15T18:27:08.461Z</time>
      </trkpt>
      <trkpt lat="48.88384" lon="2.31386">
        <ele>93</ele>
        <time>2013-10-15T18:27:10.460Z</time>
      </trkpt>
      <trkpt lat="48.8838" lon="2.31383">
        <ele>95</ele>
        <time>2013-10-15T18:27:11.753Z</time>
      </trkpt>
      <trkpt lat="48.88384" lon="2.31373">
        <ele>101</ele>
        <time>2013-10-15T18:27:23.514Z</time>
      </trkpt>
      <trkpt lat="48.88385" lon="2.31371">
        <ele>102</ele>
        <time>2013-10-15T18:27:24.513Z</time>
      </trkpt>
      <trkpt lat="48.88381" lon="2.31361">
        <ele>101</ele>
        <time>2013-10-15T18:27:28.509Z</time>
      </trkpt>
      <trkpt lat="48.8838" lon="2.31359">
        <ele>102</ele>
        <time>2013-10-15T18:27:29.533Z</time>
      </trkpt>
      <trkpt lat="48.88374" lon="2.3135">
        <ele>100</ele>
        <time>2013-10-15T18:27:34.522Z</time>
      </trkpt>
      <trkpt lat="48.88373" lon="2.31348">
        <ele>101</ele>
        <time>2013-10-15T18:27:35.530Z</time>
      </trkpt>
      <trkpt lat="48.88368" lon="2.31339">
        <ele>100</ele>
        <time>2013-10-15T18:27:39.468Z</time>
      </trkpt>
      <trkpt lat="48.88366" lon="2.31336">
        <ele>101</ele>
        <time>2013-10-15T18:27:40.522Z</time>
      </trkpt>
      <trkpt lat="48.8836" lon="2.31332">
        <ele>100</ele>
        <time>2013-10-15T18:27:42.518Z</time>
      </trkpt>
      <trkpt lat="48.88356" lon="2.3133">
        <ele>100</ele>
        <time>2013-10-15T18:27:43.550Z</time>
      </trkpt>
      <trkpt lat="48.8835" lon="2.31327">
        <ele>99</ele>
        <time>2013-10-15T18:27:45.526Z</time>
      </trkpt>
      <trkpt lat="48.88346" lon="2.31325">
        <ele>98</ele>
        <time>2013-10-15T18:27:46.513Z</time>
      </trkpt>
      <trkpt lat="48.88339" lon="2.3132">
        <ele>95</ele>
        <time>2013-10-15T18:27:48.525Z</time>
      </trkpt>
      <trkpt lat="48.88335" lon="2.31316">
        <ele>95</ele>
        <time>2013-10-15T18:27:49.531Z</time>
      </trkpt>
      <trkpt lat="48.88327" lon="2.3131">
        <ele>96</ele>
        <time>2013-10-15T18:27:51.530Z</time>
      </trkpt>
      <trkpt lat="48.88324" lon="2.31307">
        <ele>98</ele>
        <time>2013-10-15T18:27:52.520Z</time>
      </trkpt>
      <trkpt lat="48.88316" lon="2.31304">
        <ele>100</ele>
        <time>2013-10-15T18:27:54.520Z</time>
      </trkpt>
      <trkpt lat="48.88313" lon="2.313">
        <ele>105</ele>
        <time>2013-10-15T18:27:55.529Z</time>
      </trkpt>
      <trkpt lat="48.88311" lon="2.31289">
        <ele>106</ele>
        <time>2013-10-15T18:27:57.517Z</time>
      </trkpt>
      <trkpt lat="48.8831" lon="2.31283">
        <ele>104</ele>
        <time>2013-10-15T18:27:58.501Z</time>
      </trkpt>
      <trkpt lat="48.88308" lon="2.3127">
        <ele>100</ele>
        <time>2013-10-15T18:28:00.484Z</time>
      </trkpt>
      <trkpt lat="48.88308" lon="2.31262">
        <ele>100</ele>
        <time>2013-10-15T18:28:01.526Z</time>
      </trkpt>
      <trkpt lat="48.88308" lon="2.31251">
        <ele>98</ele>
        <time>2013-10-15T18:28:03.529Z</time>
      </trkpt>
      <trkpt lat="48.88307" lon="2.31248">
        <ele>101</ele>
        <time>2013-10-15T18:28:04.599Z</time>
      </trkpt>
      <trkpt lat="48.88303" lon="2.31237">
        <ele>95</ele>
        <time>2013-10-15T18:28:07.516Z</time>
      </trkpt>
      <trkpt lat="48.88301" lon="2.31234">
        <ele>94</ele>
        <time>2013-10-15T18:28:08.517Z</time>
      </trkpt>
      <trkpt lat="48.88294" lon="2.31229">
        <ele>91</ele>
        <time>2013-10-15T18:28:10.521Z</time>
      </trkpt>
      <trkpt lat="48.88289" lon="2.31227">
        <ele>91</ele>
        <time>2013-10-15T18:28:11.514Z</time>
      </trkpt>
      <trkpt lat="48.88284" lon="2.31225">
        <ele>91</ele>
        <time>2013-10-15T18:28:12.516Z</time>
      </trkpt>
      <trkpt lat="48.88279" lon="2.31221">
        <ele>90</ele>
        <time>2013-10-15T18:28:13.526Z</time>
      </trkpt>
      <trkpt lat="48.88274" lon="2.31218">
        <ele>92</ele>
        <time>2013-10-15T18:28:14.519Z</time>
      </trkpt>
      <trkpt lat="48.88269" lon="2.31215">
        <ele>91</ele>
        <time>2013-10-15T18:28:15.521Z</time>
      </trkpt>
      <trkpt lat="48.88264" lon="2.31212">
        <ele>90</ele>
        <time>2013-10-15T18:28:16.520Z</time>
      </trkpt>
      <trkpt lat="48.8826" lon="2.3121">
        <ele>92</ele>
        <time>2013-10-15T18:28:17.528Z</time>
      </trkpt>
      <trkpt lat="48.88253" lon="2.31207">
        <ele>90</ele>
        <time>2013-10-15T18:28:19.518Z</time>
      </trkpt>
      <trkpt lat="48.88251" lon="2.31206">
        <ele>90</ele>
        <time>2013-10-15T18:28:20.521Z</time>
      </trkpt>
      <trkpt lat="48.88245" lon="2.31198">
        <ele>85</ele>
        <time>2013-10-15T18:28:25.524Z</time>
      </trkpt>
      <trkpt lat="48.88245" lon="2.31196">
        <ele>83</ele>
        <time>2013-10-15T18:28:26.518Z</time>
      </trkpt>
      <trkpt lat="48.88244" lon="2.31183">
        <ele>89</ele>
        <time>2013-10-15T18:28:30.526Z</time>
      </trkpt>
      <trkpt lat="48.88243" lon="2.31181">
        <ele>90</ele>
        <time>2013-10-15T18:28:31.527Z</time>
      </trkpt>
      <trkpt lat="48.88236" lon="2.31176">
        <ele>89</ele>
        <time>2013-10-15T18:28:34.527Z</time>
      </trkpt>
      <trkpt lat="48.88233" lon="2.31174">
        <ele>88</ele>
        <time>2013-10-15T18:28:35.531Z</time>
      </trkpt>
      <trkpt lat="48.88226" lon="2.31168">
        <ele>84</ele>
        <time>2013-10-15T18:28:37.529Z</time>
      </trkpt>
      <trkpt lat="48.88222" lon="2.31166">
        <ele>85</ele>
        <time>2013-10-15T18:28:38.531Z</time>
      </trkpt>
      <trkpt lat="48.88217" lon="2.31165">
        <ele>84</ele>
        <time>2013-10-15T18:28:39.495Z</time>
      </trkpt>
      <trkpt lat="48.88213" lon="2.31163">
        <ele>85</ele>
        <time>2013-10-15T18:28:40.525Z</time>
      </trkpt>
      <trkpt lat="48.88205" lon="2.31158">
        <ele>83</ele>
        <time>2013-10-15T18:28:42.528Z</time>
      </trkpt>
      <trkpt lat="48.88202" lon="2.31154">
        <ele>81</ele>
        <time>2013-10-15T18:28:43.527Z</time>
      </trkpt>
      <trkpt lat="48.88198" lon="2.3115">
        <ele>80</ele>
        <time>2013-10-15T18:28:44.534Z</time>
      </trkpt>
      <trkpt lat="48.88194" lon="2.31146">
        <ele>83</ele>
        <time>2013-10-15T18:28:45.538Z</time>
      </trkpt>
      <trkpt lat="48.88191" lon="2.31141">
        <ele>84</ele>
        <time>2013-10-15T18:28:46.534Z</time>
      </trkpt>
      <trkpt lat="48.88187" lon="2.31136">
        <ele>87</ele>
        <time>2013-10-15T18:28:47.530Z</time>
      </trkpt>
      <trkpt lat="48.88182" lon="2.31125">
        <ele>87</ele>
        <time>2013-10-15T18:28:49.521Z</time>
      </trkpt>
      <trkpt lat="48.88179" lon="2.3112">
        <ele>87</ele>
        <time>2013-10-15T18:28:50.527Z</time>
      </trkpt>
      <trkpt lat="48.88174" lon="2.31111">
        <ele>88</ele>
        <time>2013-10-15T18:28:52.530Z</time>
      </trkpt>
      <trkpt lat="48.88172" lon="2.31106">
        <ele>89</ele>
        <time>2013-10-15T18:28:53.526Z</time>
      </trkpt>
      <trkpt lat="48.88167" lon="2.31098">
        <ele>89</ele>
        <time>2013-10-15T18:28:55.525Z</time>
      </trkpt>
      <trkpt lat="48.88164" lon="2.31094">
        <ele>89</ele>
        <time>2013-10-15T18:28:56.527Z</time>
      </trkpt>
      <trkpt lat="48.88159" lon="2.31085">
        <ele>89</ele>
        <time>2013-10-15T18:28:58.516Z</time>
      </trkpt>
      <trkpt lat="48.88156" lon="2.3108">
        <ele>88</ele>
        <time>2013-10-15T18:28:59.525Z</time>
      </trkpt>
      <trkpt lat="48.88153" lon="2.31077">
        <ele>88</ele>
        <time>2013-10-15T18:29:00.489Z</time>
      </trkpt>
      <trkpt lat="48.88148" lon="2.31074">
        <ele>89</ele>
        <time>2013-10-15T18:29:01.539Z</time>
      </trkpt>
      <trkpt lat="48.88143" lon="2.31071">
        <ele>92</ele>
        <time>2013-10-15T18:29:02.522Z</time>
      </trkpt>
      <trkpt lat="48.88139" lon="2.31069">
        <ele>89</ele>
        <time>2013-10-15T18:29:03.524Z</time>
      </trkpt>
      <trkpt lat="48.88117" lon="2.31049">
        <ele>89</ele>
        <time>2013-10-15T18:29:09.522Z</time>
      </trkpt>
      <trkpt lat="48.88112" lon="2.31043">
        <ele>92</ele>
        <time>2013-10-15T18:29:11.522Z</time>
      </trkpt>
      <trkpt lat="48.88109" lon="2.3104">
        <ele>93</ele>
        <time>2013-10-15T18:29:12.522Z</time>
      </trkpt>
      <trkpt lat="48.881" lon="2.31032">
        <ele>92</ele>
        <time>2013-10-15T18:29:15.531Z</time>
      </trkpt>
      <trkpt lat="48.88093" lon="2.31027">
        <ele>92</ele>
        <time>2013-10-15T18:29:17.530Z</time>
      </trkpt>
      <trkpt lat="48.8809" lon="2.31024">
        <ele>93</ele>
        <time>2013-10-15T18:29:18.605Z</time>
      </trkpt>
      <trkpt lat="48.88083" lon="2.31018">
        <ele>93</ele>
        <time>2013-10-15T18:29:20.526Z</time>
      </trkpt>
      <trkpt lat="48.88065" lon="2.30975">
        <ele>92</ele>
        <time>2013-10-15T18:29:30.518Z</time>
      </trkpt>
      <trkpt lat="48.88066" lon="2.30963">
        <ele>90</ele>
        <time>2013-10-15T18:29:32.523Z</time>
      </trkpt>
      <trkpt lat="48.88066" lon="2.30956">
        <ele>90</ele>
        <time>2013-10-15T18:29:33.538Z</time>
      </trkpt>
      <trkpt lat="48.88068" lon="2.30945">
        <ele>87</ele>
        <time>2013-10-15T18:29:35.532Z</time>
      </trkpt>
      <trkpt lat="48.88069" lon="2.30941">
        <ele>87</ele>
        <time>2013-10-15T18:29:36.524Z</time>
      </trkpt>
      <trkpt lat="48.88073" lon="2.30934">
        <ele>88</ele>
        <time>2013-10-15T18:29:46.532Z</time>
      </trkpt>
      <trkpt lat="48.88073" lon="2.30934">
        <ele>90</ele>
        <time>2013-10-15T18:29:47.533Z</time>
      </trkpt>
      <trkpt lat="48.88072" lon="2.30934">
        <ele>87</ele>
        <time>2013-10-15T18:29:53.530Z</time>
      </trkpt>
      <trkpt lat="48.88072" lon="2.30933">
        <ele>85</ele>
        <time>2013-10-15T18:29:54.530Z</time>
      </trkpt>
      <trkpt lat="48.88065" lon="2.30924">
        <ele>86</ele>
        <time>2013-10-15T18:30:01.537Z</time>
      </trkpt>
      <trkpt lat="48.88064" lon="2.30923">
        <ele>87</ele>
        <time>2013-10-15T18:30:02.542Z</time>
      </trkpt>
      <trkpt lat="48.88062" lon="2.30911">
        <ele>84</ele>
        <time>2013-10-15T18:30:07.534Z</time>
      </trkpt>
      <trkpt lat="48.88062" lon="2.30907">
        <ele>87</ele>
        <time>2013-10-15T18:30:08.542Z</time>
      </trkpt>
      <trkpt lat="48.88061" lon="2.30895">
        <ele>89</ele>
        <time>2013-10-15T18:30:11.538Z</time>
      </trkpt>
      <trkpt lat="48.88061" lon="2.30891">
        <ele>89</ele>
        <time>2013-10-15T18:30:12.537Z</time>
      </trkpt>
      <trkpt lat="48.88058" lon="2.30879">
        <ele>88</ele>
        <time>2013-10-15T18:30:16.563Z</time>
      </trkpt>
      <trkpt lat="48.88057" lon="2.30876">
        <ele>86</ele>
        <time>2013-10-15T18:30:17.536Z</time>
      </trkpt>
      <trkpt lat="48.88053" lon="2.30867">
        <ele>84</ele>
        <time>2013-10-15T18:30:20.533Z</time>
      </trkpt>
      <trkpt lat="48.88051" lon="2.30864">
        <ele>85</ele>
        <time>2013-10-15T18:30:21.543Z</time>
      </trkpt>
      <trkpt lat="48.88047" lon="2.30855">
        <ele>88</ele>
        <time>2013-10-15T18:30:24.538Z</time>
      </trkpt>
      <trkpt lat="48.88045" lon="2.30851">
        <ele>87</ele>
        <time>2013-10-15T18:30:25.538Z</time>
      </trkpt>
      <trkpt lat="48.88041" lon="2.30841">
        <ele>91</ele>
        <time>2013-10-15T18:30:28.534Z</time>
      </trkpt>
      <trkpt lat="48.8804" lon="2.30837">
        <ele>88</ele>
        <time>2013-10-15T18:30:29.579Z</time>
      </trkpt>
      <trkpt lat="48.88039" lon="2.30825">
        <ele>91</ele>
        <time>2013-10-15T18:30:31.534Z</time>
      </trkpt>
      <trkpt lat="48.88038" lon="2.30819">
        <ele>86</ele>
        <time>2013-10-15T18:30:32.530Z</time>
      </trkpt>
      <trkpt lat="48.88037" lon="2.30806">
        <ele>86</ele>
        <time>2013-10-15T18:30:34.534Z</time>
      </trkpt>
      <trkpt lat="48.88036" lon="2.308">
        <ele>87</ele>
        <time>2013-10-15T18:30:35.540Z</time>
      </trkpt>
      <trkpt lat="48.88033" lon="2.30791">
        <ele>89</ele>
        <time>2013-10-15T18:30:37.540Z</time>
      </trkpt>
      <trkpt lat="48.88032" lon="2.30787">
        <ele>88</ele>
        <time>2013-10-15T18:30:38.535Z</time>
      </trkpt>
      <trkpt lat="48.88029" lon="2.30775">
        <ele>82</ele>
        <time>2013-10-15T18:30:41.542Z</time>
      </trkpt>
      <trkpt lat="48.88028" lon="2.3077">
        <ele>83</ele>
        <time>2013-10-15T18:30:42.544Z</time>
      </trkpt>
      <trkpt lat="48.88026" lon="2.30761">
        <ele>85</ele>
        <time>2013-10-15T18:30:44.540Z</time>
      </trkpt>
      <trkpt lat="48.88025" lon="2.30757">
        <ele>87</ele>
        <time>2013-10-15T18:30:45.542Z</time>
      </trkpt>
      <trkpt lat="48.88021" lon="2.30749">
        <ele>84</ele>
        <time>2013-10-15T18:30:47.541Z</time>
      </trkpt>
      <trkpt lat="48.8802" lon="2.30744">
        <ele>83</ele>
        <time>2013-10-15T18:30:48.539Z</time>
      </trkpt>
      <trkpt lat="48.88017" lon="2.30736">
        <ele>88</ele>
        <time>2013-10-15T18:30:50.539Z</time>
      </trkpt>
      <trkpt lat="48.88016" lon="2.30732">
        <ele>88</ele>
        <time>2013-10-15T18:30:51.532Z</time>
      </trkpt>
      <trkpt lat="48.88014" lon="2.30723">
        <ele>85</ele>
        <time>2013-10-15T18:30:53.539Z</time>
      </trkpt>
      <trkpt lat="48.88014" lon="2.30717">
        <ele>81</ele>
        <time>2013-10-15T18:30:54.539Z</time>
      </trkpt>
      <trkpt lat="48.88013" lon="2.30706">
        <ele>80</ele>
        <time>2013-10-15T18:30:56.544Z</time>
      </trkpt>
      <trkpt lat="48.88012" lon="2.30701">
        <ele>81</ele>
        <time>2013-10-15T18:30:57.540Z</time>
      </trkpt>
      <trkpt lat="48.8801" lon="2.30692">
        <ele>86</ele>
        <time>2013-10-15T18:30:59.538Z</time>
      </trkpt>
      <trkpt lat="48.88009" lon="2.30687">
        <ele>89</ele>
        <time>2013-10-15T18:31:00.538Z</time>
      </trkpt>
      <trkpt lat="48.88007" lon="2.30676">
        <ele>88</ele>
        <time>2013-10-15T18:31:02.538Z</time>
      </trkpt>
      <trkpt lat="48.88007" lon="2.30671">
        <ele>87</ele>
        <time>2013-10-15T18:31:03.538Z</time>
      </trkpt>
      <trkpt lat="48.88004" lon="2.30662">
        <ele>88</ele>
        <time>2013-10-15T18:31:05.544Z</time>
      </trkpt>
      <trkpt lat="48.88003" lon="2.30657">
        <ele>89</ele>
        <time>2013-10-15T18:31:06.538Z</time>
      </trkpt>
      <trkpt lat="48.88002" lon="2.30647">
        <ele>87</ele>
        <time>2013-10-15T18:31:08.540Z</time>
      </trkpt>
      <trkpt lat="48.88001" lon="2.30642">
        <ele>87</ele>
        <time>2013-10-15T18:31:09.516Z</time>
      </trkpt>
      <trkpt lat="48.88" lon="2.30631">
        <ele>85</ele>
        <time>2013-10-15T18:31:11.516Z</time>
      </trkpt>
      <trkpt lat="48.87999" lon="2.30626">
        <ele>85</ele>
        <time>2013-10-15T18:31:12.516Z</time>
      </trkpt>
      <trkpt lat="48.87997" lon="2.30617">
        <ele>83</ele>
        <time>2013-10-15T18:31:14.518Z</time>
      </trkpt>
      <trkpt lat="48.87996" lon="2.30612">
        <ele>83</ele>
        <time>2013-10-15T18:31:15.515Z</time>
      </trkpt>
      <trkpt lat="48.87994" lon="2.30603">
        <ele>86</ele>
        <time>2013-10-15T18:31:17.521Z</time>
      </trkpt>
      <trkpt lat="48.87993" lon="2.30599">
        <ele>83</ele>
        <time>2013-10-15T18:31:18.512Z</time>
      </trkpt>
      <trkpt lat="48.8799" lon="2.30589">
        <ele>87</ele>
        <time>2013-10-15T18:31:20.520Z</time>
      </trkpt>
      <trkpt lat="48.87989" lon="2.30585">
        <ele>85</ele>
        <time>2013-10-15T18:31:21.517Z</time>
      </trkpt>
      <trkpt lat="48.87986" lon="2.30575">
        <ele>87</ele>
        <time>2013-10-15T18:31:23.518Z</time>
      </trkpt>
      <trkpt lat="48.87985" lon="2.3057">
        <ele>87</ele>
        <time>2013-10-15T18:31:24.514Z</time>
      </trkpt>
      <trkpt lat="48.8798" lon="2.30563">
        <ele>87</ele>
        <time>2013-10-15T18:31:26.515Z</time>
      </trkpt>
      <trkpt lat="48.87979" lon="2.3056">
        <ele>90</ele>
        <time>2013-10-15T18:31:27.513Z</time>
      </trkpt>
      <trkpt lat="48.87976" lon="2.30549">
        <ele>89</ele>
        <time>2013-10-15T18:31:33.523Z</time>
      </trkpt>
      <trkpt lat="48.87975" lon="2.30546">
        <ele>88</ele>
        <time>2013-10-15T18:31:34.516Z</time>
      </trkpt>
      <trkpt lat="48.87972" lon="2.30534">
        <ele>87</ele>
        <time>2013-10-15T18:31:37.516Z</time>
      </trkpt>
      <trkpt lat="48.87972" lon="2.3053">
        <ele>86</ele>
        <time>2013-10-15T18:31:38.518Z</time>
      </trkpt>
      <trkpt lat="48.87971" lon="2.30518">
        <ele>82</ele>
        <time>2013-10-15T18:31:41.523Z</time>
      </trkpt>
      <trkpt lat="48.87971" lon="2.30513">
        <ele>84</ele>
        <time>2013-10-15T18:31:42.518Z</time>
      </trkpt>
      <trkpt lat="48.8797" lon="2.30503">
        <ele>85</ele>
        <time>2013-10-15T18:31:44.520Z</time>
      </trkpt>
      <trkpt lat="48.87969" lon="2.30499">
        <ele>85</ele>
        <time>2013-10-15T18:31:45.518Z</time>
      </trkpt>
      <trkpt lat="48.87964" lon="2.30488">
        <ele>86</ele>
        <time>2013-10-15T18:31:49.513Z</time>
      </trkpt>
      <trkpt lat="48.87964" lon="2.30486">
        <ele>85</ele>
        <time>2013-10-15T18:31:50.516Z</time>
      </trkpt>
      <trkpt lat="48.87961" lon="2.30474">
        <ele>84</ele>
        <time>2013-10-15T18:31:54.520Z</time>
      </trkpt>
      <trkpt lat="48.8796" lon="2.30469">
        <ele>82</ele>
        <time>2013-10-15T18:31:55.518Z</time>
      </trkpt>
      <trkpt lat="48.87959" lon="2.3046">
        <ele>85</ele>
        <time>2013-10-15T18:31:57.516Z</time>
      </trkpt>
      <trkpt lat="48.87958" lon="2.30454">
        <ele>87</ele>
        <time>2013-10-15T18:31:58.516Z</time>
      </trkpt>
      <trkpt lat="48.87956" lon="2.30443">
        <ele>85</ele>
        <time>2013-10-15T18:32:00.484Z</time>
      </trkpt>
      <trkpt lat="48.87955" lon="2.30438">
        <ele>85</ele>
        <time>2013-10-15T18:32:01.513Z</time>
      </trkpt>
      <trkpt lat="48.87952" lon="2.30427">
        <ele>83</ele>
        <time>2013-10-15T18:32:03.515Z</time>
      </trkpt>
      <trkpt lat="48.87951" lon="2.30421">
        <ele>81</ele>
        <time>2013-10-15T18:32:04.512Z</time>
      </trkpt>
      <trkpt lat="48.87949" lon="2.30409">
        <ele>85</ele>
        <time>2013-10-15T18:32:06.516Z</time>
      </trkpt>
      <trkpt lat="48.87948" lon="2.30403">
        <ele>87</ele>
        <time>2013-10-15T18:32:07.516Z</time>
      </trkpt>
      <trkpt lat="48.87947" lon="2.30393">
        <ele>89</ele>
        <time>2013-10-15T18:32:09.512Z</time>
      </trkpt>
      <trkpt lat="48.87946" lon="2.30388">
        <ele>87</ele>
        <time>2013-10-15T18:32:10.519Z</time>
      </trkpt>
      <trkpt lat="48.87944" lon="2.30377">
        <ele>88</ele>
        <time>2013-10-15T18:32:14.516Z</time>
      </trkpt>
      <trkpt lat="48.87943" lon="2.30374">
        <ele>90</ele>
        <time>2013-10-15T18:32:15.514Z</time>
      </trkpt>
      <trkpt lat="48.87939" lon="2.30363">
        <ele>89</ele>
        <time>2013-10-15T18:32:19.519Z</time>
      </trkpt>
      <trkpt lat="48.87939" lon="2.30359">
        <ele>89</ele>
        <time>2013-10-15T18:32:20.520Z</time>
      </trkpt>
      <trkpt lat="48.8794" lon="2.30347">
        <ele>82</ele>
        <time>2013-10-15T18:32:24.518Z</time>
      </trkpt>
      <trkpt lat="48.8794" lon="2.30345">
        <ele>79</ele>
        <time>2013-10-15T18:32:25.518Z</time>
      </trkpt>
      <trkpt lat="48.87935" lon="2.30336">
        <ele>88</ele>
        <time>2013-10-15T18:32:30.540Z</time>
      </trkpt>
      <trkpt lat="48.87934" lon="2.30334">
        <ele>86</ele>
        <time>2013-10-15T18:32:31.523Z</time>
      </trkpt>
      <trkpt lat="48.87928" lon="2.30326">
        <ele>89</ele>
        <time>2013-10-15T18:32:35.530Z</time>
      </trkpt>
      <trkpt lat="48.87928" lon="2.30324">
        <ele>89</ele>
        <time>2013-10-15T18:32:36.522Z</time>
      </trkpt>
      <trkpt lat="48.8793" lon="2.30312">
        <ele>84</ele>
        <time>2013-10-15T18:32:44.522Z</time>
      </trkpt>
      <trkpt lat="48.8793" lon="2.30312">
        <ele>84</ele>
        <time>2013-10-15T18:32:45.526Z</time>
      </trkpt>
      <trkpt lat="48.8793" lon="2.30312">
        <ele>90</ele>
        <time>2013-10-15T18:32:51.530Z</time>
      </trkpt>
      <trkpt lat="48.87929" lon="2.30309">
        <ele>88</ele>
        <time>2013-10-15T18:32:52.534Z</time>
      </trkpt>
      <trkpt lat="48.87927" lon="2.30301">
        <ele>86</ele>
        <time>2013-10-15T18:32:54.531Z</time>
      </trkpt>
      <trkpt lat="48.87925" lon="2.30296">
        <ele>86</ele>
        <time>2013-10-15T18:32:55.532Z</time>
      </trkpt>
      <trkpt lat="48.87921" lon="2.30287">
        <ele>85</ele>
        <time>2013-10-15T18:32:58.527Z</time>
      </trkpt>
      <trkpt lat="48.87919" lon="2.30284">
        <ele>88</ele>
        <time>2013-10-15T18:32:59.522Z</time>
      </trkpt>
      <trkpt lat="48.87916" lon="2.30274">
        <ele>84</ele>
        <time>2013-10-15T18:33:02.518Z</time>
      </trkpt>
      <trkpt lat="48.87916" lon="2.30269">
        <ele>85</ele>
        <time>2013-10-15T18:33:03.522Z</time>
      </trkpt>
      <trkpt lat="48.87914" lon="2.30259">
        <ele>82</ele>
        <time>2013-10-15T18:33:05.531Z</time>
      </trkpt>
      <trkpt lat="48.87913" lon="2.30254">
        <ele>83</ele>
        <time>2013-10-15T18:33:06.527Z</time>
      </trkpt>
      <trkpt lat="48.87911" lon="2.30241">
        <ele>81</ele>
        <time>2013-10-15T18:33:09.527Z</time>
      </trkpt>
      <trkpt lat="48.8791" lon="2.30239">
        <ele>79</ele>
        <time>2013-10-15T18:33:10.526Z</time>
      </trkpt>
      <trkpt lat="48.87905" lon="2.30232">
        <ele>86</ele>
        <time>2013-10-15T18:33:13.521Z</time>
      </trkpt>
      <trkpt lat="48.87903" lon="2.30229">
        <ele>88</ele>
        <time>2013-10-15T18:33:14.527Z</time>
      </trkpt>
      <trkpt lat="48.879" lon="2.30221">
        <ele>85</ele>
        <time>2013-10-15T18:33:16.526Z</time>
      </trkpt>
      <trkpt lat="48.87898" lon="2.30216">
        <ele>82</ele>
        <time>2013-10-15T18:33:17.521Z</time>
      </trkpt>
      <trkpt lat="48.87896" lon="2.30203">
        <ele>79</ele>
        <time>2013-10-15T18:33:19.527Z</time>
      </trkpt>
      <trkpt lat="48.87895" lon="2.30197">
        <ele>80</ele>
        <time>2013-10-15T18:33:20.527Z</time>
      </trkpt>
      <trkpt lat="48.87893" lon="2.30184">
        <ele>81</ele>
        <time>2013-10-15T18:33:22.521Z</time>
      </trkpt>
      <trkpt lat="48.87892" lon="2.30177">
        <ele>80</ele>
        <time>2013-10-15T18:33:23.528Z</time>
      </trkpt>
      <trkpt lat="48.87889" lon="2.30166">
        <ele>81</ele>
        <time>2013-10-15T18:33:25.526Z</time>
      </trkpt>
      <trkpt lat="48.87887" lon="2.3016">
        <ele>81</ele>
        <time>2013-10-15T18:33:26.527Z</time>
      </trkpt>
      <trkpt lat="48.87884" lon="2.3015">
        <ele>81</ele>
        <time>2013-10-15T18:33:28.527Z</time>
      </trkpt>
      <trkpt lat="48.87883" lon="2.30145">
        <ele>81</ele>
        <time>2013-10-15T18:33:29.526Z</time>
      </trkpt>
      <trkpt lat="48.8788" lon="2.30135">
        <ele>80</ele>
        <time>2013-10-15T18:33:31.527Z</time>
      </trkpt>
      <trkpt lat="48.87879" lon="2.3013">
        <ele>80</ele>
        <time>2013-10-15T18:33:32.526Z</time>
      </trkpt>
      <trkpt lat="48.87877" lon="2.30121">
        <ele>82</ele>
        <time>2013-10-15T18:33:34.521Z</time>
      </trkpt>
      <trkpt lat="48.87877" lon="2.30117">
        <ele>80</ele>
        <time>2013-10-15T18:33:35.530Z</time>
      </trkpt>
      <trkpt lat="48.87876" lon="2.30106">
        <ele>82</ele>
        <time>2013-10-15T18:33:37.524Z</time>
      </trkpt>
      <trkpt lat="48.87875" lon="2.30101">
        <ele>79</ele>
        <time>2013-10-15T18:33:38.531Z</time>
      </trkpt>
      <trkpt lat="48.87873" lon="2.3009">
        <ele>79</ele>
        <time>2013-10-15T18:33:40.527Z</time>
      </trkpt>
      <trkpt lat="48.87871" lon="2.30084">
        <ele>81</ele>
        <time>2013-10-15T18:33:41.575Z</time>
      </trkpt>
      <trkpt lat="48.87868" lon="2.30072">
        <ele>85</ele>
        <time>2013-10-15T18:33:43.534Z</time>
      </trkpt>
      <trkpt lat="48.87867" lon="2.30065">
        <ele>85</ele>
        <time>2013-10-15T18:33:44.536Z</time>
      </trkpt>
      <trkpt lat="48.87864" lon="2.30052">
        <ele>84</ele>
        <time>2013-10-15T18:33:46.524Z</time>
      </trkpt>
      <trkpt lat="48.87863" lon="2.30045">
        <ele>85</ele>
        <time>2013-10-15T18:33:47.528Z</time>
      </trkpt>
      <trkpt lat="48.87861" lon="2.30033">
        <ele>84</ele>
        <time>2013-10-15T18:33:49.527Z</time>
      </trkpt>
      <trkpt lat="48.8786" lon="2.30027">
        <ele>87</ele>
        <time>2013-10-15T18:33:50.528Z</time>
      </trkpt>
      <trkpt lat="48.87857" lon="2.30014">
        <ele>88</ele>
        <time>2013-10-15T18:33:52.528Z</time>
      </trkpt>
      <trkpt lat="48.87856" lon="2.30007">
        <ele>89</ele>
        <time>2013-10-15T18:33:53.526Z</time>
      </trkpt>
      <trkpt lat="48.87854" lon="2.29996">
        <ele>85</ele>
        <time>2013-10-15T18:33:55.524Z</time>
      </trkpt>
      <trkpt lat="48.87852" lon="2.29992">
        <ele>84</ele>
        <time>2013-10-15T18:33:56.525Z</time>
      </trkpt>
      <trkpt lat="48.8785" lon="2.2998">
        <ele>85</ele>
        <time>2013-10-15T18:33:58.531Z</time>
      </trkpt>
      <trkpt lat="48.87849" lon="2.29974">
        <ele>84</ele>
        <time>2013-10-15T18:33:59.515Z</time>
      </trkpt>
      <trkpt lat="48.87846" lon="2.29962">
        <ele>83</ele>
        <time>2013-10-15T18:34:01.530Z</time>
      </trkpt>
      <trkpt lat="48.87845" lon="2.29956">
        <ele>82</ele>
        <time>2013-10-15T18:34:02.526Z</time>
      </trkpt>
      <trkpt lat="48.87842" lon="2.29945">
        <ele>82</ele>
        <time>2013-10-15T18:34:04.526Z</time>
      </trkpt>
      <trkpt lat="48.8784" lon="2.29939">
        <ele>82</ele>
        <time>2013-10-15T18:34:05.535Z</time>
      </trkpt>
      <trkpt lat="48.87837" lon="2.29927">
        <ele>82</ele>
        <time>2013-10-15T18:34:07.530Z</time>
      </trkpt>
      <trkpt lat="48.87836" lon="2.29921">
        <ele>81</ele>
        <time>2013-10-15T18:34:08.533Z</time>
      </trkpt>
      <trkpt lat="48.87834" lon="2.2991">
        <ele>83</ele>
        <time>2013-10-15T18:34:10.535Z</time>
      </trkpt>
      <trkpt lat="48.87833" lon="2.29905">
        <ele>82</ele>
        <time>2013-10-15T18:34:11.536Z</time>
      </trkpt>
      <trkpt lat="48.8783" lon="2.29896">
        <ele>84</ele>
        <time>2013-10-15T18:34:13.529Z</time>
      </trkpt>
      <trkpt lat="48.87829" lon="2.29892">
        <ele>83</ele>
        <time>2013-10-15T18:34:14.534Z</time>
      </trkpt>
      <trkpt lat="48.87827" lon="2.29881">
        <ele>81</ele>
        <time>2013-10-15T18:34:17.536Z</time>
      </trkpt>
      <trkpt lat="48.87826" lon="2.29877">
        <ele>82</ele>
        <time>2013-10-15T18:34:18.535Z</time>
      </trkpt>
      <trkpt lat="48.87822" lon="2.29873">
        <ele>86</ele>
        <time>2013-10-15T18:34:26.536Z</time>
      </trkpt>
      <trkpt lat="48.87822" lon="2.29873">
        <ele>88</ele>
        <time>2013-10-15T18:34:27.535Z</time>
      </trkpt>
      <trkpt lat="48.87822" lon="2.29873">
        <ele>89</ele>
        <time>2013-10-15T18:34:35.542Z</time>
      </trkpt>
      <trkpt lat="48.87821" lon="2.29873">
        <ele>86</ele>
        <time>2013-10-15T18:34:36.535Z</time>
      </trkpt>
      <trkpt lat="48.87814" lon="2.29872">
        <ele>87</ele>
        <time>2013-10-15T18:34:46.534Z</time>
      </trkpt>
      <trkpt lat="48.87812" lon="2.29874">
        <ele>87</ele>
        <time>2013-10-15T18:34:47.533Z</time>
      </trkpt>
      <trkpt lat="48.87805" lon="2.29879">
        <ele>87</ele>
        <time>2013-10-15T18:34:51.530Z</time>
      </trkpt>
      <trkpt lat="48.87802" lon="2.29879">
        <ele>89</ele>
        <time>2013-10-15T18:34:52.533Z</time>
      </trkpt>
      <trkpt lat="48.87797" lon="2.29877">
        <ele>88</ele>
        <time>2013-10-15T18:34:54.652Z</time>
      </trkpt>
      <trkpt lat="48.87794" lon="2.29876">
        <ele>88</ele>
        <time>2013-10-15T18:34:55.529Z</time>
      </trkpt>
      <trkpt lat="48.87787" lon="2.29874">
        <ele>86</ele>
        <time>2013-10-15T18:34:57.531Z</time>
      </trkpt>
      <trkpt lat="48.87785" lon="2.29873">
        <ele>89</ele>
        <time>2013-10-15T18:34:58.532Z</time>
      </trkpt>
      <trkpt lat="48.87777" lon="2.2987">
        <ele>85</ele>
        <time>2013-10-15T18:35:01.534Z</time>
      </trkpt>
      <trkpt lat="48.87774" lon="2.29869">
        <ele>83</ele>
        <time>2013-10-15T18:35:02.529Z</time>
      </trkpt>
      <trkpt lat="48.87768" lon="2.29866">
        <ele>84</ele>
        <time>2013-10-15T18:35:04.539Z</time>
      </trkpt>
      <trkpt lat="48.87765" lon="2.29865">
        <ele>82</ele>
        <time>2013-10-15T18:35:05.538Z</time>
      </trkpt>
      <trkpt lat="48.87758" lon="2.2986">
        <ele>78</ele>
        <time>2013-10-15T18:35:09.535Z</time>
      </trkpt>
      <trkpt lat="48.87757" lon="2.29859">
        <ele>81</ele>
        <time>2013-10-15T18:35:10.546Z</time>
      </trkpt>
      <trkpt lat="48.8775" lon="2.29852">
        <ele>87</ele>
        <time>2013-10-15T18:35:15.529Z</time>
      </trkpt>
      <trkpt lat="48.8775" lon="2.29849">
        <ele>87</ele>
        <time>2013-10-15T18:35:16.533Z</time>
      </trkpt>
      <trkpt lat="48.87751" lon="2.29839">
        <ele>92</ele>
        <time>2013-10-15T18:35:18.534Z</time>
      </trkpt>
      <trkpt lat="48.87753" lon="2.29834">
        <ele>88</ele>
        <time>2013-10-15T18:35:19.532Z</time>
      </trkpt>
      <trkpt lat="48.87758" lon="2.29823">
        <ele>91</ele>
        <time>2013-10-15T18:35:21.538Z</time>
      </trkpt>
      <trkpt lat="48.8776" lon="2.29819">
        <ele>91</ele>
        <time>2013-10-15T18:35:22.542Z</time>
      </trkpt>
      <trkpt lat="48.87762" lon="2.29808">
        <ele>91</ele>
        <time>2013-10-15T18:35:25.542Z</time>
      </trkpt>
      <trkpt lat="48.87761" lon="2.29805">
        <ele>86</ele>
        <time>2013-10-15T18:35:26.546Z</time>
      </trkpt>
      <trkpt lat="48.87754" lon="2.29799">
        <ele>93</ele>
        <time>2013-10-15T18:35:29.535Z</time>
      </trkpt>
      <trkpt lat="48.87752" lon="2.29797">
        <ele>93</ele>
        <time>2013-10-15T18:35:30.595Z</time>
      </trkpt>
      <trkpt lat="48.87747" lon="2.29796">
        <ele>91</ele>
        <time>2013-10-15T18:35:32.538Z</time>
      </trkpt>
      <trkpt lat="48.87743" lon="2.29795">
        <ele>88</ele>
        <time>2013-10-15T18:35:33.539Z</time>
      </trkpt>
      <trkpt lat="48.87737" lon="2.29794">
        <ele>88</ele>
        <time>2013-10-15T18:35:35.539Z</time>
      </trkpt>
      <trkpt lat="48.87733" lon="2.29794">
        <ele>89</ele>
        <time>2013-10-15T18:35:36.530Z</time>
      </trkpt>
      <trkpt lat="48.87727" lon="2.29792">
        <ele>90</ele>
        <time>2013-10-15T18:35:38.534Z</time>
      </trkpt>
      <trkpt lat="48.87724" lon="2.29791">
        <ele>89</ele>
        <time>2013-10-15T18:35:39.566Z</time>
      </trkpt>
      <trkpt lat="48.87716" lon="2.29788">
        <ele>90</ele>
        <time>2013-10-15T18:35:41.534Z</time>
      </trkpt>
      <trkpt lat="48.87713" lon="2.29786">
        <ele>90</ele>
        <time>2013-10-15T18:35:42.535Z</time>
      </trkpt>
      <trkpt lat="48.87705" lon="2.29783">
        <ele>89</ele>
        <time>2013-10-15T18:35:45.535Z</time>
      </trkpt>
      <trkpt lat="48.87703" lon="2.29782">
        <ele>89</ele>
        <time>2013-10-15T18:35:46.532Z</time>
      </trkpt>
      <trkpt lat="48.87696" lon="2.2978">
        <ele>92</ele>
        <time>2013-10-15T18:35:49.534Z</time>
      </trkpt>
      <trkpt lat="48.87693" lon="2.29779">
        <ele>87</ele>
        <time>2013-10-15T18:35:50.539Z</time>
      </trkpt>
      <trkpt lat="48.87687" lon="2.29774">
        <ele>89</ele>
        <time>2013-10-15T18:35:52.542Z</time>
      </trkpt>
      <trkpt lat="48.87684" lon="2.2977">
        <ele>89</ele>
        <time>2013-10-15T18:35:53.535Z</time>
      </trkpt>
      <trkpt lat="48.87681" lon="2.29765">
        <ele>89</ele>
        <time>2013-10-15T18:35:54.542Z</time>
      </trkpt>
      <trkpt lat="48.87677" lon="2.29761">
        <ele>86</ele>
        <time>2013-10-15T18:35:55.538Z</time>
      </trkpt>
      <trkpt lat="48.87671" lon="2.29752">
        <ele>93</ele>
        <time>2013-10-15T18:35:58.548Z</time>
      </trkpt>
      <trkpt lat="48.87669" lon="2.29749">
        <ele>94</ele>
        <time>2013-10-15T18:35:59.543Z</time>
      </trkpt>
      <trkpt lat="48.87664" lon="2.2974">
        <ele>93</ele>
        <time>2013-10-15T18:36:03.538Z</time>
      </trkpt>
      <trkpt lat="48.87662" lon="2.29737">
        <ele>91</ele>
        <time>2013-10-15T18:36:04.547Z</time>
      </trkpt>
      <trkpt lat="48.87657" lon="2.29733">
        <ele>92</ele>
        <time>2013-10-15T18:36:06.546Z</time>
      </trkpt>
      <trkpt lat="48.87654" lon="2.29731">
        <ele>91</ele>
        <time>2013-10-15T18:36:07.537Z</time>
      </trkpt>
      <trkpt lat="48.87646" lon="2.29725">
        <ele>95</ele>
        <time>2013-10-15T18:36:10.547Z</time>
      </trkpt>
      <trkpt lat="48.87643" lon="2.29724">
        <ele>90</ele>
        <time>2013-10-15T18:36:11.535Z</time>
      </trkpt>
      <trkpt lat="48.87636" lon="2.29721">
        <ele>96</ele>
        <time>2013-10-15T18:36:13.536Z</time>
      </trkpt>
      <trkpt lat="48.87633" lon="2.29719">
        <ele>93</ele>
        <time>2013-10-15T18:36:14.545Z</time>
      </trkpt>
      <trkpt lat="48.87626" lon="2.29717">
        <ele>93</ele>
        <time>2013-10-15T18:36:16.546Z</time>
      </trkpt>
      <trkpt lat="48.87623" lon="2.29716">
        <ele>93</ele>
        <time>2013-10-15T18:36:17.537Z</time>
      </trkpt>
      <trkpt lat="48.87615" lon="2.29714">
        <ele>93</ele>
        <time>2013-10-15T18:36:20.544Z</time>
      </trkpt>
      <trkpt lat="48.87612" lon="2.29713">
        <ele>91</ele>
        <time>2013-10-15T18:36:21.538Z</time>
      </trkpt>
      <trkpt lat="48.87606" lon="2.29707">
        <ele>95</ele>
        <time>2013-10-15T18:36:24.515Z</time>
      </trkpt>
      <trkpt lat="48.87603" lon="2.29704">
        <ele>92</ele>
        <time>2013-10-15T18:36:25.511Z</time>
      </trkpt>
      <trkpt lat="48.87597" lon="2.29698">
        <ele>93</ele>
        <time>2013-10-15T18:36:27.514Z</time>
      </trkpt>
      <trkpt lat="48.87593" lon="2.29695">
        <ele>92</ele>
        <time>2013-10-15T18:36:28.515Z</time>
      </trkpt>
      <trkpt lat="48.87587" lon="2.29689">
        <ele>88</ele>
        <time>2013-10-15T18:36:30.516Z</time>
      </trkpt>
      <trkpt lat="48.87585" lon="2.29687">
        <ele>89</ele>
        <time>2013-10-15T18:36:31.515Z</time>
      </trkpt>
      <trkpt lat="48.87578" lon="2.29682">
        <ele>92</ele>
        <time>2013-10-15T18:36:36.515Z</time>
      </trkpt>
      <trkpt lat="48.87576" lon="2.29681">
        <ele>91</ele>
        <time>2013-10-15T18:36:37.515Z</time>
      </trkpt>
      <trkpt lat="48.8757" lon="2.29678">
        <ele>89</ele>
        <time>2013-10-15T18:36:40.515Z</time>
      </trkpt>
      <trkpt lat="48.87567" lon="2.29676">
        <ele>92</ele>
        <time>2013-10-15T18:36:41.516Z</time>
      </trkpt>
      <trkpt lat="48.87561" lon="2.29672">
        <ele>93</ele>
        <time>2013-10-15T18:36:43.515Z</time>
      </trkpt>
      <trkpt lat="48.87557" lon="2.29669">
        <ele>93</ele>
        <time>2013-10-15T18:36:44.514Z</time>
      </trkpt>
      <trkpt lat="48.8755" lon="2.29667">
        <ele>90</ele>
        <time>2013-10-15T18:36:46.471Z</time>
      </trkpt>
      <trkpt lat="48.87546" lon="2.29665">
        <ele>90</ele>
        <time>2013-10-15T18:36:47.562Z</time>
      </trkpt>
      <trkpt lat="48.87539" lon="2.29661">
        <ele>90</ele>
        <time>2013-10-15T18:36:49.522Z</time>
      </trkpt>
      <trkpt lat="48.87536" lon="2.29657">
        <ele>90</ele>
        <time>2013-10-15T18:36:50.518Z</time>
      </trkpt>
      <trkpt lat="48.8753" lon="2.29649">
        <ele>87</ele>
        <time>2013-10-15T18:36:52.526Z</time>
      </trkpt>
      <trkpt lat="48.87528" lon="2.29646">
        <ele>87</ele>
        <time>2013-10-15T18:36:53.524Z</time>
      </trkpt>
      <trkpt lat="48.8752" lon="2.29641">
        <ele>89</ele>
        <time>2013-10-15T18:36:57.514Z</time>
      </trkpt>
      <trkpt lat="48.87518" lon="2.29641">
        <ele>90</ele>
        <time>2013-10-15T18:36:58.524Z</time>
      </trkpt>
      <trkpt lat="48.87509" lon="2.2964">
        <ele>96</ele>
        <time>2013-10-15T18:37:07.522Z</time>
      </trkpt>
      <trkpt lat="48.87508" lon="2.29638">
        <ele>100</ele>
        <time>2013-10-15T18:37:08.526Z</time>
      </trkpt>
      <trkpt lat="48.87504" lon="2.29632">
        <ele>102</ele>
        <time>2013-10-15T18:37:10.527Z</time>
      </trkpt>
      <trkpt lat="48.87502" lon="2.29627">
        <ele>101</ele>
        <time>2013-10-15T18:37:11.532Z</time>
      </trkpt>
      <trkpt lat="48.87497" lon="2.29621">
        <ele>102</ele>
        <time>2013-10-15T18:37:13.523Z</time>
      </trkpt>
      <trkpt lat="48.87495" lon="2.29619">
        <ele>95</ele>
        <time>2013-10-15T18:37:14.518Z</time>
      </trkpt>
      <trkpt lat="48.87487" lon="2.29612">
        <ele>95</ele>
        <time>2013-10-15T18:37:18.563Z</time>
      </trkpt>
      <trkpt lat="48.87486" lon="2.29611">
        <ele>95</ele>
        <time>2013-10-15T18:37:19.518Z</time>
      </trkpt>
      <trkpt lat="48.87478" lon="2.29609">
        <ele>97</ele>
        <time>2013-10-15T18:37:23.526Z</time>
      </trkpt>
      <trkpt lat="48.87476" lon="2.29609">
        <ele>95</ele>
        <time>2013-10-15T18:37:24.520Z</time>
      </trkpt>
      <trkpt lat="48.87469" lon="2.29605">
        <ele>106</ele>
        <time>2013-10-15T18:37:41.526Z</time>
      </trkpt>
      <trkpt lat="48.87469" lon="2.29606">
        <ele>105</ele>
        <time>2013-10-15T18:37:42.526Z</time>
      </trkpt>
      <trkpt lat="48.87469" lon="2.29606">
        <ele>99</ele>
        <time>2013-10-15T18:37:49.526Z</time>
      </trkpt>
      <trkpt lat="48.87468" lon="2.29604">
        <ele>100</ele>
        <time>2013-10-15T18:37:50.524Z</time>
      </trkpt>
      <trkpt lat="48.87466" lon="2.29592">
        <ele>97</ele>
        <time>2013-10-15T18:37:53.512Z</time>
      </trkpt>
      <trkpt lat="48.87467" lon="2.29588">
        <ele>97</ele>
        <time>2013-10-15T18:37:54.530Z</time>
      </trkpt>
      <trkpt lat="48.87469" lon="2.29577">
        <ele>100</ele>
        <time>2013-10-15T18:37:57.531Z</time>
      </trkpt>
      <trkpt lat="48.8747" lon="2.29574">
        <ele>101</ele>
        <time>2013-10-15T18:37:58.539Z</time>
      </trkpt>
      <trkpt lat="48.87472" lon="2.29563">
        <ele>100</ele>
        <time>2013-10-15T18:38:02.577Z</time>
      </trkpt>
      <trkpt lat="48.87473" lon="2.29561">
        <ele>102</ele>
        <time>2013-10-15T18:38:03.474Z</time>
      </trkpt>
      <trkpt lat="48.87477" lon="2.29552">
        <ele>103</ele>
        <time>2013-10-15T18:38:06.538Z</time>
      </trkpt>
      <trkpt lat="48.87478" lon="2.29549">
        <ele>98</ele>
        <time>2013-10-15T18:38:07.499Z</time>
      </trkpt>
      <trkpt lat="48.8748" lon="2.29537">
        <ele>102</ele>
        <time>2013-10-15T18:38:10.539Z</time>
      </trkpt>
      <trkpt lat="48.87481" lon="2.29533">
        <ele>99</ele>
        <time>2013-10-15T18:38:11.499Z</time>
      </trkpt>
      <trkpt lat="48.87482" lon="2.2952">
        <ele>100</ele>
        <time>2013-10-15T18:38:14.538Z</time>
      </trkpt>
      <trkpt lat="48.87482" lon="2.29516">
        <ele>101</ele>
        <time>2013-10-15T18:38:15.530Z</time>
      </trkpt>
      <trkpt lat="48.87483" lon="2.29503">
        <ele>103</ele>
        <time>2013-10-15T18:38:20.538Z</time>
      </trkpt>
      <trkpt lat="48.87482" lon="2.29502">
        <ele>101</ele>
        <time>2013-10-15T18:38:21.615Z</time>
      </trkpt>
      <trkpt lat="48.87485" lon="2.29489">
        <ele>93</ele>
        <time>2013-10-15T18:38:52.526Z</time>
      </trkpt>
      <trkpt lat="48.87485" lon="2.29489">
        <ele>92</ele>
        <time>2013-10-15T18:38:53.530Z</time>
      </trkpt>
      <trkpt lat="48.87485" lon="2.2949">
        <ele>97</ele>
        <time>2013-10-15T18:39:16.479Z</time>
      </trkpt>
      <trkpt lat="48.87485" lon="2.29491">
        <ele>98</ele>
        <time>2013-10-15T18:39:17.532Z</time>
      </trkpt>
      <trkpt lat="48.87489" lon="2.29503">
        <ele>91</ele>
        <time>2013-10-15T18:39:24.534Z</time>
      </trkpt>
      <trkpt lat="48.8749" lon="2.29504">
        <ele>95</ele>
        <time>2013-10-15T18:39:25.516Z</time>
      </trkpt>
      <trkpt lat="48.87491" lon="2.29493">
        <ele>94</ele>
        <time>2013-10-15T18:39:32.534Z</time>
      </trkpt>
      <trkpt lat="48.8749" lon="2.29489">
        <ele>93</ele>
        <time>2013-10-15T18:39:33.538Z</time>
      </trkpt>
      <trkpt lat="48.87488" lon="2.29478">
        <ele>92</ele>
        <time>2013-10-15T18:39:36.542Z</time>
      </trkpt>
      <trkpt lat="48.87486" lon="2.29474">
        <ele>94</ele>
        <time>2013-10-15T18:39:37.548Z</time>
      </trkpt>
      <trkpt lat="48.87483" lon="2.29464">
        <ele>96</ele>
        <time>2013-10-15T18:39:40.538Z</time>
      </trkpt>
      <trkpt lat="48.87483" lon="2.29461">
        <ele>96</ele>
        <time>2013-10-15T18:39:41.538Z</time>
      </trkpt>
      <trkpt lat="48.87481" lon="2.29449">
        <ele>95</ele>
        <time>2013-10-15T18:39:44.543Z</time>
      </trkpt>
      <trkpt lat="48.87481" lon="2.29445">
        <ele>94</ele>
        <time>2013-10-15T18:39:45.537Z</time>
      </trkpt>
      <trkpt lat="48.87479" lon="2.29432">
        <ele>101</ele>
        <time>2013-10-15T18:39:48.505Z</time>
      </trkpt>
      <trkpt lat="48.87478" lon="2.29428">
        <ele>102</ele>
        <time>2013-10-15T18:39:49.534Z</time>
      </trkpt>
      <trkpt lat="48.87476" lon="2.29417">
        <ele>99</ele>
        <time>2013-10-15T18:39:52.538Z</time>
      </trkpt>
      <trkpt lat="48.87475" lon="2.29413">
        <ele>100</ele>
        <time>2013-10-15T18:39:53.539Z</time>
      </trkpt>
      <trkpt lat="48.87473" lon="2.29401">
        <ele>102</ele>
        <time>2013-10-15T18:39:56.538Z</time>
      </trkpt>
      <trkpt lat="48.87473" lon="2.29396">
        <ele>104</ele>
        <time>2013-10-15T18:39:57.539Z</time>
      </trkpt>
      <trkpt lat="48.8747" lon="2.29386">
        <ele>102</ele>
        <time>2013-10-15T18:39:59.538Z</time>
      </trkpt>
      <trkpt lat="48.87468" lon="2.29382">
        <ele>103</ele>
        <time>2013-10-15T18:40:00.506Z</time>
      </trkpt>
      <trkpt lat="48.87465" lon="2.29378">
        <ele>101</ele>
        <time>2013-10-15T18:40:01.543Z</time>
      </trkpt>
      <trkpt lat="48.87459" lon="2.29377">
        <ele>102</ele>
        <time>2013-10-15T18:40:02.542Z</time>
      </trkpt>
      <trkpt lat="48.87454" lon="2.29375">
        <ele>103</ele>
        <time>2013-10-15T18:40:03.543Z</time>
      </trkpt>
      <trkpt lat="48.8745" lon="2.29374">
        <ele>103</ele>
        <time>2013-10-15T18:40:04.547Z</time>
      </trkpt>
      <trkpt lat="48.87442" lon="2.29372">
        <ele>95</ele>
        <time>2013-10-15T18:40:06.538Z</time>
      </trkpt>
      <trkpt lat="48.87439" lon="2.29372">
        <ele>97</ele>
        <time>2013-10-15T18:40:07.544Z</time>
      </trkpt>
      <trkpt lat="48.87432" lon="2.29374">
        <ele>99</ele>
        <time>2013-10-15T18:40:09.542Z</time>
      </trkpt>
      <trkpt lat="48.87429" lon="2.29376">
        <ele>98</ele>
        <time>2013-10-15T18:40:10.536Z</time>
      </trkpt>
      <trkpt lat="48.87421" lon="2.29383">
        <ele>93</ele>
        <time>2013-10-15T18:40:13.543Z</time>
      </trkpt>
      <trkpt lat="48.87419" lon="2.29385">
        <ele>90</ele>
        <time>2013-10-15T18:40:14.546Z</time>
      </trkpt>
      <trkpt lat="48.87423" lon="2.29396">
        <ele>99</ele>
        <time>2013-10-15T18:40:29.546Z</time>
      </trkpt>
      <trkpt lat="48.87423" lon="2.29396">
        <ele>98</ele>
        <time>2013-10-15T18:40:30.555Z</time>
      </trkpt>
      <trkpt lat="48.87423" lon="2.29396">
        <ele>98</ele>
        <time>2013-10-15T18:40:31.554Z</time>
      </trkpt>
      <trkpt lat="48.87423" lon="2.29404">
        <ele>100</ele>
        <time>2013-10-15T18:40:47.539Z</time>
      </trkpt>
      <trkpt lat="48.87347" lon="2.29641">
        <ele>101</ele>
        <time>2013-10-15T18:41:59.859Z</time>
      </trkpt>
      <trkpt lat="48.87342" lon="2.2965">
        <ele>98</ele>
        <time>2013-10-15T18:42:02.849Z</time>
      </trkpt>
      <trkpt lat="48.87343" lon="2.29655">
        <ele>99</ele>
        <time>2013-10-15T18:42:03.835Z</time>
      </trkpt>
      <trkpt lat="48.87345" lon="2.29665">
        <ele>96</ele>
        <time>2013-10-15T18:42:05.837Z</time>
      </trkpt>
      <trkpt lat="48.87345" lon="2.29669">
        <ele>101</ele>
        <time>2013-10-15T18:42:06.838Z</time>
      </trkpt>
      <trkpt lat="48.87338" lon="2.29668">
        <ele>95</ele>
        <time>2013-10-15T18:42:15.884Z</time>
      </trkpt>
      <trkpt lat="48.87336" lon="2.29666">
        <ele>98</ele>
        <time>2013-10-15T18:42:16.852Z</time>
      </trkpt>
      <trkpt lat="48.8733" lon="2.29659">
        <ele>99</ele>
        <time>2013-10-15T18:42:19.844Z</time>
      </trkpt>
      <trkpt lat="48.87328" lon="2.29658">
        <ele>101</ele>
        <time>2013-10-15T18:42:20.848Z</time>
      </trkpt>
      <trkpt lat="48.8732" lon="2.29653">
        <ele>99</ele>
        <time>2013-10-15T18:42:25.843Z</time>
      </trkpt>
      <trkpt lat="48.87318" lon="2.29653">
        <ele>99</ele>
        <time>2013-10-15T18:42:26.844Z</time>
      </trkpt>
      <trkpt lat="48.87311" lon="2.29658">
        <ele>88</ele>
        <time>2013-10-15T18:42:35.277Z</time>
      </trkpt>
      <trkpt lat="48.87312" lon="2.29657">
        <ele>94</ele>
        <time>2013-10-15T18:42:36.334Z</time>
      </trkpt>
      <trkpt lat="48.87313" lon="2.29656">
        <ele>96</ele>
        <time>2013-10-15T18:42:37.274Z</time>
      </trkpt>
      <trkpt lat="48.87307" lon="2.29666">
        <ele>102</ele>
        <time>2013-10-15T18:42:50.159Z</time>
      </trkpt>
      <trkpt lat="48.87306" lon="2.29667">
        <ele>108</ele>
        <time>2013-10-15T18:42:51.153Z</time>
      </trkpt>
      <trkpt lat="48.87298" lon="2.29673">
        <ele>98</ele>
        <time>2013-10-15T18:43:07.113Z</time>
      </trkpt>
      <trkpt lat="48.87298" lon="2.29673">
        <ele>103</ele>
        <time>2013-10-15T18:43:08.137Z</time>
      </trkpt>
      <trkpt lat="48.87298" lon="2.29673">
        <ele>111</ele>
        <time>2013-10-15T18:43:24.164Z</time>
      </trkpt>
      <trkpt lat="48.87297" lon="2.29676">
        <ele>111</ele>
        <time>2013-10-15T18:43:25.161Z</time>
      </trkpt>
      <trkpt lat="48.87295" lon="2.29685">
        <ele>109</ele>
        <time>2013-10-15T18:43:27.161Z</time>
      </trkpt>
      <trkpt lat="48.87294" lon="2.2969">
        <ele>105</ele>
        <time>2013-10-15T18:43:28.161Z</time>
      </trkpt>
      <trkpt lat="48.87293" lon="2.297">
        <ele>110</ele>
        <time>2013-10-15T18:43:30.161Z</time>
      </trkpt>
      <trkpt lat="48.87292" lon="2.29705">
        <ele>109</ele>
        <time>2013-10-15T18:43:31.161Z</time>
      </trkpt>
      <trkpt lat="48.87292" lon="2.29715">
        <ele>110</ele>
        <time>2013-10-15T18:43:33.161Z</time>
      </trkpt>
      <trkpt lat="48.87291" lon="2.2972">
        <ele>109</ele>
        <time>2013-10-15T18:43:34.163Z</time>
      </trkpt>
      <trkpt lat="48.87291" lon="2.29731">
        <ele>109</ele>
        <time>2013-10-15T18:43:36.161Z</time>
      </trkpt>
      <trkpt lat="48.8729" lon="2.29737">
        <ele>108</ele>
        <time>2013-10-15T18:43:37.161Z</time>
      </trkpt>
      <trkpt lat="48.8729" lon="2.29748">
        <ele>104</ele>
        <time>2013-10-15T18:43:39.181Z</time>
      </trkpt>
      <trkpt lat="48.87289" lon="2.29753">
        <ele>99</ele>
        <time>2013-10-15T18:43:40.153Z</time>
      </trkpt>
      <trkpt lat="48.87288" lon="2.29762">
        <ele>98</ele>
        <time>2013-10-15T18:43:42.162Z</time>
      </trkpt>
      <trkpt lat="48.87288" lon="2.29766">
        <ele>100</ele>
        <time>2013-10-15T18:43:43.161Z</time>
      </trkpt>
      <trkpt lat="48.87285" lon="2.29779">
        <ele>100</ele>
        <time>2013-10-15T18:43:46.161Z</time>
      </trkpt>
      <trkpt lat="48.87283" lon="2.29783">
        <ele>95</ele>
        <time>2013-10-15T18:43:47.159Z</time>
      </trkpt>
      <trkpt lat="48.87281" lon="2.29792">
        <ele>95</ele>
        <time>2013-10-15T18:43:49.159Z</time>
      </trkpt>
      <trkpt lat="48.87281" lon="2.29798">
        <ele>93</ele>
        <time>2013-10-15T18:43:50.159Z</time>
      </trkpt>
      <trkpt lat="48.87281" lon="2.29808">
        <ele>93</ele>
        <time>2013-10-15T18:43:52.159Z</time>
      </trkpt>
      <trkpt lat="48.8728" lon="2.29814">
        <ele>93</ele>
        <time>2013-10-15T18:43:53.159Z</time>
      </trkpt>
      <trkpt lat="48.87278" lon="2.2983">
        <ele>95</ele>
        <time>2013-10-15T18:43:56.159Z</time>
      </trkpt>
      <trkpt lat="48.87276" lon="2.29836">
        <ele>95</ele>
        <time>2013-10-15T18:43:57.159Z</time>
      </trkpt>
      <trkpt lat="48.87273" lon="2.29844">
        <ele>94</ele>
        <time>2013-10-15T18:43:58.159Z</time>
      </trkpt>
      <trkpt lat="48.8727" lon="2.29853">
        <ele>94</ele>
        <time>2013-10-15T18:43:59.159Z</time>
      </trkpt>
      <trkpt lat="48.87266" lon="2.29862">
        <ele>93</ele>
        <time>2013-10-15T18:44:00.234Z</time>
      </trkpt>
      <trkpt lat="48.87262" lon="2.29871">
        <ele>93</ele>
        <time>2013-10-15T18:44:01.159Z</time>
      </trkpt>
      <trkpt lat="48.87257" lon="2.2988">
        <ele>94</ele>
        <time>2013-10-15T18:44:02.157Z</time>
      </trkpt>
      <trkpt lat="48.8725" lon="2.29897">
        <ele>92</ele>
        <time>2013-10-15T18:44:04.163Z</time>
      </trkpt>
      <trkpt lat="48.87247" lon="2.29905">
        <ele>93</ele>
        <time>2013-10-15T18:44:05.167Z</time>
      </trkpt>
      <trkpt lat="48.87243" lon="2.29914">
        <ele>92</ele>
        <time>2013-10-15T18:44:06.159Z</time>
      </trkpt>
      <trkpt lat="48.8724" lon="2.29921">
        <ele>92</ele>
        <time>2013-10-15T18:44:07.166Z</time>
      </trkpt>
      <trkpt lat="48.87237" lon="2.29929">
        <ele>92</ele>
        <time>2013-10-15T18:44:08.157Z</time>
      </trkpt>
      <trkpt lat="48.87234" lon="2.29936">
        <ele>91</ele>
        <time>2013-10-15T18:44:09.173Z</time>
      </trkpt>
      <trkpt lat="48.87232" lon="2.29943">
        <ele>90</ele>
        <time>2013-10-15T18:44:10.161Z</time>
      </trkpt>
      <trkpt lat="48.8723" lon="2.2995">
        <ele>92</ele>
        <time>2013-10-15T18:44:11.171Z</time>
      </trkpt>
      <trkpt lat="48.87228" lon="2.29957">
        <ele>93</ele>
        <time>2013-10-15T18:44:12.163Z</time>
      </trkpt>
      <trkpt lat="48.87225" lon="2.2997">
        <ele>92</ele>
        <time>2013-10-15T18:44:14.160Z</time>
      </trkpt>
      <trkpt lat="48.87224" lon="2.29976">
        <ele>92</ele>
        <time>2013-10-15T18:44:15.171Z</time>
      </trkpt>
      <trkpt lat="48.87221" lon="2.29988">
        <ele>92</ele>
        <time>2013-10-15T18:44:17.154Z</time>
      </trkpt>
      <trkpt lat="48.87203" lon="2.30241">
        <ele>87</ele>
        <time>2013-10-15T18:44:48.192Z</time>
      </trkpt>
      <trkpt lat="48.87199" lon="2.30248">
        <ele>90</ele>
        <time>2013-10-15T18:44:50.195Z</time>
      </trkpt>
      <trkpt lat="48.87188" lon="2.30251">
        <ele>101</ele>
        <time>2013-10-15T18:44:51.203Z</time>
      </trkpt>
      <trkpt lat="48.87175" lon="2.30253">
        <ele>105</ele>
        <time>2013-10-15T18:44:52.177Z</time>
      </trkpt>
      <trkpt lat="48.87165" lon="2.30252">
        <ele>106</ele>
        <time>2013-10-15T18:44:53.181Z</time>
      </trkpt>
      <trkpt lat="48.87157" lon="2.30251">
        <ele>110</ele>
        <time>2013-10-15T18:44:54.189Z</time>
      </trkpt>
      <trkpt lat="48.8715" lon="2.30248">
        <ele>108</ele>
        <time>2013-10-15T18:44:55.167Z</time>
      </trkpt>
      <trkpt lat="48.87144" lon="2.30243">
        <ele>109</ele>
        <time>2013-10-15T18:44:56.165Z</time>
      </trkpt>
      <trkpt lat="48.87139" lon="2.30241">
        <ele>103</ele>
        <time>2013-10-15T18:44:57.166Z</time>
      </trkpt>
      <trkpt lat="48.87131" lon="2.30235">
        <ele>100</ele>
        <time>2013-10-15T18:44:59.166Z</time>
      </trkpt>
      <trkpt lat="48.87127" lon="2.3023">
        <ele>98</ele>
        <time>2013-10-15T18:45:01.165Z</time>
      </trkpt>
      <trkpt lat="48.8712" lon="2.30232">
        <ele>95</ele>
        <time>2013-10-15T18:45:13.169Z</time>
      </trkpt>
      <trkpt lat="48.87118" lon="2.30233">
        <ele>99</ele>
        <time>2013-10-15T18:45:14.168Z</time>
      </trkpt>
      <trkpt lat="48.8711" lon="2.30235">
        <ele>103</ele>
        <time>2013-10-15T18:45:17.169Z</time>
      </trkpt>
      <trkpt lat="48.87109" lon="2.30236">
        <ele>97</ele>
        <time>2013-10-15T18:45:18.165Z</time>
      </trkpt>
      <trkpt lat="48.87116" lon="2.30242">
        <ele>91</ele>
        <time>2013-10-15T18:45:30.171Z</time>
      </trkpt>
      <trkpt lat="48.87117" lon="2.30241">
        <ele>83</ele>
        <time>2013-10-15T18:45:31.177Z</time>
      </trkpt>
      <trkpt lat="48.87122" lon="2.30251">
        <ele>83</ele>
        <time>2013-10-15T18:45:43.167Z</time>
      </trkpt>
      <trkpt lat="48.8712" lon="2.30263">
        <ele>84</ele>
        <time>2013-10-15T18:45:44.180Z</time>
      </trkpt>
      <trkpt lat="48.87119" lon="2.30272">
        <ele>84</ele>
        <time>2013-10-15T18:45:46.173Z</time>
      </trkpt>
      <trkpt lat="48.87119" lon="2.30277">
        <ele>84</ele>
        <time>2013-10-15T18:45:47.173Z</time>
      </trkpt>
      <trkpt lat="48.87118" lon="2.30289">
        <ele>78</ele>
        <time>2013-10-15T18:45:49.173Z</time>
      </trkpt>
      <trkpt lat="48.87116" lon="2.30296">
        <ele>78</ele>
        <time>2013-10-15T18:45:50.168Z</time>
      </trkpt>
      <trkpt lat="48.87112" lon="2.30308">
        <ele>79</ele>
        <time>2013-10-15T18:45:52.174Z</time>
      </trkpt>
      <trkpt lat="48.87109" lon="2.30313">
        <ele>79</ele>
        <time>2013-10-15T18:45:53.173Z</time>
      </trkpt>
      <trkpt lat="48.87104" lon="2.30322">
        <ele>87</ele>
        <time>2013-10-15T18:45:55.356Z</time>
      </trkpt>
      <trkpt lat="48.87101" lon="2.30326">
        <ele>89</ele>
        <time>2013-10-15T18:45:56.169Z</time>
      </trkpt>
      <trkpt lat="48.87096" lon="2.30337">
        <ele>91</ele>
        <time>2013-10-15T18:45:58.170Z</time>
      </trkpt>
      <trkpt lat="48.87094" lon="2.30343">
        <ele>92</ele>
        <time>2013-10-15T18:45:59.167Z</time>
      </trkpt>
      <trkpt lat="48.87092" lon="2.30348">
        <ele>92</ele>
        <time>2013-10-15T18:46:00.248Z</time>
      </trkpt>
      <trkpt lat="48.87084" lon="2.30362">
        <ele>88</ele>
        <time>2013-10-15T18:46:05.174Z</time>
      </trkpt>
      <trkpt lat="48.8708" lon="2.30367">
        <ele>79</ele>
        <time>2013-10-15T18:46:09.175Z</time>
      </trkpt>
      <trkpt lat="48.87078" lon="2.30375">
        <ele>80</ele>
        <time>2013-10-15T18:46:10.175Z</time>
      </trkpt>
      <trkpt lat="48.87075" lon="2.30386">
        <ele>76</ele>
        <time>2013-10-15T18:46:11.174Z</time>
      </trkpt>
      <trkpt lat="48.87073" lon="2.30398">
        <ele>77</ele>
        <time>2013-10-15T18:46:12.174Z</time>
      </trkpt>
      <trkpt lat="48.87072" lon="2.30409">
        <ele>84</ele>
        <time>2013-10-15T18:46:13.174Z</time>
      </trkpt>
      <trkpt lat="48.87071" lon="2.30418">
        <ele>83</ele>
        <time>2013-10-15T18:46:14.182Z</time>
      </trkpt>
      <trkpt lat="48.8707" lon="2.30427">
        <ele>80</ele>
        <time>2013-10-15T18:46:15.219Z</time>
      </trkpt>
      <trkpt lat="48.8707" lon="2.30435">
        <ele>80</ele>
        <time>2013-10-15T18:46:16.176Z</time>
      </trkpt>
      <trkpt lat="48.87069" lon="2.30443">
        <ele>78</ele>
        <time>2013-10-15T18:46:17.177Z</time>
      </trkpt>
      <trkpt lat="48.87069" lon="2.30451">
        <ele>79</ele>
        <time>2013-10-15T18:46:18.206Z</time>
      </trkpt>
      <trkpt lat="48.87068" lon="2.30458">
        <ele>73</ele>
        <time>2013-10-15T18:46:19.177Z</time>
      </trkpt>
      <trkpt lat="48.87067" lon="2.30467">
        <ele>80</ele>
        <time>2013-10-15T18:46:20.181Z</time>
      </trkpt>
      <trkpt lat="48.87066" lon="2.30476">
        <ele>85</ele>
        <time>2013-10-15T18:46:21.179Z</time>
      </trkpt>
      <trkpt lat="48.87065" lon="2.30485">
        <ele>87</ele>
        <time>2013-10-15T18:46:22.179Z</time>
      </trkpt>
      <trkpt lat="48.87065" lon="2.30494">
        <ele>92</ele>
        <time>2013-10-15T18:46:23.178Z</time>
      </trkpt>
      <trkpt lat="48.87065" lon="2.30502">
        <ele>95</ele>
        <time>2013-10-15T18:46:24.176Z</time>
      </trkpt>
      <trkpt lat="48.87064" lon="2.30513">
        <ele>99</ele>
        <time>2013-10-15T18:46:26.180Z</time>
      </trkpt>
      <trkpt lat="48.87064" lon="2.30517">
        <ele>100</ele>
        <time>2013-10-15T18:46:27.175Z</time>
      </trkpt>
      <trkpt lat="48.8707" lon="2.3051">
        <ele>94</ele>
        <time>2013-10-15T18:46:38.177Z</time>
      </trkpt>
      <trkpt lat="48.87072" lon="2.30509">
        <ele>93</ele>
        <time>2013-10-15T18:46:39.231Z</time>
      </trkpt>
      <trkpt lat="48.87073" lon="2.30511">
        <ele>88</ele>
        <time>2013-10-15T18:46:45.181Z</time>
      </trkpt>
      <trkpt lat="48.87072" lon="2.30511">
        <ele>88</ele>
        <time>2013-10-15T18:46:46.182Z</time>
      </trkpt>
      <trkpt lat="48.87071" lon="2.30511">
        <ele>90</ele>
        <time>2013-10-15T18:46:47.182Z</time>
      </trkpt>
      <trkpt lat="48.87063" lon="2.30506">
        <ele>91</ele>
        <time>2013-10-15T18:46:52.182Z</time>
      </trkpt>
      <trkpt lat="48.87062" lon="2.30506">
        <ele>88</ele>
        <time>2013-10-15T18:46:53.182Z</time>
      </trkpt>
      <trkpt lat="48.87057" lon="2.30513">
        <ele>84</ele>
        <time>2013-10-15T18:46:57.157Z</time>
      </trkpt>
      <trkpt lat="48.87056" lon="2.30516">
        <ele>85</ele>
        <time>2013-10-15T18:46:58.153Z</time>
      </trkpt>
      <trkpt lat="48.87053" lon="2.30525">
        <ele>86</ele>
        <time>2013-10-15T18:47:01.157Z</time>
      </trkpt>
      <trkpt lat="48.87051" lon="2.30529">
        <ele>82</ele>
        <time>2013-10-15T18:47:02.165Z</time>
      </trkpt>
      <trkpt lat="48.87049" lon="2.30537">
        <ele>81</ele>
        <time>2013-10-15T18:47:04.159Z</time>
      </trkpt>
      <trkpt lat="48.87048" lon="2.30542">
        <ele>83</ele>
        <time>2013-10-15T18:47:05.158Z</time>
      </trkpt>
      <trkpt lat="48.87046" lon="2.30552">
        <ele>83</ele>
        <time>2013-10-15T18:47:07.159Z</time>
      </trkpt>
      <trkpt lat="48.87045" lon="2.30557">
        <ele>82</ele>
        <time>2013-10-15T18:47:08.162Z</time>
      </trkpt>
      <trkpt lat="48.87043" lon="2.30567">
        <ele>81</ele>
        <time>2013-10-15T18:47:10.162Z</time>
      </trkpt>
      <trkpt lat="48.87041" lon="2.30571">
        <ele>82</ele>
        <time>2013-10-15T18:47:11.161Z</time>
      </trkpt>
      <trkpt lat="48.87039" lon="2.30581">
        <ele>83</ele>
        <time>2013-10-15T18:47:13.157Z</time>
      </trkpt>
      <trkpt lat="48.87038" lon="2.30586">
        <ele>84</ele>
        <time>2013-10-15T18:47:14.163Z</time>
      </trkpt>
      <trkpt lat="48.87037" lon="2.30597">
        <ele>82</ele>
        <time>2013-10-15T18:47:16.157Z</time>
      </trkpt>
      <trkpt lat="48.87036" lon="2.30603">
        <ele>82</ele>
        <time>2013-10-15T18:47:17.159Z</time>
      </trkpt>
      <trkpt lat="48.87035" lon="2.30615">
        <ele>81</ele>
        <time>2013-10-15T18:47:19.156Z</time>
      </trkpt>
      <trkpt lat="48.87035" lon="2.30622">
        <ele>89</ele>
        <time>2013-10-15T18:47:20.157Z</time>
      </trkpt>
      <trkpt lat="48.87034" lon="2.30634">
        <ele>90</ele>
        <time>2013-10-15T18:47:22.157Z</time>
      </trkpt>
      <trkpt lat="48.87033" lon="2.3064">
        <ele>91</ele>
        <time>2013-10-15T18:47:23.157Z</time>
      </trkpt>
      <trkpt lat="48.87032" lon="2.3065">
        <ele>94</ele>
        <time>2013-10-15T18:47:25.161Z</time>
      </trkpt>
      <trkpt lat="48.87032" lon="2.30655">
        <ele>92</ele>
        <time>2013-10-15T18:47:26.160Z</time>
      </trkpt>
      <trkpt lat="48.87031" lon="2.30664">
        <ele>92</ele>
        <time>2013-10-15T18:47:28.157Z</time>
      </trkpt>
      <trkpt lat="48.87031" lon="2.30668">
        <ele>91</ele>
        <time>2013-10-15T18:47:29.157Z</time>
      </trkpt>
      <trkpt lat="48.8703" lon="2.30681">
        <ele>91</ele>
        <time>2013-10-15T18:47:32.161Z</time>
      </trkpt>
      <trkpt lat="48.87029" lon="2.30685">
        <ele>94</ele>
        <time>2013-10-15T18:47:33.157Z</time>
      </trkpt>
      <trkpt lat="48.87024" lon="2.30691">
        <ele>93</ele>
        <time>2013-10-15T18:47:36.155Z</time>
      </trkpt>
      <trkpt lat="48.87022" lon="2.30692">
        <ele>95</ele>
        <time>2013-10-15T18:47:37.158Z</time>
      </trkpt>
      <trkpt lat="48.87013" lon="2.3069">
        <ele>93</ele>
        <time>2013-10-15T18:47:39.176Z</time>
      </trkpt>
      <trkpt lat="48.87006" lon="2.30685">
        <ele>93</ele>
        <time>2013-10-15T18:47:40.153Z</time>
      </trkpt>
      <trkpt lat="48.86998" lon="2.30678">
        <ele>91</ele>
        <time>2013-10-15T18:47:41.154Z</time>
      </trkpt>
      <trkpt lat="48.86987" lon="2.30671">
        <ele>90</ele>
        <time>2013-10-15T18:47:43.153Z</time>
      </trkpt>
      <trkpt lat="48.8698" lon="2.30667">
        <ele>90</ele>
        <time>2013-10-15T18:47:44.153Z</time>
      </trkpt>
      <trkpt lat="48.86973" lon="2.30663">
        <ele>91</ele>
        <time>2013-10-15T18:47:45.153Z</time>
      </trkpt>
      <trkpt lat="48.86967" lon="2.3066">
        <ele>90</ele>
        <time>2013-10-15T18:47:46.153Z</time>
      </trkpt>
      <trkpt lat="48.86961" lon="2.30658">
        <ele>93</ele>
        <time>2013-10-15T18:47:47.154Z</time>
      </trkpt>
      <trkpt lat="48.86955" lon="2.30657">
        <ele>92</ele>
        <time>2013-10-15T18:47:48.154Z</time>
      </trkpt>
      <trkpt lat="48.86949" lon="2.30656">
        <ele>92</ele>
        <time>2013-10-15T18:47:49.155Z</time>
      </trkpt>
      <trkpt lat="48.86943" lon="2.30655">
        <ele>93</ele>
        <time>2013-10-15T18:47:50.154Z</time>
      </trkpt>
      <trkpt lat="48.86937" lon="2.30654">
        <ele>92</ele>
        <time>2013-10-15T18:47:51.151Z</time>
      </trkpt>
      <trkpt lat="48.86931" lon="2.30653">
        <ele>92</ele>
        <time>2013-10-15T18:47:52.155Z</time>
      </trkpt>
      <trkpt lat="48.86924" lon="2.30652">
        <ele>92</ele>
        <time>2013-10-15T18:47:53.163Z</time>
      </trkpt>
      <trkpt lat="48.86917" lon="2.30651">
        <ele>94</ele>
        <time>2013-10-15T18:47:54.158Z</time>
      </trkpt>
      <trkpt lat="48.8691" lon="2.3065">
        <ele>95</ele>
        <time>2013-10-15T18:47:55.189Z</time>
      </trkpt>
      <trkpt lat="48.86903" lon="2.30649">
        <ele>92</ele>
        <time>2013-10-15T18:47:56.157Z</time>
      </trkpt>
      <trkpt lat="48.86895" lon="2.30649">
        <ele>91</ele>
        <time>2013-10-15T18:47:57.158Z</time>
      </trkpt>
      <trkpt lat="48.86888" lon="2.3065">
        <ele>91</ele>
        <time>2013-10-15T18:47:58.152Z</time>
      </trkpt>
      <trkpt lat="48.86883" lon="2.30651">
        <ele>91</ele>
        <time>2013-10-15T18:47:59.174Z</time>
      </trkpt>
      <trkpt lat="48.86876" lon="2.30655">
        <ele>89</ele>
        <time>2013-10-15T18:48:01.153Z</time>
      </trkpt>
      <trkpt lat="48.86874" lon="2.30656">
        <ele>89</ele>
        <time>2013-10-15T18:48:02.155Z</time>
      </trkpt>
      <trkpt lat="48.86867" lon="2.30663">
        <ele>88</ele>
        <time>2013-10-15T18:48:06.155Z</time>
      </trkpt>
      <trkpt lat="48.86866" lon="2.30665">
        <ele>88</ele>
        <time>2013-10-15T18:48:07.153Z</time>
      </trkpt>
      <trkpt lat="48.86865" lon="2.30669">
        <ele>91</ele>
        <time>2013-10-15T18:48:09.155Z</time>
      </trkpt>
      <trkpt lat="48.86863" lon="2.30678">
        <ele>91</ele>
        <time>2013-10-15T18:48:11.153Z</time>
      </trkpt>
      <trkpt lat="48.86863" lon="2.30689">
        <ele>93</ele>
        <time>2013-10-15T18:48:13.153Z</time>
      </trkpt>
      <trkpt lat="48.86863" lon="2.30697">
        <ele>92</ele>
        <time>2013-10-15T18:48:14.156Z</time>
      </trkpt>
      <trkpt lat="48.86863" lon="2.30707">
        <ele>92</ele>
        <time>2013-10-15T18:48:16.153Z</time>
      </trkpt>
      <trkpt lat="48.86863" lon="2.30713">
        <ele>88</ele>
        <time>2013-10-15T18:48:17.152Z</time>
      </trkpt>
      <trkpt lat="48.86864" lon="2.30722">
        <ele>88</ele>
        <time>2013-10-15T18:48:22.153Z</time>
      </trkpt>
      <trkpt lat="48.86862" lon="2.30727">
        <ele>92</ele>
        <time>2013-10-15T18:48:23.157Z</time>
      </trkpt>
      <trkpt lat="48.86859" lon="2.30735">
        <ele>92</ele>
        <time>2013-10-15T18:48:26.157Z</time>
      </trkpt>
      <trkpt lat="48.86853" lon="2.30741">
        <ele>91</ele>
        <time>2013-10-15T18:48:27.159Z</time>
      </trkpt>
      <trkpt lat="48.86845" lon="2.30747">
        <ele>92</ele>
        <time>2013-10-15T18:48:28.163Z</time>
      </trkpt>
      <trkpt lat="48.86836" lon="2.30752">
        <ele>88</ele>
        <time>2013-10-15T18:48:29.159Z</time>
      </trkpt>
      <trkpt lat="48.86829" lon="2.30756">
        <ele>88</ele>
        <time>2013-10-15T18:48:30.189Z</time>
      </trkpt>
      <trkpt lat="48.86824" lon="2.30758">
        <ele>88</ele>
        <time>2013-10-15T18:48:31.163Z</time>
      </trkpt>
      <trkpt lat="48.86816" lon="2.3076">
        <ele>88</ele>
        <time>2013-10-15T18:48:34.161Z</time>
      </trkpt>
      <trkpt lat="48.86812" lon="2.30756">
        <ele>92</ele>
        <time>2013-10-15T18:48:35.161Z</time>
      </trkpt>
      <trkpt lat="48.86809" lon="2.30752">
        <ele>92</ele>
        <time>2013-10-15T18:48:36.232Z</time>
      </trkpt>
      <trkpt lat="48.86805" lon="2.30745">
        <ele>91</ele>
        <time>2013-10-15T18:48:37.161Z</time>
      </trkpt>
      <trkpt lat="48.86799" lon="2.30741">
        <ele>89</ele>
        <time>2013-10-15T18:48:38.294Z</time>
      </trkpt>
      <trkpt lat="48.86793" lon="2.30738">
        <ele>90</ele>
        <time>2013-10-15T18:48:39.193Z</time>
      </trkpt>
      <trkpt lat="48.86785" lon="2.30735">
        <ele>91</ele>
        <time>2013-10-15T18:48:41.162Z</time>
      </trkpt>
      <trkpt lat="48.86776" lon="2.30732">
        <ele>93</ele>
        <time>2013-10-15T18:48:46.163Z</time>
      </trkpt>
      <trkpt lat="48.86784" lon="2.30738">
        <ele>93</ele>
        <time>2013-10-15T18:48:49.163Z</time>
      </trkpt>
      <trkpt lat="48.86785" lon="2.30739">
        <ele>93</ele>
        <time>2013-10-15T18:48:50.162Z</time>
      </trkpt>
      <trkpt lat="48.86788" lon="2.30729">
        <ele>94</ele>
        <time>2013-10-15T18:48:57.165Z</time>
      </trkpt>
      <trkpt lat="48.86789" lon="2.30722">
        <ele>92</ele>
        <time>2013-10-15T18:48:58.166Z</time>
      </trkpt>
      <trkpt lat="48.86791" lon="2.30715">
        <ele>89</ele>
        <time>2013-10-15T18:48:59.165Z</time>
      </trkpt>
      <trkpt lat="48.86793" lon="2.30707">
        <ele>90</ele>
        <time>2013-10-15T18:49:00.221Z</time>
      </trkpt>
      <trkpt lat="48.86795" lon="2.30698">
        <ele>87</ele>
        <time>2013-10-15T18:49:01.165Z</time>
      </trkpt>
      <trkpt lat="48.86797" lon="2.30689">
        <ele>87</ele>
        <time>2013-10-15T18:49:02.161Z</time>
      </trkpt>
      <trkpt lat="48.86799" lon="2.30679">
        <ele>88</ele>
        <time>2013-10-15T18:49:03.161Z</time>
      </trkpt>
      <trkpt lat="48.86804" lon="2.3065">
        <ele>86</ele>
        <time>2013-10-15T18:49:06.165Z</time>
      </trkpt>
      <trkpt lat="48.86807" lon="2.30638">
        <ele>88</ele>
        <time>2013-10-15T18:49:07.165Z</time>
      </trkpt>
      <trkpt lat="48.8681" lon="2.30627">
        <ele>88</ele>
        <time>2013-10-15T18:49:08.160Z</time>
      </trkpt>
      <trkpt lat="48.86814" lon="2.3061">
        <ele>90</ele>
        <time>2013-10-15T18:49:10.165Z</time>
      </trkpt>
      <trkpt lat="48.86816" lon="2.30603">
        <ele>87</ele>
        <time>2013-10-15T18:49:11.163Z</time>
      </trkpt>
      <trkpt lat="48.86817" lon="2.30596">
        <ele>89</ele>
        <time>2013-10-15T18:49:12.160Z</time>
      </trkpt>
      <trkpt lat="48.86819" lon="2.30588">
        <ele>89</ele>
        <time>2013-10-15T18:49:13.160Z</time>
      </trkpt>
      <trkpt lat="48.86821" lon="2.30581">
        <ele>89</ele>
        <time>2013-10-15T18:49:14.164Z</time>
      </trkpt>
      <trkpt lat="48.86822" lon="2.30573">
        <ele>89</ele>
        <time>2013-10-15T18:49:15.165Z</time>
      </trkpt>
      <trkpt lat="48.86826" lon="2.30558">
        <ele>89</ele>
        <time>2013-10-15T18:49:17.165Z</time>
      </trkpt>
      <trkpt lat="48.86829" lon="2.3055">
        <ele>90</ele>
        <time>2013-10-15T18:49:18.338Z</time>
      </trkpt>
      <trkpt lat="48.86827" lon="2.30541">
        <ele>90</ele>
        <time>2013-10-15T18:49:19.215Z</time>
      </trkpt>
      <trkpt lat="48.86826" lon="2.30529">
        <ele>90</ele>
        <time>2013-10-15T18:49:20.225Z</time>
      </trkpt>
      <trkpt lat="48.86825" lon="2.30518">
        <ele>86</ele>
        <time>2013-10-15T18:49:21.172Z</time>
      </trkpt>
      <trkpt lat="48.86825" lon="2.30508">
        <ele>81</ele>
        <time>2013-10-15T18:49:22.129Z</time>
      </trkpt>
      <trkpt lat="48.86825" lon="2.30498">
        <ele>84</ele>
        <time>2013-10-15T18:49:23.267Z</time>
      </trkpt>
      <trkpt lat="48.86827" lon="2.30491">
        <ele>85</ele>
        <time>2013-10-15T18:49:24.126Z</time>
      </trkpt>
      <trkpt lat="48.86829" lon="2.30484">
        <ele>84</ele>
        <time>2013-10-15T18:49:25.189Z</time>
      </trkpt>
      <trkpt lat="48.86831" lon="2.30477">
        <ele>85</ele>
        <time>2013-10-15T18:49:26.134Z</time>
      </trkpt>
      <trkpt lat="48.86835" lon="2.30472">
        <ele>87</ele>
        <time>2013-10-15T18:49:27.166Z</time>
      </trkpt>
      <trkpt lat="48.86838" lon="2.30466">
        <ele>87</ele>
        <time>2013-10-15T18:49:28.161Z</time>
      </trkpt>
      <trkpt lat="48.86841" lon="2.3046">
        <ele>89</ele>
        <time>2013-10-15T18:49:29.257Z</time>
      </trkpt>
      <trkpt lat="48.86844" lon="2.30456">
        <ele>92</ele>
        <time>2013-10-15T18:49:30.161Z</time>
      </trkpt>
      <trkpt lat="48.86853" lon="2.30451">
        <ele>89</ele>
        <time>2013-10-15T18:49:32.166Z</time>
      </trkpt>
      <trkpt lat="48.86861" lon="2.30448">
        <ele>84</ele>
        <time>2013-10-15T18:49:34.161Z</time>
      </trkpt>
      <trkpt lat="48.86865" lon="2.30446">
        <ele>88</ele>
        <time>2013-10-15T18:49:35.161Z</time>
      </trkpt>
      <trkpt lat="48.86873" lon="2.30441">
        <ele>89</ele>
        <time>2013-10-15T18:49:37.161Z</time>
      </trkpt>
      <trkpt lat="48.86877" lon="2.30438">
        <ele>92</ele>
        <time>2013-10-15T18:49:38.165Z</time>
      </trkpt>
      <trkpt lat="48.86884" lon="2.3043">
        <ele>92</ele>
        <time>2013-10-15T18:49:42.167Z</time>
      </trkpt>
      <trkpt lat="48.86885" lon="2.30424">
        <ele>90</ele>
        <time>2013-10-15T18:49:43.171Z</time>
      </trkpt>
      <trkpt lat="48.86884" lon="2.30411">
        <ele>88</ele>
        <time>2013-10-15T18:49:45.170Z</time>
      </trkpt>
      <trkpt lat="48.86884" lon="2.30403">
        <ele>89</ele>
        <time>2013-10-15T18:49:46.168Z</time>
      </trkpt>
      <trkpt lat="48.86884" lon="2.30395">
        <ele>93</ele>
        <time>2013-10-15T18:49:47.170Z</time>
      </trkpt>
      <trkpt lat="48.86885" lon="2.30376">
        <ele>89</ele>
        <time>2013-10-15T18:49:51.169Z</time>
      </trkpt>
      <trkpt lat="48.86887" lon="2.30368">
        <ele>90</ele>
        <time>2013-10-15T18:49:53.169Z</time>
      </trkpt>
      <trkpt lat="48.86907" lon="2.30335">
        <ele>90</ele>
        <time>2013-10-15T18:50:02.130Z</time>
      </trkpt>
      <trkpt lat="48.86912" lon="2.30329">
        <ele>90</ele>
        <time>2013-10-15T18:50:04.119Z</time>
      </trkpt>
      <trkpt lat="48.86917" lon="2.30323">
        <ele>89</ele>
        <time>2013-10-15T18:50:06.170Z</time>
      </trkpt>
      <trkpt lat="48.86923" lon="2.30313">
        <ele>90</ele>
        <time>2013-10-15T18:50:11.170Z</time>
      </trkpt>
      <trkpt lat="48.86926" lon="2.30307">
        <ele>89</ele>
        <time>2013-10-15T18:50:12.171Z</time>
      </trkpt>
      <trkpt lat="48.8693" lon="2.30296">
        <ele>83</ele>
        <time>2013-10-15T18:50:14.177Z</time>
      </trkpt>
      <trkpt lat="48.86932" lon="2.30291">
        <ele>84</ele>
        <time>2013-10-15T18:50:15.174Z</time>
      </trkpt>
      <trkpt lat="48.86934" lon="2.30279">
        <ele>90</ele>
        <time>2013-10-15T18:50:21.170Z</time>
      </trkpt>
      <trkpt lat="48.86934" lon="2.30276">
        <ele>90</ele>
        <time>2013-10-15T18:50:22.174Z</time>
      </trkpt>
      <trkpt lat="48.86931" lon="2.30267">
        <ele>86</ele>
        <time>2013-10-15T18:50:30.178Z</time>
      </trkpt>
      <trkpt lat="48.86931" lon="2.30267">
        <ele>86</ele>
        <time>2013-10-15T18:50:31.173Z</time>
      </trkpt>
      <trkpt lat="48.86931" lon="2.30267">
        <ele>86</ele>
        <time>2013-10-15T18:50:33.173Z</time>
      </trkpt>
      <trkpt lat="48.86929" lon="2.30263">
        <ele>90</ele>
        <time>2013-10-15T18:50:34.169Z</time>
      </trkpt>
      <trkpt lat="48.86923" lon="2.30252">
        <ele>90</ele>
        <time>2013-10-15T18:50:39.195Z</time>
      </trkpt>
      <trkpt lat="48.86923" lon="2.30247">
        <ele>87</ele>
        <time>2013-10-15T18:50:40.182Z</time>
      </trkpt>
      <trkpt lat="48.86921" lon="2.30233">
        <ele>90</ele>
        <time>2013-10-15T18:50:42.175Z</time>
      </trkpt>
      <trkpt lat="48.8692" lon="2.30227">
        <ele>87</ele>
        <time>2013-10-15T18:50:43.183Z</time>
      </trkpt>
      <trkpt lat="48.86916" lon="2.30215">
        <ele>88</ele>
        <time>2013-10-15T18:50:45.179Z</time>
      </trkpt>
      <trkpt lat="48.86913" lon="2.30211">
        <ele>87</ele>
        <time>2013-10-15T18:50:46.190Z</time>
      </trkpt>
      <trkpt lat="48.86908" lon="2.30205">
        <ele>89</ele>
        <time>2013-10-15T18:50:48.175Z</time>
      </trkpt>
      <trkpt lat="48.86904" lon="2.30202">
        <ele>89</ele>
        <time>2013-10-15T18:50:49.173Z</time>
      </trkpt>
      <trkpt lat="48.86896" lon="2.30195">
        <ele>87</ele>
        <time>2013-10-15T18:50:51.184Z</time>
      </trkpt>
      <trkpt lat="48.86893" lon="2.30192">
        <ele>87</ele>
        <time>2013-10-15T18:50:52.143Z</time>
      </trkpt>
      <trkpt lat="48.86886" lon="2.30185">
        <ele>90</ele>
        <time>2013-10-15T18:50:55.186Z</time>
      </trkpt>
      <trkpt lat="48.86884" lon="2.30182">
        <ele>90</ele>
        <time>2013-10-15T18:50:56.181Z</time>
      </trkpt>
      <trkpt lat="48.8688" lon="2.30174">
        <ele>92</ele>
        <time>2013-10-15T18:51:00.212Z</time>
      </trkpt>
      <trkpt lat="48.86878" lon="2.3017">
        <ele>89</ele>
        <time>2013-10-15T18:51:01.179Z</time>
      </trkpt>
      <trkpt lat="48.86874" lon="2.3016">
        <ele>94</ele>
        <time>2013-10-15T18:51:04.183Z</time>
      </trkpt>
      <trkpt lat="48.86873" lon="2.30157">
        <ele>94</ele>
        <time>2013-10-15T18:51:05.175Z</time>
      </trkpt>
      <trkpt lat="48.86868" lon="2.30147">
        <ele>90</ele>
        <time>2013-10-15T18:51:07.185Z</time>
      </trkpt>
      <trkpt lat="48.86864" lon="2.30143">
        <ele>90</ele>
        <time>2013-10-15T18:51:08.182Z</time>
      </trkpt>
      <trkpt lat="48.86859" lon="2.3014">
        <ele>90</ele>
        <time>2013-10-15T18:51:10.178Z</time>
      </trkpt>
      <trkpt lat="48.86854" lon="2.30139">
        <ele>92</ele>
        <time>2013-10-15T18:51:11.178Z</time>
      </trkpt>
      <trkpt lat="48.86847" lon="2.30141">
        <ele>92</ele>
        <time>2013-10-15T18:51:17.183Z</time>
      </trkpt>
      <trkpt lat="48.86843" lon="2.3014">
        <ele>103</ele>
        <time>2013-10-15T18:51:18.181Z</time>
      </trkpt>
      <trkpt lat="48.86836" lon="2.30139">
        <ele>105</ele>
        <time>2013-10-15T18:51:21.185Z</time>
      </trkpt>
      <trkpt lat="48.86833" lon="2.3014">
        <ele>105</ele>
        <time>2013-10-15T18:51:22.185Z</time>
      </trkpt>
      <trkpt lat="48.86825" lon="2.30145">
        <ele>105</ele>
        <time>2013-10-15T18:51:28.179Z</time>
      </trkpt>
      <trkpt lat="48.86823" lon="2.30147">
        <ele>105</ele>
        <time>2013-10-15T18:51:29.187Z</time>
      </trkpt>
      <trkpt lat="48.86817" lon="2.30144">
        <ele>125</ele>
        <time>2013-10-15T18:51:31.179Z</time>
      </trkpt>
      <trkpt lat="48.86814" lon="2.30141">
        <ele>122</ele>
        <time>2013-10-15T18:51:32.191Z</time>
      </trkpt>
      <trkpt lat="48.86811" lon="2.30136">
        <ele>122</ele>
        <time>2013-10-15T18:51:33.175Z</time>
      </trkpt>
      <trkpt lat="48.86807" lon="2.3013">
        <ele>109</ele>
        <time>2013-10-15T18:51:34.179Z</time>
      </trkpt>
      <trkpt lat="48.86803" lon="2.30122">
        <ele>104</ele>
        <time>2013-10-15T18:51:35.181Z</time>
      </trkpt>
      <trkpt lat="48.86798" lon="2.30104">
        <ele>102</ele>
        <time>2013-10-15T18:51:36.184Z</time>
      </trkpt>
      <trkpt lat="48.86794" lon="2.30096">
        <ele>96</ele>
        <time>2013-10-15T18:51:37.177Z</time>
      </trkpt>
      <trkpt lat="48.86791" lon="2.30085">
        <ele>95</ele>
        <time>2013-10-15T18:51:38.182Z</time>
      </trkpt>
      <trkpt lat="48.86789" lon="2.30077">
        <ele>91</ele>
        <time>2013-10-15T18:51:39.214Z</time>
      </trkpt>
      <trkpt lat="48.86786" lon="2.3007">
        <ele>92</ele>
        <time>2013-10-15T18:51:40.185Z</time>
      </trkpt>
      <trkpt lat="48.86784" lon="2.30063">
        <ele>89</ele>
        <time>2013-10-15T18:51:41.184Z</time>
      </trkpt>
      <trkpt lat="48.86783" lon="2.30057">
        <ele>90</ele>
        <time>2013-10-15T18:51:42.191Z</time>
      </trkpt>
      <trkpt lat="48.86779" lon="2.30048">
        <ele>88</ele>
        <time>2013-10-15T18:51:45.182Z</time>
      </trkpt>
      <trkpt lat="48.86777" lon="2.30045">
        <ele>86</ele>
        <time>2013-10-15T18:51:46.181Z</time>
      </trkpt>
      <trkpt lat="48.86772" lon="2.30035">
        <ele>87</ele>
        <time>2013-10-15T18:51:49.182Z</time>
      </trkpt>
      <trkpt lat="48.86769" lon="2.3003">
        <ele>88</ele>
        <time>2013-10-15T18:51:51.171Z</time>
      </trkpt>
      <trkpt lat="48.86764" lon="2.30021">
        <ele>91</ele>
        <time>2013-10-15T18:51:55.213Z</time>
      </trkpt>
      <trkpt lat="48.86763" lon="2.30018">
        <ele>92</ele>
        <time>2013-10-15T18:51:56.186Z</time>
      </trkpt>
      <trkpt lat="48.8676" lon="2.30005">
        <ele>92</ele>
        <time>2013-10-15T18:52:02.186Z</time>
      </trkpt>
      <trkpt lat="48.86759" lon="2.30003">
        <ele>92</ele>
        <time>2013-10-15T18:52:03.180Z</time>
      </trkpt>
      <trkpt lat="48.86757" lon="2.29991">
        <ele>89</ele>
        <time>2013-10-15T18:52:05.183Z</time>
      </trkpt>
      <trkpt lat="48.86755" lon="2.29985">
        <ele>88</ele>
        <time>2013-10-15T18:52:06.197Z</time>
      </trkpt>
      <trkpt lat="48.8675" lon="2.29974">
        <ele>87</ele>
        <time>2013-10-15T18:52:10.152Z</time>
      </trkpt>
      <trkpt lat="48.8675" lon="2.29973">
        <ele>87</ele>
        <time>2013-10-15T18:52:11.172Z</time>
      </trkpt>
      <trkpt lat="48.86744" lon="2.29963">
        <ele>85</ele>
        <time>2013-10-15T18:52:17.163Z</time>
      </trkpt>
      <trkpt lat="48.86741" lon="2.2996">
        <ele>89</ele>
        <time>2013-10-15T18:52:18.156Z</time>
      </trkpt>
      <trkpt lat="48.86738" lon="2.29956">
        <ele>89</ele>
        <time>2013-10-15T18:52:27.164Z</time>
      </trkpt>
      <trkpt lat="48.86738" lon="2.29956">
        <ele>89</ele>
        <time>2013-10-15T18:52:32.167Z</time>
      </trkpt>
      <trkpt lat="48.86739" lon="2.29957">
        <ele>89</ele>
        <time>2013-10-15T18:52:35.167Z</time>
      </trkpt>
      <trkpt lat="48.86733" lon="2.29957">
        <ele>92</ele>
        <time>2013-10-15T18:52:36.198Z</time>
      </trkpt>
      <trkpt lat="48.86727" lon="2.29958">
        <ele>92</ele>
        <time>2013-10-15T18:52:40.163Z</time>
      </trkpt>
      <trkpt lat="48.86722" lon="2.29959">
        <ele>89</ele>
        <time>2013-10-15T18:52:42.165Z</time>
      </trkpt>
      <trkpt lat="48.86713" lon="2.29962">
        <ele>93</ele>
        <time>2013-10-15T18:52:46.176Z</time>
      </trkpt>
      <trkpt lat="48.8671" lon="2.29963">
        <ele>93</ele>
        <time>2013-10-15T18:52:47.158Z</time>
      </trkpt>
      <trkpt lat="48.867" lon="2.29967">
        <ele>92</ele>
        <time>2013-10-15T18:52:50.175Z</time>
      </trkpt>
      <trkpt lat="48.86677" lon="2.29977">
        <ele>91</ele>
        <time>2013-10-15T18:52:54.162Z</time>
      </trkpt>
      <trkpt lat="48.86664" lon="2.29981">
        <ele>94</ele>
        <time>2013-10-15T18:52:56.168Z</time>
      </trkpt>
      <trkpt lat="48.86659" lon="2.29982">
        <ele>94</ele>
        <time>2013-10-15T18:52:57.144Z</time>
      </trkpt>
      <trkpt lat="48.86649" lon="2.29982">
        <ele>90</ele>
        <time>2013-10-15T18:53:01.164Z</time>
      </trkpt>
      <trkpt lat="48.86645" lon="2.2998">
        <ele>91</ele>
        <time>2013-10-15T18:53:08.158Z</time>
      </trkpt>
      <trkpt lat="48.86631" lon="2.2998">
        <ele>91</ele>
        <time>2013-10-15T18:53:12.165Z</time>
      </trkpt>
      <trkpt lat="48.86612" lon="2.2998">
        <ele>92</ele>
        <time>2013-10-15T18:53:17.159Z</time>
      </trkpt>
      <trkpt lat="48.86606" lon="2.2998">
        <ele>92</ele>
        <time>2013-10-15T18:53:18.181Z</time>
      </trkpt>
      <trkpt lat="48.86601" lon="2.2998">
        <ele>92</ele>
        <time>2013-10-15T18:53:19.163Z</time>
      </trkpt>
      <trkpt lat="48.86595" lon="2.29981">
        <ele>93</ele>
        <time>2013-10-15T18:53:20.159Z</time>
      </trkpt>
      <trkpt lat="48.8652" lon="2.29863">
        <ele>88</ele>
        <time>2013-10-15T18:56:01.282Z</time>
      </trkpt>
      <trkpt lat="48.86527" lon="2.29855">
        <ele>87</ele>
        <time>2013-10-15T18:56:02.219Z</time>
      </trkpt>
      <trkpt lat="48.8652" lon="2.29841">
        <ele>83</ele>
        <time>2013-10-15T18:56:05.266Z</time>
      </trkpt>
      <trkpt lat="48.86517" lon="2.29838">
        <ele>82</ele>
        <time>2013-10-15T18:56:06.217Z</time>
      </trkpt>
      <trkpt lat="48.86511" lon="2.29831">
        <ele>81</ele>
        <time>2013-10-15T18:56:08.203Z</time>
      </trkpt>
      <trkpt lat="48.86503" lon="2.29825">
        <ele>77</ele>
        <time>2013-10-15T18:56:10.214Z</time>
      </trkpt>
      <trkpt lat="48.865" lon="2.29821">
        <ele>79</ele>
        <time>2013-10-15T18:56:11.210Z</time>
      </trkpt>
      <trkpt lat="48.86494" lon="2.29814">
        <ele>80</ele>
        <time>2013-10-15T18:56:13.202Z</time>
      </trkpt>
      <trkpt lat="48.86492" lon="2.2981">
        <ele>80</ele>
        <time>2013-10-15T18:56:14.202Z</time>
      </trkpt>
      <trkpt lat="48.86488" lon="2.29803">
        <ele>80</ele>
        <time>2013-10-15T18:56:16.195Z</time>
      </trkpt>
      <trkpt lat="48.86488" lon="2.29798">
        <ele>80</ele>
        <time>2013-10-15T18:56:17.206Z</time>
      </trkpt>
      <trkpt lat="48.86489" lon="2.29788">
        <ele>81</ele>
        <time>2013-10-15T18:56:19.198Z</time>
      </trkpt>
      <trkpt lat="48.86492" lon="2.29782">
        <ele>78</ele>
        <time>2013-10-15T18:56:20.216Z</time>
      </trkpt>
      <trkpt lat="48.86494" lon="2.29775">
        <ele>80</ele>
        <time>2013-10-15T18:56:21.190Z</time>
      </trkpt>
      <trkpt lat="48.86496" lon="2.29769">
        <ele>75</ele>
        <time>2013-10-15T18:56:22.193Z</time>
      </trkpt>
      <trkpt lat="48.86498" lon="2.29763">
        <ele>81</ele>
        <time>2013-10-15T18:56:23.186Z</time>
      </trkpt>
      <trkpt lat="48.865" lon="2.29756">
        <ele>82</ele>
        <time>2013-10-15T18:56:24.187Z</time>
      </trkpt>
      <trkpt lat="48.86502" lon="2.29745">
        <ele>82</ele>
        <time>2013-10-15T18:56:26.193Z</time>
      </trkpt>
      <trkpt lat="48.86503" lon="2.29741">
        <ele>80</ele>
        <time>2013-10-15T18:56:27.191Z</time>
      </trkpt>
      <trkpt lat="48.86503" lon="2.29729">
        <ele>80</ele>
        <time>2013-10-15T18:56:30.194Z</time>
      </trkpt>
      <trkpt lat="48.86503" lon="2.29724">
        <ele>82</ele>
        <time>2013-10-15T18:56:31.193Z</time>
      </trkpt>
      <trkpt lat="48.86504" lon="2.29714">
        <ele>84</ele>
        <time>2013-10-15T18:56:33.187Z</time>
      </trkpt>
      <trkpt lat="48.86505" lon="2.29708">
        <ele>84</ele>
        <time>2013-10-15T18:56:34.190Z</time>
      </trkpt>
      <trkpt lat="48.86506" lon="2.29697">
        <ele>82</ele>
        <time>2013-10-15T18:56:36.190Z</time>
      </trkpt>
      <trkpt lat="48.86506" lon="2.29692">
        <ele>85</ele>
        <time>2013-10-15T18:56:37.195Z</time>
      </trkpt>
      <trkpt lat="48.86505" lon="2.29682">
        <ele>83</ele>
        <time>2013-10-15T18:56:39.235Z</time>
      </trkpt>
      <trkpt lat="48.86505" lon="2.29677">
        <ele>81</ele>
        <time>2013-10-15T18:56:40.224Z</time>
      </trkpt>
      <trkpt lat="48.86504" lon="2.29665">
        <ele>76</ele>
        <time>2013-10-15T18:56:42.198Z</time>
      </trkpt>
      <trkpt lat="48.86503" lon="2.2966">
        <ele>77</ele>
        <time>2013-10-15T18:56:43.196Z</time>
      </trkpt>
      <trkpt lat="48.86502" lon="2.29648">
        <ele>77</ele>
        <time>2013-10-15T18:56:45.195Z</time>
      </trkpt>
      <trkpt lat="48.86502" lon="2.29643">
        <ele>76</ele>
        <time>2013-10-15T18:56:46.193Z</time>
      </trkpt>
      <trkpt lat="48.86502" lon="2.2963">
        <ele>81</ele>
        <time>2013-10-15T18:56:48.195Z</time>
      </trkpt>
      <trkpt lat="48.86501" lon="2.29624">
        <ele>78</ele>
        <time>2013-10-15T18:56:49.194Z</time>
      </trkpt>
      <trkpt lat="48.86501" lon="2.29613">
        <ele>83</ele>
        <time>2013-10-15T18:56:51.184Z</time>
      </trkpt>
      <trkpt lat="48.865" lon="2.29608">
        <ele>82</ele>
        <time>2013-10-15T18:56:52.184Z</time>
      </trkpt>
      <trkpt lat="48.86499" lon="2.29599">
        <ele>81</ele>
        <time>2013-10-15T18:56:54.194Z</time>
      </trkpt>
      <trkpt lat="48.86499" lon="2.29594">
        <ele>79</ele>
        <time>2013-10-15T18:56:55.191Z</time>
      </trkpt>
      <trkpt lat="48.86499" lon="2.29584">
        <ele>79</ele>
        <time>2013-10-15T18:56:57.190Z</time>
      </trkpt>
      <trkpt lat="48.86499" lon="2.2958">
        <ele>85</ele>
        <time>2013-10-15T18:56:58.187Z</time>
      </trkpt>
      <trkpt lat="48.86494" lon="2.29569">
        <ele>87</ele>
        <time>2013-10-15T18:57:02.193Z</time>
      </trkpt>
      <trkpt lat="48.86493" lon="2.29565">
        <ele>87</ele>
        <time>2013-10-15T18:57:03.222Z</time>
      </trkpt>
      <trkpt lat="48.86491" lon="2.29555">
        <ele>86</ele>
        <time>2013-10-15T18:57:05.193Z</time>
      </trkpt>
      <trkpt lat="48.86489" lon="2.29549">
        <ele>86</ele>
        <time>2013-10-15T18:57:06.194Z</time>
      </trkpt>
      <trkpt lat="48.86487" lon="2.29542">
        <ele>84</ele>
        <time>2013-10-15T18:57:07.187Z</time>
      </trkpt>
      <trkpt lat="48.86486" lon="2.29535">
        <ele>89</ele>
        <time>2013-10-15T18:57:08.194Z</time>
      </trkpt>
      <trkpt lat="48.86486" lon="2.29524">
        <ele>87</ele>
        <time>2013-10-15T18:57:10.189Z</time>
      </trkpt>
      <trkpt lat="48.86489" lon="2.29521">
        <ele>88</ele>
        <time>2013-10-15T18:57:11.180Z</time>
      </trkpt>
      <trkpt lat="48.86494" lon="2.29516">
        <ele>85</ele>
        <time>2013-10-15T18:57:13.190Z</time>
      </trkpt>
      <trkpt lat="48.86498" lon="2.29514">
        <ele>83</ele>
        <time>2013-10-15T18:57:14.196Z</time>
      </trkpt>
      <trkpt lat="48.86504" lon="2.29505">
        <ele>82</ele>
        <time>2013-10-15T18:57:17.196Z</time>
      </trkpt>
      <trkpt lat="48.86504" lon="2.295">
        <ele>83</ele>
        <time>2013-10-15T18:57:18.194Z</time>
      </trkpt>
      <trkpt lat="48.86503" lon="2.29494">
        <ele>85</ele>
        <time>2013-10-15T18:57:19.194Z</time>
      </trkpt>
      <trkpt lat="48.865" lon="2.29487">
        <ele>83</ele>
        <time>2013-10-15T18:57:20.194Z</time>
      </trkpt>
      <trkpt lat="48.86497" lon="2.2948">
        <ele>84</ele>
        <time>2013-10-15T18:57:21.272Z</time>
      </trkpt>
      <trkpt lat="48.86495" lon="2.29474">
        <ele>85</ele>
        <time>2013-10-15T18:57:22.197Z</time>
      </trkpt>
      <trkpt lat="48.86493" lon="2.29467">
        <ele>91</ele>
        <time>2013-10-15T18:57:23.199Z</time>
      </trkpt>
      <trkpt lat="48.8649" lon="2.2946">
        <ele>90</ele>
        <time>2013-10-15T18:57:24.194Z</time>
      </trkpt>
      <trkpt lat="48.86486" lon="2.29449">
        <ele>90</ele>
        <time>2013-10-15T18:57:26.169Z</time>
      </trkpt>
      <trkpt lat="48.86485" lon="2.29445">
        <ele>92</ele>
        <time>2013-10-15T18:57:27.170Z</time>
      </trkpt>
      <trkpt lat="48.86487" lon="2.29432">
        <ele>94</ele>
        <time>2013-10-15T18:57:37.165Z</time>
      </trkpt>
      <trkpt lat="48.86486" lon="2.29432">
        <ele>92</ele>
        <time>2013-10-15T18:57:38.168Z</time>
      </trkpt>
      <trkpt lat="48.86486" lon="2.29433">
        <ele>95</ele>
        <time>2013-10-15T18:57:40.159Z</time>
      </trkpt>
      <trkpt lat="48.86486" lon="2.29433">
        <ele>94</ele>
        <time>2013-10-15T18:57:41.173Z</time>
      </trkpt>
      <trkpt lat="48.86487" lon="2.2942">
        <ele>96</ele>
        <time>2013-10-15T18:57:49.171Z</time>
      </trkpt>
      <trkpt lat="48.86488" lon="2.29416">
        <ele>99</ele>
        <time>2013-10-15T18:57:50.177Z</time>
      </trkpt>
      <trkpt lat="48.86488" lon="2.29404">
        <ele>100</ele>
        <time>2013-10-15T18:57:53.173Z</time>
      </trkpt>
      <trkpt lat="48.86487" lon="2.294">
        <ele>98</ele>
        <time>2013-10-15T18:57:54.174Z</time>
      </trkpt>
      <trkpt lat="48.86483" lon="2.29391">
        <ele>88</ele>
        <time>2013-10-15T18:57:57.165Z</time>
      </trkpt>
      <trkpt lat="48.8648" lon="2.29388">
        <ele>89</ele>
        <time>2013-10-15T18:57:58.123Z</time>
      </trkpt>
      <trkpt lat="48.86475" lon="2.2938">
        <ele>92</ele>
        <time>2013-10-15T18:58:00.227Z</time>
      </trkpt>
      <trkpt lat="48.86474" lon="2.29375">
        <ele>90</ele>
        <time>2013-10-15T18:58:01.172Z</time>
      </trkpt>
      <trkpt lat="48.86471" lon="2.29364">
        <ele>85</ele>
        <time>2013-10-15T18:58:03.165Z</time>
      </trkpt>
      <trkpt lat="48.86472" lon="2.29359">
        <ele>87</ele>
        <time>2013-10-15T18:58:04.173Z</time>
      </trkpt>
      <trkpt lat="48.86473" lon="2.29349">
        <ele>94</ele>
        <time>2013-10-15T18:58:06.167Z</time>
      </trkpt>
      <trkpt lat="48.86473" lon="2.29344">
        <ele>90</ele>
        <time>2013-10-15T18:58:07.165Z</time>
      </trkpt>
      <trkpt lat="48.86473" lon="2.29334">
        <ele>90</ele>
        <time>2013-10-15T18:58:09.182Z</time>
      </trkpt>
      <trkpt lat="48.86473" lon="2.2933">
        <ele>89</ele>
        <time>2013-10-15T18:58:10.169Z</time>
      </trkpt>
      <trkpt lat="48.86471" lon="2.29319">
        <ele>86</ele>
        <time>2013-10-15T18:58:12.170Z</time>
      </trkpt>
      <trkpt lat="48.8647" lon="2.29314">
        <ele>85</ele>
        <time>2013-10-15T18:58:13.170Z</time>
      </trkpt>
      <trkpt lat="48.86468" lon="2.29301">
        <ele>83</ele>
        <time>2013-10-15T18:58:15.171Z</time>
      </trkpt>
      <trkpt lat="48.86467" lon="2.29295">
        <ele>87</ele>
        <time>2013-10-15T18:58:16.165Z</time>
      </trkpt>
      <trkpt lat="48.86465" lon="2.29282">
        <ele>85</ele>
        <time>2013-10-15T18:58:18.170Z</time>
      </trkpt>
      <trkpt lat="48.86464" lon="2.29275">
        <ele>88</ele>
        <time>2013-10-15T18:58:19.171Z</time>
      </trkpt>
      <trkpt lat="48.86464" lon="2.29268">
        <ele>91</ele>
        <time>2013-10-15T18:58:20.170Z</time>
      </trkpt>
      <trkpt lat="48.86463" lon="2.2926">
        <ele>91</ele>
        <time>2013-10-15T18:58:21.170Z</time>
      </trkpt>
      <trkpt lat="48.86462" lon="2.29247">
        <ele>87</ele>
        <time>2013-10-15T18:58:23.167Z</time>
      </trkpt>
      <trkpt lat="48.86462" lon="2.29241">
        <ele>88</ele>
        <time>2013-10-15T18:58:24.170Z</time>
      </trkpt>
      <trkpt lat="48.8646" lon="2.29228">
        <ele>88</ele>
        <time>2013-10-15T18:58:26.270Z</time>
      </trkpt>
      <trkpt lat="48.86459" lon="2.29223">
        <ele>91</ele>
        <time>2013-10-15T18:58:27.139Z</time>
      </trkpt>
      <trkpt lat="48.86456" lon="2.29213">
        <ele>87</ele>
        <time>2013-10-15T18:58:29.175Z</time>
      </trkpt>
      <trkpt lat="48.86454" lon="2.29208">
        <ele>88</ele>
        <time>2013-10-15T18:58:30.171Z</time>
      </trkpt>
      <trkpt lat="48.86451" lon="2.29197">
        <ele>90</ele>
        <time>2013-10-15T18:58:32.169Z</time>
      </trkpt>
      <trkpt lat="48.8645" lon="2.29192">
        <ele>89</ele>
        <time>2013-10-15T18:58:33.170Z</time>
      </trkpt>
      <trkpt lat="48.86448" lon="2.2918">
        <ele>86</ele>
        <time>2013-10-15T18:58:35.171Z</time>
      </trkpt>
      <trkpt lat="48.86448" lon="2.29174">
        <ele>87</ele>
        <time>2013-10-15T18:58:36.170Z</time>
      </trkpt>
      <trkpt lat="48.86446" lon="2.29162">
        <ele>90</ele>
        <time>2013-10-15T18:58:38.169Z</time>
      </trkpt>
      <trkpt lat="48.86446" lon="2.29155">
        <ele>93</ele>
        <time>2013-10-15T18:58:39.220Z</time>
      </trkpt>
      <trkpt lat="48.86444" lon="2.29143">
        <ele>94</ele>
        <time>2013-10-15T18:58:41.169Z</time>
      </trkpt>
      <trkpt lat="48.86443" lon="2.29137">
        <ele>92</ele>
        <time>2013-10-15T18:58:42.168Z</time>
      </trkpt>
      <trkpt lat="48.86439" lon="2.29124">
        <ele>87</ele>
        <time>2013-10-15T18:58:44.194Z</time>
      </trkpt>
      <trkpt lat="48.86437" lon="2.29119">
        <ele>84</ele>
        <time>2013-10-15T18:58:45.173Z</time>
      </trkpt>
      <trkpt lat="48.86433" lon="2.29107">
        <ele>89</ele>
        <time>2013-10-15T18:58:47.173Z</time>
      </trkpt>
      <trkpt lat="48.86431" lon="2.29102">
        <ele>88</ele>
        <time>2013-10-15T18:58:48.173Z</time>
      </trkpt>
      <trkpt lat="48.86425" lon="2.29092">
        <ele>91</ele>
        <time>2013-10-15T18:58:50.177Z</time>
      </trkpt>
      <trkpt lat="48.86422" lon="2.29087">
        <ele>92</ele>
        <time>2013-10-15T18:58:51.172Z</time>
      </trkpt>
      <trkpt lat="48.86419" lon="2.29082">
        <ele>95</ele>
        <time>2013-10-15T18:58:52.179Z</time>
      </trkpt>
      <trkpt lat="48.86415" lon="2.29077">
        <ele>91</ele>
        <time>2013-10-15T18:58:53.179Z</time>
      </trkpt>
      <trkpt lat="48.86411" lon="2.29072">
        <ele>94</ele>
        <time>2013-10-15T18:58:54.175Z</time>
      </trkpt>
      <trkpt lat="48.86407" lon="2.29067">
        <ele>98</ele>
        <time>2013-10-15T18:58:55.176Z</time>
      </trkpt>
      <trkpt lat="48.86404" lon="2.29062">
        <ele>97</ele>
        <time>2013-10-15T18:58:56.173Z</time>
      </trkpt>
      <trkpt lat="48.86401" lon="2.29057">
        <ele>95</ele>
        <time>2013-10-15T18:58:57.185Z</time>
      </trkpt>
      <trkpt lat="48.86396" lon="2.29048">
        <ele>92</ele>
        <time>2013-10-15T18:58:59.181Z</time>
      </trkpt>
      <trkpt lat="48.86394" lon="2.29044">
        <ele>93</ele>
        <time>2013-10-15T18:59:00.244Z</time>
      </trkpt>
      <trkpt lat="48.86391" lon="2.29037">
        <ele>95</ele>
        <time>2013-10-15T18:59:02.175Z</time>
      </trkpt>
      <trkpt lat="48.86389" lon="2.29032">
        <ele>97</ele>
        <time>2013-10-15T18:59:03.178Z</time>
      </trkpt>
      <trkpt lat="48.86386" lon="2.29024">
        <ele>97</ele>
        <time>2013-10-15T18:59:05.182Z</time>
      </trkpt>
      <trkpt lat="48.86384" lon="2.29019">
        <ele>95</ele>
        <time>2013-10-15T18:59:06.204Z</time>
      </trkpt>
      <trkpt lat="48.86381" lon="2.29009">
        <ele>97</ele>
        <time>2013-10-15T18:59:08.177Z</time>
      </trkpt>
      <trkpt lat="48.8638" lon="2.29004">
        <ele>98</ele>
        <time>2013-10-15T18:59:09.173Z</time>
      </trkpt>
      <trkpt lat="48.86377" lon="2.28994">
        <ele>100</ele>
        <time>2013-10-15T18:59:11.180Z</time>
      </trkpt>
      <trkpt lat="48.86376" lon="2.28989">
        <ele>100</ele>
        <time>2013-10-15T18:59:12.173Z</time>
      </trkpt>
      <trkpt lat="48.86373" lon="2.28978">
        <ele>97</ele>
        <time>2013-10-15T18:59:14.182Z</time>
      </trkpt>
      <trkpt lat="48.86371" lon="2.28973">
        <ele>101</ele>
        <time>2013-10-15T18:59:15.178Z</time>
      </trkpt>
      <trkpt lat="48.86367" lon="2.28962">
        <ele>98</ele>
        <time>2013-10-15T18:59:17.174Z</time>
      </trkpt>
      <trkpt lat="48.86365" lon="2.28957">
        <ele>95</ele>
        <time>2013-10-15T18:59:18.183Z</time>
      </trkpt>
      <trkpt lat="48.86362" lon="2.28947">
        <ele>95</ele>
        <time>2013-10-15T18:59:20.178Z</time>
      </trkpt>
      <trkpt lat="48.8636" lon="2.28942">
        <ele>96</ele>
        <time>2013-10-15T18:59:21.178Z</time>
      </trkpt>
      <trkpt lat="48.86357" lon="2.28932">
        <ele>102</ele>
        <time>2013-10-15T18:59:23.179Z</time>
      </trkpt>
      <trkpt lat="48.86355" lon="2.28926">
        <ele>101</ele>
        <time>2013-10-15T18:59:24.189Z</time>
      </trkpt>
      <trkpt lat="48.86352" lon="2.28914">
        <ele>94</ele>
        <time>2013-10-15T18:59:26.190Z</time>
      </trkpt>
      <trkpt lat="48.8635" lon="2.28909">
        <ele>100</ele>
        <time>2013-10-15T18:59:27.180Z</time>
      </trkpt>
      <trkpt lat="48.86345" lon="2.28898">
        <ele>100</ele>
        <time>2013-10-15T18:59:29.134Z</time>
      </trkpt>
      <trkpt lat="48.86343" lon="2.28892">
        <ele>97</ele>
        <time>2013-10-15T18:59:30.166Z</time>
      </trkpt>
      <trkpt lat="48.8634" lon="2.28887">
        <ele>98</ele>
        <time>2013-10-15T18:59:31.186Z</time>
      </trkpt>
      <trkpt lat="48.86337" lon="2.28881">
        <ele>97</ele>
        <time>2013-10-15T18:59:32.177Z</time>
      </trkpt>
      <trkpt lat="48.86332" lon="2.2887">
        <ele>99</ele>
        <time>2013-10-15T18:59:34.316Z</time>
      </trkpt>
      <trkpt lat="48.8633" lon="2.28866">
        <ele>95</ele>
        <time>2013-10-15T18:59:35.175Z</time>
      </trkpt>
      <trkpt lat="48.86326" lon="2.28856">
        <ele>97</ele>
        <time>2013-10-15T18:59:37.177Z</time>
      </trkpt>
      <trkpt lat="48.8632" lon="2.28843">
        <ele>98</ele>
        <time>2013-10-15T18:59:40.178Z</time>
      </trkpt>
      <trkpt lat="48.86317" lon="2.28833">
        <ele>96</ele>
        <time>2013-10-15T18:59:43.178Z</time>
      </trkpt>
      <trkpt lat="48.86316" lon="2.28829">
        <ele>97</ele>
        <time>2013-10-15T18:59:44.147Z</time>
      </trkpt>
      <trkpt lat="48.86317" lon="2.28816">
        <ele>96</ele>
        <time>2013-10-15T18:59:49.410Z</time>
      </trkpt>
      <trkpt lat="48.8632" lon="2.28813">
        <ele>99</ele>
        <time>2013-10-15T18:59:50.178Z</time>
      </trkpt>
      <trkpt lat="48.86324" lon="2.28804">
        <ele>96</ele>
        <time>2013-10-15T18:59:53.186Z</time>
      </trkpt>
      <trkpt lat="48.86324" lon="2.28801">
        <ele>96</ele>
        <time>2013-10-15T18:59:54.186Z</time>
      </trkpt>
      <trkpt lat="48.86326" lon="2.288">
        <ele>96</ele>
        <time>2013-10-15T19:00:12.185Z</time>
      </trkpt>
      <trkpt lat="48.86325" lon="2.288">
        <ele>96</ele>
        <time>2013-10-15T19:00:13.192Z</time>
      </trkpt>
      <trkpt lat="48.86325" lon="2.288">
        <ele>96</ele>
        <time>2013-10-15T19:00:16.234Z</time>
      </trkpt>
      <trkpt lat="48.86326" lon="2.28801">
        <ele>102</ele>
        <time>2013-10-15T19:00:17.189Z</time>
      </trkpt>
      <trkpt lat="48.86328" lon="2.28803">
        <ele>99</ele>
        <time>2013-10-15T19:00:22.183Z</time>
      </trkpt>
      <trkpt lat="48.86328" lon="2.28803">
        <ele>99</ele>
        <time>2013-10-15T19:00:23.186Z</time>
      </trkpt>
      <trkpt lat="48.86327" lon="2.28803">
        <ele>104</ele>
        <time>2013-10-15T19:00:24.189Z</time>
      </trkpt>
      <trkpt lat="48.8632" lon="2.2881">
        <ele>102</ele>
        <time>2013-10-15T19:00:39.186Z</time>
      </trkpt>
      <trkpt lat="48.8632" lon="2.28811">
        <ele>103</ele>
        <time>2013-10-15T19:00:40.159Z</time>
      </trkpt>
      <trkpt lat="48.86312" lon="2.28813">
        <ele>98</ele>
        <time>2013-10-15T19:00:51.159Z</time>
      </trkpt>
      <trkpt lat="48.86312" lon="2.28812">
        <ele>100</ele>
        <time>2013-10-15T19:00:52.171Z</time>
      </trkpt>
      <trkpt lat="48.86313" lon="2.28813">
        <ele>98</ele>
        <time>2013-10-15T19:00:55.139Z</time>
      </trkpt>
      <trkpt lat="48.86313" lon="2.28813">
        <ele>99</ele>
        <time>2013-10-15T19:00:56.133Z</time>
      </trkpt>
      <trkpt lat="48.86314" lon="2.28813">
        <ele>102</ele>
        <time>2013-10-15T19:00:58.138Z</time>
      </trkpt>
      <trkpt lat="48.86314" lon="2.28813">
        <ele>102</ele>
        <time>2013-10-15T19:00:59.136Z</time>
      </trkpt>
      <trkpt lat="48.86314" lon="2.28813">
        <ele>106</ele>
        <time>2013-10-15T19:01:17.172Z</time>
      </trkpt>
      <trkpt lat="48.86314" lon="2.28814">
        <ele>105</ele>
        <time>2013-10-15T19:01:18.167Z</time>
      </trkpt>
      <trkpt lat="48.86306" lon="2.28819">
        <ele>102</ele>
        <time>2013-10-15T19:01:24.224Z</time>
      </trkpt>
      <trkpt lat="48.86304" lon="2.2882">
        <ele>101</ele>
        <time>2013-10-15T19:01:25.196Z</time>
      </trkpt>
      <trkpt lat="48.86298" lon="2.28819">
        <ele>104</ele>
        <time>2013-10-15T19:01:27.196Z</time>
      </trkpt>
      <trkpt lat="48.86294" lon="2.28817">
        <ele>104</ele>
        <time>2013-10-15T19:01:28.192Z</time>
      </trkpt>
      <trkpt lat="48.86287" lon="2.28812">
        <ele>102</ele>
        <time>2013-10-15T19:01:30.193Z</time>
      </trkpt>
      <trkpt lat="48.86284" lon="2.2881">
        <ele>101</ele>
        <time>2013-10-15T19:01:31.203Z</time>
      </trkpt>
      <trkpt lat="48.86278" lon="2.28806">
        <ele>100</ele>
        <time>2013-10-15T19:01:33.190Z</time>
      </trkpt>
      <trkpt lat="48.86276" lon="2.28804">
        <ele>100</ele>
        <time>2013-10-15T19:01:34.190Z</time>
      </trkpt>
      <trkpt lat="48.86271" lon="2.28815">
        <ele>101</ele>
        <time>2013-10-15T19:01:42.191Z</time>
      </trkpt>
      <trkpt lat="48.86272" lon="2.28819">
        <ele>99</ele>
        <time>2013-10-15T19:01:43.190Z</time>
      </trkpt>
      <trkpt lat="48.86274" lon="2.28831">
        <ele>105</ele>
        <time>2013-10-15T19:01:46.204Z</time>
      </trkpt>
      <trkpt lat="48.86274" lon="2.28834">
        <ele>104</ele>
        <time>2013-10-15T19:01:47.237Z</time>
      </trkpt>
      <trkpt lat="48.86267" lon="2.28839">
        <ele>107</ele>
        <time>2013-10-15T19:01:52.196Z</time>
      </trkpt>
      <trkpt lat="48.86264" lon="2.28839">
        <ele>108</ele>
        <time>2013-10-15T19:01:53.205Z</time>
      </trkpt>
      <trkpt lat="48.86256" lon="2.28844">
        <ele>101</ele>
        <time>2013-10-15T19:01:57.198Z</time>
      </trkpt>
      <trkpt lat="48.86255" lon="2.28845">
        <ele>101</ele>
        <time>2013-10-15T19:01:58.191Z</time>
      </trkpt>
      <trkpt lat="48.86247" lon="2.28847">
        <ele>106</ele>
        <time>2013-10-15T19:02:04.200Z</time>
      </trkpt>
      <trkpt lat="48.86246" lon="2.28846">
        <ele>105</ele>
        <time>2013-10-15T19:02:05.231Z</time>
      </trkpt>
      <trkpt lat="48.86241" lon="2.28834">
        <ele>98</ele>
        <time>2013-10-15T19:02:13.208Z</time>
      </trkpt>
      <trkpt lat="48.86241" lon="2.28833">
        <ele>99</ele>
        <time>2013-10-15T19:02:14.199Z</time>
      </trkpt>
      <trkpt lat="48.86241" lon="2.28839">
        <ele>100</ele>
        <time>2013-10-15T19:02:28.194Z</time>
      </trkpt>
      <trkpt lat="48.86241" lon="2.28839">
        <ele>102</ele>
        <time>2013-10-15T19:02:29.195Z</time>
      </trkpt>
      <trkpt lat="48.86241" lon="2.28839">
        <ele>101</ele>
        <time>2013-10-15T19:02:32.194Z</time>
      </trkpt>
      <trkpt lat="48.86242" lon="2.2884">
        <ele>101</ele>
        <time>2013-10-15T19:02:33.192Z</time>
      </trkpt>
      <trkpt lat="48.86248" lon="2.28841">
        <ele>101</ele>
        <time>2013-10-15T19:02:45.172Z</time>
      </trkpt>
      <trkpt lat="48.86248" lon="2.28841">
        <ele>102</ele>
        <time>2013-10-15T19:02:46.184Z</time>
      </trkpt>
      <trkpt lat="48.86247" lon="2.2884">
        <ele>102</ele>
        <time>2013-10-15T19:02:54.176Z</time>
      </trkpt>
      <trkpt lat="48.86246" lon="2.28838">
        <ele>103</ele>
        <time>2013-10-15T19:02:55.169Z</time>
      </trkpt>
      <trkpt lat="48.86244" lon="2.28835">
        <ele>110</ele>
        <time>2013-10-15T19:03:00.255Z</time>
      </trkpt>
      <trkpt lat="48.86244" lon="2.28835">
        <ele>109</ele>
        <time>2013-10-15T19:03:01.191Z</time>
      </trkpt>
      <trkpt lat="48.86244" lon="2.28835">
        <ele>105</ele>
        <time>2013-10-15T19:03:07.186Z</time>
      </trkpt>
      <trkpt lat="48.86244" lon="2.28834">
        <ele>104</ele>
        <time>2013-10-15T19:03:08.333Z</time>
      </trkpt>
      <trkpt lat="48.86244" lon="2.28834">
        <ele>104</ele>
        <time>2013-10-15T19:03:10.183Z</time>
      </trkpt>
      <trkpt lat="48.86244" lon="2.28834">
        <ele>103</ele>
        <time>2013-10-15T19:03:11.189Z</time>
      </trkpt>
      <trkpt lat="48.86243" lon="2.28834">
        <ele>106</ele>
        <time>2013-10-15T19:03:12.165Z</time>
      </trkpt>
      <trkpt lat="48.8624" lon="2.28834">
        <ele>102</ele>
        <time>2013-10-15T19:03:23.195Z</time>
      </trkpt>
      <trkpt lat="48.8624" lon="2.28834">
        <ele>105</ele>
        <time>2013-10-15T19:03:24.193Z</time>
      </trkpt>
      <trkpt lat="48.8624" lon="2.28833">
        <ele>102</ele>
        <time>2013-10-15T19:03:27.218Z</time>
      </trkpt>
      <trkpt lat="48.86239" lon="2.28833">
        <ele>103</ele>
        <time>2013-10-15T19:03:28.192Z</time>
      </trkpt>
      <trkpt lat="48.86237" lon="2.28823">
        <ele>102</ele>
        <time>2013-10-15T19:03:33.200Z</time>
      </trkpt>
      <trkpt lat="48.86237" lon="2.28819">
        <ele>102</ele>
        <time>2013-10-15T19:03:34.189Z</time>
      </trkpt>
      <trkpt lat="48.86237" lon="2.2881">
        <ele>107</ele>
        <time>2013-10-15T19:03:36.192Z</time>
      </trkpt>
      <trkpt lat="48.86238" lon="2.28805">
        <ele>108</ele>
        <time>2013-10-15T19:03:37.184Z</time>
      </trkpt>
      <trkpt lat="48.86237" lon="2.28795">
        <ele>107</ele>
        <time>2013-10-15T19:03:39.260Z</time>
      </trkpt>
      <trkpt lat="48.86237" lon="2.28791">
        <ele>107</ele>
        <time>2013-10-15T19:03:40.197Z</time>
      </trkpt>
      <trkpt lat="48.86234" lon="2.28779">
        <ele>108</ele>
        <time>2013-10-15T19:03:44.194Z</time>
      </trkpt>
      <trkpt lat="48.86234" lon="2.28776">
        <ele>103</ele>
        <time>2013-10-15T19:03:45.169Z</time>
      </trkpt>
      <trkpt lat="48.86237" lon="2.28764">
        <ele>105</ele>
        <time>2013-10-15T19:03:52.178Z</time>
      </trkpt>
      <trkpt lat="48.86237" lon="2.28763">
        <ele>104</ele>
        <time>2013-10-15T19:03:53.182Z</time>
      </trkpt>
      <trkpt lat="48.86233" lon="2.28752">
        <ele>95</ele>
        <time>2013-10-15T19:04:01.184Z</time>
      </trkpt>
      <trkpt lat="48.8623" lon="2.28749">
        <ele>96</ele>
        <time>2013-10-15T19:04:02.184Z</time>
      </trkpt>
      <trkpt lat="48.86223" lon="2.28741">
        <ele>98</ele>
        <time>2013-10-15T19:04:06.260Z</time>
      </trkpt>
      <trkpt lat="48.86223" lon="2.2874">
        <ele>100</ele>
        <time>2013-10-15T19:04:07.178Z</time>
      </trkpt>
      <trkpt lat="48.86216" lon="2.28733">
        <ele>104</ele>
        <time>2013-10-15T19:04:11.274Z</time>
      </trkpt>
      <trkpt lat="48.86215" lon="2.2873">
        <ele>104</ele>
        <time>2013-10-15T19:04:12.182Z</time>
      </trkpt>
      <trkpt lat="48.86209" lon="2.28721">
        <ele>102</ele>
        <time>2013-10-15T19:04:16.187Z</time>
      </trkpt>
      <trkpt lat="48.86208" lon="2.28719">
        <ele>98</ele>
        <time>2013-10-15T19:04:17.160Z</time>
      </trkpt>
      <trkpt lat="48.86202" lon="2.28712">
        <ele>98</ele>
        <time>2013-10-15T19:04:21.186Z</time>
      </trkpt>
      <trkpt lat="48.86201" lon="2.28711">
        <ele>95</ele>
        <time>2013-10-15T19:04:22.283Z</time>
      </trkpt>
      <trkpt lat="48.86195" lon="2.28703">
        <ele>100</ele>
        <time>2013-10-15T19:04:26.185Z</time>
      </trkpt>
      <trkpt lat="48.86194" lon="2.28701">
        <ele>96</ele>
        <time>2013-10-15T19:04:27.193Z</time>
      </trkpt>
      <trkpt lat="48.8619" lon="2.28692">
        <ele>99</ele>
        <time>2013-10-15T19:04:31.189Z</time>
      </trkpt>
      <trkpt lat="48.86189" lon="2.28689">
        <ele>102</ele>
        <time>2013-10-15T19:04:32.186Z</time>
      </trkpt>
      <trkpt lat="48.86181" lon="2.28683">
        <ele>111</ele>
        <time>2013-10-15T19:04:37.192Z</time>
      </trkpt>
      <trkpt lat="48.8618" lon="2.28683">
        <ele>112</ele>
        <time>2013-10-15T19:04:38.185Z</time>
      </trkpt>
      <trkpt lat="48.86171" lon="2.28683">
        <ele>113</ele>
        <time>2013-10-15T19:04:42.192Z</time>
      </trkpt>
      <trkpt lat="48.86169" lon="2.28683">
        <ele>115</ele>
        <time>2013-10-15T19:04:43.187Z</time>
      </trkpt>
      <trkpt lat="48.86161" lon="2.28679">
        <ele>112</ele>
        <time>2013-10-15T19:04:46.191Z</time>
      </trkpt>
      <trkpt lat="48.86158" lon="2.28678">
        <ele>113</ele>
        <time>2013-10-15T19:04:47.185Z</time>
      </trkpt>
      <trkpt lat="48.86151" lon="2.28674">
        <ele>112</ele>
        <time>2013-10-15T19:04:49.185Z</time>
      </trkpt>
      <trkpt lat="48.86147" lon="2.28671">
        <ele>107</ele>
        <time>2013-10-15T19:04:50.177Z</time>
      </trkpt>
      <trkpt lat="48.86142" lon="2.28669">
        <ele>104</ele>
        <time>2013-10-15T19:04:51.181Z</time>
      </trkpt>
      <trkpt lat="48.86137" lon="2.28667">
        <ele>99</ele>
        <time>2013-10-15T19:04:52.185Z</time>
      </trkpt>
      <trkpt lat="48.86132" lon="2.28665">
        <ele>98</ele>
        <time>2013-10-15T19:04:53.185Z</time>
      </trkpt>
      <trkpt lat="48.86127" lon="2.28663">
        <ele>98</ele>
        <time>2013-10-15T19:04:54.181Z</time>
      </trkpt>
      <trkpt lat="48.86122" lon="2.28662">
        <ele>98</ele>
        <time>2013-10-15T19:04:55.181Z</time>
      </trkpt>
      <trkpt lat="48.86117" lon="2.28661">
        <ele>96</ele>
        <time>2013-10-15T19:04:56.177Z</time>
      </trkpt>
      <trkpt lat="48.86112" lon="2.28659">
        <ele>96</ele>
        <time>2013-10-15T19:04:57.186Z</time>
      </trkpt>
      <trkpt lat="48.86107" lon="2.28657">
        <ele>97</ele>
        <time>2013-10-15T19:04:58.191Z</time>
      </trkpt>
      <trkpt lat="48.86101" lon="2.28654">
        <ele>98</ele>
        <time>2013-10-15T19:04:59.190Z</time>
      </trkpt>
      <trkpt lat="48.86096" lon="2.28651">
        <ele>99</ele>
        <time>2013-10-15T19:05:00.196Z</time>
      </trkpt>
      <trkpt lat="48.86092" lon="2.28647">
        <ele>97</ele>
        <time>2013-10-15T19:05:01.181Z</time>
      </trkpt>
      <trkpt lat="48.86088" lon="2.28644">
        <ele>99</ele>
        <time>2013-10-15T19:05:02.185Z</time>
      </trkpt>
      <trkpt lat="48.86083" lon="2.2864">
        <ele>97</ele>
        <time>2013-10-15T19:05:03.171Z</time>
      </trkpt>
      <trkpt lat="48.86079" lon="2.28637">
        <ele>94</ele>
        <time>2013-10-15T19:05:04.182Z</time>
      </trkpt>
      <trkpt lat="48.86071" lon="2.2863">
        <ele>95</ele>
        <time>2013-10-15T19:05:06.182Z</time>
      </trkpt>
      <trkpt lat="48.86068" lon="2.28627">
        <ele>94</ele>
        <time>2013-10-15T19:05:07.178Z</time>
      </trkpt>
      <trkpt lat="48.86062" lon="2.28622">
        <ele>92</ele>
        <time>2013-10-15T19:05:09.169Z</time>
      </trkpt>
      <trkpt lat="48.86058" lon="2.2862">
        <ele>94</ele>
        <time>2013-10-15T19:05:10.188Z</time>
      </trkpt>
      <trkpt lat="48.86052" lon="2.28617">
        <ele>93</ele>
        <time>2013-10-15T19:05:12.278Z</time>
      </trkpt>
      <trkpt lat="48.86049" lon="2.28615">
        <ele>93</ele>
        <time>2013-10-15T19:05:13.180Z</time>
      </trkpt>
      <trkpt lat="48.86042" lon="2.28612">
        <ele>93</ele>
        <time>2013-10-15T19:05:15.188Z</time>
      </trkpt>
      <trkpt lat="48.86038" lon="2.28609">
        <ele>95</ele>
        <time>2013-10-15T19:05:16.187Z</time>
      </trkpt>
      <trkpt lat="48.86031" lon="2.28604">
        <ele>94</ele>
        <time>2013-10-15T19:05:18.191Z</time>
      </trkpt>
      <trkpt lat="48.86028" lon="2.28602">
        <ele>94</ele>
        <time>2013-10-15T19:05:19.185Z</time>
      </trkpt>
      <trkpt lat="48.85938" lon="2.28709">
        <ele>92</ele>
        <time>2013-10-15T19:07:22.217Z</time>
      </trkpt>
      <trkpt lat="48.85944" lon="2.28716">
        <ele>94</ele>
        <time>2013-10-15T19:07:26.206Z</time>
      </trkpt>
      <trkpt lat="48.85945" lon="2.28718">
        <ele>96</ele>
        <time>2013-10-15T19:07:27.203Z</time>
      </trkpt>
      <trkpt lat="48.85939" lon="2.28717">
        <ele>90</ele>
        <time>2013-10-15T19:07:40.202Z</time>
      </trkpt>
      <trkpt lat="48.85939" lon="2.28717">
        <ele>90</ele>
        <time>2013-10-15T19:07:41.200Z</time>
      </trkpt>
      <trkpt lat="48.85941" lon="2.28717">
        <ele>93</ele>
        <time>2013-10-15T19:07:46.205Z</time>
      </trkpt>
      <trkpt lat="48.85941" lon="2.28717">
        <ele>94</ele>
        <time>2013-10-15T19:07:47.199Z</time>
      </trkpt>
      <trkpt lat="48.85942" lon="2.28716">
        <ele>93</ele>
        <time>2013-10-15T19:07:50.195Z</time>
      </trkpt>
      <trkpt lat="48.85942" lon="2.28716">
        <ele>94</ele>
        <time>2013-10-15T19:07:51.181Z</time>
      </trkpt>
      <trkpt lat="48.85942" lon="2.28717">
        <ele>97</ele>
        <time>2013-10-15T19:08:03.180Z</time>
      </trkpt>
      <trkpt lat="48.85943" lon="2.28717">
        <ele>97</ele>
        <time>2013-10-15T19:08:04.177Z</time>
      </trkpt>
      <trkpt lat="48.85944" lon="2.28731">
        <ele>93</ele>
        <time>2013-10-15T19:08:12.177Z</time>
      </trkpt>
      <trkpt lat="48.85944" lon="2.28734">
        <ele>93</ele>
        <time>2013-10-15T19:08:13.175Z</time>
      </trkpt>
      <trkpt lat="48.85947" lon="2.28746">
        <ele>91</ele>
        <time>2013-10-15T19:08:16.181Z</time>
      </trkpt>
      <trkpt lat="48.85948" lon="2.2875">
        <ele>95</ele>
        <time>2013-10-15T19:08:17.171Z</time>
      </trkpt>
      <trkpt lat="48.8595" lon="2.28762">
        <ele>93</ele>
        <time>2013-10-15T19:08:20.172Z</time>
      </trkpt>
      <trkpt lat="48.85951" lon="2.28768">
        <ele>91</ele>
        <time>2013-10-15T19:08:22.182Z</time>
      </trkpt>
      <trkpt lat="48.85954" lon="2.28778">
        <ele>92</ele>
        <time>2013-10-15T19:08:28.177Z</time>
      </trkpt>
      <trkpt lat="48.85954" lon="2.2878">
        <ele>93</ele>
        <time>2013-10-15T19:08:29.178Z</time>
      </trkpt>
      <trkpt lat="48.85954" lon="2.28794">
        <ele>91</ele>
        <time>2013-10-15T19:08:33.178Z</time>
      </trkpt>
      <trkpt lat="48.85954" lon="2.28797">
        <ele>92</ele>
        <time>2013-10-15T19:08:34.182Z</time>
      </trkpt>
      <trkpt lat="48.8595" lon="2.28809">
        <ele>92</ele>
        <time>2013-10-15T19:08:38.178Z</time>
      </trkpt>
      <trkpt lat="48.85949" lon="2.28812">
        <ele>91</ele>
        <time>2013-10-15T19:08:39.259Z</time>
      </trkpt>
      <trkpt lat="48.85946" lon="2.28821">
        <ele>92</ele>
        <time>2013-10-15T19:08:42.177Z</time>
      </trkpt>
      <trkpt lat="48.85942" lon="2.28827">
        <ele>92</ele>
        <time>2013-10-15T19:08:45.173Z</time>
      </trkpt>
      <trkpt lat="48.85934" lon="2.28823">
        <ele>91</ele>
        <time>2013-10-15T19:08:47.181Z</time>
      </trkpt>
      <trkpt lat="48.85929" lon="2.2882">
        <ele>92</ele>
        <time>2013-10-15T19:08:48.178Z</time>
      </trkpt>
      <trkpt lat="48.85925" lon="2.28817">
        <ele>93</ele>
        <time>2013-10-15T19:08:49.184Z</time>
      </trkpt>
      <trkpt lat="48.8592" lon="2.28813">
        <ele>93</ele>
        <time>2013-10-15T19:08:50.185Z</time>
      </trkpt>
      <trkpt lat="48.85915" lon="2.2881">
        <ele>93</ele>
        <time>2013-10-15T19:08:51.178Z</time>
      </trkpt>
      <trkpt lat="48.85909" lon="2.28806">
        <ele>95</ele>
        <time>2013-10-15T19:08:52.177Z</time>
      </trkpt>
      <trkpt lat="48.85903" lon="2.28802">
        <ele>90</ele>
        <time>2013-10-15T19:08:53.177Z</time>
      </trkpt>
      <trkpt lat="48.85894" lon="2.28798">
        <ele>94</ele>
        <time>2013-10-15T19:08:55.173Z</time>
      </trkpt>
      <trkpt lat="48.85889" lon="2.28797">
        <ele>91</ele>
        <time>2013-10-15T19:08:56.177Z</time>
      </trkpt>
      <trkpt lat="48.85885" lon="2.28799">
        <ele>89</ele>
        <time>2013-10-15T19:08:57.181Z</time>
      </trkpt>
      <trkpt lat="48.85887" lon="2.28812">
        <ele>91</ele>
        <time>2013-10-15T19:09:01.186Z</time>
      </trkpt>
      <trkpt lat="48.8589" lon="2.28814">
        <ele>91</ele>
        <time>2013-10-15T19:09:02.179Z</time>
      </trkpt>
      <trkpt lat="48.85898" lon="2.28815">
        <ele>91</ele>
        <time>2013-10-15T19:09:04.259Z</time>
      </trkpt>
      <trkpt lat="48.85901" lon="2.28816">
        <ele>91</ele>
        <time>2013-10-15T19:09:05.187Z</time>
      </trkpt>
      <trkpt lat="48.85908" lon="2.28819">
        <ele>88</ele>
        <time>2013-10-15T19:09:09.184Z</time>
      </trkpt>
      <trkpt lat="48.8591" lon="2.2882">
        <ele>85</ele>
        <time>2013-10-15T19:09:10.179Z</time>
      </trkpt>
      <trkpt lat="48.8591" lon="2.28834">
        <ele>92</ele>
        <time>2013-10-15T19:09:20.177Z</time>
      </trkpt>
      <trkpt lat="48.85909" lon="2.28838">
        <ele>93</ele>
        <time>2013-10-15T19:09:25.181Z</time>
      </trkpt>
      <trkpt lat="48.85909" lon="2.28838">
        <ele>91</ele>
        <time>2013-10-15T19:09:29.183Z</time>
      </trkpt>
      <trkpt lat="48.85908" lon="2.28838">
        <ele>91</ele>
        <time>2013-10-15T19:09:31.191Z</time>
      </trkpt>
      <trkpt lat="48.85908" lon="2.28837">
        <ele>91</ele>
        <time>2013-10-15T19:09:32.215Z</time>
      </trkpt>
      <trkpt lat="48.859" lon="2.28833">
        <ele>94</ele>
        <time>2013-10-15T19:09:44.184Z</time>
      </trkpt>
      <trkpt lat="48.859" lon="2.28833">
        <ele>93</ele>
        <time>2013-10-15T19:09:45.179Z</time>
      </trkpt>
      <trkpt lat="48.85899" lon="2.28833">
        <ele>90</ele>
        <time>2013-10-15T19:09:55.185Z</time>
      </trkpt>
      <trkpt lat="48.85899" lon="2.28833">
        <ele>90</ele>
        <time>2013-10-15T19:09:56.186Z</time>
      </trkpt>
      <trkpt lat="48.85896" lon="2.28836">
        <ele>93</ele>
        <time>2013-10-15T19:10:04.181Z</time>
      </trkpt>
      <trkpt lat="48.85896" lon="2.28836">
        <ele>94</ele>
        <time>2013-10-15T19:10:05.187Z</time>
      </trkpt>
      <trkpt lat="48.85896" lon="2.28836">
        <ele>91</ele>
        <time>2013-10-15T19:10:20.184Z</time>
      </trkpt>
      <trkpt lat="48.85895" lon="2.28837">
        <ele>93</ele>
        <time>2013-10-15T19:10:22.189Z</time>
      </trkpt>
      <trkpt lat="48.85881" lon="2.28883">
        <ele>90</ele>
        <time>2013-10-15T19:10:39.396Z</time>
      </trkpt>
      <trkpt lat="48.85875" lon="2.28887">
        <ele>88</ele>
        <time>2013-10-15T19:10:41.207Z</time>
      </trkpt>
      <trkpt lat="48.85871" lon="2.28887">
        <ele>88</ele>
        <time>2013-10-15T19:10:42.199Z</time>
      </trkpt>
      <trkpt lat="48.85863" lon="2.28887">
        <ele>87</ele>
        <time>2013-10-15T19:10:44.278Z</time>
      </trkpt>
      <trkpt lat="48.85859" lon="2.28887">
        <ele>87</ele>
        <time>2013-10-15T19:10:45.191Z</time>
      </trkpt>
      <trkpt lat="48.85866" lon="2.28893">
        <ele>83</ele>
        <time>2013-10-15T19:10:56.193Z</time>
      </trkpt>
      <trkpt lat="48.8587" lon="2.28891">
        <ele>85</ele>
        <time>2013-10-15T19:10:58.189Z</time>
      </trkpt>
      <trkpt lat="48.85875" lon="2.28887">
        <ele>90</ele>
        <time>2013-10-15T19:11:01.188Z</time>
      </trkpt>
      <trkpt lat="48.85881" lon="2.28887">
        <ele>86</ele>
        <time>2013-10-15T19:11:05.192Z</time>
      </trkpt>
      <trkpt lat="48.85887" lon="2.28888">
        <ele>79</ele>
        <time>2013-10-15T19:11:15.143Z</time>
      </trkpt>
      <trkpt lat="48.85887" lon="2.28888">
        <ele>77</ele>
        <time>2013-10-15T19:11:16.200Z</time>
      </trkpt>
      <trkpt lat="48.85887" lon="2.28886">
        <ele>88</ele>
        <time>2013-10-15T19:11:59.199Z</time>
      </trkpt>
      <trkpt lat="48.85886" lon="2.28886">
        <ele>86</ele>
        <time>2013-10-15T19:12:00.352Z</time>
      </trkpt>
      <trkpt lat="48.8588" lon="2.28876">
        <ele>82</ele>
        <time>2013-10-15T19:12:05.195Z</time>
      </trkpt>
      <trkpt lat="48.85878" lon="2.28873">
        <ele>81</ele>
        <time>2013-10-15T19:12:06.200Z</time>
      </trkpt>
      <trkpt lat="48.85872" lon="2.28865">
        <ele>85</ele>
        <time>2013-10-15T19:12:09.199Z</time>
      </trkpt>
      <trkpt lat="48.8587" lon="2.28863">
        <ele>86</ele>
        <time>2013-10-15T19:12:10.197Z</time>
      </trkpt>
      <trkpt lat="48.85863" lon="2.28855">
        <ele>87</ele>
        <time>2013-10-15T19:12:13.197Z</time>
      </trkpt>
      <trkpt lat="48.8586" lon="2.28851">
        <ele>86</ele>
        <time>2013-10-15T19:12:14.198Z</time>
      </trkpt>
      <trkpt lat="48.85855" lon="2.28845">
        <ele>88</ele>
        <time>2013-10-15T19:12:16.202Z</time>
      </trkpt>
      <trkpt lat="48.85853" lon="2.28842">
        <ele>88</ele>
        <time>2013-10-15T19:12:17.195Z</time>
      </trkpt>
      <trkpt lat="48.85847" lon="2.28836">
        <ele>92</ele>
        <time>2013-10-15T19:12:19.196Z</time>
      </trkpt>
      <trkpt lat="48.85845" lon="2.28833">
        <ele>92</ele>
        <time>2013-10-15T19:12:20.196Z</time>
      </trkpt>
      <trkpt lat="48.85839" lon="2.28828">
        <ele>90</ele>
        <time>2013-10-15T19:12:22.195Z</time>
      </trkpt>
      <trkpt lat="48.85836" lon="2.28825">
        <ele>92</ele>
        <time>2013-10-15T19:12:23.196Z</time>
      </trkpt>
      <trkpt lat="48.85831" lon="2.28819">
        <ele>92</ele>
        <time>2013-10-15T19:12:25.195Z</time>
      </trkpt>
      <trkpt lat="48.85829" lon="2.28816">
        <ele>90</ele>
        <time>2013-10-15T19:12:26.205Z</time>
      </trkpt>
      <trkpt lat="48.85822" lon="2.28809">
        <ele>84</ele>
        <time>2013-10-15T19:12:28.205Z</time>
      </trkpt>
      <trkpt lat="48.85815" lon="2.28803">
        <ele>84</ele>
        <time>2013-10-15T19:12:29.201Z</time>
      </trkpt>
      <trkpt lat="48.85811" lon="2.28799">
        <ele>84</ele>
        <time>2013-10-15T19:12:30.204Z</time>
      </trkpt>
      <trkpt lat="48.85807" lon="2.28796">
        <ele>84</ele>
        <time>2013-10-15T19:12:31.202Z</time>
      </trkpt>
      <trkpt lat="48.858" lon="2.28789">
        <ele>84</ele>
        <time>2013-10-15T19:12:33.199Z</time>
      </trkpt>
      <trkpt lat="48.85796" lon="2.28786">
        <ele>84</ele>
        <time>2013-10-15T19:12:34.204Z</time>
      </trkpt>
      <trkpt lat="48.85791" lon="2.28781">
        <ele>85</ele>
        <time>2013-10-15T19:12:36.208Z</time>
      </trkpt>
      <trkpt lat="48.85789" lon="2.28779">
        <ele>88</ele>
        <time>2013-10-15T19:12:37.273Z</time>
      </trkpt>
      <trkpt lat="48.85782" lon="2.28772">
        <ele>84</ele>
        <time>2013-10-15T19:12:40.204Z</time>
      </trkpt>
      <trkpt lat="48.85779" lon="2.28769">
        <ele>80</ele>
        <time>2013-10-15T19:12:41.204Z</time>
      </trkpt>
      <trkpt lat="48.85773" lon="2.28762">
        <ele>86</ele>
        <time>2013-10-15T19:12:43.206Z</time>
      </trkpt>
      <trkpt lat="48.85769" lon="2.28758">
        <ele>85</ele>
        <time>2013-10-15T19:12:44.285Z</time>
      </trkpt>
      <trkpt lat="48.85765" lon="2.28752">
        <ele>86</ele>
        <time>2013-10-15T19:12:45.208Z</time>
      </trkpt>
      <trkpt lat="48.85761" lon="2.28747">
        <ele>82</ele>
        <time>2013-10-15T19:12:46.206Z</time>
      </trkpt>
      <trkpt lat="48.85757" lon="2.28742">
        <ele>83</ele>
        <time>2013-10-15T19:12:47.209Z</time>
      </trkpt>
      <trkpt lat="48.85754" lon="2.28738">
        <ele>85</ele>
        <time>2013-10-15T19:12:48.203Z</time>
      </trkpt>
      <trkpt lat="48.85748" lon="2.28729">
        <ele>81</ele>
        <time>2013-10-15T19:12:50.210Z</time>
      </trkpt>
      <trkpt lat="48.85745" lon="2.28726">
        <ele>82</ele>
        <time>2013-10-15T19:12:51.208Z</time>
      </trkpt>
      <trkpt lat="48.8574" lon="2.28719">
        <ele>81</ele>
        <time>2013-10-15T19:12:53.210Z</time>
      </trkpt>
      <trkpt lat="48.85737" lon="2.28716">
        <ele>80</ele>
        <time>2013-10-15T19:12:54.203Z</time>
      </trkpt>
      <trkpt lat="48.8573" lon="2.28709">
        <ele>81</ele>
        <time>2013-10-15T19:12:56.208Z</time>
      </trkpt>
      <trkpt lat="48.85727" lon="2.28706">
        <ele>80</ele>
        <time>2013-10-15T19:12:57.210Z</time>
      </trkpt>
      <trkpt lat="48.85721" lon="2.28699">
        <ele>77</ele>
        <time>2013-10-15T19:12:59.208Z</time>
      </trkpt>
      <trkpt lat="48.85718" lon="2.28695">
        <ele>77</ele>
        <time>2013-10-15T19:13:00.231Z</time>
      </trkpt>
      <trkpt lat="48.8571" lon="2.28689">
        <ele>74</ele>
        <time>2013-10-15T19:13:02.208Z</time>
      </trkpt>
      <trkpt lat="48.85706" lon="2.28685">
        <ele>74</ele>
        <time>2013-10-15T19:13:03.209Z</time>
      </trkpt>
      <trkpt lat="48.85698" lon="2.28678">
        <ele>83</ele>
        <time>2013-10-15T19:13:05.205Z</time>
      </trkpt>
      <trkpt lat="48.85694" lon="2.28675">
        <ele>86</ele>
        <time>2013-10-15T19:13:06.206Z</time>
      </trkpt>
      <trkpt lat="48.85686" lon="2.28669">
        <ele>87</ele>
        <time>2013-10-15T19:13:08.193Z</time>
      </trkpt>
      <trkpt lat="48.85683" lon="2.28666">
        <ele>86</ele>
        <time>2013-10-15T19:13:09.202Z</time>
      </trkpt>
      <trkpt lat="48.85675" lon="2.2866">
        <ele>84</ele>
        <time>2013-10-15T19:13:11.179Z</time>
      </trkpt>
      <trkpt lat="48.85672" lon="2.28658">
        <ele>83</ele>
        <time>2013-10-15T19:13:12.177Z</time>
      </trkpt>
      <trkpt lat="48.85675" lon="2.28652">
        <ele>92</ele>
        <time>2013-10-15T19:14:05.215Z</time>
      </trkpt>
      <trkpt lat="48.85688" lon="2.2866">
        <ele>92</ele>
        <time>2013-10-15T19:14:16.188Z</time>
      </trkpt>
      <trkpt lat="48.85718" lon="2.28637">
        <ele>92</ele>
        <time>2013-10-15T19:14:27.194Z</time>
      </trkpt>
      <trkpt lat="48.85818" lon="2.28572">
        <ele>92</ele>
        <time>2013-10-15T19:14:57.183Z</time>
      </trkpt>
      <trkpt lat="48.85815" lon="2.2858">
        <ele>89</ele>
        <time>2013-10-15T19:15:07.230Z</time>
      </trkpt>
      <trkpt lat="48.85808" lon="2.2858">
        <ele>93</ele>
        <time>2013-10-15T19:15:08.245Z</time>
      </trkpt>
      <trkpt lat="48.85801" lon="2.28578">
        <ele>96</ele>
        <time>2013-10-15T19:15:09.226Z</time>
      </trkpt>
      <trkpt lat="48.85795" lon="2.28575">
        <ele>94</ele>
        <time>2013-10-15T19:15:10.230Z</time>
      </trkpt>
      <trkpt lat="48.85787" lon="2.28571">
        <ele>93</ele>
        <time>2013-10-15T19:15:11.220Z</time>
      </trkpt>
      <trkpt lat="48.85781" lon="2.28569">
        <ele>95</ele>
        <time>2013-10-15T19:15:12.200Z</time>
      </trkpt>
      <trkpt lat="48.85773" lon="2.28565">
        <ele>93</ele>
        <time>2013-10-15T19:15:15.192Z</time>
      </trkpt>
      <trkpt lat="48.85772" lon="2.28564">
        <ele>94</ele>
        <time>2013-10-15T19:15:16.198Z</time>
      </trkpt>
      <trkpt lat="48.85771" lon="2.28561">
        <ele>88</ele>
        <time>2013-10-15T19:15:25.198Z</time>
      </trkpt>
      <trkpt lat="48.85772" lon="2.28561">
        <ele>86</ele>
        <time>2013-10-15T19:15:26.191Z</time>
      </trkpt>
      <trkpt lat="48.85772" lon="2.28562">
        <ele>89</ele>
        <time>2013-10-15T19:15:31.196Z</time>
      </trkpt>
      <trkpt lat="48.85773" lon="2.28562">
        <ele>87</ele>
        <time>2013-10-15T19:15:32.201Z</time>
      </trkpt>
      <trkpt lat="48.8578" lon="2.28562">
        <ele>71</ele>
        <time>2013-10-15T19:15:42.196Z</time>
      </trkpt>
      <trkpt lat="48.85779" lon="2.28562">
        <ele>68</ele>
        <time>2013-10-15T19:15:43.200Z</time>
      </trkpt>
      <trkpt lat="48.85777" lon="2.28563">
        <ele>101</ele>
        <time>2013-10-15T19:16:15.206Z</time>
      </trkpt>
      <trkpt lat="48.85777" lon="2.28563">
        <ele>101</ele>
        <time>2013-10-15T19:16:16.209Z</time>
      </trkpt>
      <trkpt lat="48.85771" lon="2.28555">
        <ele>97</ele>
        <time>2013-10-15T19:16:22.208Z</time>
      </trkpt>
      <trkpt lat="48.85769" lon="2.28553">
        <ele>102</ele>
        <time>2013-10-15T19:16:23.201Z</time>
      </trkpt>
      <trkpt lat="48.85765" lon="2.28541">
        <ele>95</ele>
        <time>2013-10-15T19:16:31.200Z</time>
      </trkpt>
      <trkpt lat="48.85833" lon="2.28458">
        <ele>95</ele>
        <time>2013-10-15T19:17:00.232Z</time>
      </trkpt>
      <trkpt lat="48.85826" lon="2.2845">
        <ele>100</ele>
        <time>2013-10-15T19:17:05.212Z</time>
      </trkpt>
      <trkpt lat="48.85824" lon="2.28448">
        <ele>97</ele>
        <time>2013-10-15T19:17:06.209Z</time>
      </trkpt>
      <trkpt lat="48.85822" lon="2.28437">
        <ele>100</ele>
        <time>2013-10-15T19:17:13.204Z</time>
      </trkpt>
      <trkpt lat="48.85824" lon="2.28434">
        <ele>97</ele>
        <time>2013-10-15T19:17:14.210Z</time>
      </trkpt>
      <trkpt lat="48.85829" lon="2.28428">
        <ele>97</ele>
        <time>2013-10-15T19:17:17.209Z</time>
      </trkpt>
      <trkpt lat="48.85831" lon="2.28426">
        <ele>98</ele>
        <time>2013-10-15T19:17:18.208Z</time>
      </trkpt>
      <trkpt lat="48.85838" lon="2.28416">
        <ele>98</ele>
        <time>2013-10-15T19:17:24.209Z</time>
      </trkpt>
      <trkpt lat="48.85838" lon="2.28416">
        <ele>98</ele>
        <time>2013-10-15T19:17:25.214Z</time>
      </trkpt>
      <trkpt lat="48.85837" lon="2.28403">
        <ele>104</ele>
        <time>2013-10-15T19:17:31.213Z</time>
      </trkpt>
      <trkpt lat="48.85837" lon="2.284">
        <ele>106</ele>
        <time>2013-10-15T19:17:32.213Z</time>
      </trkpt>
      <trkpt lat="48.85837" lon="2.28387">
        <ele>106</ele>
        <time>2013-10-15T19:17:37.206Z</time>
      </trkpt>
      <trkpt lat="48.85836" lon="2.28385">
        <ele>108</ele>
        <time>2013-10-15T19:17:38.209Z</time>
      </trkpt>
      <trkpt lat="48.85832" lon="2.28374">
        <ele>103</ele>
        <time>2013-10-15T19:17:42.205Z</time>
      </trkpt>
      <trkpt lat="48.8583" lon="2.2837">
        <ele>100</ele>
        <time>2013-10-15T19:17:43.206Z</time>
      </trkpt>
      <trkpt lat="48.85827" lon="2.2836">
        <ele>98</ele>
        <time>2013-10-15T19:17:46.214Z</time>
      </trkpt>
      <trkpt lat="48.85827" lon="2.28356">
        <ele>102</ele>
        <time>2013-10-15T19:17:47.206Z</time>
      </trkpt>
      <trkpt lat="48.85825" lon="2.28345">
        <ele>107</ele>
        <time>2013-10-15T19:17:50.208Z</time>
      </trkpt>
      <trkpt lat="48.85824" lon="2.2834">
        <ele>108</ele>
        <time>2013-10-15T19:17:51.209Z</time>
      </trkpt>
      <trkpt lat="48.85821" lon="2.28328">
        <ele>100</ele>
        <time>2013-10-15T19:17:54.203Z</time>
      </trkpt>
      <trkpt lat="48.8582" lon="2.28323">
        <ele>98</ele>
        <time>2013-10-15T19:17:55.256Z</time>
      </trkpt>
      <trkpt lat="48.85818" lon="2.28312">
        <ele>101</ele>
        <time>2013-10-15T19:17:58.214Z</time>
      </trkpt>
      <trkpt lat="48.85817" lon="2.28308">
        <ele>100</ele>
        <time>2013-10-15T19:17:59.204Z</time>
      </trkpt>
      <trkpt lat="48.85817" lon="2.28296">
        <ele>98</ele>
        <time>2013-10-15T19:18:02.204Z</time>
      </trkpt>
      <trkpt lat="48.85817" lon="2.28291">
        <ele>97</ele>
        <time>2013-10-15T19:18:03.208Z</time>
      </trkpt>
      <trkpt lat="48.85817" lon="2.28281">
        <ele>96</ele>
        <time>2013-10-15T19:18:05.210Z</time>
      </trkpt>
      <trkpt lat="48.85817" lon="2.28276">
        <ele>98</ele>
        <time>2013-10-15T19:18:06.204Z</time>
      </trkpt>
      <trkpt lat="48.85817" lon="2.28266">
        <ele>95</ele>
        <time>2013-10-15T19:18:08.208Z</time>
      </trkpt>
      <trkpt lat="48.85819" lon="2.28257">
        <ele>94</ele>
        <time>2013-10-15T19:18:10.205Z</time>
      </trkpt>
      <trkpt lat="48.85823" lon="2.28246">
        <ele>93</ele>
        <time>2013-10-15T19:18:13.209Z</time>
      </trkpt>
      <trkpt lat="48.85825" lon="2.28242">
        <ele>93</ele>
        <time>2013-10-15T19:18:14.206Z</time>
      </trkpt>
      <trkpt lat="48.8583" lon="2.28232">
        <ele>93</ele>
        <time>2013-10-15T19:18:17.204Z</time>
      </trkpt>
      <trkpt lat="48.85832" lon="2.28229">
        <ele>93</ele>
        <time>2013-10-15T19:18:18.206Z</time>
      </trkpt>
      <trkpt lat="48.85839" lon="2.28213">
        <ele>91</ele>
        <time>2013-10-15T19:18:23.204Z</time>
      </trkpt>
      <trkpt lat="48.85843" lon="2.28203">
        <ele>93</ele>
        <time>2013-10-15T19:18:27.189Z</time>
      </trkpt>
      <trkpt lat="48.85845" lon="2.282">
        <ele>93</ele>
        <time>2013-10-15T19:18:28.181Z</time>
      </trkpt>
      <trkpt lat="48.85851" lon="2.28192">
        <ele>92</ele>
        <time>2013-10-15T19:18:32.186Z</time>
      </trkpt>
      <trkpt lat="48.85853" lon="2.28191">
        <ele>91</ele>
        <time>2013-10-15T19:18:33.186Z</time>
      </trkpt>
      <trkpt lat="48.85857" lon="2.28196">
        <ele>96</ele>
        <time>2013-10-15T19:18:45.183Z</time>
      </trkpt>
      <trkpt lat="48.85857" lon="2.28196">
        <ele>97</ele>
        <time>2013-10-15T19:18:46.182Z</time>
      </trkpt>
      <trkpt lat="48.85857" lon="2.28196">
        <ele>94</ele>
        <time>2013-10-15T19:18:51.183Z</time>
      </trkpt>
      <trkpt lat="48.85858" lon="2.28197">
        <ele>94</ele>
        <time>2013-10-15T19:18:52.180Z</time>
      </trkpt>
      <trkpt lat="48.85859" lon="2.28199">
        <ele>92</ele>
        <time>2013-10-15T19:18:56.181Z</time>
      </trkpt>
      <trkpt lat="48.85859" lon="2.28198">
        <ele>92</ele>
        <time>2013-10-15T19:18:57.182Z</time>
      </trkpt>
      <trkpt lat="48.85859" lon="2.28198">
        <ele>94</ele>
        <time>2013-10-15T19:19:09.181Z</time>
      </trkpt>
      <trkpt lat="48.8586" lon="2.28202">
        <ele>97</ele>
        <time>2013-10-15T19:19:10.186Z</time>
      </trkpt>
      <trkpt lat="48.85862" lon="2.28212">
        <ele>93</ele>
        <time>2013-10-15T19:19:12.190Z</time>
      </trkpt>
      <trkpt lat="48.85863" lon="2.28216">
        <ele>95</ele>
        <time>2013-10-15T19:19:13.191Z</time>
      </trkpt>
      <trkpt lat="48.85866" lon="2.28225">
        <ele>97</ele>
        <time>2013-10-15T19:19:15.192Z</time>
      </trkpt>
      <trkpt lat="48.85869" lon="2.28228">
        <ele>93</ele>
        <time>2013-10-15T19:19:16.229Z</time>
      </trkpt>
      <trkpt lat="48.85876" lon="2.28235">
        <ele>99</ele>
        <time>2013-10-15T19:19:21.194Z</time>
      </trkpt>
      <trkpt lat="48.85876" lon="2.28235">
        <ele>98</ele>
        <time>2013-10-15T19:19:22.193Z</time>
      </trkpt>
      <trkpt lat="48.85875" lon="2.28233">
        <ele>96</ele>
        <time>2013-10-15T19:19:26.191Z</time>
      </trkpt>
      <trkpt lat="48.85875" lon="2.28232">
        <ele>96</ele>
        <time>2013-10-15T19:19:27.185Z</time>
      </trkpt>
      <trkpt lat="48.85874" lon="2.28231">
        <ele>96</ele>
        <time>2013-10-15T19:19:30.190Z</time>
      </trkpt>
      <trkpt lat="48.85874" lon="2.2823">
        <ele>95</ele>
        <time>2013-10-15T19:19:31.190Z</time>
      </trkpt>
      <trkpt lat="48.85867" lon="2.28222">
        <ele>97</ele>
        <time>2013-10-15T19:19:38.192Z</time>
      </trkpt>
      <trkpt lat="48.85866" lon="2.28221">
        <ele>97</ele>
        <time>2013-10-15T19:19:39.216Z</time>
      </trkpt>
      <trkpt lat="48.85858" lon="2.28215">
        <ele>91</ele>
        <time>2013-10-15T19:19:45.190Z</time>
      </trkpt>
      <trkpt lat="48.85857" lon="2.28214">
        <ele>91</ele>
        <time>2013-10-15T19:19:46.141Z</time>
      </trkpt>
      <trkpt lat="48.85849" lon="2.28214">
        <ele>92</ele>
        <time>2013-10-15T19:19:54.194Z</time>
      </trkpt>
      <trkpt lat="48.85847" lon="2.28216">
        <ele>90</ele>
        <time>2013-10-15T19:19:55.194Z</time>
      </trkpt>
      <trkpt lat="48.85842" lon="2.28224">
        <ele>90</ele>
        <time>2013-10-15T19:19:58.193Z</time>
      </trkpt>
      <trkpt lat="48.8584" lon="2.28226">
        <ele>92</ele>
        <time>2013-10-15T19:19:59.194Z</time>
      </trkpt>
      <trkpt lat="48.85834" lon="2.28227">
        <ele>93</ele>
        <time>2013-10-15T19:20:01.197Z</time>
      </trkpt>
      <trkpt lat="48.8583" lon="2.28227">
        <ele>94</ele>
        <time>2013-10-15T19:20:02.198Z</time>
      </trkpt>
      <trkpt lat="48.85824" lon="2.28225">
        <ele>95</ele>
        <time>2013-10-15T19:20:04.197Z</time>
      </trkpt>
      <trkpt lat="48.85822" lon="2.28223">
        <ele>97</ele>
        <time>2013-10-15T19:20:05.194Z</time>
      </trkpt>
      <trkpt lat="48.85817" lon="2.28213">
        <ele>95</ele>
        <time>2013-10-15T19:20:09.198Z</time>
      </trkpt>
      <trkpt lat="48.85816" lon="2.2821">
        <ele>96</ele>
        <time>2013-10-15T19:20:10.197Z</time>
      </trkpt>
      <trkpt lat="48.85814" lon="2.28199">
        <ele>96</ele>
        <time>2013-10-15T19:20:13.198Z</time>
      </trkpt>
      <trkpt lat="48.85813" lon="2.28194">
        <ele>96</ele>
        <time>2013-10-15T19:20:14.202Z</time>
      </trkpt>
      <trkpt lat="48.85812" lon="2.28182">
        <ele>91</ele>
        <time>2013-10-15T19:20:17.191Z</time>
      </trkpt>
      <trkpt lat="48.85812" lon="2.28174">
        <ele>94</ele>
        <time>2013-10-15T19:20:19.196Z</time>
      </trkpt>
      <trkpt lat="48.85808" lon="2.28163">
        <ele>94</ele>
        <time>2013-10-15T19:20:23.196Z</time>
      </trkpt>
      <trkpt lat="48.85805" lon="2.28161">
        <ele>96</ele>
        <time>2013-10-15T19:20:24.196Z</time>
      </trkpt>
      <trkpt lat="48.85798" lon="2.28153">
        <ele>93</ele>
        <time>2013-10-15T19:20:27.196Z</time>
      </trkpt>
      <trkpt lat="48.85797" lon="2.2815">
        <ele>93</ele>
        <time>2013-10-15T19:20:28.197Z</time>
      </trkpt>
      <trkpt lat="48.85796" lon="2.2814">
        <ele>94</ele>
        <time>2013-10-15T19:20:31.200Z</time>
      </trkpt>
      <trkpt lat="48.85796" lon="2.28136">
        <ele>92</ele>
        <time>2013-10-15T19:20:32.201Z</time>
      </trkpt>
      <trkpt lat="48.85798" lon="2.28126">
        <ele>93</ele>
        <time>2013-10-15T19:20:34.200Z</time>
      </trkpt>
      <trkpt lat="48.85798" lon="2.28121">
        <ele>95</ele>
        <time>2013-10-15T19:20:35.200Z</time>
      </trkpt>
      <trkpt lat="48.85799" lon="2.28109">
        <ele>93</ele>
        <time>2013-10-15T19:20:38.198Z</time>
      </trkpt>
      <trkpt lat="48.85799" lon="2.28106">
        <ele>93</ele>
        <time>2013-10-15T19:20:39.310Z</time>
      </trkpt>
      <trkpt lat="48.85802" lon="2.28094">
        <ele>100</ele>
        <time>2013-10-15T19:20:53.202Z</time>
      </trkpt>
      <trkpt lat="48.85801" lon="2.28091">
        <ele>100</ele>
        <time>2013-10-15T19:20:54.201Z</time>
      </trkpt>
      <trkpt lat="48.85796" lon="2.28082">
        <ele>99</ele>
        <time>2013-10-15T19:20:57.196Z</time>
      </trkpt>
      <trkpt lat="48.85794" lon="2.28078">
        <ele>98</ele>
        <time>2013-10-15T19:20:58.196Z</time>
      </trkpt>
      <trkpt lat="48.85789" lon="2.28072">
        <ele>95</ele>
        <time>2013-10-15T19:21:00.211Z</time>
      </trkpt>
      <trkpt lat="48.85787" lon="2.28069">
        <ele>94</ele>
        <time>2013-10-15T19:21:01.200Z</time>
      </trkpt>
      <trkpt lat="48.85781" lon="2.28059">
        <ele>95</ele>
        <time>2013-10-15T19:21:04.200Z</time>
      </trkpt>
      <trkpt lat="48.85779" lon="2.28055">
        <ele>93</ele>
        <time>2013-10-15T19:21:05.196Z</time>
      </trkpt>
      <trkpt lat="48.85776" lon="2.28043">
        <ele>93</ele>
        <time>2013-10-15T19:21:08.265Z</time>
      </trkpt>
      <trkpt lat="48.85776" lon="2.28039">
        <ele>93</ele>
        <time>2013-10-15T19:21:09.200Z</time>
      </trkpt>
      <trkpt lat="48.85775" lon="2.2803">
        <ele>94</ele>
        <time>2013-10-15T19:21:11.201Z</time>
      </trkpt>
      <trkpt lat="48.85774" lon="2.28025">
        <ele>94</ele>
        <time>2013-10-15T19:21:12.204Z</time>
      </trkpt>
      <trkpt lat="48.85771" lon="2.28015">
        <ele>92</ele>
        <time>2013-10-15T19:21:14.204Z</time>
      </trkpt>
      <trkpt lat="48.8577" lon="2.28011">
        <ele>91</ele>
        <time>2013-10-15T19:21:15.184Z</time>
      </trkpt>
      <trkpt lat="48.85765" lon="2.28001">
        <ele>98</ele>
        <time>2013-10-15T19:21:18.205Z</time>
      </trkpt>
      <trkpt lat="48.85764" lon="2.28">
        <ele>97</ele>
        <time>2013-10-15T19:21:19.204Z</time>
      </trkpt>
      <trkpt lat="48.85757" lon="2.27999">
        <ele>101</ele>
        <time>2013-10-15T19:21:24.210Z</time>
      </trkpt>
      <trkpt lat="48.85754" lon="2.27999">
        <ele>100</ele>
        <time>2013-10-15T19:21:25.215Z</time>
      </trkpt>
      <trkpt lat="48.85748" lon="2.28003">
        <ele>102</ele>
        <time>2013-10-15T19:21:27.208Z</time>
      </trkpt>
      <trkpt lat="48.85745" lon="2.28005">
        <ele>102</ele>
        <time>2013-10-15T19:21:28.209Z</time>
      </trkpt>
      <trkpt lat="48.85737" lon="2.2801">
        <ele>108</ele>
        <time>2013-10-15T19:21:30.209Z</time>
      </trkpt>
      <trkpt lat="48.85733" lon="2.28012">
        <ele>107</ele>
        <time>2013-10-15T19:21:31.208Z</time>
      </trkpt>
      <trkpt lat="48.85728" lon="2.28014">
        <ele>109</ele>
        <time>2013-10-15T19:21:32.206Z</time>
      </trkpt>
      <trkpt lat="48.85724" lon="2.28016">
        <ele>103</ele>
        <time>2013-10-15T19:21:33.202Z</time>
      </trkpt>
      <trkpt lat="48.85715" lon="2.28019">
        <ele>102</ele>
        <time>2013-10-15T19:21:35.205Z</time>
      </trkpt>
      <trkpt lat="48.85711" lon="2.2802">
        <ele>100</ele>
        <time>2013-10-15T19:21:36.205Z</time>
      </trkpt>
      <trkpt lat="48.85703" lon="2.28024">
        <ele>98</ele>
        <time>2013-10-15T19:21:38.205Z</time>
      </trkpt>
      <trkpt lat="48.85699" lon="2.28026">
        <ele>98</ele>
        <time>2013-10-15T19:21:39.342Z</time>
      </trkpt>
      <trkpt lat="48.85693" lon="2.28029">
        <ele>96</ele>
        <time>2013-10-15T19:21:41.204Z</time>
      </trkpt>
      <trkpt lat="48.8569" lon="2.2803">
        <ele>97</ele>
        <time>2013-10-15T19:21:42.208Z</time>
      </trkpt>
      <trkpt lat="48.85682" lon="2.28035">
        <ele>102</ele>
        <time>2013-10-15T19:21:45.239Z</time>
      </trkpt>
      <trkpt lat="48.85679" lon="2.28036">
        <ele>102</ele>
        <time>2013-10-15T19:21:46.153Z</time>
      </trkpt>
      <trkpt lat="48.85672" lon="2.28036">
        <ele>100</ele>
        <time>2013-10-15T19:21:48.204Z</time>
      </trkpt>
      <trkpt lat="48.85668" lon="2.28037">
        <ele>99</ele>
        <time>2013-10-15T19:21:49.203Z</time>
      </trkpt>
      <trkpt lat="48.8565" lon="2.28038">
        <ele>95</ele>
        <time>2013-10-15T19:21:54.202Z</time>
      </trkpt>
      <trkpt lat="48.85642" lon="2.28037">
        <ele>94</ele>
        <time>2013-10-15T19:21:56.202Z</time>
      </trkpt>
      <trkpt lat="48.85639" lon="2.28036">
        <ele>93</ele>
        <time>2013-10-15T19:21:57.202Z</time>
      </trkpt>
      <trkpt lat="48.85631" lon="2.28034">
        <ele>95</ele>
        <time>2013-10-15T19:21:59.205Z</time>
      </trkpt>
      <trkpt lat="48.85628" lon="2.28031">
        <ele>95</ele>
        <time>2013-10-15T19:22:00.227Z</time>
      </trkpt>
      <trkpt lat="48.85622" lon="2.28023">
        <ele>94</ele>
        <time>2013-10-15T19:22:02.200Z</time>
      </trkpt>
      <trkpt lat="48.85619" lon="2.28019">
        <ele>94</ele>
        <time>2013-10-15T19:22:03.191Z</time>
      </trkpt>
      <trkpt lat="48.85616" lon="2.2801">
        <ele>96</ele>
        <time>2013-10-15T19:22:05.205Z</time>
      </trkpt>
      <trkpt lat="48.85615" lon="2.28006">
        <ele>95</ele>
        <time>2013-10-15T19:22:06.205Z</time>
      </trkpt>
      <trkpt lat="48.85613" lon="2.27995">
        <ele>94</ele>
        <time>2013-10-15T19:22:09.203Z</time>
      </trkpt>
      <trkpt lat="48.85613" lon="2.27992">
        <ele>96</ele>
        <time>2013-10-15T19:22:10.204Z</time>
      </trkpt>
      <trkpt lat="48.8562" lon="2.27986">
        <ele>97</ele>
        <time>2013-10-15T19:22:13.204Z</time>
      </trkpt>
      <trkpt lat="48.85621" lon="2.27983">
        <ele>95</ele>
        <time>2013-10-15T19:22:14.206Z</time>
      </trkpt>
      <trkpt lat="48.85622" lon="2.27983">
        <ele>95</ele>
        <time>2013-10-15T19:22:18.204Z</time>
      </trkpt>
      <trkpt lat="48.85622" lon="2.27985">
        <ele>94</ele>
        <time>2013-10-15T19:22:19.204Z</time>
      </trkpt>
      <trkpt lat="48.85621" lon="2.27987">
        <ele>95</ele>
        <time>2013-10-15T19:22:20.208Z</time>
      </trkpt>
      <trkpt lat="48.85616" lon="2.27996">
        <ele>97</ele>
        <time>2013-10-15T19:22:22.204Z</time>
      </trkpt>
      <trkpt lat="48.8561" lon="2.28006">
        <ele>95</ele>
        <time>2013-10-15T19:22:24.203Z</time>
      </trkpt>
      <trkpt lat="48.85607" lon="2.28012">
        <ele>92</ele>
        <time>2013-10-15T19:22:25.208Z</time>
      </trkpt>
      <trkpt lat="48.85604" lon="2.28018">
        <ele>91</ele>
        <time>2013-10-15T19:22:26.156Z</time>
      </trkpt>
      <trkpt lat="48.85599" lon="2.28029">
        <ele>95</ele>
        <time>2013-10-15T19:22:28.208Z</time>
      </trkpt>
      <trkpt lat="48.85596" lon="2.28034">
        <ele>94</ele>
        <time>2013-10-15T19:22:29.203Z</time>
      </trkpt>
      <trkpt lat="48.85591" lon="2.28044">
        <ele>94</ele>
        <time>2013-10-15T19:22:31.208Z</time>
      </trkpt>
      <trkpt lat="48.85588" lon="2.28049">
        <ele>95</ele>
        <time>2013-10-15T19:22:32.177Z</time>
      </trkpt>
      <trkpt lat="48.85585" lon="2.28054">
        <ele>98</ele>
        <time>2013-10-15T19:22:33.208Z</time>
      </trkpt>
      <trkpt lat="48.85581" lon="2.28059">
        <ele>96</ele>
        <time>2013-10-15T19:22:34.208Z</time>
      </trkpt>
      <trkpt lat="48.85575" lon="2.28068">
        <ele>94</ele>
        <time>2013-10-15T19:22:36.209Z</time>
      </trkpt>
      <trkpt lat="48.85572" lon="2.28073">
        <ele>93</ele>
        <time>2013-10-15T19:22:37.204Z</time>
      </trkpt>
      <trkpt lat="48.85568" lon="2.28081">
        <ele>93</ele>
        <time>2013-10-15T19:22:39.278Z</time>
      </trkpt>
      <trkpt lat="48.85567" lon="2.28088">
        <ele>96</ele>
        <time>2013-10-15T19:22:41.214Z</time>
      </trkpt>
      <trkpt lat="48.85563" lon="2.28081">
        <ele>96</ele>
        <time>2013-10-15T19:22:59.208Z</time>
      </trkpt>
      <trkpt lat="48.85561" lon="2.28078">
        <ele>94</ele>
        <time>2013-10-15T19:23:00.236Z</time>
      </trkpt>
      <trkpt lat="48.85555" lon="2.28073">
        <ele>91</ele>
        <time>2013-10-15T19:23:02.207Z</time>
      </trkpt>
      <trkpt lat="48.85553" lon="2.28071">
        <ele>93</ele>
        <time>2013-10-15T19:23:03.206Z</time>
      </trkpt>
      <trkpt lat="48.85546" lon="2.28065">
        <ele>91</ele>
        <time>2013-10-15T19:23:05.216Z</time>
      </trkpt>
      <trkpt lat="48.85544" lon="2.28062">
        <ele>94</ele>
        <time>2013-10-15T19:23:06.166Z</time>
      </trkpt>
      <trkpt lat="48.85538" lon="2.28055">
        <ele>92</ele>
        <time>2013-10-15T19:23:08.192Z</time>
      </trkpt>
      <trkpt lat="48.85534" lon="2.28052">
        <ele>92</ele>
        <time>2013-10-15T19:23:09.216Z</time>
      </trkpt>
      <trkpt lat="48.85528" lon="2.28045">
        <ele>92</ele>
        <time>2013-10-15T19:23:11.214Z</time>
      </trkpt>
      <trkpt lat="48.85525" lon="2.28042">
        <ele>96</ele>
        <time>2013-10-15T19:23:12.216Z</time>
      </trkpt>
      <trkpt lat="48.8552" lon="2.28035">
        <ele>92</ele>
        <time>2013-10-15T19:23:14.226Z</time>
      </trkpt>
      <trkpt lat="48.85518" lon="2.28031">
        <ele>95</ele>
        <time>2013-10-15T19:23:15.212Z</time>
      </trkpt>
      <trkpt lat="48.85515" lon="2.28021">
        <ele>89</ele>
        <time>2013-10-15T19:23:18.219Z</time>
      </trkpt>
      <trkpt lat="48.85514" lon="2.28018">
        <ele>91</ele>
        <time>2013-10-15T19:23:19.215Z</time>
      </trkpt>
      <trkpt lat="48.85505" lon="2.27999">
        <ele>95</ele>
        <time>2013-10-15T19:23:25.220Z</time>
      </trkpt>
      <trkpt lat="48.85501" lon="2.27989">
        <ele>93</ele>
        <time>2013-10-15T19:23:27.212Z</time>
      </trkpt>
      <trkpt lat="48.85498" lon="2.27983">
        <ele>95</ele>
        <time>2013-10-15T19:23:28.224Z</time>
      </trkpt>
      <trkpt lat="48.85493" lon="2.27973">
        <ele>95</ele>
        <time>2013-10-15T19:23:30.217Z</time>
      </trkpt>
      <trkpt lat="48.85491" lon="2.27968">
        <ele>95</ele>
        <time>2013-10-15T19:23:31.217Z</time>
      </trkpt>
      <trkpt lat="48.85489" lon="2.27959">
        <ele>90</ele>
        <time>2013-10-15T19:23:33.216Z</time>
      </trkpt>
      <trkpt lat="48.85487" lon="2.27955">
        <ele>91</ele>
        <time>2013-10-15T19:23:34.230Z</time>
      </trkpt>
      <trkpt lat="48.85484" lon="2.27948">
        <ele>95</ele>
        <time>2013-10-15T19:23:36.212Z</time>
      </trkpt>
      <trkpt lat="48.85482" lon="2.27944">
        <ele>96</ele>
        <time>2013-10-15T19:23:37.220Z</time>
      </trkpt>
      <trkpt lat="48.85479" lon="2.27935">
        <ele>96</ele>
        <time>2013-10-15T19:23:39.361Z</time>
      </trkpt>
      <trkpt lat="48.85478" lon="2.27931">
        <ele>93</ele>
        <time>2013-10-15T19:23:40.221Z</time>
      </trkpt>
      <trkpt lat="48.85473" lon="2.27919">
        <ele>98</ele>
        <time>2013-10-15T19:23:43.188Z</time>
      </trkpt>
      <trkpt lat="48.85471" lon="2.27914">
        <ele>96</ele>
        <time>2013-10-15T19:23:44.188Z</time>
      </trkpt>
      <trkpt lat="48.85468" lon="2.27904">
        <ele>96</ele>
        <time>2013-10-15T19:23:46.146Z</time>
      </trkpt>
      <trkpt lat="48.85466" lon="2.27899">
        <ele>94</ele>
        <time>2013-10-15T19:23:47.189Z</time>
      </trkpt>
      <trkpt lat="48.85463" lon="2.27888">
        <ele>95</ele>
        <time>2013-10-15T19:23:50.190Z</time>
      </trkpt>
      <trkpt lat="48.85462" lon="2.27885">
        <ele>95</ele>
        <time>2013-10-15T19:23:51.190Z</time>
      </trkpt>
      <trkpt lat="48.85459" lon="2.27876">
        <ele>94</ele>
        <time>2013-10-15T19:23:53.193Z</time>
      </trkpt>
      <trkpt lat="48.85457" lon="2.27871">
        <ele>93</ele>
        <time>2013-10-15T19:23:54.191Z</time>
      </trkpt>
      <trkpt lat="48.85452" lon="2.27861">
        <ele>93</ele>
        <time>2013-10-15T19:23:56.192Z</time>
      </trkpt>
      <trkpt lat="48.85449" lon="2.27856">
        <ele>93</ele>
        <time>2013-10-15T19:23:57.191Z</time>
      </trkpt>
      <trkpt lat="48.85443" lon="2.27848">
        <ele>91</ele>
        <time>2013-10-15T19:23:59.194Z</time>
      </trkpt>
      <trkpt lat="48.8544" lon="2.27844">
        <ele>92</ele>
        <time>2013-10-15T19:24:00.277Z</time>
      </trkpt>
      <trkpt lat="48.85435" lon="2.27834">
        <ele>92</ele>
        <time>2013-10-15T19:24:03.193Z</time>
      </trkpt>
      <trkpt lat="48.85433" lon="2.27831">
        <ele>92</ele>
        <time>2013-10-15T19:24:04.200Z</time>
      </trkpt>
      <trkpt lat="48.85428" lon="2.2782">
        <ele>90</ele>
        <time>2013-10-15T19:24:07.198Z</time>
      </trkpt>
      <trkpt lat="48.85426" lon="2.27816">
        <ele>91</ele>
        <time>2013-10-15T19:24:08.200Z</time>
      </trkpt>
      <trkpt lat="48.8542" lon="2.27807">
        <ele>92</ele>
        <time>2013-10-15T19:24:10.165Z</time>
      </trkpt>
      <trkpt lat="48.85416" lon="2.27804">
        <ele>91</ele>
        <time>2013-10-15T19:24:11.197Z</time>
      </trkpt>
      <trkpt lat="48.85411" lon="2.27801">
        <ele>90</ele>
        <time>2013-10-15T19:24:12.193Z</time>
      </trkpt>
      <trkpt lat="48.85406" lon="2.27798">
        <ele>88</ele>
        <time>2013-10-15T19:24:13.208Z</time>
      </trkpt>
      <trkpt lat="48.854" lon="2.27795">
        <ele>89</ele>
        <time>2013-10-15T19:24:14.370Z</time>
      </trkpt>
      <trkpt lat="48.85395" lon="2.27791">
        <ele>88</ele>
        <time>2013-10-15T19:24:15.200Z</time>
      </trkpt>
      <trkpt lat="48.85389" lon="2.27787">
        <ele>87</ele>
        <time>2013-10-15T19:24:16.204Z</time>
      </trkpt>
      <trkpt lat="48.85384" lon="2.27782">
        <ele>83</ele>
        <time>2013-10-15T19:24:17.197Z</time>
      </trkpt>
      <trkpt lat="48.8538" lon="2.27778">
        <ele>85</ele>
        <time>2013-10-15T19:24:18.190Z</time>
      </trkpt>
      <trkpt lat="48.85375" lon="2.27773">
        <ele>82</ele>
        <time>2013-10-15T19:24:19.196Z</time>
      </trkpt>
      <trkpt lat="48.8537" lon="2.27768">
        <ele>82</ele>
        <time>2013-10-15T19:24:20.196Z</time>
      </trkpt>
      <trkpt lat="48.85365" lon="2.27761">
        <ele>81</ele>
        <time>2013-10-15T19:24:21.198Z</time>
      </trkpt>
      <trkpt lat="48.85361" lon="2.27754">
        <ele>83</ele>
        <time>2013-10-15T19:24:22.196Z</time>
      </trkpt>
      <trkpt lat="48.85357" lon="2.27747">
        <ele>89</ele>
        <time>2013-10-15T19:24:23.200Z</time>
      </trkpt>
      <trkpt lat="48.85352" lon="2.27738">
        <ele>89</ele>
        <time>2013-10-15T19:24:24.225Z</time>
      </trkpt>
      <trkpt lat="48.85348" lon="2.27729">
        <ele>87</ele>
        <time>2013-10-15T19:24:25.198Z</time>
      </trkpt>
      <trkpt lat="48.85343" lon="2.27719">
        <ele>86</ele>
        <time>2013-10-15T19:24:26.143Z</time>
      </trkpt>
      <trkpt lat="48.85337" lon="2.27708">
        <ele>84</ele>
        <time>2013-10-15T19:24:27.202Z</time>
      </trkpt>
      <trkpt lat="48.85331" lon="2.27699">
        <ele>84</ele>
        <time>2013-10-15T19:24:28.204Z</time>
      </trkpt>
      <trkpt lat="48.85326" lon="2.27689">
        <ele>84</ele>
        <time>2013-10-15T19:24:29.231Z</time>
      </trkpt>
      <trkpt lat="48.85321" lon="2.2768">
        <ele>83</ele>
        <time>2013-10-15T19:24:30.200Z</time>
      </trkpt>
      <trkpt lat="48.85316" lon="2.27671">
        <ele>84</ele>
        <time>2013-10-15T19:24:31.213Z</time>
      </trkpt>
      <trkpt lat="48.85312" lon="2.27662">
        <ele>82</ele>
        <time>2013-10-15T19:24:32.208Z</time>
      </trkpt>
      <trkpt lat="48.85307" lon="2.27653">
        <ele>83</ele>
        <time>2013-10-15T19:24:33.200Z</time>
      </trkpt>
      <trkpt lat="48.85303" lon="2.27646">
        <ele>83</ele>
        <time>2013-10-15T19:24:34.202Z</time>
      </trkpt>
      <trkpt lat="48.85298" lon="2.27638">
        <ele>83</ele>
        <time>2013-10-15T19:24:35.204Z</time>
      </trkpt>
      <trkpt lat="48.85295" lon="2.27632">
        <ele>86</ele>
        <time>2013-10-15T19:24:36.196Z</time>
      </trkpt>
      <trkpt lat="48.85291" lon="2.27625">
        <ele>87</ele>
        <time>2013-10-15T19:24:37.198Z</time>
      </trkpt>
      <trkpt lat="48.85287" lon="2.27619">
        <ele>86</ele>
        <time>2013-10-15T19:24:38.197Z</time>
      </trkpt>
      <trkpt lat="48.85283" lon="2.27613">
        <ele>87</ele>
        <time>2013-10-15T19:24:39.262Z</time>
      </trkpt>
      <trkpt lat="48.85277" lon="2.27604">
        <ele>84</ele>
        <time>2013-10-15T19:24:43.203Z</time>
      </trkpt>
      <trkpt lat="48.85275" lon="2.27602">
        <ele>84</ele>
        <time>2013-10-15T19:24:44.206Z</time>
      </trkpt>
      <trkpt lat="48.85276" lon="2.27602">
        <ele>84</ele>
        <time>2013-10-15T19:24:50.199Z</time>
      </trkpt>
      <trkpt lat="48.85276" lon="2.27603">
        <ele>84</ele>
        <time>2013-10-15T19:24:51.202Z</time>
      </trkpt>
      <trkpt lat="48.85277" lon="2.27604">
        <ele>84</ele>
        <time>2013-10-15T19:25:08.291Z</time>
      </trkpt>
      <trkpt lat="48.85281" lon="2.27603">
        <ele>86</ele>
        <time>2013-10-15T19:25:09.202Z</time>
      </trkpt>
      <trkpt lat="48.85288" lon="2.276">
        <ele>86</ele>
        <time>2013-10-15T19:25:18.199Z</time>
      </trkpt>
      <trkpt lat="48.85287" lon="2.27601">
        <ele>86</ele>
        <time>2013-10-15T19:25:19.200Z</time>
      </trkpt>
      <trkpt lat="48.85285" lon="2.276">
        <ele>83</ele>
        <time>2013-10-15T19:25:37.209Z</time>
      </trkpt>
      <trkpt lat="48.85285" lon="2.276">
        <ele>83</ele>
        <time>2013-10-15T19:25:38.206Z</time>
      </trkpt>
      <trkpt lat="48.85276" lon="2.27599">
        <ele>79</ele>
        <time>2013-10-15T19:25:42.205Z</time>
      </trkpt>
      <trkpt lat="48.85271" lon="2.27601">
        <ele>84</ele>
        <time>2013-10-15T19:25:43.202Z</time>
      </trkpt>
      <trkpt lat="48.85266" lon="2.27603">
        <ele>85</ele>
        <time>2013-10-15T19:25:44.205Z</time>
      </trkpt>
      <trkpt lat="48.85262" lon="2.27606">
        <ele>87</ele>
        <time>2013-10-15T19:25:45.200Z</time>
      </trkpt>
      <trkpt lat="48.85258" lon="2.27611">
        <ele>85</ele>
        <time>2013-10-15T19:25:46.159Z</time>
      </trkpt>
      <trkpt lat="48.85253" lon="2.27616">
        <ele>83</ele>
        <time>2013-10-15T19:25:47.210Z</time>
      </trkpt>
      <trkpt lat="48.85249" lon="2.27621">
        <ele>86</ele>
        <time>2013-10-15T19:25:48.200Z</time>
      </trkpt>
      <trkpt lat="48.85245" lon="2.27627">
        <ele>86</ele>
        <time>2013-10-15T19:25:49.204Z</time>
      </trkpt>
      <trkpt lat="48.85241" lon="2.27633">
        <ele>85</ele>
        <time>2013-10-15T19:25:50.208Z</time>
      </trkpt>
      <trkpt lat="48.85237" lon="2.27641">
        <ele>87</ele>
        <time>2013-10-15T19:25:51.208Z</time>
      </trkpt>
      <trkpt lat="48.85234" lon="2.27647">
        <ele>86</ele>
        <time>2013-10-15T19:25:52.212Z</time>
      </trkpt>
      <trkpt lat="48.85232" lon="2.27653">
        <ele>89</ele>
        <time>2013-10-15T19:25:53.211Z</time>
      </trkpt>
      <trkpt lat="48.85228" lon="2.27665">
        <ele>81</ele>
        <time>2013-10-15T19:25:55.208Z</time>
      </trkpt>
      <trkpt lat="48.85226" lon="2.2767">
        <ele>79</ele>
        <time>2013-10-15T19:25:56.212Z</time>
      </trkpt>
      <trkpt lat="48.85221" lon="2.27679">
        <ele>75</ele>
        <time>2013-10-15T19:25:58.212Z</time>
      </trkpt>
      <trkpt lat="48.85218" lon="2.27684">
        <ele>75</ele>
        <time>2013-10-15T19:25:59.217Z</time>
      </trkpt>
      <trkpt lat="48.85212" lon="2.27693">
        <ele>76</ele>
        <time>2013-10-15T19:26:01.214Z</time>
      </trkpt>
      <trkpt lat="48.85209" lon="2.27698">
        <ele>76</ele>
        <time>2013-10-15T19:26:02.217Z</time>
      </trkpt>
      <trkpt lat="48.85205" lon="2.27703">
        <ele>75</ele>
        <time>2013-10-15T19:26:03.213Z</time>
      </trkpt>
      <trkpt lat="48.85202" lon="2.27708">
        <ele>73</ele>
        <time>2013-10-15T19:26:04.207Z</time>
      </trkpt>
      <trkpt lat="48.85198" lon="2.27714">
        <ele>74</ele>
        <time>2013-10-15T19:26:05.213Z</time>
      </trkpt>
      <trkpt lat="48.85195" lon="2.2772">
        <ele>73</ele>
        <time>2013-10-15T19:26:06.216Z</time>
      </trkpt>
      <trkpt lat="48.85192" lon="2.27726">
        <ele>72</ele>
        <time>2013-10-15T19:26:07.218Z</time>
      </trkpt>
      <trkpt lat="48.8519" lon="2.27732">
        <ele>72</ele>
        <time>2013-10-15T19:26:08.215Z</time>
      </trkpt>
      <trkpt lat="48.85187" lon="2.27744">
        <ele>73</ele>
        <time>2013-10-15T19:26:10.213Z</time>
      </trkpt>
      <trkpt lat="48.85186" lon="2.2775">
        <ele>74</ele>
        <time>2013-10-15T19:26:11.207Z</time>
      </trkpt>
      <trkpt lat="48.85181" lon="2.27761">
        <ele>72</ele>
        <time>2013-10-15T19:26:13.217Z</time>
      </trkpt>
      <trkpt lat="48.85176" lon="2.27764">
        <ele>74</ele>
        <time>2013-10-15T19:26:14.212Z</time>
      </trkpt>
      <trkpt lat="48.85171" lon="2.27767">
        <ele>72</ele>
        <time>2013-10-15T19:26:15.210Z</time>
      </trkpt>
      <trkpt lat="48.85167" lon="2.27772">
        <ele>74</ele>
        <time>2013-10-15T19:26:16.221Z</time>
      </trkpt>
      <trkpt lat="48.85164" lon="2.27783">
        <ele>81</ele>
        <time>2013-10-15T19:26:18.213Z</time>
      </trkpt>
      <trkpt lat="48.85163" lon="2.27788">
        <ele>83</ele>
        <time>2013-10-15T19:26:19.216Z</time>
      </trkpt>
      <trkpt lat="48.8516" lon="2.27796">
        <ele>83</ele>
        <time>2013-10-15T19:26:21.248Z</time>
      </trkpt>
      <trkpt lat="48.85159" lon="2.27801">
        <ele>81</ele>
        <time>2013-10-15T19:26:22.215Z</time>
      </trkpt>
      <trkpt lat="48.85156" lon="2.27809">
        <ele>79</ele>
        <time>2013-10-15T19:26:24.221Z</time>
      </trkpt>
      <trkpt lat="48.85155" lon="2.27813">
        <ele>76</ele>
        <time>2013-10-15T19:26:25.220Z</time>
      </trkpt>
      <trkpt lat="48.85148" lon="2.27821">
        <ele>76</ele>
        <time>2013-10-15T19:26:30.220Z</time>
      </trkpt>
      <trkpt lat="48.85147" lon="2.27821">
        <ele>76</ele>
        <time>2013-10-15T19:26:31.225Z</time>
      </trkpt>
      <trkpt lat="48.8514" lon="2.27823">
        <ele>83</ele>
        <time>2013-10-15T19:26:36.369Z</time>
      </trkpt>
      <trkpt lat="48.85138" lon="2.27824">
        <ele>83</ele>
        <time>2013-10-15T19:26:37.220Z</time>
      </trkpt>
      <trkpt lat="48.85131" lon="2.27821">
        <ele>85</ele>
        <time>2013-10-15T19:26:41.214Z</time>
      </trkpt>
      <trkpt lat="48.85127" lon="2.27816">
        <ele>84</ele>
        <time>2013-10-15T19:26:42.206Z</time>
      </trkpt>
      <trkpt lat="48.8512" lon="2.27808">
        <ele>87</ele>
        <time>2013-10-15T19:26:44.209Z</time>
      </trkpt>
      <trkpt lat="48.85116" lon="2.27803">
        <ele>91</ele>
        <time>2013-10-15T19:26:45.212Z</time>
      </trkpt>
      <trkpt lat="48.8511" lon="2.27795">
        <ele>90</ele>
        <time>2013-10-15T19:26:47.213Z</time>
      </trkpt>
      <trkpt lat="48.85107" lon="2.2779">
        <ele>89</ele>
        <time>2013-10-15T19:26:48.209Z</time>
      </trkpt>
      <trkpt lat="48.85103" lon="2.27786">
        <ele>90</ele>
        <time>2013-10-15T19:26:49.209Z</time>
      </trkpt>
      <trkpt lat="48.85099" lon="2.27779">
        <ele>89</ele>
        <time>2013-10-15T19:26:50.212Z</time>
      </trkpt>
      <trkpt lat="48.85095" lon="2.27773">
        <ele>88</ele>
        <time>2013-10-15T19:26:51.212Z</time>
      </trkpt>
      <trkpt lat="48.85091" lon="2.27766">
        <ele>88</ele>
        <time>2013-10-15T19:26:52.212Z</time>
      </trkpt>
      <trkpt lat="48.85087" lon="2.27759">
        <ele>90</ele>
        <time>2013-10-15T19:26:53.210Z</time>
      </trkpt>
      <trkpt lat="48.85084" lon="2.27753">
        <ele>87</ele>
        <time>2013-10-15T19:26:54.212Z</time>
      </trkpt>
      <trkpt lat="48.8508" lon="2.27747">
        <ele>85</ele>
        <time>2013-10-15T19:26:55.216Z</time>
      </trkpt>
      <trkpt lat="48.85077" lon="2.27742">
        <ele>86</ele>
        <time>2013-10-15T19:26:56.213Z</time>
      </trkpt>
      <trkpt lat="48.85072" lon="2.27734">
        <ele>88</ele>
        <time>2013-10-15T19:26:58.213Z</time>
      </trkpt>
      <trkpt lat="48.8507" lon="2.2773">
        <ele>88</ele>
        <time>2013-10-15T19:26:59.208Z</time>
      </trkpt>
      <trkpt lat="48.85065" lon="2.2772">
        <ele>87</ele>
        <time>2013-10-15T19:27:02.210Z</time>
      </trkpt>
      <trkpt lat="48.85063" lon="2.27716">
        <ele>90</ele>
        <time>2013-10-15T19:27:03.208Z</time>
      </trkpt>
      <trkpt lat="48.85058" lon="2.27709">
        <ele>93</ele>
        <time>2013-10-15T19:27:05.213Z</time>
      </trkpt>
      <trkpt lat="48.85056" lon="2.27705">
        <ele>91</ele>
        <time>2013-10-15T19:27:06.216Z</time>
      </trkpt>
      <trkpt lat="48.85051" lon="2.27698">
        <ele>92</ele>
        <time>2013-10-15T19:27:08.187Z</time>
      </trkpt>
      <trkpt lat="48.85049" lon="2.27694">
        <ele>90</ele>
        <time>2013-10-15T19:27:09.214Z</time>
      </trkpt>
      <trkpt lat="48.85045" lon="2.27688">
        <ele>91</ele>
        <time>2013-10-15T19:27:11.217Z</time>
      </trkpt>
      <trkpt lat="48.85042" lon="2.27684">
        <ele>94</ele>
        <time>2013-10-15T19:27:12.217Z</time>
      </trkpt>
      <trkpt lat="48.85038" lon="2.27677">
        <ele>90</ele>
        <time>2013-10-15T19:27:14.217Z</time>
      </trkpt>
      <trkpt lat="48.85036" lon="2.27673">
        <ele>90</ele>
        <time>2013-10-15T19:27:15.214Z</time>
      </trkpt>
      <trkpt lat="48.85032" lon="2.27665">
        <ele>92</ele>
        <time>2013-10-15T19:27:17.217Z</time>
      </trkpt>
      <trkpt lat="48.8503" lon="2.27661">
        <ele>91</ele>
        <time>2013-10-15T19:27:18.211Z</time>
      </trkpt>
      <trkpt lat="48.85025" lon="2.2765">
        <ele>93</ele>
        <time>2013-10-15T19:27:25.217Z</time>
      </trkpt>
      <trkpt lat="48.85024" lon="2.27648">
        <ele>93</ele>
        <time>2013-10-15T19:27:26.218Z</time>
      </trkpt>
      <trkpt lat="48.85019" lon="2.27637">
        <ele>93</ele>
        <time>2013-10-15T19:27:29.217Z</time>
      </trkpt>
      <trkpt lat="48.85017" lon="2.27633">
        <ele>93</ele>
        <time>2013-10-15T19:27:30.220Z</time>
      </trkpt>
      <trkpt lat="48.85012" lon="2.27625">
        <ele>93</ele>
        <time>2013-10-15T19:27:32.216Z</time>
      </trkpt>
      <trkpt lat="48.85009" lon="2.27621">
        <ele>92</ele>
        <time>2013-10-15T19:27:33.216Z</time>
      </trkpt>
      <trkpt lat="48.85003" lon="2.27614">
        <ele>93</ele>
        <time>2013-10-15T19:27:35.215Z</time>
      </trkpt>
      <trkpt lat="48.85" lon="2.2761">
        <ele>95</ele>
        <time>2013-10-15T19:27:36.213Z</time>
      </trkpt>
      <trkpt lat="48.84992" lon="2.27606">
        <ele>95</ele>
        <time>2013-10-15T19:27:38.240Z</time>
      </trkpt>
      <trkpt lat="48.84988" lon="2.27604">
        <ele>94</ele>
        <time>2013-10-15T19:27:39.327Z</time>
      </trkpt>
      <trkpt lat="48.84981" lon="2.27604">
        <ele>94</ele>
        <time>2013-10-15T19:27:40.222Z</time>
      </trkpt>
      <trkpt lat="48.84978" lon="2.27604">
        <ele>94</ele>
        <time>2013-10-15T19:27:41.219Z</time>
      </trkpt>
      <trkpt lat="48.8497" lon="2.27604">
        <ele>94</ele>
        <time>2013-10-15T19:27:44.221Z</time>
      </trkpt>
      <trkpt lat="48.84965" lon="2.27602">
        <ele>93</ele>
        <time>2013-10-15T19:27:45.225Z</time>
      </trkpt>
      <trkpt lat="48.8496" lon="2.27598">
        <ele>93</ele>
        <time>2013-10-15T19:27:46.221Z</time>
      </trkpt>
      <trkpt lat="48.84954" lon="2.27594">
        <ele>94</ele>
        <time>2013-10-15T19:27:47.224Z</time>
      </trkpt>
      <trkpt lat="48.84949" lon="2.2759">
        <ele>97</ele>
        <time>2013-10-15T19:27:48.221Z</time>
      </trkpt>
      <trkpt lat="48.84945" lon="2.27585">
        <ele>98</ele>
        <time>2013-10-15T19:27:49.220Z</time>
      </trkpt>
      <trkpt lat="48.84938" lon="2.27578">
        <ele>95</ele>
        <time>2013-10-15T19:27:51.215Z</time>
      </trkpt>
      <trkpt lat="48.84934" lon="2.27575">
        <ele>95</ele>
        <time>2013-10-15T19:27:52.215Z</time>
      </trkpt>
      <trkpt lat="48.84927" lon="2.2757">
        <ele>97</ele>
        <time>2013-10-15T19:27:56.218Z</time>
      </trkpt>
      <trkpt lat="48.84926" lon="2.27569">
        <ele>97</ele>
        <time>2013-10-15T19:27:57.222Z</time>
      </trkpt>
      <trkpt lat="48.84917" lon="2.27564">
        <ele>95</ele>
        <time>2013-10-15T19:28:01.218Z</time>
      </trkpt>
      <trkpt lat="48.84913" lon="2.27561">
        <ele>94</ele>
        <time>2013-10-15T19:28:02.215Z</time>
      </trkpt>
      <trkpt lat="48.84907" lon="2.27558">
        <ele>94</ele>
        <time>2013-10-15T19:28:05.222Z</time>
      </trkpt>
      <trkpt lat="48.84903" lon="2.27555">
        <ele>93</ele>
        <time>2013-10-15T19:28:06.222Z</time>
      </trkpt>
      <trkpt lat="48.84899" lon="2.27552">
        <ele>94</ele>
        <time>2013-10-15T19:28:07.220Z</time>
      </trkpt>
      <trkpt lat="48.84895" lon="2.27549">
        <ele>92</ele>
        <time>2013-10-15T19:28:08.222Z</time>
      </trkpt>
      <trkpt lat="48.84891" lon="2.27546">
        <ele>93</ele>
        <time>2013-10-15T19:28:09.222Z</time>
      </trkpt>
      <trkpt lat="48.84887" lon="2.27542">
        <ele>92</ele>
        <time>2013-10-15T19:28:10.220Z</time>
      </trkpt>
      <trkpt lat="48.84879" lon="2.27536">
        <ele>95</ele>
        <time>2013-10-15T19:28:12.216Z</time>
      </trkpt>
      <trkpt lat="48.84875" lon="2.27533">
        <ele>95</ele>
        <time>2013-10-15T19:28:13.216Z</time>
      </trkpt>
      <trkpt lat="48.84871" lon="2.2753">
        <ele>92</ele>
        <time>2013-10-15T19:28:14.221Z</time>
      </trkpt>
      <trkpt lat="48.84866" lon="2.27528">
        <ele>93</ele>
        <time>2013-10-15T19:28:15.221Z</time>
      </trkpt>
      <trkpt lat="48.84861" lon="2.27526">
        <ele>97</ele>
        <time>2013-10-15T19:28:16.228Z</time>
      </trkpt>
      <trkpt lat="48.84856" lon="2.27523">
        <ele>98</ele>
        <time>2013-10-15T19:28:17.218Z</time>
      </trkpt>
      <trkpt lat="48.84849" lon="2.27516">
        <ele>98</ele>
        <time>2013-10-15T19:28:19.228Z</time>
      </trkpt>
      <trkpt lat="48.84847" lon="2.27512">
        <ele>98</ele>
        <time>2013-10-15T19:28:20.225Z</time>
      </trkpt>
      <trkpt lat="48.84842" lon="2.27505">
        <ele>96</ele>
        <time>2013-10-15T19:28:22.219Z</time>
      </trkpt>
      <trkpt lat="48.84841" lon="2.27501">
        <ele>94</ele>
        <time>2013-10-15T19:28:23.219Z</time>
      </trkpt>
      <trkpt lat="48.84836" lon="2.27492">
        <ele>97</ele>
        <time>2013-10-15T19:28:25.220Z</time>
      </trkpt>
      <trkpt lat="48.84834" lon="2.27487">
        <ele>97</ele>
        <time>2013-10-15T19:28:26.218Z</time>
      </trkpt>
      <trkpt lat="48.84829" lon="2.27479">
        <ele>100</ele>
        <time>2013-10-15T19:28:28.224Z</time>
      </trkpt>
      <trkpt lat="48.84826" lon="2.27474">
        <ele>102</ele>
        <time>2013-10-15T19:28:29.220Z</time>
      </trkpt>
      <trkpt lat="48.8482" lon="2.27466">
        <ele>100</ele>
        <time>2013-10-15T19:28:31.221Z</time>
      </trkpt>
      <trkpt lat="48.84817" lon="2.27463">
        <ele>104</ele>
        <time>2013-10-15T19:28:32.220Z</time>
      </trkpt>
      <trkpt lat="48.8481" lon="2.27457">
        <ele>98</ele>
        <time>2013-10-15T19:28:34.216Z</time>
      </trkpt>
      <trkpt lat="48.84807" lon="2.27454">
        <ele>97</ele>
        <time>2013-10-15T19:28:35.225Z</time>
      </trkpt>
      <trkpt lat="48.848" lon="2.27448">
        <ele>99</ele>
        <time>2013-10-15T19:28:37.216Z</time>
      </trkpt>
      <trkpt lat="48.84797" lon="2.27445">
        <ele>102</ele>
        <time>2013-10-15T19:28:38.221Z</time>
      </trkpt>
      <trkpt lat="48.8479" lon="2.27438">
        <ele>109</ele>
        <time>2013-10-15T19:28:42.221Z</time>
      </trkpt>
      <trkpt lat="48.84788" lon="2.27435">
        <ele>102</ele>
        <time>2013-10-15T19:28:43.217Z</time>
      </trkpt>
      <trkpt lat="48.84781" lon="2.27427">
        <ele>106</ele>
        <time>2013-10-15T19:28:45.221Z</time>
      </trkpt>
      <trkpt lat="48.84778" lon="2.27423">
        <ele>105</ele>
        <time>2013-10-15T19:28:46.225Z</time>
      </trkpt>
      <trkpt lat="48.84774" lon="2.27419">
        <ele>101</ele>
        <time>2013-10-15T19:28:47.221Z</time>
      </trkpt>
      <trkpt lat="48.84771" lon="2.27414">
        <ele>100</ele>
        <time>2013-10-15T19:28:48.221Z</time>
      </trkpt>
      <trkpt lat="48.84766" lon="2.27408">
        <ele>100</ele>
        <time>2013-10-15T19:28:50.222Z</time>
      </trkpt>
      <trkpt lat="48.84764" lon="2.27405">
        <ele>102</ele>
        <time>2013-10-15T19:28:51.221Z</time>
      </trkpt>
      <trkpt lat="48.84759" lon="2.27399">
        <ele>103</ele>
        <time>2013-10-15T19:28:56.220Z</time>
      </trkpt>
      <trkpt lat="48.84757" lon="2.27396">
        <ele>103</ele>
        <time>2013-10-15T19:28:57.196Z</time>
      </trkpt>
      <trkpt lat="48.84753" lon="2.27391">
        <ele>99</ele>
        <time>2013-10-15T19:28:58.192Z</time>
      </trkpt>
      <trkpt lat="48.8475" lon="2.27386">
        <ele>98</ele>
        <time>2013-10-15T19:28:59.195Z</time>
      </trkpt>
      <trkpt lat="48.84746" lon="2.27381">
        <ele>96</ele>
        <time>2013-10-15T19:29:00.266Z</time>
      </trkpt>
      <trkpt lat="48.84743" lon="2.27375">
        <ele>96</ele>
        <time>2013-10-15T19:29:01.201Z</time>
      </trkpt>
      <trkpt lat="48.84738" lon="2.27365">
        <ele>96</ele>
        <time>2013-10-15T19:29:03.198Z</time>
      </trkpt>
      <trkpt lat="48.84737" lon="2.27363">
        <ele>96</ele>
        <time>2013-10-15T19:29:04.198Z</time>
      </trkpt>
      <trkpt lat="48.84732" lon="2.27355">
        <ele>88</ele>
        <time>2013-10-15T19:29:16.203Z</time>
      </trkpt>
      <trkpt lat="48.84732" lon="2.27355">
        <ele>88</ele>
        <time>2013-10-15T19:29:17.200Z</time>
      </trkpt>
      <trkpt lat="48.84733" lon="2.27356">
        <ele>88</ele>
        <time>2013-10-15T19:29:25.197Z</time>
      </trkpt>
      <trkpt lat="48.84731" lon="2.27355">
        <ele>93</ele>
        <time>2013-10-15T19:29:26.189Z</time>
      </trkpt>
      <trkpt lat="48.84723" lon="2.27352">
        <ele>93</ele>
        <time>2013-10-15T19:29:30.196Z</time>
      </trkpt>
      <trkpt lat="48.84722" lon="2.27351">
        <ele>93</ele>
        <time>2013-10-15T19:29:31.192Z</time>
      </trkpt>
      <trkpt lat="48.84717" lon="2.27341">
        <ele>94</ele>
        <time>2013-10-15T19:29:41.198Z</time>
      </trkpt>
      <trkpt lat="48.84714" lon="2.27338">
        <ele>91</ele>
        <time>2013-10-15T19:29:42.197Z</time>
      </trkpt>
      <trkpt lat="48.84706" lon="2.27335">
        <ele>98</ele>
        <time>2013-10-15T19:29:50.204Z</time>
      </trkpt>
      <trkpt lat="48.84705" lon="2.27335">
        <ele>98</ele>
        <time>2013-10-15T19:29:51.204Z</time>
      </trkpt>
      <trkpt lat="48.84698" lon="2.27335">
        <ele>93</ele>
        <time>2013-10-15T19:30:00.290Z</time>
      </trkpt>
      <trkpt lat="48.84696" lon="2.27334">
        <ele>93</ele>
        <time>2013-10-15T19:30:01.210Z</time>
      </trkpt>
      <trkpt lat="48.8469" lon="2.27331">
        <ele>95</ele>
        <time>2013-10-15T19:30:04.216Z</time>
      </trkpt>
      <trkpt lat="48.84686" lon="2.27328">
        <ele>95</ele>
        <time>2013-10-15T19:30:05.209Z</time>
      </trkpt>
      <trkpt lat="48.84682" lon="2.27324">
        <ele>97</ele>
        <time>2013-10-15T19:30:06.209Z</time>
      </trkpt>
      <trkpt lat="48.84677" lon="2.2732">
        <ele>96</ele>
        <time>2013-10-15T19:30:07.210Z</time>
      </trkpt>
      <trkpt lat="48.84673" lon="2.27317">
        <ele>98</ele>
        <time>2013-10-15T19:30:08.214Z</time>
      </trkpt>
      <trkpt lat="48.84669" lon="2.27313">
        <ele>95</ele>
        <time>2013-10-15T19:30:09.208Z</time>
      </trkpt>
      <trkpt lat="48.84665" lon="2.2731">
        <ele>97</ele>
        <time>2013-10-15T19:30:10.205Z</time>
      </trkpt>
      <trkpt lat="48.84661" lon="2.27306">
        <ele>97</ele>
        <time>2013-10-15T19:30:11.200Z</time>
      </trkpt>
      <trkpt lat="48.84654" lon="2.27301">
        <ele>94</ele>
        <time>2013-10-15T19:30:13.208Z</time>
      </trkpt>
      <trkpt lat="48.8465" lon="2.27298">
        <ele>95</ele>
        <time>2013-10-15T19:30:14.199Z</time>
      </trkpt>
      <trkpt lat="48.84646" lon="2.27294">
        <ele>93</ele>
        <time>2013-10-15T19:30:15.199Z</time>
      </trkpt>
      <trkpt lat="48.84642" lon="2.27291">
        <ele>94</ele>
        <time>2013-10-15T19:30:16.203Z</time>
      </trkpt>
      <trkpt lat="48.84635" lon="2.27284">
        <ele>94</ele>
        <time>2013-10-15T19:30:18.199Z</time>
      </trkpt>
      <trkpt lat="48.84632" lon="2.2728">
        <ele>94</ele>
        <time>2013-10-15T19:30:19.204Z</time>
      </trkpt>
      <trkpt lat="48.84628" lon="2.27275">
        <ele>94</ele>
        <time>2013-10-15T19:30:20.199Z</time>
      </trkpt>
      <trkpt lat="48.84625" lon="2.2727">
        <ele>92</ele>
        <time>2013-10-15T19:30:21.200Z</time>
      </trkpt>
      <trkpt lat="48.84618" lon="2.27261">
        <ele>92</ele>
        <time>2013-10-15T19:30:23.204Z</time>
      </trkpt>
      <trkpt lat="48.84615" lon="2.27257">
        <ele>93</ele>
        <time>2013-10-15T19:30:24.204Z</time>
      </trkpt>
      <trkpt lat="48.84609" lon="2.2725">
        <ele>94</ele>
        <time>2013-10-15T19:30:26.204Z</time>
      </trkpt>
      <trkpt lat="48.84606" lon="2.27248">
        <ele>91</ele>
        <time>2013-10-15T19:30:27.204Z</time>
      </trkpt>
      <trkpt lat="48.846" lon="2.27242">
        <ele>93</ele>
        <time>2013-10-15T19:30:29.200Z</time>
      </trkpt>
      <trkpt lat="48.84598" lon="2.27239">
        <ele>91</ele>
        <time>2013-10-15T19:30:30.197Z</time>
      </trkpt>
      <trkpt lat="48.84591" lon="2.27231">
        <ele>92</ele>
        <time>2013-10-15T19:30:33.205Z</time>
      </trkpt>
      <trkpt lat="48.84588" lon="2.27228">
        <ele>91</ele>
        <time>2013-10-15T19:30:34.205Z</time>
      </trkpt>
      <trkpt lat="48.84582" lon="2.2722">
        <ele>95</ele>
        <time>2013-10-15T19:30:36.206Z</time>
      </trkpt>
      <trkpt lat="48.84579" lon="2.27216">
        <ele>95</ele>
        <time>2013-10-15T19:30:37.206Z</time>
      </trkpt>
      <trkpt lat="48.84573" lon="2.27208">
        <ele>96</ele>
        <time>2013-10-15T19:30:39.354Z</time>
      </trkpt>
      <trkpt lat="48.84569" lon="2.27204">
        <ele>95</ele>
        <time>2013-10-15T19:30:40.204Z</time>
      </trkpt>
      <trkpt lat="48.84564" lon="2.27196">
        <ele>95</ele>
        <time>2013-10-15T19:30:42.206Z</time>
      </trkpt>
      <trkpt lat="48.84561" lon="2.27192">
        <ele>92</ele>
        <time>2013-10-15T19:30:43.204Z</time>
      </trkpt>
      <trkpt lat="48.84554" lon="2.27185">
        <ele>91</ele>
        <time>2013-10-15T19:30:45.204Z</time>
      </trkpt>
      <trkpt lat="48.84551" lon="2.27181">
        <ele>92</ele>
        <time>2013-10-15T19:30:46.213Z</time>
      </trkpt>
      <trkpt lat="48.84545" lon="2.27174">
        <ele>94</ele>
        <time>2013-10-15T19:30:48.204Z</time>
      </trkpt>
      <trkpt lat="48.84542" lon="2.27171">
        <ele>89</ele>
        <time>2013-10-15T19:30:49.217Z</time>
      </trkpt>
      <trkpt lat="48.84535" lon="2.27163">
        <ele>87</ele>
        <time>2013-10-15T19:30:51.207Z</time>
      </trkpt>
      <trkpt lat="48.84532" lon="2.2716">
        <ele>86</ele>
        <time>2013-10-15T19:30:52.212Z</time>
      </trkpt>
      <trkpt lat="48.84526" lon="2.27154">
        <ele>91</ele>
        <time>2013-10-15T19:30:54.203Z</time>
      </trkpt>
      <trkpt lat="48.84524" lon="2.2715">
        <ele>92</ele>
        <time>2013-10-15T19:30:55.212Z</time>
      </trkpt>
      <trkpt lat="48.84518" lon="2.27144">
        <ele>94</ele>
        <time>2013-10-15T19:30:57.214Z</time>
      </trkpt>
      <trkpt lat="48.84515" lon="2.27141">
        <ele>91</ele>
        <time>2013-10-15T19:30:58.208Z</time>
      </trkpt>
      <trkpt lat="48.84509" lon="2.27135">
        <ele>93</ele>
        <time>2013-10-15T19:31:00.231Z</time>
      </trkpt>
      <trkpt lat="48.84505" lon="2.27132">
        <ele>93</ele>
        <time>2013-10-15T19:31:01.208Z</time>
      </trkpt>
      <trkpt lat="48.84498" lon="2.27127">
        <ele>94</ele>
        <time>2013-10-15T19:31:03.213Z</time>
      </trkpt>
      <trkpt lat="48.84494" lon="2.27124">
        <ele>97</ele>
        <time>2013-10-15T19:31:04.267Z</time>
      </trkpt>
      <trkpt lat="48.84486" lon="2.27118">
        <ele>95</ele>
        <time>2013-10-15T19:31:06.209Z</time>
      </trkpt>
      <trkpt lat="48.84482" lon="2.27115">
        <ele>94</ele>
        <time>2013-10-15T19:31:07.241Z</time>
      </trkpt>
      <trkpt lat="48.84478" lon="2.27111">
        <ele>97</ele>
        <time>2013-10-15T19:31:08.225Z</time>
      </trkpt>
      <trkpt lat="48.84474" lon="2.27108">
        <ele>97</ele>
        <time>2013-10-15T19:31:09.205Z</time>
      </trkpt>
      <trkpt lat="48.84467" lon="2.27103">
        <ele>93</ele>
        <time>2013-10-15T19:31:11.213Z</time>
      </trkpt>
      <trkpt lat="48.84464" lon="2.27101">
        <ele>96</ele>
        <time>2013-10-15T19:31:12.210Z</time>
      </trkpt>
      <trkpt lat="48.84457" lon="2.27095">
        <ele>98</ele>
        <time>2013-10-15T19:31:14.216Z</time>
      </trkpt>
      <trkpt lat="48.84454" lon="2.27092">
        <ele>97</ele>
        <time>2013-10-15T19:31:15.209Z</time>
      </trkpt>
      <trkpt lat="48.84447" lon="2.27085">
        <ele>101</ele>
        <time>2013-10-15T19:31:17.213Z</time>
      </trkpt>
      <trkpt lat="48.84442" lon="2.27083">
        <ele>102</ele>
        <time>2013-10-15T19:31:18.209Z</time>
      </trkpt>
      <trkpt lat="48.84438" lon="2.27081">
        <ele>101</ele>
        <time>2013-10-15T19:31:19.204Z</time>
      </trkpt>
      <trkpt lat="48.84434" lon="2.27079">
        <ele>102</ele>
        <time>2013-10-15T19:31:20.209Z</time>
      </trkpt>
      <trkpt lat="48.84429" lon="2.27078">
        <ele>101</ele>
        <time>2013-10-15T19:31:21.209Z</time>
      </trkpt>
      <trkpt lat="48.84425" lon="2.27076">
        <ele>99</ele>
        <time>2013-10-15T19:31:22.209Z</time>
      </trkpt>
      <trkpt lat="48.8442" lon="2.27076">
        <ele>101</ele>
        <time>2013-10-15T19:31:23.210Z</time>
      </trkpt>
      <trkpt lat="48.84414" lon="2.27075">
        <ele>100</ele>
        <time>2013-10-15T19:31:24.209Z</time>
      </trkpt>
      <trkpt lat="48.84407" lon="2.27077">
        <ele>99</ele>
        <time>2013-10-15T19:31:25.213Z</time>
      </trkpt>
      <trkpt lat="48.844" lon="2.27077">
        <ele>104</ele>
        <time>2013-10-15T19:31:26.212Z</time>
      </trkpt>
      <trkpt lat="48.84395" lon="2.27075">
        <ele>107</ele>
        <time>2013-10-15T19:31:27.212Z</time>
      </trkpt>
      <trkpt lat="48.8439" lon="2.27073">
        <ele>109</ele>
        <time>2013-10-15T19:31:28.213Z</time>
      </trkpt>
      <trkpt lat="48.84385" lon="2.27071">
        <ele>113</ele>
        <time>2013-10-15T19:31:29.224Z</time>
      </trkpt>
      <trkpt lat="48.8438" lon="2.27068">
        <ele>115</ele>
        <time>2013-10-15T19:31:30.212Z</time>
      </trkpt>
      <trkpt lat="48.84375" lon="2.27066">
        <ele>116</ele>
        <time>2013-10-15T19:31:31.225Z</time>
      </trkpt>
      <trkpt lat="48.84371" lon="2.27064">
        <ele>112</ele>
        <time>2013-10-15T19:31:32.219Z</time>
      </trkpt>
      <trkpt lat="48.84364" lon="2.27058">
        <ele>104</ele>
        <time>2013-10-15T19:31:34.208Z</time>
      </trkpt>
      <trkpt lat="48.84361" lon="2.27055">
        <ele>107</ele>
        <time>2013-10-15T19:31:35.206Z</time>
      </trkpt>
      <trkpt lat="48.84355" lon="2.27049">
        <ele>107</ele>
        <time>2013-10-15T19:31:37.211Z</time>
      </trkpt>
      <trkpt lat="48.84352" lon="2.27045">
        <ele>108</ele>
        <time>2013-10-15T19:31:38.213Z</time>
      </trkpt>
      <trkpt lat="48.84346" lon="2.27037">
        <ele>105</ele>
        <time>2013-10-15T19:31:40.208Z</time>
      </trkpt>
      <trkpt lat="48.84343" lon="2.27033">
        <ele>101</ele>
        <time>2013-10-15T19:31:41.213Z</time>
      </trkpt>
      <trkpt lat="48.84337" lon="2.27024">
        <ele>104</ele>
        <time>2013-10-15T19:31:43.214Z</time>
      </trkpt>
      <trkpt lat="48.84334" lon="2.27019">
        <ele>100</ele>
        <time>2013-10-15T19:31:44.213Z</time>
      </trkpt>
      <trkpt lat="48.84331" lon="2.27014">
        <ele>98</ele>
        <time>2013-10-15T19:31:45.220Z</time>
      </trkpt>
      <trkpt lat="48.84328" lon="2.27009">
        <ele>97</ele>
        <time>2013-10-15T19:31:46.212Z</time>
      </trkpt>
      <trkpt lat="48.84321" lon="2.27">
        <ele>94</ele>
        <time>2013-10-15T19:31:48.212Z</time>
      </trkpt>
      <trkpt lat="48.84318" lon="2.26996">
        <ele>95</ele>
        <time>2013-10-15T19:31:49.212Z</time>
      </trkpt>
      <trkpt lat="48.84314" lon="2.26988">
        <ele>97</ele>
        <time>2013-10-15T19:31:51.226Z</time>
      </trkpt>
      <trkpt lat="48.84311" lon="2.26984">
        <ele>100</ele>
        <time>2013-10-15T19:31:52.216Z</time>
      </trkpt>
      <trkpt lat="48.84306" lon="2.26976">
        <ele>101</ele>
        <time>2013-10-15T19:31:54.215Z</time>
      </trkpt>
      <trkpt lat="48.84303" lon="2.26971">
        <ele>101</ele>
        <time>2013-10-15T19:31:55.214Z</time>
      </trkpt>
      <trkpt lat="48.84298" lon="2.26962">
        <ele>100</ele>
        <time>2013-10-15T19:31:57.224Z</time>
      </trkpt>
      <trkpt lat="48.84295" lon="2.26956">
        <ele>101</ele>
        <time>2013-10-15T19:31:58.218Z</time>
      </trkpt>
      <trkpt lat="48.8429" lon="2.26945">
        <ele>102</ele>
        <time>2013-10-15T19:32:00.279Z</time>
      </trkpt>
      <trkpt lat="48.84287" lon="2.26941">
        <ele>102</ele>
        <time>2013-10-15T19:32:01.216Z</time>
      </trkpt>
      <trkpt lat="48.84282" lon="2.26932">
        <ele>98</ele>
        <time>2013-10-15T19:32:03.216Z</time>
      </trkpt>
      <trkpt lat="48.84279" lon="2.26928">
        <ele>97</ele>
        <time>2013-10-15T19:32:04.216Z</time>
      </trkpt>
      <trkpt lat="48.84273" lon="2.2692">
        <ele>96</ele>
        <time>2013-10-15T19:32:06.214Z</time>
      </trkpt>
      <trkpt lat="48.8427" lon="2.26916">
        <ele>98</ele>
        <time>2013-10-15T19:32:07.217Z</time>
      </trkpt>
      <trkpt lat="48.84264" lon="2.26909">
        <ele>104</ele>
        <time>2013-10-15T19:32:09.211Z</time>
      </trkpt>
      <trkpt lat="48.8426" lon="2.26906">
        <ele>102</ele>
        <time>2013-10-15T19:32:10.216Z</time>
      </trkpt>
      <trkpt lat="48.84252" lon="2.26899">
        <ele>105</ele>
        <time>2013-10-15T19:32:12.217Z</time>
      </trkpt>
      <trkpt lat="48.84248" lon="2.26896">
        <ele>105</ele>
        <time>2013-10-15T19:32:13.218Z</time>
      </trkpt>
      <trkpt lat="48.84242" lon="2.26887">
        <ele>103</ele>
        <time>2013-10-15T19:32:15.217Z</time>
      </trkpt>
      <trkpt lat="48.84239" lon="2.26882">
        <ele>100</ele>
        <time>2013-10-15T19:32:16.222Z</time>
      </trkpt>
      <trkpt lat="48.84238" lon="2.26875">
        <ele>96</ele>
        <time>2013-10-15T19:32:17.218Z</time>
      </trkpt>
      <trkpt lat="48.84237" lon="2.26868">
        <ele>98</ele>
        <time>2013-10-15T19:32:18.217Z</time>
      </trkpt>
      <trkpt lat="48.84238" lon="2.26855">
        <ele>93</ele>
        <time>2013-10-15T19:32:20.211Z</time>
      </trkpt>
      <trkpt lat="48.84238" lon="2.2685">
        <ele>92</ele>
        <time>2013-10-15T19:32:21.210Z</time>
      </trkpt>
      <trkpt lat="48.84238" lon="2.26841">
        <ele>94</ele>
        <time>2013-10-15T19:32:23.219Z</time>
      </trkpt>
      <trkpt lat="48.84237" lon="2.26836">
        <ele>94</ele>
        <time>2013-10-15T19:32:24.215Z</time>
      </trkpt>
      <trkpt lat="48.84235" lon="2.26827">
        <ele>94</ele>
        <time>2013-10-15T19:32:26.220Z</time>
      </trkpt>
      <trkpt lat="48.84234" lon="2.26823">
        <ele>96</ele>
        <time>2013-10-15T19:32:27.221Z</time>
      </trkpt>
      <trkpt lat="48.84229" lon="2.26815">
        <ele>100</ele>
        <time>2013-10-15T19:32:29.216Z</time>
      </trkpt>
      <trkpt lat="48.84226" lon="2.2681">
        <ele>100</ele>
        <time>2013-10-15T19:32:30.222Z</time>
      </trkpt>
      <trkpt lat="48.84222" lon="2.26801">
        <ele>103</ele>
        <time>2013-10-15T19:32:32.218Z</time>
      </trkpt>
      <trkpt lat="48.84219" lon="2.26796">
        <ele>102</ele>
        <time>2013-10-15T19:32:33.220Z</time>
      </trkpt>
      <trkpt lat="48.84215" lon="2.26787">
        <ele>107</ele>
        <time>2013-10-15T19:32:35.219Z</time>
      </trkpt>
      <trkpt lat="48.84213" lon="2.26782">
        <ele>108</ele>
        <time>2013-10-15T19:32:36.227Z</time>
      </trkpt>
      <trkpt lat="48.84209" lon="2.26774">
        <ele>108</ele>
        <time>2013-10-15T19:32:38.221Z</time>
      </trkpt>
      <trkpt lat="48.84207" lon="2.2677">
        <ele>108</ele>
        <time>2013-10-15T19:32:39.349Z</time>
      </trkpt>
      <trkpt lat="48.84203" lon="2.26761">
        <ele>106</ele>
        <time>2013-10-15T19:32:41.217Z</time>
      </trkpt>
      <trkpt lat="48.84201" lon="2.26757">
        <ele>106</ele>
        <time>2013-10-15T19:32:42.220Z</time>
      </trkpt>
      <trkpt lat="48.84196" lon="2.26747">
        <ele>104</ele>
        <time>2013-10-15T19:32:44.220Z</time>
      </trkpt>
      <trkpt lat="48.84194" lon="2.26742">
        <ele>99</ele>
        <time>2013-10-15T19:32:45.217Z</time>
      </trkpt>
      <trkpt lat="48.84189" lon="2.26731">
        <ele>100</ele>
        <time>2013-10-15T19:32:47.219Z</time>
      </trkpt>
      <trkpt lat="48.84186" lon="2.26726">
        <ele>101</ele>
        <time>2013-10-15T19:32:48.222Z</time>
      </trkpt>
      <trkpt lat="48.84181" lon="2.26716">
        <ele>103</ele>
        <time>2013-10-15T19:32:50.220Z</time>
      </trkpt>
      <trkpt lat="48.84178" lon="2.26711">
        <ele>101</ele>
        <time>2013-10-15T19:32:51.222Z</time>
      </trkpt>
      <trkpt lat="48.84173" lon="2.26703">
        <ele>102</ele>
        <time>2013-10-15T19:32:53.225Z</time>
      </trkpt>
      <trkpt lat="48.84171" lon="2.267">
        <ele>100</ele>
        <time>2013-10-15T19:32:54.224Z</time>
      </trkpt>
      <trkpt lat="48.84167" lon="2.26693">
        <ele>100</ele>
        <time>2013-10-15T19:32:56.228Z</time>
      </trkpt>
      <trkpt lat="48.84164" lon="2.26691">
        <ele>98</ele>
        <time>2013-10-15T19:32:57.223Z</time>
      </trkpt>
      <trkpt lat="48.84157" lon="2.26685">
        <ele>96</ele>
        <time>2013-10-15T19:33:00.224Z</time>
      </trkpt>
      <trkpt lat="48.84153" lon="2.26683">
        <ele>87</ele>
        <time>2013-10-15T19:33:01.225Z</time>
      </trkpt>
      <trkpt lat="48.84144" lon="2.26681">
        <ele>92</ele>
        <time>2013-10-15T19:33:03.224Z</time>
      </trkpt>
      <trkpt lat="48.84138" lon="2.26676">
        <ele>95</ele>
        <time>2013-10-15T19:33:04.283Z</time>
      </trkpt>
      <trkpt lat="48.84133" lon="2.2667">
        <ele>93</ele>
        <time>2013-10-15T19:33:05.224Z</time>
      </trkpt>
      <trkpt lat="48.8413" lon="2.26664">
        <ele>92</ele>
        <time>2013-10-15T19:33:06.225Z</time>
      </trkpt>
      <trkpt lat="48.84127" lon="2.26652">
        <ele>89</ele>
        <time>2013-10-15T19:33:08.192Z</time>
      </trkpt>
      <trkpt lat="48.84126" lon="2.26646">
        <ele>90</ele>
        <time>2013-10-15T19:33:09.226Z</time>
      </trkpt>
      <trkpt lat="48.84125" lon="2.26633">
        <ele>90</ele>
        <time>2013-10-15T19:33:11.226Z</time>
      </trkpt>
      <trkpt lat="48.84125" lon="2.26626">
        <ele>89</ele>
        <time>2013-10-15T19:33:12.301Z</time>
      </trkpt>
      <trkpt lat="48.84124" lon="2.26614">
        <ele>86</ele>
        <time>2013-10-15T19:33:14.228Z</time>
      </trkpt>
      <trkpt lat="48.84123" lon="2.26608">
        <ele>88</ele>
        <time>2013-10-15T19:33:15.261Z</time>
      </trkpt>
      <trkpt lat="48.8412" lon="2.26597">
        <ele>86</ele>
        <time>2013-10-15T19:33:17.230Z</time>
      </trkpt>
      <trkpt lat="48.84119" lon="2.26592">
        <ele>85</ele>
        <time>2013-10-15T19:33:18.229Z</time>
      </trkpt>
      <trkpt lat="48.84115" lon="2.26582">
        <ele>84</ele>
        <time>2013-10-15T19:33:20.231Z</time>
      </trkpt>
      <trkpt lat="48.84113" lon="2.26578">
        <ele>85</ele>
        <time>2013-10-15T19:33:21.228Z</time>
      </trkpt>
      <trkpt lat="48.84108" lon="2.2657">
        <ele>92</ele>
        <time>2013-10-15T19:33:23.229Z</time>
      </trkpt>
      <trkpt lat="48.84106" lon="2.26566">
        <ele>89</ele>
        <time>2013-10-15T19:33:24.237Z</time>
      </trkpt>
      <trkpt lat="48.841" lon="2.26556">
        <ele>86</ele>
        <time>2013-10-15T19:33:29.236Z</time>
      </trkpt>
      <trkpt lat="48.841" lon="2.26555">
        <ele>86</ele>
        <time>2013-10-15T19:33:30.228Z</time>
      </trkpt>
      <trkpt lat="48.84097" lon="2.26543">
        <ele>92</ele>
        <time>2013-10-15T19:33:35.228Z</time>
      </trkpt>
      <trkpt lat="48.84096" lon="2.2654">
        <ele>92</ele>
        <time>2013-10-15T19:33:36.229Z</time>
      </trkpt>
      <trkpt lat="48.84093" lon="2.26529">
        <ele>84</ele>
        <time>2013-10-15T19:33:46.235Z</time>
      </trkpt>
      <trkpt lat="48.84093" lon="2.2653">
        <ele>84</ele>
        <time>2013-10-15T19:33:47.241Z</time>
      </trkpt>
      <trkpt lat="48.84093" lon="2.2653">
        <ele>84</ele>
        <time>2013-10-15T19:33:55.234Z</time>
      </trkpt>
      <trkpt lat="48.84093" lon="2.26529">
        <ele>79</ele>
        <time>2013-10-15T19:33:56.241Z</time>
      </trkpt>
      <trkpt lat="48.84087" lon="2.26522">
        <ele>85</ele>
        <time>2013-10-15T19:34:00.227Z</time>
      </trkpt>
      <trkpt lat="48.84085" lon="2.26519">
        <ele>84</ele>
        <time>2013-10-15T19:34:01.241Z</time>
      </trkpt>
      <trkpt lat="48.8408" lon="2.2651">
        <ele>84</ele>
        <time>2013-10-15T19:34:08.235Z</time>
      </trkpt>
      <trkpt lat="48.84078" lon="2.26507">
        <ele>84</ele>
        <time>2013-10-15T19:34:09.238Z</time>
      </trkpt>
      <trkpt lat="48.84077" lon="2.26504">
        <ele>84</ele>
        <time>2013-10-15T19:34:14.208Z</time>
      </trkpt>
      <trkpt lat="48.84077" lon="2.26504">
        <ele>84</ele>
        <time>2013-10-15T19:34:15.212Z</time>
      </trkpt>
      <trkpt lat="48.84078" lon="2.26505">
        <ele>84</ele>
        <time>2013-10-15T19:34:23.208Z</time>
      </trkpt>
      <trkpt lat="48.84075" lon="2.26502">
        <ele>83</ele>
        <time>2013-10-15T19:34:24.216Z</time>
      </trkpt>
      <trkpt lat="48.8407" lon="2.26496">
        <ele>82</ele>
        <time>2013-10-15T19:34:27.215Z</time>
      </trkpt>
      <trkpt lat="48.84067" lon="2.26494">
        <ele>84</ele>
        <time>2013-10-15T19:34:28.221Z</time>
      </trkpt>
      <trkpt lat="48.84061" lon="2.26486">
        <ele>85</ele>
        <time>2013-10-15T19:34:31.220Z</time>
      </trkpt>
      <trkpt lat="48.84059" lon="2.26484">
        <ele>88</ele>
        <time>2013-10-15T19:34:32.223Z</time>
      </trkpt>
      <trkpt lat="48.84055" lon="2.26473">
        <ele>85</ele>
        <time>2013-10-15T19:34:35.208Z</time>
      </trkpt>
      <trkpt lat="48.84054" lon="2.26469">
        <ele>85</ele>
        <time>2013-10-15T19:34:36.212Z</time>
      </trkpt>
      <trkpt lat="48.8405" lon="2.26461">
        <ele>80</ele>
        <time>2013-10-15T19:34:38.208Z</time>
      </trkpt>
      <trkpt lat="48.84047" lon="2.26456">
        <ele>80</ele>
        <time>2013-10-15T19:34:39.380Z</time>
      </trkpt>
      <trkpt lat="48.84044" lon="2.26451">
        <ele>84</ele>
        <time>2013-10-15T19:34:40.208Z</time>
      </trkpt>
      <trkpt lat="48.8404" lon="2.26445">
        <ele>85</ele>
        <time>2013-10-15T19:34:41.212Z</time>
      </trkpt>
      <trkpt lat="48.84037" lon="2.2644">
        <ele>85</ele>
        <time>2013-10-15T19:34:42.212Z</time>
      </trkpt>
      <trkpt lat="48.84033" lon="2.26435">
        <ele>86</ele>
        <time>2013-10-15T19:34:43.226Z</time>
      </trkpt>
      <trkpt lat="48.8403" lon="2.26429">
        <ele>84</ele>
        <time>2013-10-15T19:34:44.210Z</time>
      </trkpt>
      <trkpt lat="48.84028" lon="2.26422">
        <ele>84</ele>
        <time>2013-10-15T19:34:45.210Z</time>
      </trkpt>
      <trkpt lat="48.84025" lon="2.26415">
        <ele>83</ele>
        <time>2013-10-15T19:34:46.212Z</time>
      </trkpt>
      <trkpt lat="48.84022" lon="2.26408">
        <ele>80</ele>
        <time>2013-10-15T19:34:47.212Z</time>
      </trkpt>
      <trkpt lat="48.8402" lon="2.26401">
        <ele>81</ele>
        <time>2013-10-15T19:34:48.215Z</time>
      </trkpt>
      <trkpt lat="48.84017" lon="2.26394">
        <ele>80</ele>
        <time>2013-10-15T19:34:49.211Z</time>
      </trkpt>
      <trkpt lat="48.84014" lon="2.26387">
        <ele>82</ele>
        <time>2013-10-15T19:34:50.217Z</time>
      </trkpt>
      <trkpt lat="48.8401" lon="2.2638">
        <ele>84</ele>
        <time>2013-10-15T19:34:51.216Z</time>
      </trkpt>
      <trkpt lat="48.84007" lon="2.26373">
        <ele>87</ele>
        <time>2013-10-15T19:34:52.208Z</time>
      </trkpt>
      <trkpt lat="48.84004" lon="2.26366">
        <ele>88</ele>
        <time>2013-10-15T19:34:53.206Z</time>
      </trkpt>
      <trkpt lat="48.84001" lon="2.26359">
        <ele>88</ele>
        <time>2013-10-15T19:34:54.213Z</time>
      </trkpt>
      <trkpt lat="48.83997" lon="2.26353">
        <ele>88</ele>
        <time>2013-10-15T19:34:55.213Z</time>
      </trkpt>
      <trkpt lat="48.83994" lon="2.26347">
        <ele>89</ele>
        <time>2013-10-15T19:34:56.212Z</time>
      </trkpt>
      <trkpt lat="48.83991" lon="2.26341">
        <ele>89</ele>
        <time>2013-10-15T19:34:57.207Z</time>
      </trkpt>
      <trkpt lat="48.83987" lon="2.26335">
        <ele>88</ele>
        <time>2013-10-15T19:34:58.210Z</time>
      </trkpt>
      <trkpt lat="48.83984" lon="2.26328">
        <ele>89</ele>
        <time>2013-10-15T19:34:59.204Z</time>
      </trkpt>
      <trkpt lat="48.83981" lon="2.26322">
        <ele>89</ele>
        <time>2013-10-15T19:35:00.259Z</time>
      </trkpt>
      <trkpt lat="48.83978" lon="2.26315">
        <ele>90</ele>
        <time>2013-10-15T19:35:01.209Z</time>
      </trkpt>
      <trkpt lat="48.83975" lon="2.26309">
        <ele>90</ele>
        <time>2013-10-15T19:35:02.204Z</time>
      </trkpt>
      <trkpt lat="48.83972" lon="2.26302">
        <ele>89</ele>
        <time>2013-10-15T19:35:03.206Z</time>
      </trkpt>
      <trkpt lat="48.83969" lon="2.26295">
        <ele>88</ele>
        <time>2013-10-15T19:35:04.208Z</time>
      </trkpt>
      <trkpt lat="48.83966" lon="2.26289">
        <ele>88</ele>
        <time>2013-10-15T19:35:05.212Z</time>
      </trkpt>
      <trkpt lat="48.83963" lon="2.26282">
        <ele>88</ele>
        <time>2013-10-15T19:35:06.208Z</time>
      </trkpt>
      <trkpt lat="48.8396" lon="2.26275">
        <ele>87</ele>
        <time>2013-10-15T19:35:07.212Z</time>
      </trkpt>
      <trkpt lat="48.83958" lon="2.26267">
        <ele>88</ele>
        <time>2013-10-15T19:35:08.187Z</time>
      </trkpt>
      <trkpt lat="48.83955" lon="2.2626">
        <ele>88</ele>
        <time>2013-10-15T19:35:09.220Z</time>
      </trkpt>
      <trkpt lat="48.83953" lon="2.26252">
        <ele>93</ele>
        <time>2013-10-15T19:35:10.221Z</time>
      </trkpt>
      <trkpt lat="48.83951" lon="2.26245">
        <ele>92</ele>
        <time>2013-10-15T19:35:11.211Z</time>
      </trkpt>
      <trkpt lat="48.83949" lon="2.26238">
        <ele>90</ele>
        <time>2013-10-15T19:35:12.214Z</time>
      </trkpt>
      <trkpt lat="48.83948" lon="2.2623">
        <ele>90</ele>
        <time>2013-10-15T19:35:13.213Z</time>
      </trkpt>
      <trkpt lat="48.83946" lon="2.26223">
        <ele>90</ele>
        <time>2013-10-15T19:35:14.217Z</time>
      </trkpt>
      <trkpt lat="48.83945" lon="2.26216">
        <ele>89</ele>
        <time>2013-10-15T19:35:15.217Z</time>
      </trkpt>
      <trkpt lat="48.83943" lon="2.26209">
        <ele>89</ele>
        <time>2013-10-15T19:35:16.215Z</time>
      </trkpt>
      <trkpt lat="48.83941" lon="2.26201">
        <ele>86</ele>
        <time>2013-10-15T19:35:17.220Z</time>
      </trkpt>
      <trkpt lat="48.83939" lon="2.26193">
        <ele>86</ele>
        <time>2013-10-15T19:35:18.215Z</time>
      </trkpt>
      <trkpt lat="48.83936" lon="2.26185">
        <ele>86</ele>
        <time>2013-10-15T19:35:19.211Z</time>
      </trkpt>
      <trkpt lat="48.83933" lon="2.26176">
        <ele>90</ele>
        <time>2013-10-15T19:35:20.214Z</time>
      </trkpt>
      <trkpt lat="48.8393" lon="2.26168">
        <ele>89</ele>
        <time>2013-10-15T19:35:21.218Z</time>
      </trkpt>
      <trkpt lat="48.83927" lon="2.26159">
        <ele>90</ele>
        <time>2013-10-15T19:35:22.213Z</time>
      </trkpt>
      <trkpt lat="48.83924" lon="2.26151">
        <ele>90</ele>
        <time>2013-10-15T19:35:23.211Z</time>
      </trkpt>
      <trkpt lat="48.83921" lon="2.26143">
        <ele>89</ele>
        <time>2013-10-15T19:35:24.213Z</time>
      </trkpt>
      <trkpt lat="48.83918" lon="2.26135">
        <ele>91</ele>
        <time>2013-10-15T19:35:25.217Z</time>
      </trkpt>
      <trkpt lat="48.83916" lon="2.26127">
        <ele>94</ele>
        <time>2013-10-15T19:35:26.215Z</time>
      </trkpt>
      <trkpt lat="48.83913" lon="2.26119">
        <ele>92</ele>
        <time>2013-10-15T19:35:27.216Z</time>
      </trkpt>
      <trkpt lat="48.8391" lon="2.26112">
        <ele>88</ele>
        <time>2013-10-15T19:35:28.243Z</time>
      </trkpt>
      <trkpt lat="48.83908" lon="2.26105">
        <ele>85</ele>
        <time>2013-10-15T19:35:29.216Z</time>
      </trkpt>
      <trkpt lat="48.83905" lon="2.26098">
        <ele>87</ele>
        <time>2013-10-15T19:35:30.216Z</time>
      </trkpt>
      <trkpt lat="48.83903" lon="2.26091">
        <ele>87</ele>
        <time>2013-10-15T19:35:31.240Z</time>
      </trkpt>
      <trkpt lat="48.839" lon="2.26084">
        <ele>88</ele>
        <time>2013-10-15T19:35:32.211Z</time>
      </trkpt>
      <trkpt lat="48.83898" lon="2.26076">
        <ele>86</ele>
        <time>2013-10-15T19:35:33.216Z</time>
      </trkpt>
      <trkpt lat="48.83896" lon="2.26069">
        <ele>87</ele>
        <time>2013-10-15T19:35:34.211Z</time>
      </trkpt>
      <trkpt lat="48.83894" lon="2.26062">
        <ele>88</ele>
        <time>2013-10-15T19:35:35.216Z</time>
      </trkpt>
      <trkpt lat="48.83892" lon="2.26055">
        <ele>90</ele>
        <time>2013-10-15T19:35:36.216Z</time>
      </trkpt>
      <trkpt lat="48.8389" lon="2.26047">
        <ele>92</ele>
        <time>2013-10-15T19:35:37.220Z</time>
      </trkpt>
      <trkpt lat="48.83888" lon="2.2604">
        <ele>92</ele>
        <time>2013-10-15T19:35:38.216Z</time>
      </trkpt>
      <trkpt lat="48.83886" lon="2.26033">
        <ele>93</ele>
        <time>2013-10-15T19:35:39.342Z</time>
      </trkpt>
      <trkpt lat="48.83884" lon="2.26026">
        <ele>91</ele>
        <time>2013-10-15T19:35:40.217Z</time>
      </trkpt>
      <trkpt lat="48.83882" lon="2.26019">
        <ele>93</ele>
        <time>2013-10-15T19:35:41.220Z</time>
      </trkpt>
      <trkpt lat="48.8388" lon="2.26013">
        <ele>92</ele>
        <time>2013-10-15T19:35:42.223Z</time>
      </trkpt>
      <trkpt lat="48.83878" lon="2.26006">
        <ele>91</ele>
        <time>2013-10-15T19:35:43.217Z</time>
      </trkpt>
      <trkpt lat="48.83876" lon="2.25999">
        <ele>90</ele>
        <time>2013-10-15T19:35:44.220Z</time>
      </trkpt>
      <trkpt lat="48.83874" lon="2.25992">
        <ele>90</ele>
        <time>2013-10-15T19:35:45.225Z</time>
      </trkpt>
      <trkpt lat="48.83871" lon="2.25984">
        <ele>92</ele>
        <time>2013-10-15T19:35:46.228Z</time>
      </trkpt>
      <trkpt lat="48.83868" lon="2.25977">
        <ele>94</ele>
        <time>2013-10-15T19:35:47.217Z</time>
      </trkpt>
      <trkpt lat="48.83866" lon="2.25969">
        <ele>96</ele>
        <time>2013-10-15T19:35:48.214Z</time>
      </trkpt>
      <trkpt lat="48.83863" lon="2.25961">
        <ele>105</ele>
        <time>2013-10-15T19:35:49.220Z</time>
      </trkpt>
      <trkpt lat="48.8386" lon="2.25955">
        <ele>106</ele>
        <time>2013-10-15T19:35:50.220Z</time>
      </trkpt>
      <trkpt lat="48.83857" lon="2.25949">
        <ele>108</ele>
        <time>2013-10-15T19:35:51.216Z</time>
      </trkpt>
      <trkpt lat="48.83854" lon="2.25943">
        <ele>108</ele>
        <time>2013-10-15T19:35:52.223Z</time>
      </trkpt>
      <trkpt lat="48.83851" lon="2.25936">
        <ele>109</ele>
        <time>2013-10-15T19:35:53.220Z</time>
      </trkpt>
      <trkpt lat="48.83848" lon="2.2593">
        <ele>113</ele>
        <time>2013-10-15T19:35:54.224Z</time>
      </trkpt>
      <trkpt lat="48.83845" lon="2.25924">
        <ele>106</ele>
        <time>2013-10-15T19:35:55.220Z</time>
      </trkpt>
      <trkpt lat="48.83842" lon="2.25917">
        <ele>104</ele>
        <time>2013-10-15T19:35:56.216Z</time>
      </trkpt>
      <trkpt lat="48.8384" lon="2.25911">
        <ele>108</ele>
        <time>2013-10-15T19:35:57.224Z</time>
      </trkpt>
      <trkpt lat="48.83837" lon="2.25904">
        <ele>107</ele>
        <time>2013-10-15T19:35:58.220Z</time>
      </trkpt>
      <trkpt lat="48.83834" lon="2.25897">
        <ele>106</ele>
        <time>2013-10-15T19:35:59.223Z</time>
      </trkpt>
      <trkpt lat="48.83832" lon="2.2589">
        <ele>106</ele>
        <time>2013-10-15T19:36:00.231Z</time>
      </trkpt>
      <trkpt lat="48.83829" lon="2.25883">
        <ele>104</ele>
        <time>2013-10-15T19:36:01.216Z</time>
      </trkpt>
      <trkpt lat="48.83827" lon="2.25876">
        <ele>107</ele>
        <time>2013-10-15T19:36:02.222Z</time>
      </trkpt>
      <trkpt lat="48.83825" lon="2.25869">
        <ele>106</ele>
        <time>2013-10-15T19:36:03.221Z</time>
      </trkpt>
      <trkpt lat="48.83823" lon="2.25862">
        <ele>107</ele>
        <time>2013-10-15T19:36:04.220Z</time>
      </trkpt>
      <trkpt lat="48.83821" lon="2.25855">
        <ele>105</ele>
        <time>2013-10-15T19:36:05.220Z</time>
      </trkpt>
      <trkpt lat="48.83819" lon="2.25848">
        <ele>100</ele>
        <time>2013-10-15T19:36:06.222Z</time>
      </trkpt>
      <trkpt lat="48.83818" lon="2.25841">
        <ele>99</ele>
        <time>2013-10-15T19:36:07.220Z</time>
      </trkpt>
      <trkpt lat="48.83816" lon="2.25834">
        <ele>97</ele>
        <time>2013-10-15T19:36:08.216Z</time>
      </trkpt>
      <trkpt lat="48.83814" lon="2.25828">
        <ele>96</ele>
        <time>2013-10-15T19:36:09.225Z</time>
      </trkpt>
      <trkpt lat="48.83813" lon="2.25821">
        <ele>97</ele>
        <time>2013-10-15T19:36:10.221Z</time>
      </trkpt>
      <trkpt lat="48.83811" lon="2.25815">
        <ele>95</ele>
        <time>2013-10-15T19:36:11.225Z</time>
      </trkpt>
      <trkpt lat="48.83808" lon="2.25804">
        <ele>91</ele>
        <time>2013-10-15T19:36:13.221Z</time>
      </trkpt>
      <trkpt lat="48.83806" lon="2.25799">
        <ele>93</ele>
        <time>2013-10-15T19:36:14.222Z</time>
      </trkpt>
      <trkpt lat="48.83803" lon="2.25789">
        <ele>90</ele>
        <time>2013-10-15T19:36:16.224Z</time>
      </trkpt>
      <trkpt lat="48.83803" lon="2.25785">
        <ele>88</ele>
        <time>2013-10-15T19:36:17.228Z</time>
      </trkpt>
      <trkpt lat="48.83803" lon="2.25783">
        <ele>88</ele>
        <time>2013-10-15T19:36:23.227Z</time>
      </trkpt>
      <trkpt lat="48.83803" lon="2.25785">
        <ele>88</ele>
        <time>2013-10-15T19:36:24.226Z</time>
      </trkpt>
      <trkpt lat="48.83803" lon="2.25786">
        <ele>88</ele>
        <time>2013-10-15T19:36:36.232Z</time>
      </trkpt>
      <trkpt lat="48.83808" lon="2.25782">
        <ele>90</ele>
        <time>2013-10-15T19:36:37.232Z</time>
      </trkpt>
      <trkpt lat="48.83808" lon="2.25791">
        <ele>90</ele>
        <time>2013-10-15T19:36:51.221Z</time>
      </trkpt>
      <trkpt lat="48.83808" lon="2.25791">
        <ele>90</ele>
        <time>2013-10-15T19:36:52.279Z</time>
      </trkpt>
      <trkpt lat="48.83808" lon="2.2579">
        <ele>90</ele>
        <time>2013-10-15T19:36:57.222Z</time>
      </trkpt>
      <trkpt lat="48.83812" lon="2.25789">
        <ele>102</ele>
        <time>2013-10-15T19:36:58.220Z</time>
      </trkpt>
      <trkpt lat="48.83819" lon="2.25787">
        <ele>102</ele>
        <time>2013-10-15T19:37:01.217Z</time>
      </trkpt>
      <trkpt lat="48.83823" lon="2.2579">
        <ele>104</ele>
        <time>2013-10-15T19:37:02.221Z</time>
      </trkpt>
      <trkpt lat="48.83829" lon="2.25796">
        <ele>104</ele>
        <time>2013-10-15T19:37:11.213Z</time>
      </trkpt>
      <trkpt lat="48.83829" lon="2.25796">
        <ele>104</ele>
        <time>2013-10-15T19:37:12.224Z</time>
      </trkpt>
      <trkpt lat="48.83828" lon="2.25795">
        <ele>104</ele>
        <time>2013-10-15T19:37:17.225Z</time>
      </trkpt>
      <trkpt lat="48.83826" lon="2.25792">
        <ele>96</ele>
        <time>2013-10-15T19:37:18.223Z</time>
      </trkpt>
      <trkpt lat="48.8382" lon="2.25782">
        <ele>97</ele>
        <time>2013-10-15T19:37:19.224Z</time>
      </trkpt>
      <trkpt lat="48.83815" lon="2.25774">
        <ele>98</ele>
        <time>2013-10-15T19:37:20.225Z</time>
      </trkpt>
      <trkpt lat="48.83808" lon="2.25765">
        <ele>99</ele>
        <time>2013-10-15T19:37:21.222Z</time>
      </trkpt>
      <trkpt lat="48.83804" lon="2.25759">
        <ele>99</ele>
        <time>2013-10-15T19:37:22.221Z</time>
      </trkpt>
      <trkpt lat="48.83801" lon="2.25756">
        <ele>99</ele>
        <time>2013-10-15T19:37:23.220Z</time>
      </trkpt>
      <trkpt lat="48.83796" lon="2.25749">
        <ele>100</ele>
        <time>2013-10-15T19:37:24.221Z</time>
      </trkpt>
      <trkpt lat="48.83789" lon="2.25741">
        <ele>100</ele>
        <time>2013-10-15T19:37:27.222Z</time>
      </trkpt>
      <trkpt lat="48.83787" lon="2.25737">
        <ele>99</ele>
        <time>2013-10-15T19:37:28.225Z</time>
      </trkpt>
      <trkpt lat="48.83786" lon="2.25731">
        <ele>99</ele>
        <time>2013-10-15T19:37:31.220Z</time>
      </trkpt>
      <trkpt lat="48.83783" lon="2.25723">
        <ele>97</ele>
        <time>2013-10-15T19:37:33.216Z</time>
      </trkpt>
      <trkpt lat="48.8378" lon="2.25712">
        <ele>97</ele>
        <time>2013-10-15T19:37:36.251Z</time>
      </trkpt>
      <trkpt lat="48.83778" lon="2.25709">
        <ele>97</ele>
        <time>2013-10-15T19:37:37.221Z</time>
      </trkpt>
      <trkpt lat="48.83774" lon="2.257">
        <ele>98</ele>
        <time>2013-10-15T19:37:39.342Z</time>
      </trkpt>
      <trkpt lat="48.83772" lon="2.25696">
        <ele>98</ele>
        <time>2013-10-15T19:37:40.218Z</time>
      </trkpt>
      <trkpt lat="48.83766" lon="2.25689">
        <ele>95</ele>
        <time>2013-10-15T19:37:50.222Z</time>
      </trkpt>
      <trkpt lat="48.83765" lon="2.25687">
        <ele>95</ele>
        <time>2013-10-15T19:37:51.226Z</time>
      </trkpt>
      <trkpt lat="48.83759" lon="2.25682">
        <ele>97</ele>
        <time>2013-10-15T19:37:57.223Z</time>
      </trkpt>
      <trkpt lat="48.83757" lon="2.2568">
        <ele>97</ele>
        <time>2013-10-15T19:37:58.230Z</time>
      </trkpt>
      <trkpt lat="48.8375" lon="2.25675">
        <ele>92</ele>
        <time>2013-10-15T19:38:02.228Z</time>
      </trkpt>
      <trkpt lat="48.83746" lon="2.25673">
        <ele>92</ele>
        <time>2013-10-15T19:38:03.229Z</time>
      </trkpt>
      <trkpt lat="48.83742" lon="2.25669">
        <ele>92</ele>
        <time>2013-10-15T19:38:05.225Z</time>
      </trkpt>
      <trkpt lat="48.83737" lon="2.25666">
        <ele>95</ele>
        <time>2013-10-15T19:38:06.225Z</time>
      </trkpt>
      <trkpt lat="48.83733" lon="2.25664">
        <ele>95</ele>
        <time>2013-10-15T19:38:07.223Z</time>
      </trkpt>
      <trkpt lat="48.83726" lon="2.2566">
        <ele>92</ele>
        <time>2013-10-15T19:38:08.222Z</time>
      </trkpt>
      <trkpt lat="48.83717" lon="2.25657">
        <ele>92</ele>
        <time>2013-10-15T19:38:10.223Z</time>
      </trkpt>
      <trkpt lat="48.83716" lon="2.25656">
        <ele>92</ele>
        <time>2013-10-15T19:38:11.221Z</time>
      </trkpt>
      <trkpt lat="48.8371" lon="2.25656">
        <ele>93</ele>
        <time>2013-10-15T19:38:14.224Z</time>
      </trkpt>
      <trkpt lat="48.83706" lon="2.25656">
        <ele>93</ele>
        <time>2013-10-15T19:38:15.228Z</time>
      </trkpt>
      <trkpt lat="48.83699" lon="2.25656">
        <ele>94</ele>
        <time>2013-10-15T19:38:16.235Z</time>
      </trkpt>
      <trkpt lat="48.83694" lon="2.25655">
        <ele>94</ele>
        <time>2013-10-15T19:38:17.233Z</time>
      </trkpt>
      <trkpt lat="48.83683" lon="2.25655">
        <ele>91</ele>
        <time>2013-10-15T19:38:18.235Z</time>
      </trkpt>
      <trkpt lat="48.83679" lon="2.25655">
        <ele>91</ele>
        <time>2013-10-15T19:38:19.228Z</time>
      </trkpt>
      <trkpt lat="48.83672" lon="2.25654">
        <ele>93</ele>
        <time>2013-10-15T19:38:20.235Z</time>
      </trkpt>
      <trkpt lat="48.83666" lon="2.25653">
        <ele>93</ele>
        <time>2013-10-15T19:38:22.281Z</time>
      </trkpt>
      <trkpt lat="48.8366" lon="2.25654">
        <ele>84</ele>
        <time>2013-10-15T19:38:23.235Z</time>
      </trkpt>
      <trkpt lat="48.83655" lon="2.25655">
        <ele>83</ele>
        <time>2013-10-15T19:38:24.241Z</time>
      </trkpt>
      <trkpt lat="48.83651" lon="2.25656">
        <ele>82</ele>
        <time>2013-10-15T19:38:25.231Z</time>
      </trkpt>
      <trkpt lat="48.83644" lon="2.25659">
        <ele>78</ele>
        <time>2013-10-15T19:38:27.235Z</time>
      </trkpt>
      <trkpt lat="48.83641" lon="2.2566">
        <ele>78</ele>
        <time>2013-10-15T19:38:28.243Z</time>
      </trkpt>
      <trkpt lat="48.83633" lon="2.25662">
        <ele>82</ele>
        <time>2013-10-15T19:38:31.244Z</time>
      </trkpt>
      <trkpt lat="48.83632" lon="2.25662">
        <ele>84</ele>
        <time>2013-10-15T19:38:32.239Z</time>
      </trkpt>
      <trkpt lat="48.8363" lon="2.25659">
        <ele>84</ele>
        <time>2013-10-15T19:38:38.243Z</time>
      </trkpt>
      <trkpt lat="48.8363" lon="2.25659">
        <ele>84</ele>
        <time>2013-10-15T19:38:39.352Z</time>
      </trkpt>
      <trkpt lat="48.83631" lon="2.25659">
        <ele>84</ele>
        <time>2013-10-15T19:38:43.236Z</time>
      </trkpt>
      <trkpt lat="48.83628" lon="2.25652">
        <ele>86</ele>
        <time>2013-10-15T19:38:44.241Z</time>
      </trkpt>
      <trkpt lat="48.83626" lon="2.25646">
        <ele>86</ele>
        <time>2013-10-15T19:38:45.231Z</time>
      </trkpt>
      <trkpt lat="48.83625" lon="2.25637">
        <ele>85</ele>
        <time>2013-10-15T19:38:46.234Z</time>
      </trkpt>
      <trkpt lat="48.83624" lon="2.25627">
        <ele>85</ele>
        <time>2013-10-15T19:38:49.237Z</time>
      </trkpt>
      <trkpt lat="48.83625" lon="2.25621">
        <ele>86</ele>
        <time>2013-10-15T19:38:50.237Z</time>
      </trkpt>
      <trkpt lat="48.83629" lon="2.25616">
        <ele>86</ele>
        <time>2013-10-15T19:38:56.243Z</time>
      </trkpt>
      <trkpt lat="48.83628" lon="2.25617">
        <ele>86</ele>
        <time>2013-10-15T19:38:57.230Z</time>
      </trkpt>
      <trkpt lat="48.83628" lon="2.25618">
        <ele>86</ele>
        <time>2013-10-15T19:39:47.216Z</time>
      </trkpt>
      <trkpt lat="48.83631" lon="2.25611">
        <ele>79</ele>
        <time>2013-10-15T19:39:48.216Z</time>
      </trkpt>
      <trkpt lat="48.83635" lon="2.25603">
        <ele>77</ele>
        <time>2013-10-15T19:39:50.218Z</time>
      </trkpt>
      <trkpt lat="48.83637" lon="2.25598">
        <ele>78</ele>
        <time>2013-10-15T19:39:51.215Z</time>
      </trkpt>
      <trkpt lat="48.83641" lon="2.2559">
        <ele>76</ele>
        <time>2013-10-15T19:39:54.224Z</time>
      </trkpt>
      <trkpt lat="48.83642" lon="2.25584">
        <ele>70</ele>
        <time>2013-10-15T19:39:55.226Z</time>
      </trkpt>
      <trkpt lat="48.83637" lon="2.25574">
        <ele>74</ele>
        <time>2013-10-15T19:39:58.226Z</time>
      </trkpt>
      <trkpt lat="48.83633" lon="2.25573">
        <ele>73</ele>
        <time>2013-10-15T19:39:59.224Z</time>
      </trkpt>
      <trkpt lat="48.83624" lon="2.25571">
        <ele>73</ele>
        <time>2013-10-15T19:40:01.224Z</time>
      </trkpt>
      <trkpt lat="48.8362" lon="2.2557">
        <ele>72</ele>
        <time>2013-10-15T19:40:02.211Z</time>
      </trkpt>
      <trkpt lat="48.83611" lon="2.25567">
        <ele>71</ele>
        <time>2013-10-15T19:40:04.215Z</time>
      </trkpt>
      <trkpt lat="48.83607" lon="2.25566">
        <ele>70</ele>
        <time>2013-10-15T19:40:05.220Z</time>
      </trkpt>
      <trkpt lat="48.836" lon="2.25563">
        <ele>70</ele>
        <time>2013-10-15T19:40:07.258Z</time>
      </trkpt>
      <trkpt lat="48.83597" lon="2.25561">
        <ele>68</ele>
        <time>2013-10-15T19:40:08.228Z</time>
      </trkpt>
      <trkpt lat="48.83589" lon="2.25556">
        <ele>69</ele>
        <time>2013-10-15T19:40:10.224Z</time>
      </trkpt>
      <trkpt lat="48.83586" lon="2.25554">
        <ele>69</ele>
        <time>2013-10-15T19:40:11.220Z</time>
      </trkpt>
      <trkpt lat="48.83579" lon="2.25549">
        <ele>68</ele>
        <time>2013-10-15T19:40:16.228Z</time>
      </trkpt>
      <trkpt lat="48.83577" lon="2.25547">
        <ele>68</ele>
        <time>2013-10-15T19:40:17.224Z</time>
      </trkpt>
      <trkpt lat="48.8357" lon="2.2554">
        <ele>65</ele>
        <time>2013-10-15T19:40:19.217Z</time>
      </trkpt>
      <trkpt lat="48.83565" lon="2.25537">
        <ele>70</ele>
        <time>2013-10-15T19:40:20.221Z</time>
      </trkpt>
      <trkpt lat="48.8356" lon="2.25533">
        <ele>70</ele>
        <time>2013-10-15T19:40:22.216Z</time>
      </trkpt>
      <trkpt lat="48.83557" lon="2.2553">
        <ele>67</ele>
        <time>2013-10-15T19:40:23.214Z</time>
      </trkpt>
      <trkpt lat="48.83549" lon="2.25525">
        <ele>69</ele>
        <time>2013-10-15T19:40:27.218Z</time>
      </trkpt>
      <trkpt lat="48.83548" lon="2.25524">
        <ele>69</ele>
        <time>2013-10-15T19:40:28.218Z</time>
      </trkpt>
      <trkpt lat="48.83544" lon="2.25521">
        <ele>76</ele>
        <time>2013-10-15T19:40:30.225Z</time>
      </trkpt>
      <trkpt lat="48.8354" lon="2.25518">
        <ele>81</ele>
        <time>2013-10-15T19:40:31.228Z</time>
      </trkpt>
      <trkpt lat="48.83537" lon="2.25515">
        <ele>81</ele>
        <time>2013-10-15T19:40:32.219Z</time>
      </trkpt>
      <trkpt lat="48.83531" lon="2.25512">
        <ele>84</ele>
        <time>2013-10-15T19:40:33.217Z</time>
      </trkpt>
      <trkpt lat="48.83525" lon="2.2551">
        <ele>88</ele>
        <time>2013-10-15T19:40:34.216Z</time>
      </trkpt>
      <trkpt lat="48.83521" lon="2.25508">
        <ele>90</ele>
        <time>2013-10-15T19:40:35.217Z</time>
      </trkpt>
      <trkpt lat="48.83515" lon="2.25507">
        <ele>90</ele>
        <time>2013-10-15T19:40:39.288Z</time>
      </trkpt>
      <trkpt lat="48.83512" lon="2.25505">
        <ele>95</ele>
        <time>2013-10-15T19:40:40.213Z</time>
      </trkpt>
      <trkpt lat="48.83504" lon="2.25502">
        <ele>92</ele>
        <time>2013-10-15T19:40:45.212Z</time>
      </trkpt>
      <trkpt lat="48.83499" lon="2.25503">
        <ele>93</ele>
        <time>2013-10-15T19:40:46.217Z</time>
      </trkpt>
      <trkpt lat="48.83496" lon="2.25503">
        <ele>93</ele>
        <time>2013-10-15T19:40:47.212Z</time>
      </trkpt>
      <trkpt lat="48.83489" lon="2.25505">
        <ele>92</ele>
        <time>2013-10-15T19:40:48.220Z</time>
      </trkpt>
      <trkpt lat="48.83482" lon="2.25507">
        <ele>92</ele>
        <time>2013-10-15T19:40:50.212Z</time>
      </trkpt>
      <trkpt lat="48.83478" lon="2.25511">
        <ele>95</ele>
        <time>2013-10-15T19:40:51.214Z</time>
      </trkpt>
      <trkpt lat="48.83474" lon="2.25516">
        <ele>94</ele>
        <time>2013-10-15T19:40:52.216Z</time>
      </trkpt>
      <trkpt lat="48.8347" lon="2.25521">
        <ele>93</ele>
        <time>2013-10-15T19:40:53.212Z</time>
      </trkpt>
      <trkpt lat="48.83468" lon="2.25535">
        <ele>91</ele>
        <time>2013-10-15T19:40:55.221Z</time>
      </trkpt>
      <trkpt lat="48.83468" lon="2.25541">
        <ele>94</ele>
        <time>2013-10-15T19:40:56.218Z</time>
      </trkpt>
      <trkpt lat="48.8347" lon="2.25553">
        <ele>93</ele>
        <time>2013-10-15T19:40:58.220Z</time>
      </trkpt>
      <trkpt lat="48.83471" lon="2.25559">
        <ele>88</ele>
        <time>2013-10-15T19:40:59.221Z</time>
      </trkpt>
      <trkpt lat="48.83472" lon="2.25571">
        <ele>84</ele>
        <time>2013-10-15T19:41:01.224Z</time>
      </trkpt>
      <trkpt lat="48.83472" lon="2.25577">
        <ele>84</ele>
        <time>2013-10-15T19:41:02.224Z</time>
      </trkpt>
      <trkpt lat="48.83474" lon="2.2559">
        <ele>84</ele>
        <time>2013-10-15T19:41:04.222Z</time>
      </trkpt>
      <trkpt lat="48.83475" lon="2.25597">
        <ele>82</ele>
        <time>2013-10-15T19:41:05.230Z</time>
      </trkpt>
      <trkpt lat="48.83476" lon="2.25604">
        <ele>80</ele>
        <time>2013-10-15T19:41:06.229Z</time>
      </trkpt>
      <trkpt lat="48.83476" lon="2.25612">
        <ele>80</ele>
        <time>2013-10-15T19:41:07.235Z</time>
      </trkpt>
      <trkpt lat="48.83476" lon="2.25619">
        <ele>78</ele>
        <time>2013-10-15T19:41:08.216Z</time>
      </trkpt>
      <trkpt lat="48.83476" lon="2.25626">
        <ele>79</ele>
        <time>2013-10-15T19:41:09.224Z</time>
      </trkpt>
      <trkpt lat="48.83475" lon="2.25634">
        <ele>78</ele>
        <time>2013-10-15T19:41:10.220Z</time>
      </trkpt>
      <trkpt lat="48.83474" lon="2.25641">
        <ele>78</ele>
        <time>2013-10-15T19:41:11.224Z</time>
      </trkpt>
      <trkpt lat="48.83473" lon="2.25649">
        <ele>79</ele>
        <time>2013-10-15T19:41:12.175Z</time>
      </trkpt>
      <trkpt lat="48.83472" lon="2.25656">
        <ele>80</ele>
        <time>2013-10-15T19:41:13.221Z</time>
      </trkpt>
      <trkpt lat="48.83471" lon="2.25664">
        <ele>79</ele>
        <time>2013-10-15T19:41:14.224Z</time>
      </trkpt>
      <trkpt lat="48.8347" lon="2.25671">
        <ele>80</ele>
        <time>2013-10-15T19:41:15.225Z</time>
      </trkpt>
      <trkpt lat="48.83469" lon="2.25678">
        <ele>80</ele>
        <time>2013-10-15T19:41:16.224Z</time>
      </trkpt>
      <trkpt lat="48.83467" lon="2.25685">
        <ele>81</ele>
        <time>2013-10-15T19:41:17.168Z</time>
      </trkpt>
      <trkpt lat="48.83465" lon="2.25692">
        <ele>83</ele>
        <time>2013-10-15T19:41:18.224Z</time>
      </trkpt>
      <trkpt lat="48.83462" lon="2.25698">
        <ele>81</ele>
        <time>2013-10-15T19:41:19.224Z</time>
      </trkpt>
      <trkpt lat="48.83457" lon="2.2571">
        <ele>80</ele>
        <time>2013-10-15T19:41:21.219Z</time>
      </trkpt>
      <trkpt lat="48.83455" lon="2.25717">
        <ele>81</ele>
        <time>2013-10-15T19:41:22.225Z</time>
      </trkpt>
      <trkpt lat="48.83454" lon="2.25724">
        <ele>80</ele>
        <time>2013-10-15T19:41:23.210Z</time>
      </trkpt>
      <trkpt lat="48.83453" lon="2.25731">
        <ele>81</ele>
        <time>2013-10-15T19:41:24.218Z</time>
      </trkpt>
      <trkpt lat="48.83451" lon="2.25737">
        <ele>82</ele>
        <time>2013-10-15T19:41:25.224Z</time>
      </trkpt>
      <trkpt lat="48.8345" lon="2.25744">
        <ele>80</ele>
        <time>2013-10-15T19:41:26.224Z</time>
      </trkpt>
      <trkpt lat="48.83449" lon="2.25751">
        <ele>83</ele>
        <time>2013-10-15T19:41:27.225Z</time>
      </trkpt>
      <trkpt lat="48.83448" lon="2.25759">
        <ele>82</ele>
        <time>2013-10-15T19:41:28.253Z</time>
      </trkpt>
      <trkpt lat="48.83447" lon="2.25766">
        <ele>79</ele>
        <time>2013-10-15T19:41:29.224Z</time>
      </trkpt>
      <trkpt lat="48.83446" lon="2.25772">
        <ele>77</ele>
        <time>2013-10-15T19:41:30.223Z</time>
      </trkpt>
      <trkpt lat="48.83446" lon="2.25779">
        <ele>78</ele>
        <time>2013-10-15T19:41:31.222Z</time>
      </trkpt>
      <trkpt lat="48.83445" lon="2.25786">
        <ele>80</ele>
        <time>2013-10-15T19:41:32.223Z</time>
      </trkpt>
      <trkpt lat="48.83444" lon="2.25794">
        <ele>79</ele>
        <time>2013-10-15T19:41:33.224Z</time>
      </trkpt>
      <trkpt lat="48.83443" lon="2.25802">
        <ele>75</ele>
        <time>2013-10-15T19:41:34.224Z</time>
      </trkpt>
      <trkpt lat="48.83442" lon="2.2581">
        <ele>75</ele>
        <time>2013-10-15T19:41:35.224Z</time>
      </trkpt>
      <trkpt lat="48.83441" lon="2.25819">
        <ele>76</ele>
        <time>2013-10-15T19:41:36.225Z</time>
      </trkpt>
      <trkpt lat="48.83439" lon="2.25828">
        <ele>76</ele>
        <time>2013-10-15T19:41:37.224Z</time>
      </trkpt>
      <trkpt lat="48.83438" lon="2.25836">
        <ele>76</ele>
        <time>2013-10-15T19:41:38.223Z</time>
      </trkpt>
      <trkpt lat="48.83438" lon="2.25844">
        <ele>76</ele>
        <time>2013-10-15T19:41:39.303Z</time>
      </trkpt>
      <trkpt lat="48.83437" lon="2.25852">
        <ele>77</ele>
        <time>2013-10-15T19:41:40.224Z</time>
      </trkpt>
      <trkpt lat="48.83436" lon="2.2586">
        <ele>77</ele>
        <time>2013-10-15T19:41:41.225Z</time>
      </trkpt>
      <trkpt lat="48.83435" lon="2.25867">
        <ele>77</ele>
        <time>2013-10-15T19:41:42.226Z</time>
      </trkpt>
      <trkpt lat="48.83434" lon="2.25875">
        <ele>76</ele>
        <time>2013-10-15T19:41:43.225Z</time>
      </trkpt>
      <trkpt lat="48.83434" lon="2.25882">
        <ele>75</ele>
        <time>2013-10-15T19:41:44.225Z</time>
      </trkpt>
      <trkpt lat="48.83434" lon="2.2589">
        <ele>77</ele>
        <time>2013-10-15T19:41:45.224Z</time>
      </trkpt>
      <trkpt lat="48.83433" lon="2.25898">
        <ele>76</ele>
        <time>2013-10-15T19:41:46.226Z</time>
      </trkpt>
      <trkpt lat="48.83432" lon="2.25906">
        <ele>77</ele>
        <time>2013-10-15T19:41:47.223Z</time>
      </trkpt>
      <trkpt lat="48.83431" lon="2.25915">
        <ele>74</ele>
        <time>2013-10-15T19:41:48.226Z</time>
      </trkpt>
      <trkpt lat="48.83431" lon="2.25923">
        <ele>75</ele>
        <time>2013-10-15T19:41:49.222Z</time>
      </trkpt>
      <trkpt lat="48.8343" lon="2.25932">
        <ele>79</ele>
        <time>2013-10-15T19:41:50.224Z</time>
      </trkpt>
      <trkpt lat="48.8343" lon="2.25941">
        <ele>78</ele>
        <time>2013-10-15T19:41:51.224Z</time>
      </trkpt>
      <trkpt lat="48.83429" lon="2.2595">
        <ele>77</ele>
        <time>2013-10-15T19:41:52.225Z</time>
      </trkpt>
      <trkpt lat="48.83428" lon="2.25958">
        <ele>77</ele>
        <time>2013-10-15T19:41:53.275Z</time>
      </trkpt>
      <trkpt lat="48.83427" lon="2.25965">
        <ele>74</ele>
        <time>2013-10-15T19:41:54.225Z</time>
      </trkpt>
      <trkpt lat="48.83425" lon="2.25972">
        <ele>72</ele>
        <time>2013-10-15T19:41:55.225Z</time>
      </trkpt>
      <trkpt lat="48.83424" lon="2.2598">
        <ele>77</ele>
        <time>2013-10-15T19:41:56.224Z</time>
      </trkpt>
      <trkpt lat="48.83422" lon="2.25987">
        <ele>77</ele>
        <time>2013-10-15T19:41:57.225Z</time>
      </trkpt>
      <trkpt lat="48.83421" lon="2.25994">
        <ele>79</ele>
        <time>2013-10-15T19:41:58.236Z</time>
      </trkpt>
      <trkpt lat="48.8342" lon="2.26002">
        <ele>76</ele>
        <time>2013-10-15T19:41:59.228Z</time>
      </trkpt>
      <trkpt lat="48.83419" lon="2.26009">
        <ele>77</ele>
        <time>2013-10-15T19:42:00.223Z</time>
      </trkpt>
      <trkpt lat="48.83418" lon="2.26017">
        <ele>78</ele>
        <time>2013-10-15T19:42:01.230Z</time>
      </trkpt>
      <trkpt lat="48.83417" lon="2.26024">
        <ele>77</ele>
        <time>2013-10-15T19:42:02.225Z</time>
      </trkpt>
      <trkpt lat="48.83415" lon="2.26031">
        <ele>77</ele>
        <time>2013-10-15T19:42:03.224Z</time>
      </trkpt>
      <trkpt lat="48.83414" lon="2.26038">
        <ele>77</ele>
        <time>2013-10-15T19:42:04.224Z</time>
      </trkpt>
      <trkpt lat="48.83413" lon="2.26045">
        <ele>77</ele>
        <time>2013-10-15T19:42:05.224Z</time>
      </trkpt>
      <trkpt lat="48.83413" lon="2.26052">
        <ele>78</ele>
        <time>2013-10-15T19:42:06.228Z</time>
      </trkpt>
      <trkpt lat="48.83413" lon="2.26063">
        <ele>81</ele>
        <time>2013-10-15T19:42:08.177Z</time>
      </trkpt>
      <trkpt lat="48.83413" lon="2.26069">
        <ele>80</ele>
        <time>2013-10-15T19:42:09.175Z</time>
      </trkpt>
      <trkpt lat="48.83412" lon="2.2608">
        <ele>80</ele>
        <time>2013-10-15T19:42:11.186Z</time>
      </trkpt>
      <trkpt lat="48.83412" lon="2.26085">
        <ele>75</ele>
        <time>2013-10-15T19:42:12.171Z</time>
      </trkpt>
      <trkpt lat="48.8341" lon="2.26098">
        <ele>75</ele>
        <time>2013-10-15T19:42:15.228Z</time>
      </trkpt>
      <trkpt lat="48.83408" lon="2.261">
        <ele>75</ele>
        <time>2013-10-15T19:42:16.350Z</time>
      </trkpt>
      <trkpt lat="48.83401" lon="2.26097">
        <ele>76</ele>
        <time>2013-10-15T19:42:18.172Z</time>
      </trkpt>
      <trkpt lat="48.83398" lon="2.26095">
        <ele>75</ele>
        <time>2013-10-15T19:42:19.225Z</time>
      </trkpt>
      <trkpt lat="48.83392" lon="2.26088">
        <ele>74</ele>
        <time>2013-10-15T19:42:22.223Z</time>
      </trkpt>
      <trkpt lat="48.83391" lon="2.26085">
        <ele>80</ele>
        <time>2013-10-15T19:42:23.220Z</time>
      </trkpt>
      <trkpt lat="48.83394" lon="2.26078">
        <ele>84</ele>
        <time>2013-10-15T19:42:38.225Z</time>
      </trkpt>
      <trkpt lat="48.83394" lon="2.26078">
        <ele>84</ele>
        <time>2013-10-15T19:42:39.252Z</time>
      </trkpt>
      <trkpt lat="48.83393" lon="2.26079">
        <ele>84</ele>
        <time>2013-10-15T19:42:41.225Z</time>
      </trkpt>
      <trkpt lat="48.83393" lon="2.26079">
        <ele>84</ele>
        <time>2013-10-15T19:42:42.224Z</time>
      </trkpt>
      <trkpt lat="48.83385" lon="2.26076">
        <ele>78</ele>
        <time>2013-10-15T19:42:47.225Z</time>
      </trkpt>
      <trkpt lat="48.83382" lon="2.26074">
        <ele>79</ele>
        <time>2013-10-15T19:42:48.225Z</time>
      </trkpt>
      <trkpt lat="48.83374" lon="2.26069">
        <ele>79</ele>
        <time>2013-10-15T19:42:50.250Z</time>
      </trkpt>
      <trkpt lat="48.83371" lon="2.26065">
        <ele>79</ele>
        <time>2013-10-15T19:42:51.226Z</time>
      </trkpt>
      <trkpt lat="48.83367" lon="2.26062">
        <ele>80</ele>
        <time>2013-10-15T19:42:52.225Z</time>
      </trkpt>
      <trkpt lat="48.83363" lon="2.26059">
        <ele>80</ele>
        <time>2013-10-15T19:42:53.222Z</time>
      </trkpt>
      <trkpt lat="48.83359" lon="2.26055">
        <ele>81</ele>
        <time>2013-10-15T19:42:54.224Z</time>
      </trkpt>
      <trkpt lat="48.83355" lon="2.26052">
        <ele>82</ele>
        <time>2013-10-15T19:42:55.224Z</time>
      </trkpt>
      <trkpt lat="48.83347" lon="2.26046">
        <ele>82</ele>
        <time>2013-10-15T19:42:57.226Z</time>
      </trkpt>
      <trkpt lat="48.83344" lon="2.26045">
        <ele>82</ele>
        <time>2013-10-15T19:42:58.419Z</time>
      </trkpt>
      <trkpt lat="48.83336" lon="2.2604">
        <ele>84</ele>
        <time>2013-10-15T19:43:01.224Z</time>
      </trkpt>
      <trkpt lat="48.83333" lon="2.26038">
        <ele>81</ele>
        <time>2013-10-15T19:43:02.227Z</time>
      </trkpt>
      <trkpt lat="48.83328" lon="2.26031">
        <ele>81</ele>
        <time>2013-10-15T19:43:05.229Z</time>
      </trkpt>
      <trkpt lat="48.83325" lon="2.26029">
        <ele>85</ele>
        <time>2013-10-15T19:43:06.231Z</time>
      </trkpt>
      <trkpt lat="48.83318" lon="2.26025">
        <ele>80</ele>
        <time>2013-10-15T19:43:09.196Z</time>
      </trkpt>
      <trkpt lat="48.83315" lon="2.26024">
        <ele>81</ele>
        <time>2013-10-15T19:43:10.227Z</time>
      </trkpt>
      <trkpt lat="48.83309" lon="2.26021">
        <ele>81</ele>
        <time>2013-10-15T19:43:12.184Z</time>
      </trkpt>
      <trkpt lat="48.83305" lon="2.2602">
        <ele>81</ele>
        <time>2013-10-15T19:43:13.228Z</time>
      </trkpt>
      <trkpt lat="48.83297" lon="2.26014">
        <ele>79</ele>
        <time>2013-10-15T19:43:15.180Z</time>
      </trkpt>
      <trkpt lat="48.83292" lon="2.26011">
        <ele>80</ele>
        <time>2013-10-15T19:43:16.232Z</time>
      </trkpt>
      <trkpt lat="48.83288" lon="2.26007">
        <ele>80</ele>
        <time>2013-10-15T19:43:17.228Z</time>
      </trkpt>
      <trkpt lat="48.83284" lon="2.26003">
        <ele>80</ele>
        <time>2013-10-15T19:43:18.236Z</time>
      </trkpt>
      <trkpt lat="48.83276" lon="2.25995">
        <ele>81</ele>
        <time>2013-10-15T19:43:20.318Z</time>
      </trkpt>
      <trkpt lat="48.83273" lon="2.25992">
        <ele>81</ele>
        <time>2013-10-15T19:43:21.232Z</time>
      </trkpt>
      <trkpt lat="48.83267" lon="2.25985">
        <ele>80</ele>
        <time>2013-10-15T19:43:23.227Z</time>
      </trkpt>
      <trkpt lat="48.83264" lon="2.25982">
        <ele>78</ele>
        <time>2013-10-15T19:43:24.232Z</time>
      </trkpt>
      <trkpt lat="48.8326" lon="2.25975">
        <ele>78</ele>
        <time>2013-10-15T19:43:26.233Z</time>
      </trkpt>
      <trkpt lat="48.83257" lon="2.25972">
        <ele>77</ele>
        <time>2013-10-15T19:43:27.232Z</time>
      </trkpt>
      <trkpt lat="48.83253" lon="2.25966">
        <ele>78</ele>
        <time>2013-10-15T19:43:29.233Z</time>
      </trkpt>
      <trkpt lat="48.83251" lon="2.25962">
        <ele>78</ele>
        <time>2013-10-15T19:43:30.227Z</time>
      </trkpt>
      <trkpt lat="48.83245" lon="2.25955">
        <ele>79</ele>
        <time>2013-10-15T19:43:32.231Z</time>
      </trkpt>
      <trkpt lat="48.83243" lon="2.2595">
        <ele>81</ele>
        <time>2013-10-15T19:43:33.232Z</time>
      </trkpt>
      <trkpt lat="48.83237" lon="2.25942">
        <ele>74</ele>
        <time>2013-10-15T19:43:35.233Z</time>
      </trkpt>
      <trkpt lat="48.83234" lon="2.25938">
        <ele>73</ele>
        <time>2013-10-15T19:43:36.201Z</time>
      </trkpt>
      <trkpt lat="48.83228" lon="2.25931">
        <ele>76</ele>
        <time>2013-10-15T19:43:38.237Z</time>
      </trkpt>
      <trkpt lat="48.83225" lon="2.25927">
        <ele>74</ele>
        <time>2013-10-15T19:43:39.326Z</time>
      </trkpt>
      <trkpt lat="48.8322" lon="2.25921">
        <ele>71</ele>
        <time>2013-10-15T19:43:41.240Z</time>
      </trkpt>
      <trkpt lat="48.83217" lon="2.25919">
        <ele>70</ele>
        <time>2013-10-15T19:43:42.235Z</time>
      </trkpt>
      <trkpt lat="48.83212" lon="2.25915">
        <ele>71</ele>
        <time>2013-10-15T19:43:44.230Z</time>
      </trkpt>
      <trkpt lat="48.83209" lon="2.25912">
        <ele>74</ele>
        <time>2013-10-15T19:43:45.243Z</time>
      </trkpt>
      <trkpt lat="48.83203" lon="2.25905">
        <ele>79</ele>
        <time>2013-10-15T19:43:47.243Z</time>
      </trkpt>
      <trkpt lat="48.83201" lon="2.25901">
        <ele>81</ele>
        <time>2013-10-15T19:43:48.230Z</time>
      </trkpt>
      <trkpt lat="48.83195" lon="2.25892">
        <ele>81</ele>
        <time>2013-10-15T19:43:50.218Z</time>
      </trkpt>
      <trkpt lat="48.83192" lon="2.25888">
        <ele>82</ele>
        <time>2013-10-15T19:43:51.237Z</time>
      </trkpt>
      <trkpt lat="48.83187" lon="2.25879">
        <ele>79</ele>
        <time>2013-10-15T19:43:53.237Z</time>
      </trkpt>
      <trkpt lat="48.83185" lon="2.25875">
        <ele>80</ele>
        <time>2013-10-15T19:43:54.237Z</time>
      </trkpt>
      <trkpt lat="48.83181" lon="2.25867">
        <ele>80</ele>
        <time>2013-10-15T19:43:56.230Z</time>
      </trkpt>
      <trkpt lat="48.83179" lon="2.25863">
        <ele>80</ele>
        <time>2013-10-15T19:43:57.230Z</time>
      </trkpt>
      <trkpt lat="48.83176" lon="2.25856">
        <ele>79</ele>
        <time>2013-10-15T19:43:59.233Z</time>
      </trkpt>
      <trkpt lat="48.83174" lon="2.25852">
        <ele>80</ele>
        <time>2013-10-15T19:44:00.255Z</time>
      </trkpt>
      <trkpt lat="48.8317" lon="2.25844">
        <ele>81</ele>
        <time>2013-10-15T19:44:02.233Z</time>
      </trkpt>
      <trkpt lat="48.83169" lon="2.2584">
        <ele>81</ele>
        <time>2013-10-15T19:44:03.237Z</time>
      </trkpt>
      <trkpt lat="48.83164" lon="2.25831">
        <ele>85</ele>
        <time>2013-10-15T19:44:06.232Z</time>
      </trkpt>
      <trkpt lat="48.83163" lon="2.25829">
        <ele>85</ele>
        <time>2013-10-15T19:44:07.232Z</time>
      </trkpt>
      <trkpt lat="48.83161" lon="2.25816">
        <ele>88</ele>
        <time>2013-10-15T19:44:20.239Z</time>
      </trkpt>
      <trkpt lat="48.83162" lon="2.25814">
        <ele>89</ele>
        <time>2013-10-15T19:44:21.235Z</time>
      </trkpt>
      <trkpt lat="48.83158" lon="2.25825">
        <ele>87</ele>
        <time>2013-10-15T19:44:30.248Z</time>
      </trkpt>
      <trkpt lat="48.83158" lon="2.25827">
        <ele>87</ele>
        <time>2013-10-15T19:44:31.361Z</time>
      </trkpt>
      <trkpt lat="48.8315" lon="2.25826">
        <ele>77</ele>
        <time>2013-10-15T19:44:36.247Z</time>
      </trkpt>
      <trkpt lat="48.83146" lon="2.25823">
        <ele>77</ele>
        <time>2013-10-15T19:44:37.238Z</time>
      </trkpt>
      <trkpt lat="48.83139" lon="2.25817">
        <ele>77</ele>
        <time>2013-10-15T19:44:39.377Z</time>
      </trkpt>
      <trkpt lat="48.83137" lon="2.25815">
        <ele>79</ele>
        <time>2013-10-15T19:44:40.238Z</time>
      </trkpt>
      <trkpt lat="48.83131" lon="2.25806">
        <ele>76</ele>
        <time>2013-10-15T19:44:43.220Z</time>
      </trkpt>
      <trkpt lat="48.83129" lon="2.25804">
        <ele>74</ele>
        <time>2013-10-15T19:44:44.214Z</time>
      </trkpt>
      <trkpt lat="48.83122" lon="2.25796">
        <ele>80</ele>
        <time>2013-10-15T19:44:48.220Z</time>
      </trkpt>
      <trkpt lat="48.8312" lon="2.25795">
        <ele>81</ele>
        <time>2013-10-15T19:44:49.224Z</time>
      </trkpt>
      <trkpt lat="48.83113" lon="2.25799">
        <ele>76</ele>
        <time>2013-10-15T19:44:58.221Z</time>
      </trkpt>
      <trkpt lat="48.83112" lon="2.25801">
        <ele>74</ele>
        <time>2013-10-15T19:44:59.213Z</time>
      </trkpt>
      <trkpt lat="48.8311" lon="2.25814">
        <ele>77</ele>
        <time>2013-10-15T19:45:06.223Z</time>
      </trkpt>
      <trkpt lat="48.8311" lon="2.25815">
        <ele>78</ele>
        <time>2013-10-15T19:45:07.220Z</time>
      </trkpt>
      <trkpt lat="48.83106" lon="2.25826">
        <ele>83</ele>
        <time>2013-10-15T19:45:11.223Z</time>
      </trkpt>
      <trkpt lat="48.83105" lon="2.25831">
        <ele>83</ele>
        <time>2013-10-15T19:45:12.231Z</time>
      </trkpt>
      <trkpt lat="48.83099" lon="2.2584">
        <ele>80</ele>
        <time>2013-10-15T19:45:15.226Z</time>
      </trkpt>
      <trkpt lat="48.83096" lon="2.25841">
        <ele>80</ele>
        <time>2013-10-15T19:45:16.226Z</time>
      </trkpt>
      <trkpt lat="48.83089" lon="2.25845">
        <ele>79</ele>
        <time>2013-10-15T19:45:19.222Z</time>
      </trkpt>
      <trkpt lat="48.83088" lon="2.25847">
        <ele>77</ele>
        <time>2013-10-15T19:45:20.233Z</time>
      </trkpt>
      <trkpt lat="48.83084" lon="2.25857">
        <ele>72</ele>
        <time>2013-10-15T19:45:23.232Z</time>
      </trkpt>
      <trkpt lat="48.83083" lon="2.25861">
        <ele>73</ele>
        <time>2013-10-15T19:45:24.227Z</time>
      </trkpt>
      <trkpt lat="48.8308" lon="2.2587">
        <ele>74</ele>
        <time>2013-10-15T19:45:26.226Z</time>
      </trkpt>
      <trkpt lat="48.83079" lon="2.25874">
        <ele>77</ele>
        <time>2013-10-15T19:45:27.230Z</time>
      </trkpt>
      <trkpt lat="48.83075" lon="2.25882">
        <ele>74</ele>
        <time>2013-10-15T19:45:29.224Z</time>
      </trkpt>
      <trkpt lat="48.83073" lon="2.25886">
        <ele>76</ele>
        <time>2013-10-15T19:45:30.256Z</time>
      </trkpt>
      <trkpt lat="48.83069" lon="2.25894">
        <ele>72</ele>
        <time>2013-10-15T19:45:32.232Z</time>
      </trkpt>
      <trkpt lat="48.83066" lon="2.25897">
        <ele>71</ele>
        <time>2013-10-15T19:45:33.233Z</time>
      </trkpt>
      <trkpt lat="48.83062" lon="2.25905">
        <ele>72</ele>
        <time>2013-10-15T19:45:35.263Z</time>
      </trkpt>
      <trkpt lat="48.8306" lon="2.2591">
        <ele>73</ele>
        <time>2013-10-15T19:45:36.230Z</time>
      </trkpt>
      <trkpt lat="48.83055" lon="2.25921">
        <ele>74</ele>
        <time>2013-10-15T19:45:38.232Z</time>
      </trkpt>
      <trkpt lat="48.83053" lon="2.25928">
        <ele>74</ele>
        <time>2013-10-15T19:45:39.380Z</time>
      </trkpt>
      <trkpt lat="48.8305" lon="2.25934">
        <ele>75</ele>
        <time>2013-10-15T19:45:40.232Z</time>
      </trkpt>
      <trkpt lat="48.83047" lon="2.2594">
        <ele>76</ele>
        <time>2013-10-15T19:45:41.232Z</time>
      </trkpt>
      <trkpt lat="48.83043" lon="2.25951">
        <ele>71</ele>
        <time>2013-10-15T19:45:43.228Z</time>
      </trkpt>
      <trkpt lat="48.83041" lon="2.25956">
        <ele>71</ele>
        <time>2013-10-15T19:45:44.228Z</time>
      </trkpt>
      <trkpt lat="48.83036" lon="2.25967">
        <ele>69</ele>
        <time>2013-10-15T19:45:46.239Z</time>
      </trkpt>
      <trkpt lat="48.83034" lon="2.25973">
        <ele>70</ele>
        <time>2013-10-15T19:45:47.233Z</time>
      </trkpt>
      <trkpt lat="48.83029" lon="2.25983">
        <ele>71</ele>
        <time>2013-10-15T19:45:49.233Z</time>
      </trkpt>
      <trkpt lat="48.83027" lon="2.25988">
        <ele>73</ele>
        <time>2013-10-15T19:45:50.226Z</time>
      </trkpt>
      <trkpt lat="48.83024" lon="2.25998">
        <ele>72</ele>
        <time>2013-10-15T19:45:52.222Z</time>
      </trkpt>
      <trkpt lat="48.83023" lon="2.26002">
        <ele>72</ele>
        <time>2013-10-15T19:45:53.229Z</time>
      </trkpt>
      <trkpt lat="48.83019" lon="2.26012">
        <ele>66</ele>
        <time>2013-10-15T19:45:56.229Z</time>
      </trkpt>
      <trkpt lat="48.83018" lon="2.26015">
        <ele>66</ele>
        <time>2013-10-15T19:45:57.227Z</time>
      </trkpt>
      <trkpt lat="48.83015" lon="2.26025">
        <ele>65</ele>
        <time>2013-10-15T19:46:00.231Z</time>
      </trkpt>
      <trkpt lat="48.83014" lon="2.26028">
        <ele>65</ele>
        <time>2013-10-15T19:46:01.228Z</time>
      </trkpt>
      <trkpt lat="48.8301" lon="2.26039">
        <ele>67</ele>
        <time>2013-10-15T19:46:04.210Z</time>
      </trkpt>
      <trkpt lat="48.83009" lon="2.26043">
        <ele>71</ele>
        <time>2013-10-15T19:46:05.229Z</time>
      </trkpt>
      <trkpt lat="48.83005" lon="2.26054">
        <ele>71</ele>
        <time>2013-10-15T19:46:08.229Z</time>
      </trkpt>
      <trkpt lat="48.83004" lon="2.26057">
        <ele>72</ele>
        <time>2013-10-15T19:46:09.363Z</time>
      </trkpt>
      <trkpt lat="48.83" lon="2.26069">
        <ele>69</ele>
        <time>2013-10-15T19:46:13.227Z</time>
      </trkpt>
      <trkpt lat="48.82999" lon="2.26072">
        <ele>71</ele>
        <time>2013-10-15T19:46:14.271Z</time>
      </trkpt>
      <trkpt lat="48.82999" lon="2.26084">
        <ele>77</ele>
        <time>2013-10-15T19:46:20.228Z</time>
      </trkpt>
      <trkpt lat="48.82999" lon="2.26087">
        <ele>76</ele>
        <time>2013-10-15T19:46:21.231Z</time>
      </trkpt>
      <trkpt lat="48.83001" lon="2.261">
        <ele>77</ele>
        <time>2013-10-15T19:46:25.194Z</time>
      </trkpt>
      <trkpt lat="48.83002" lon="2.26104">
        <ele>75</ele>
        <time>2013-10-15T19:46:26.235Z</time>
      </trkpt>
      <trkpt lat="48.83003" lon="2.26117">
        <ele>74</ele>
        <time>2013-10-15T19:46:29.224Z</time>
      </trkpt>
      <trkpt lat="48.83002" lon="2.26123">
        <ele>74</ele>
        <time>2013-10-15T19:46:30.222Z</time>
      </trkpt>
      <trkpt lat="48.83001" lon="2.26134">
        <ele>76</ele>
        <time>2013-10-15T19:46:32.537Z</time>
      </trkpt>
      <trkpt lat="48.83" lon="2.26138">
        <ele>76</ele>
        <time>2013-10-15T19:46:33.227Z</time>
      </trkpt>
      <trkpt lat="48.82994" lon="2.26147">
        <ele>77</ele>
        <time>2013-10-15T19:46:38.224Z</time>
      </trkpt>
      <trkpt lat="48.82992" lon="2.26147">
        <ele>78</ele>
        <time>2013-10-15T19:46:39.332Z</time>
      </trkpt>
      <trkpt lat="48.82986" lon="2.2614">
        <ele>76</ele>
        <time>2013-10-15T19:46:48.232Z</time>
      </trkpt>
      <trkpt lat="48.82986" lon="2.2614">
        <ele>73</ele>
        <time>2013-10-15T19:46:49.232Z</time>
      </trkpt>
      <trkpt lat="48.82987" lon="2.26141">
        <ele>74</ele>
        <time>2013-10-15T19:47:01.232Z</time>
      </trkpt>
      <trkpt lat="48.82987" lon="2.26141">
        <ele>77</ele>
        <time>2013-10-15T19:47:02.226Z</time>
      </trkpt>
      <trkpt lat="48.82982" lon="2.26152">
        <ele>80</ele>
        <time>2013-10-15T19:47:07.307Z</time>
      </trkpt>
      <trkpt lat="48.82981" lon="2.26154">
        <ele>84</ele>
        <time>2013-10-15T19:47:08.239Z</time>
      </trkpt>
      <trkpt lat="48.82978" lon="2.26161">
        <ele>82</ele>
        <time>2013-10-15T19:47:15.233Z</time>
      </trkpt>
      <trkpt lat="48.82974" lon="2.26164">
        <ele>79</ele>
        <time>2013-10-15T19:47:16.191Z</time>
      </trkpt>
      <trkpt lat="48.82967" lon="2.2617">
        <ele>75</ele>
        <time>2013-10-15T19:47:18.230Z</time>
      </trkpt>
      <trkpt lat="48.82965" lon="2.26173">
        <ele>75</ele>
        <time>2013-10-15T19:47:19.228Z</time>
      </trkpt>
      <trkpt lat="48.82961" lon="2.26182">
        <ele>70</ele>
        <time>2013-10-15T19:47:22.231Z</time>
      </trkpt>
      <trkpt lat="48.8296" lon="2.26187">
        <ele>69</ele>
        <time>2013-10-15T19:47:23.256Z</time>
      </trkpt>
      <trkpt lat="48.82958" lon="2.26198">
        <ele>73</ele>
        <time>2013-10-15T19:47:25.228Z</time>
      </trkpt>
      <trkpt lat="48.82957" lon="2.26205">
        <ele>75</ele>
        <time>2013-10-15T19:47:26.178Z</time>
      </trkpt>
      <trkpt lat="48.82956" lon="2.26212">
        <ele>73</ele>
        <time>2013-10-15T19:47:27.229Z</time>
      </trkpt>
      <trkpt lat="48.82956" lon="2.26219">
        <ele>74</ele>
        <time>2013-10-15T19:47:28.228Z</time>
      </trkpt>
      <trkpt lat="48.82955" lon="2.26232">
        <ele>71</ele>
        <time>2013-10-15T19:47:30.224Z</time>
      </trkpt>
      <trkpt lat="48.82955" lon="2.26238">
        <ele>73</ele>
        <time>2013-10-15T19:47:31.232Z</time>
      </trkpt>
      <trkpt lat="48.82953" lon="2.26251">
        <ele>72</ele>
        <time>2013-10-15T19:47:33.231Z</time>
      </trkpt>
      <trkpt lat="48.82953" lon="2.26257">
        <ele>73</ele>
        <time>2013-10-15T19:47:34.233Z</time>
      </trkpt>
      <trkpt lat="48.8295" lon="2.26268">
        <ele>68</ele>
        <time>2013-10-15T19:47:36.233Z</time>
      </trkpt>
      <trkpt lat="48.82949" lon="2.26273">
        <ele>71</ele>
        <time>2013-10-15T19:47:37.233Z</time>
      </trkpt>
      <trkpt lat="48.82946" lon="2.26284">
        <ele>74</ele>
        <time>2013-10-15T19:47:39.306Z</time>
      </trkpt>
      <trkpt lat="48.82943" lon="2.26303">
        <ele>72</ele>
        <time>2013-10-15T19:47:43.229Z</time>
      </trkpt>
      <trkpt lat="48.82943" lon="2.2631">
        <ele>72</ele>
        <time>2013-10-15T19:47:46.221Z</time>
      </trkpt>
      <trkpt lat="48.82943" lon="2.26327">
        <ele>70</ele>
        <time>2013-10-15T19:47:49.229Z</time>
      </trkpt>
      <trkpt lat="48.82945" lon="2.26338">
        <ele>74</ele>
        <time>2013-10-15T19:47:51.233Z</time>
      </trkpt>
      <trkpt lat="48.82946" lon="2.26344">
        <ele>73</ele>
        <time>2013-10-15T19:47:52.197Z</time>
      </trkpt>
      <trkpt lat="48.82946" lon="2.26354">
        <ele>74</ele>
        <time>2013-10-15T19:47:54.235Z</time>
      </trkpt>
      <trkpt lat="48.82946" lon="2.26359">
        <ele>76</ele>
        <time>2013-10-15T19:47:55.234Z</time>
      </trkpt>
      <trkpt lat="48.82942" lon="2.26368">
        <ele>75</ele>
        <time>2013-10-15T19:47:57.283Z</time>
      </trkpt>
      <trkpt lat="48.8294" lon="2.26372">
        <ele>74</ele>
        <time>2013-10-15T19:47:58.233Z</time>
      </trkpt>
      <trkpt lat="48.82938" lon="2.26384">
        <ele>75</ele>
        <time>2013-10-15T19:48:01.230Z</time>
      </trkpt>
      <trkpt lat="48.82938" lon="2.26388">
        <ele>77</ele>
        <time>2013-10-15T19:48:02.235Z</time>
      </trkpt>
      <trkpt lat="48.82938" lon="2.264">
        <ele>79</ele>
        <time>2013-10-15T19:48:05.236Z</time>
      </trkpt>
      <trkpt lat="48.82939" lon="2.26404">
        <ele>80</ele>
        <time>2013-10-15T19:48:06.188Z</time>
      </trkpt>
      <trkpt lat="48.82933" lon="2.26411">
        <ele>76</ele>
        <time>2013-10-15T19:48:16.239Z</time>
      </trkpt>
      <trkpt lat="48.82931" lon="2.26413">
        <ele>76</ele>
        <time>2013-10-15T19:48:17.237Z</time>
      </trkpt>
      <trkpt lat="48.82926" lon="2.26419">
        <ele>71</ele>
        <time>2013-10-15T19:48:19.235Z</time>
      </trkpt>
      <trkpt lat="48.82881" lon="2.26473">
        <ele>78</ele>
        <time>2013-10-15T19:48:37.256Z</time>
      </trkpt>
      <trkpt lat="48.82882" lon="2.26484">
        <ele>79</ele>
        <time>2013-10-15T19:48:38.242Z</time>
      </trkpt>
      <trkpt lat="48.82882" lon="2.26493">
        <ele>76</ele>
        <time>2013-10-15T19:48:39.378Z</time>
      </trkpt>
      <trkpt lat="48.82883" lon="2.26518">
        <ele>83</ele>
        <time>2013-10-15T19:48:42.247Z</time>
      </trkpt>
      <trkpt lat="48.82883" lon="2.26531">
        <ele>89</ele>
        <time>2013-10-15T19:48:44.248Z</time>
      </trkpt>
      <trkpt lat="48.82881" lon="2.26538">
        <ele>90</ele>
        <time>2013-10-15T19:48:45.248Z</time>
      </trkpt>
      <trkpt lat="48.8288" lon="2.26546">
        <ele>89</ele>
        <time>2013-10-15T19:48:46.185Z</time>
      </trkpt>
      <trkpt lat="48.82877" lon="2.26555">
        <ele>89</ele>
        <time>2013-10-15T19:48:47.237Z</time>
      </trkpt>
      <trkpt lat="48.82875" lon="2.26563">
        <ele>90</ele>
        <time>2013-10-15T19:48:48.237Z</time>
      </trkpt>
      <trkpt lat="48.82872" lon="2.26572">
        <ele>89</ele>
        <time>2013-10-15T19:48:49.234Z</time>
      </trkpt>
      <trkpt lat="48.82869" lon="2.2658">
        <ele>89</ele>
        <time>2013-10-15T19:48:50.237Z</time>
      </trkpt>
      <trkpt lat="48.82867" lon="2.26589">
        <ele>89</ele>
        <time>2013-10-15T19:48:51.234Z</time>
      </trkpt>
      <trkpt lat="48.82864" lon="2.26597">
        <ele>89</ele>
        <time>2013-10-15T19:48:52.237Z</time>
      </trkpt>
      <trkpt lat="48.82861" lon="2.26602">
        <ele>89</ele>
        <time>2013-10-15T19:48:53.241Z</time>
      </trkpt>
      <trkpt lat="48.82857" lon="2.26612">
        <ele>87</ele>
        <time>2013-10-15T19:48:55.240Z</time>
      </trkpt>
      <trkpt lat="48.82854" lon="2.26616">
        <ele>85</ele>
        <time>2013-10-15T19:48:56.237Z</time>
      </trkpt>
      <trkpt lat="48.8285" lon="2.26624">
        <ele>89</ele>
        <time>2013-10-15T19:48:58.236Z</time>
      </trkpt>
      <trkpt lat="48.82847" lon="2.26628">
        <ele>90</ele>
        <time>2013-10-15T19:48:59.253Z</time>
      </trkpt>
      <trkpt lat="48.82841" lon="2.26636">
        <ele>88</ele>
        <time>2013-10-15T19:49:01.280Z</time>
      </trkpt>
      <trkpt lat="48.82838" lon="2.2664">
        <ele>88</ele>
        <time>2013-10-15T19:49:02.234Z</time>
      </trkpt>
      <trkpt lat="48.82831" lon="2.26649">
        <ele>91</ele>
        <time>2013-10-15T19:49:04.235Z</time>
      </trkpt>
      <trkpt lat="48.82828" lon="2.26653">
        <ele>90</ele>
        <time>2013-10-15T19:49:05.234Z</time>
      </trkpt>
      <trkpt lat="48.82822" lon="2.26662">
        <ele>92</ele>
        <time>2013-10-15T19:49:07.235Z</time>
      </trkpt>
      <trkpt lat="48.82805" lon="2.26694">
        <ele>90</ele>
        <time>2013-10-15T19:49:15.239Z</time>
      </trkpt>
      <trkpt lat="48.82803" lon="2.26705">
        <ele>89</ele>
        <time>2013-10-15T19:49:18.234Z</time>
      </trkpt>
      <trkpt lat="48.82801" lon="2.26708">
        <ele>90</ele>
        <time>2013-10-15T19:49:19.239Z</time>
      </trkpt>
      <trkpt lat="48.82795" lon="2.26718">
        <ele>90</ele>
        <time>2013-10-15T19:49:22.236Z</time>
      </trkpt>
      <trkpt lat="48.82793" lon="2.26721">
        <ele>89</ele>
        <time>2013-10-15T19:49:23.239Z</time>
      </trkpt>
      <trkpt lat="48.8279" lon="2.26733">
        <ele>89</ele>
        <time>2013-10-15T19:49:25.240Z</time>
      </trkpt>
      <trkpt lat="48.8279" lon="2.26739">
        <ele>88</ele>
        <time>2013-10-15T19:49:26.193Z</time>
      </trkpt>
      <trkpt lat="48.82793" lon="2.26749">
        <ele>89</ele>
        <time>2013-10-15T19:49:28.237Z</time>
      </trkpt>
      <trkpt lat="48.82793" lon="2.26753">
        <ele>89</ele>
        <time>2013-10-15T19:49:29.233Z</time>
      </trkpt>
      <trkpt lat="48.82795" lon="2.26756">
        <ele>92</ele>
        <time>2013-10-15T19:49:36.234Z</time>
      </trkpt>
      <trkpt lat="48.82795" lon="2.26756">
        <ele>93</ele>
        <time>2013-10-15T19:49:37.239Z</time>
      </trkpt>
      <trkpt lat="48.82794" lon="2.26753">
        <ele>92</ele>
        <time>2013-10-15T19:50:01.217Z</time>
      </trkpt>
      <trkpt lat="48.82794" lon="2.26753">
        <ele>93</ele>
        <time>2013-10-15T19:50:02.217Z</time>
      </trkpt>
      <trkpt lat="48.82795" lon="2.26766">
        <ele>91</ele>
        <time>2013-10-15T19:50:12.224Z</time>
      </trkpt>
      <trkpt lat="48.82795" lon="2.26768">
        <ele>91</ele>
        <time>2013-10-15T19:50:13.222Z</time>
      </trkpt>
      <trkpt lat="48.82793" lon="2.26777">
        <ele>90</ele>
        <time>2013-10-15T19:50:24.225Z</time>
      </trkpt>
      <trkpt lat="48.82793" lon="2.26777">
        <ele>87</ele>
        <time>2013-10-15T19:50:25.224Z</time>
      </trkpt>
      <trkpt lat="48.82794" lon="2.26776">
        <ele>90</ele>
        <time>2013-10-15T19:50:32.224Z</time>
      </trkpt>
      <trkpt lat="48.82794" lon="2.26775">
        <ele>89</ele>
        <time>2013-10-15T19:50:33.223Z</time>
      </trkpt>
      <trkpt lat="48.82795" lon="2.26773">
        <ele>91</ele>
        <time>2013-10-15T19:50:38.222Z</time>
      </trkpt>
      <trkpt lat="48.82795" lon="2.26773">
        <ele>90</ele>
        <time>2013-10-15T19:50:39.304Z</time>
      </trkpt>
      <trkpt lat="48.82795" lon="2.26773">
        <ele>97</ele>
        <time>2013-10-15T19:50:50.224Z</time>
      </trkpt>
      <trkpt lat="48.82795" lon="2.26772">
        <ele>96</ele>
        <time>2013-10-15T19:50:51.225Z</time>
      </trkpt>
      <trkpt lat="48.8279" lon="2.2678">
        <ele>98</ele>
        <time>2013-10-15T19:51:02.229Z</time>
      </trkpt>
      <trkpt lat="48.82791" lon="2.26786">
        <ele>99</ele>
        <time>2013-10-15T19:51:03.226Z</time>
      </trkpt>
      <trkpt lat="48.82794" lon="2.26797">
        <ele>101</ele>
        <time>2013-10-15T19:51:05.197Z</time>
      </trkpt>
      <trkpt lat="48.82795" lon="2.26803">
        <ele>101</ele>
        <time>2013-10-15T19:51:06.230Z</time>
      </trkpt>
      <trkpt lat="48.82798" lon="2.26813">
        <ele>103</ele>
        <time>2013-10-15T19:51:08.231Z</time>
      </trkpt>
      <trkpt lat="48.82799" lon="2.26817">
        <ele>102</ele>
        <time>2013-10-15T19:51:09.231Z</time>
      </trkpt>
      <trkpt lat="48.82802" lon="2.26829">
        <ele>100</ele>
        <time>2013-10-15T19:51:12.232Z</time>
      </trkpt>
      <trkpt lat="48.82803" lon="2.26832">
        <ele>102</ele>
        <time>2013-10-15T19:51:13.227Z</time>
      </trkpt>
      <trkpt lat="48.82804" lon="2.26841">
        <ele>98</ele>
        <time>2013-10-15T19:51:15.232Z</time>
      </trkpt>
      <trkpt lat="48.82804" lon="2.26846">
        <ele>96</ele>
        <time>2013-10-15T19:51:16.236Z</time>
      </trkpt>
      <trkpt lat="48.82804" lon="2.26856">
        <ele>94</ele>
        <time>2013-10-15T19:51:18.228Z</time>
      </trkpt>
      <trkpt lat="48.82804" lon="2.26861">
        <ele>92</ele>
        <time>2013-10-15T19:51:19.264Z</time>
      </trkpt>
      <trkpt lat="48.82803" lon="2.26873">
        <ele>86</ele>
        <time>2013-10-15T19:51:21.249Z</time>
      </trkpt>
      <trkpt lat="48.82803" lon="2.26879">
        <ele>87</ele>
        <time>2013-10-15T19:51:22.210Z</time>
      </trkpt>
      <trkpt lat="48.82802" lon="2.2689">
        <ele>85</ele>
        <time>2013-10-15T19:51:24.238Z</time>
      </trkpt>
      <trkpt lat="48.82802" lon="2.26896">
        <ele>81</ele>
        <time>2013-10-15T19:51:25.237Z</time>
      </trkpt>
      <trkpt lat="48.82801" lon="2.26905">
        <ele>85</ele>
        <time>2013-10-15T19:51:27.297Z</time>
      </trkpt>
      <trkpt lat="48.82801" lon="2.26909">
        <ele>83</ele>
        <time>2013-10-15T19:51:28.235Z</time>
      </trkpt>
      <trkpt lat="48.82799" lon="2.26918">
        <ele>84</ele>
        <time>2013-10-15T19:51:30.244Z</time>
      </trkpt>
      <trkpt lat="48.82799" lon="2.26923">
        <ele>85</ele>
        <time>2013-10-15T19:51:31.236Z</time>
      </trkpt>
      <trkpt lat="48.82799" lon="2.26935">
        <ele>83</ele>
        <time>2013-10-15T19:51:33.234Z</time>
      </trkpt>
      <trkpt lat="48.82799" lon="2.26941">
        <ele>82</ele>
        <time>2013-10-15T19:51:34.232Z</time>
      </trkpt>
      <trkpt lat="48.828" lon="2.26953">
        <ele>85</ele>
        <time>2013-10-15T19:51:36.231Z</time>
      </trkpt>
      <trkpt lat="48.828" lon="2.26959">
        <ele>85</ele>
        <time>2013-10-15T19:51:37.234Z</time>
      </trkpt>
      <trkpt lat="48.82802" lon="2.2697">
        <ele>83</ele>
        <time>2013-10-15T19:51:39.366Z</time>
      </trkpt>
      <trkpt lat="48.82802" lon="2.26976">
        <ele>82</ele>
        <time>2013-10-15T19:51:40.232Z</time>
      </trkpt>
      <trkpt lat="48.82803" lon="2.26989">
        <ele>83</ele>
        <time>2013-10-15T19:51:42.230Z</time>
      </trkpt>
      <trkpt lat="48.82804" lon="2.26996">
        <ele>79</ele>
        <time>2013-10-15T19:51:43.240Z</time>
      </trkpt>
      <trkpt lat="48.82804" lon="2.27003">
        <ele>82</ele>
        <time>2013-10-15T19:51:44.235Z</time>
      </trkpt>
      <trkpt lat="48.82804" lon="2.2701">
        <ele>80</ele>
        <time>2013-10-15T19:51:45.230Z</time>
      </trkpt>
      <trkpt lat="48.82804" lon="2.27017">
        <ele>82</ele>
        <time>2013-10-15T19:51:46.239Z</time>
      </trkpt>
      <trkpt lat="48.82804" lon="2.27024">
        <ele>82</ele>
        <time>2013-10-15T19:51:47.235Z</time>
      </trkpt>
      <trkpt lat="48.82803" lon="2.27031">
        <ele>83</ele>
        <time>2013-10-15T19:51:48.236Z</time>
      </trkpt>
      <trkpt lat="48.82803" lon="2.27038">
        <ele>87</ele>
        <time>2013-10-15T19:51:49.236Z</time>
      </trkpt>
      <trkpt lat="48.82803" lon="2.27045">
        <ele>92</ele>
        <time>2013-10-15T19:51:50.235Z</time>
      </trkpt>
      <trkpt lat="48.82803" lon="2.27052">
        <ele>90</ele>
        <time>2013-10-15T19:51:51.236Z</time>
      </trkpt>
      <trkpt lat="48.82804" lon="2.27059">
        <ele>88</ele>
        <time>2013-10-15T19:51:52.236Z</time>
      </trkpt>
      <trkpt lat="48.82804" lon="2.27065">
        <ele>90</ele>
        <time>2013-10-15T19:51:53.235Z</time>
      </trkpt>
      <trkpt lat="48.82806" lon="2.27078">
        <ele>89</ele>
        <time>2013-10-15T19:51:55.236Z</time>
      </trkpt>
      <trkpt lat="48.82807" lon="2.27085">
        <ele>85</ele>
        <time>2013-10-15T19:51:56.236Z</time>
      </trkpt>
      <trkpt lat="48.82809" lon="2.27097">
        <ele>87</ele>
        <time>2013-10-15T19:51:58.236Z</time>
      </trkpt>
      <trkpt lat="48.82809" lon="2.27103">
        <ele>83</ele>
        <time>2013-10-15T19:51:59.239Z</time>
      </trkpt>
      <trkpt lat="48.82806" lon="2.27114">
        <ele>80</ele>
        <time>2013-10-15T19:52:01.235Z</time>
      </trkpt>
      <trkpt lat="48.82805" lon="2.27119">
        <ele>81</ele>
        <time>2013-10-15T19:52:02.241Z</time>
      </trkpt>
      <trkpt lat="48.82804" lon="2.27131">
        <ele>83</ele>
        <time>2013-10-15T19:52:04.242Z</time>
      </trkpt>
      <trkpt lat="48.82804" lon="2.27138">
        <ele>82</ele>
        <time>2013-10-15T19:52:05.245Z</time>
      </trkpt>
      <trkpt lat="48.82805" lon="2.2715">
        <ele>82</ele>
        <time>2013-10-15T19:52:07.235Z</time>
      </trkpt>
      <trkpt lat="48.82805" lon="2.27157">
        <ele>79</ele>
        <time>2013-10-15T19:52:08.313Z</time>
      </trkpt>
      <trkpt lat="48.82807" lon="2.2717">
        <ele>77</ele>
        <time>2013-10-15T19:52:10.245Z</time>
      </trkpt>
      <trkpt lat="48.82808" lon="2.27177">
        <ele>79</ele>
        <time>2013-10-15T19:52:11.237Z</time>
      </trkpt>
      <trkpt lat="48.82809" lon="2.27188">
        <ele>78</ele>
        <time>2013-10-15T19:52:13.237Z</time>
      </trkpt>
      <trkpt lat="48.82809" lon="2.27194">
        <ele>75</ele>
        <time>2013-10-15T19:52:14.237Z</time>
      </trkpt>
      <trkpt lat="48.82811" lon="2.27207">
        <ele>75</ele>
        <time>2013-10-15T19:52:16.247Z</time>
      </trkpt>
      <trkpt lat="48.82811" lon="2.27213">
        <ele>72</ele>
        <time>2013-10-15T19:52:17.237Z</time>
      </trkpt>
      <trkpt lat="48.82812" lon="2.27225">
        <ele>73</ele>
        <time>2013-10-15T19:52:19.235Z</time>
      </trkpt>
      <trkpt lat="48.82812" lon="2.27231">
        <ele>76</ele>
        <time>2013-10-15T19:52:20.249Z</time>
      </trkpt>
      <trkpt lat="48.82812" lon="2.27242">
        <ele>85</ele>
        <time>2013-10-15T19:52:22.232Z</time>
      </trkpt>
      <trkpt lat="48.82812" lon="2.27247">
        <ele>85</ele>
        <time>2013-10-15T19:52:23.234Z</time>
      </trkpt>
      <trkpt lat="48.82813" lon="2.27256">
        <ele>81</ele>
        <time>2013-10-15T19:52:25.234Z</time>
      </trkpt>
      <trkpt lat="48.82813" lon="2.27261">
        <ele>81</ele>
        <time>2013-10-15T19:52:26.236Z</time>
      </trkpt>
      <trkpt lat="48.82813" lon="2.27272">
        <ele>84</ele>
        <time>2013-10-15T19:52:28.239Z</time>
      </trkpt>
      <trkpt lat="48.82813" lon="2.27278">
        <ele>88</ele>
        <time>2013-10-15T19:52:29.232Z</time>
      </trkpt>
      <trkpt lat="48.82814" lon="2.2729">
        <ele>87</ele>
        <time>2013-10-15T19:52:31.239Z</time>
      </trkpt>
      <trkpt lat="48.82815" lon="2.27296">
        <ele>89</ele>
        <time>2013-10-15T19:52:32.240Z</time>
      </trkpt>
      <trkpt lat="48.82815" lon="2.27308">
        <ele>90</ele>
        <time>2013-10-15T19:52:34.243Z</time>
      </trkpt>
      <trkpt lat="48.82815" lon="2.27314">
        <ele>90</ele>
        <time>2013-10-15T19:52:35.237Z</time>
      </trkpt>
      <trkpt lat="48.82816" lon="2.27327">
        <ele>90</ele>
        <time>2013-10-15T19:52:38.235Z</time>
      </trkpt>
      <trkpt lat="48.82817" lon="2.2733">
        <ele>90</ele>
        <time>2013-10-15T19:52:39.322Z</time>
      </trkpt>
      <trkpt lat="48.82818" lon="2.27343">
        <ele>85</ele>
        <time>2013-10-15T19:52:43.243Z</time>
      </trkpt>
      <trkpt lat="48.82817" lon="2.27346">
        <ele>84</ele>
        <time>2013-10-15T19:52:44.241Z</time>
      </trkpt>
      <trkpt lat="48.82815" lon="2.27355">
        <ele>86</ele>
        <time>2013-10-15T19:52:54.247Z</time>
      </trkpt>
      <trkpt lat="48.82814" lon="2.27355">
        <ele>86</ele>
        <time>2013-10-15T19:52:55.241Z</time>
      </trkpt>
      <trkpt lat="48.82814" lon="2.27355">
        <ele>90</ele>
        <time>2013-10-15T19:52:56.235Z</time>
      </trkpt>
      <trkpt lat="48.82807" lon="2.27357">
        <ele>87</ele>
        <time>2013-10-15T19:53:01.244Z</time>
      </trkpt>
      <trkpt lat="48.82805" lon="2.27356">
        <ele>86</ele>
        <time>2013-10-15T19:53:02.379Z</time>
      </trkpt>
      <trkpt lat="48.828" lon="2.27357">
        <ele>93</ele>
        <time>2013-10-15T19:53:14.247Z</time>
      </trkpt>
      <trkpt lat="48.828" lon="2.27357">
        <ele>94</ele>
        <time>2013-10-15T19:53:15.241Z</time>
      </trkpt>
      <trkpt lat="48.82801" lon="2.27357">
        <ele>94</ele>
        <time>2013-10-15T19:53:16.244Z</time>
      </trkpt>
      <trkpt lat="48.82801" lon="2.27355">
        <ele>96</ele>
        <time>2013-10-15T19:53:17.241Z</time>
      </trkpt>
      <trkpt lat="48.82802" lon="2.27354">
        <ele>100</ele>
        <time>2013-10-15T19:53:21.244Z</time>
      </trkpt>
      <trkpt lat="48.82802" lon="2.27354">
        <ele>101</ele>
        <time>2013-10-15T19:53:22.246Z</time>
      </trkpt>
      <trkpt lat="48.82802" lon="2.27354">
        <ele>73</ele>
        <time>2013-10-15T19:53:44.247Z</time>
      </trkpt>
      <trkpt lat="48.82804" lon="2.27354">
        <ele>71</ele>
        <time>2013-10-15T19:53:45.247Z</time>
      </trkpt>
      <trkpt lat="48.82808" lon="2.27354">
        <ele>71</ele>
        <time>2013-10-15T19:53:52.251Z</time>
      </trkpt>
      <trkpt lat="48.82808" lon="2.27354">
        <ele>64</ele>
        <time>2013-10-15T19:53:53.247Z</time>
      </trkpt>
      <trkpt lat="48.82808" lon="2.27353">
        <ele>61</ele>
        <time>2013-10-15T19:53:55.251Z</time>
      </trkpt>
      <trkpt lat="48.82807" lon="2.27353">
        <ele>57</ele>
        <time>2013-10-15T19:53:56.247Z</time>
      </trkpt>
      <trkpt lat="48.82806" lon="2.27353">
        <ele>52</ele>
        <time>2013-10-15T19:53:59.243Z</time>
      </trkpt>
      <trkpt lat="48.82806" lon="2.27353">
        <ele>54</ele>
        <time>2013-10-15T19:54:00.290Z</time>
      </trkpt>
      <trkpt lat="48.82807" lon="2.27353">
        <ele>85</ele>
        <time>2013-10-15T19:54:12.249Z</time>
      </trkpt>
      <trkpt lat="48.82806" lon="2.27354">
        <ele>85</ele>
        <time>2013-10-15T19:54:13.251Z</time>
      </trkpt>
      <trkpt lat="48.82802" lon="2.27343">
        <ele>67</ele>
        <time>2013-10-15T19:54:33.251Z</time>
      </trkpt>
      <trkpt lat="48.82802" lon="2.27343">
        <ele>66</ele>
        <time>2013-10-15T19:54:34.251Z</time>
      </trkpt>
      <trkpt lat="48.82802" lon="2.27344">
        <ele>83</ele>
        <time>2013-10-15T19:54:42.260Z</time>
      </trkpt>
      <trkpt lat="48.82801" lon="2.27345">
        <ele>84</ele>
        <time>2013-10-15T19:54:43.250Z</time>
      </trkpt>
      <trkpt lat="48.82797" lon="2.27351">
        <ele>86</ele>
        <time>2013-10-15T19:54:51.257Z</time>
      </trkpt>
      <trkpt lat="48.82798" lon="2.2735">
        <ele>88</ele>
        <time>2013-10-15T19:54:52.260Z</time>
      </trkpt>
      <trkpt lat="48.82798" lon="2.2735">
        <ele>93</ele>
        <time>2013-10-15T19:54:53.259Z</time>
      </trkpt>
      <trkpt lat="48.82798" lon="2.2735">
        <ele>94</ele>
        <time>2013-10-15T19:54:54.294Z</time>
      </trkpt>
      <trkpt lat="48.82799" lon="2.2735">
        <ele>92</ele>
        <time>2013-10-15T19:54:57.251Z</time>
      </trkpt>
      <trkpt lat="48.82799" lon="2.2735">
        <ele>91</ele>
        <time>2013-10-15T19:54:58.254Z</time>
      </trkpt>
      <trkpt lat="48.828" lon="2.2735">
        <ele>92</ele>
        <time>2013-10-15T19:54:59.254Z</time>
      </trkpt>
      <trkpt lat="48.82801" lon="2.27352">
        <ele>89</ele>
        <time>2013-10-15T19:55:03.282Z</time>
      </trkpt>
      <trkpt lat="48.828" lon="2.27352">
        <ele>90</ele>
        <time>2013-10-15T19:55:04.257Z</time>
      </trkpt>
      <trkpt lat="48.828" lon="2.27352">
        <ele>95</ele>
        <time>2013-10-15T19:55:11.258Z</time>
      </trkpt>
      <trkpt lat="48.828" lon="2.27353">
        <ele>95</ele>
        <time>2013-10-15T19:55:12.249Z</time>
      </trkpt>
      <trkpt lat="48.828" lon="2.27355">
        <ele>93</ele>
        <time>2013-10-15T19:55:17.231Z</time>
      </trkpt>
      <trkpt lat="48.828" lon="2.27355">
        <ele>94</ele>
        <time>2013-10-15T19:55:18.230Z</time>
      </trkpt>
      <trkpt lat="48.828" lon="2.27355">
        <ele>93</ele>
        <time>2013-10-15T19:55:20.240Z</time>
      </trkpt>
      <trkpt lat="48.82799" lon="2.27356">
        <ele>93</ele>
        <time>2013-10-15T19:55:21.241Z</time>
      </trkpt>
      <trkpt lat="48.82799" lon="2.27356">
        <ele>90</ele>
        <time>2013-10-15T19:55:23.229Z</time>
      </trkpt>
      <trkpt lat="48.82799" lon="2.27356">
        <ele>85</ele>
        <time>2013-10-15T19:55:24.241Z</time>
      </trkpt>
      <trkpt lat="48.82799" lon="2.27356">
        <ele>94</ele>
        <time>2013-10-15T19:55:52.242Z</time>
      </trkpt>
      <trkpt lat="48.82799" lon="2.27357">
        <ele>92</ele>
        <time>2013-10-15T19:55:53.241Z</time>
      </trkpt>
      <trkpt lat="48.828" lon="2.27369">
        <ele>76</ele>
        <time>2013-10-15T19:56:01.243Z</time>
      </trkpt>
      <trkpt lat="48.82801" lon="2.27372">
        <ele>76</ele>
        <time>2013-10-15T19:56:02.232Z</time>
      </trkpt>
      <trkpt lat="48.82804" lon="2.27384">
        <ele>73</ele>
        <time>2013-10-15T19:56:06.232Z</time>
      </trkpt>
      <trkpt lat="48.82805" lon="2.27387">
        <ele>74</ele>
        <time>2013-10-15T19:56:07.235Z</time>
      </trkpt>
      <trkpt lat="48.82806" lon="2.27398">
        <ele>79</ele>
        <time>2013-10-15T19:56:11.238Z</time>
      </trkpt>
      <trkpt lat="48.82806" lon="2.27401">
        <ele>80</ele>
        <time>2013-10-15T19:56:12.236Z</time>
      </trkpt>
      <trkpt lat="48.82804" lon="2.27413">
        <ele>79</ele>
        <time>2013-10-15T19:56:17.244Z</time>
      </trkpt>
      <trkpt lat="48.82805" lon="2.27417">
        <ele>75</ele>
        <time>2013-10-15T19:56:18.230Z</time>
      </trkpt>
      <trkpt lat="48.82808" lon="2.27425">
        <ele>80</ele>
        <time>2013-10-15T19:56:20.231Z</time>
      </trkpt>
      <trkpt lat="48.8281" lon="2.2743">
        <ele>87</ele>
        <time>2013-10-15T19:56:21.233Z</time>
      </trkpt>
      <trkpt lat="48.82813" lon="2.27435">
        <ele>83</ele>
        <time>2013-10-15T19:56:22.230Z</time>
      </trkpt>
      <trkpt lat="48.82816" lon="2.27441">
        <ele>86</ele>
        <time>2013-10-15T19:56:23.397Z</time>
      </trkpt>
      <trkpt lat="48.82819" lon="2.27445">
        <ele>88</ele>
        <time>2013-10-15T19:56:24.241Z</time>
      </trkpt>
      <trkpt lat="48.82823" lon="2.27451">
        <ele>88</ele>
        <time>2013-10-15T19:56:25.230Z</time>
      </trkpt>
      <trkpt lat="48.82826" lon="2.27456">
        <ele>91</ele>
        <time>2013-10-15T19:56:26.233Z</time>
      </trkpt>
      <trkpt lat="48.82829" lon="2.27461">
        <ele>93</ele>
        <time>2013-10-15T19:56:27.230Z</time>
      </trkpt>
      <trkpt lat="48.82835" lon="2.27469">
        <ele>94</ele>
        <time>2013-10-15T19:56:29.235Z</time>
      </trkpt>
      <trkpt lat="48.82837" lon="2.27472">
        <ele>98</ele>
        <time>2013-10-15T19:56:30.239Z</time>
      </trkpt>
      <trkpt lat="48.82842" lon="2.27478">
        <ele>96</ele>
        <time>2013-10-15T19:56:32.236Z</time>
      </trkpt>
      <trkpt lat="48.82845" lon="2.27481">
        <ele>95</ele>
        <time>2013-10-15T19:56:33.241Z</time>
      </trkpt>
      <trkpt lat="48.82851" lon="2.27488">
        <ele>96</ele>
        <time>2013-10-15T19:56:35.230Z</time>
      </trkpt>
      <trkpt lat="48.82855" lon="2.27491">
        <ele>96</ele>
        <time>2013-10-15T19:56:36.238Z</time>
      </trkpt>
      <trkpt lat="48.82862" lon="2.27498">
        <ele>97</ele>
        <time>2013-10-15T19:56:38.235Z</time>
      </trkpt>
      <trkpt lat="48.82865" lon="2.27501">
        <ele>102</ele>
        <time>2013-10-15T19:56:39.359Z</time>
      </trkpt>
      <trkpt lat="48.82872" lon="2.27509">
        <ele>99</ele>
        <time>2013-10-15T19:56:41.235Z</time>
      </trkpt>
      <trkpt lat="48.82876" lon="2.27514">
        <ele>97</ele>
        <time>2013-10-15T19:56:42.236Z</time>
      </trkpt>
      <trkpt lat="48.82879" lon="2.27519">
        <ele>97</ele>
        <time>2013-10-15T19:56:43.245Z</time>
      </trkpt>
      <trkpt lat="48.82882" lon="2.27525">
        <ele>99</ele>
        <time>2013-10-15T19:56:44.248Z</time>
      </trkpt>
      <trkpt lat="48.82886" lon="2.2753">
        <ele>99</ele>
        <time>2013-10-15T19:56:45.249Z</time>
      </trkpt>
      <trkpt lat="48.82889" lon="2.27536">
        <ele>99</ele>
        <time>2013-10-15T19:56:46.242Z</time>
      </trkpt>
      <trkpt lat="48.82895" lon="2.27545">
        <ele>103</ele>
        <time>2013-10-15T19:56:48.242Z</time>
      </trkpt>
      <trkpt lat="48.82898" lon="2.27549">
        <ele>95</ele>
        <time>2013-10-15T19:56:49.245Z</time>
      </trkpt>
      <trkpt lat="48.82904" lon="2.2756">
        <ele>97</ele>
        <time>2013-10-15T19:56:51.243Z</time>
      </trkpt>
      <trkpt lat="48.82907" lon="2.27565">
        <ele>97</ele>
        <time>2013-10-15T19:56:52.247Z</time>
      </trkpt>
      <trkpt lat="48.8291" lon="2.2757">
        <ele>98</ele>
        <time>2013-10-15T19:56:53.243Z</time>
      </trkpt>
      <trkpt lat="48.82913" lon="2.27575">
        <ele>98</ele>
        <time>2013-10-15T19:56:54.244Z</time>
      </trkpt>
      <trkpt lat="48.82919" lon="2.27584">
        <ele>100</ele>
        <time>2013-10-15T19:56:56.238Z</time>
      </trkpt>
      <trkpt lat="48.82922" lon="2.27589">
        <ele>98</ele>
        <time>2013-10-15T19:56:57.226Z</time>
      </trkpt>
      <trkpt lat="48.82925" lon="2.27594">
        <ele>99</ele>
        <time>2013-10-15T19:56:58.244Z</time>
      </trkpt>
      <trkpt lat="48.82929" lon="2.276">
        <ele>98</ele>
        <time>2013-10-15T19:56:59.243Z</time>
      </trkpt>
      <trkpt lat="48.82934" lon="2.2761">
        <ele>96</ele>
        <time>2013-10-15T19:57:01.247Z</time>
      </trkpt>
      <trkpt lat="48.82937" lon="2.27615">
        <ele>93</ele>
        <time>2013-10-15T19:57:02.246Z</time>
      </trkpt>
      <trkpt lat="48.82941" lon="2.27624">
        <ele>91</ele>
        <time>2013-10-15T19:57:04.238Z</time>
      </trkpt>
      <trkpt lat="48.82944" lon="2.27629">
        <ele>95</ele>
        <time>2013-10-15T19:57:05.243Z</time>
      </trkpt>
      <trkpt lat="48.82946" lon="2.27635">
        <ele>96</ele>
        <time>2013-10-15T19:57:06.243Z</time>
      </trkpt>
      <trkpt lat="48.82948" lon="2.27641">
        <ele>96</ele>
        <time>2013-10-15T19:57:07.243Z</time>
      </trkpt>
      <trkpt lat="48.82951" lon="2.27648">
        <ele>94</ele>
        <time>2013-10-15T19:57:08.253Z</time>
      </trkpt>
      <trkpt lat="48.82953" lon="2.27655">
        <ele>100</ele>
        <time>2013-10-15T19:57:09.244Z</time>
      </trkpt>
      <trkpt lat="48.82956" lon="2.27662">
        <ele>97</ele>
        <time>2013-10-15T19:57:10.248Z</time>
      </trkpt>
      <trkpt lat="48.82959" lon="2.27668">
        <ele>96</ele>
        <time>2013-10-15T19:57:11.241Z</time>
      </trkpt>
      <trkpt lat="48.82962" lon="2.27673">
        <ele>93</ele>
        <time>2013-10-15T19:57:12.246Z</time>
      </trkpt>
      <trkpt lat="48.82965" lon="2.27677">
        <ele>91</ele>
        <time>2013-10-15T19:57:13.240Z</time>
      </trkpt>
      <trkpt lat="48.82972" lon="2.27685">
        <ele>92</ele>
        <time>2013-10-15T19:57:15.239Z</time>
      </trkpt>
      <trkpt lat="48.82976" lon="2.27689">
        <ele>92</ele>
        <time>2013-10-15T19:57:16.246Z</time>
      </trkpt>
      <trkpt lat="48.82983" lon="2.27697">
        <ele>93</ele>
        <time>2013-10-15T19:57:18.236Z</time>
      </trkpt>
      <trkpt lat="48.82986" lon="2.27701">
        <ele>96</ele>
        <time>2013-10-15T19:57:19.239Z</time>
      </trkpt>
      <trkpt lat="48.8299" lon="2.27705">
        <ele>93</ele>
        <time>2013-10-15T19:57:20.246Z</time>
      </trkpt>
      <trkpt lat="48.82994" lon="2.27709">
        <ele>94</ele>
        <time>2013-10-15T19:57:21.247Z</time>
      </trkpt>
      <trkpt lat="48.82998" lon="2.27714">
        <ele>94</ele>
        <time>2013-10-15T19:57:22.249Z</time>
      </trkpt>
      <trkpt lat="48.83001" lon="2.2772">
        <ele>93</ele>
        <time>2013-10-15T19:57:23.243Z</time>
      </trkpt>
      <trkpt lat="48.83004" lon="2.27725">
        <ele>92</ele>
        <time>2013-10-15T19:57:24.244Z</time>
      </trkpt>
      <trkpt lat="48.83007" lon="2.27731">
        <ele>94</ele>
        <time>2013-10-15T19:57:25.242Z</time>
      </trkpt>
      <trkpt lat="48.83012" lon="2.2774">
        <ele>92</ele>
        <time>2013-10-15T19:57:27.237Z</time>
      </trkpt>
      <trkpt lat="48.83014" lon="2.27744">
        <ele>92</ele>
        <time>2013-10-15T19:57:28.236Z</time>
      </trkpt>
      <trkpt lat="48.83019" lon="2.27753">
        <ele>91</ele>
        <time>2013-10-15T19:57:30.240Z</time>
      </trkpt>
      <trkpt lat="48.83021" lon="2.27758">
        <ele>93</ele>
        <time>2013-10-15T19:57:31.240Z</time>
      </trkpt>
      <trkpt lat="48.83026" lon="2.27767">
        <ele>94</ele>
        <time>2013-10-15T19:57:33.238Z</time>
      </trkpt>
      <trkpt lat="48.8303" lon="2.27771">
        <ele>95</ele>
        <time>2013-10-15T19:57:34.241Z</time>
      </trkpt>
      <trkpt lat="48.83036" lon="2.27778">
        <ele>97</ele>
        <time>2013-10-15T19:57:36.275Z</time>
      </trkpt>
      <trkpt lat="48.83039" lon="2.2778">
        <ele>97</ele>
        <time>2013-10-15T19:57:37.252Z</time>
      </trkpt>
      <trkpt lat="48.83046" lon="2.27786">
        <ele>98</ele>
        <time>2013-10-15T19:57:39.372Z</time>
      </trkpt>
      <trkpt lat="48.83049" lon="2.2779">
        <ele>94</ele>
        <time>2013-10-15T19:57:40.246Z</time>
      </trkpt>
      <trkpt lat="48.83056" lon="2.27798">
        <ele>93</ele>
        <time>2013-10-15T19:57:42.240Z</time>
      </trkpt>
      <trkpt lat="48.83059" lon="2.27803">
        <ele>96</ele>
        <time>2013-10-15T19:57:43.243Z</time>
      </trkpt>
      <trkpt lat="48.83066" lon="2.27811">
        <ele>95</ele>
        <time>2013-10-15T19:57:45.243Z</time>
      </trkpt>
      <trkpt lat="48.83069" lon="2.27816">
        <ele>98</ele>
        <time>2013-10-15T19:57:46.259Z</time>
      </trkpt>
      <trkpt lat="48.83075" lon="2.27825">
        <ele>94</ele>
        <time>2013-10-15T19:57:48.248Z</time>
      </trkpt>
      <trkpt lat="48.83078" lon="2.2783">
        <ele>99</ele>
        <time>2013-10-15T19:57:49.245Z</time>
      </trkpt>
      <trkpt lat="48.83084" lon="2.27839">
        <ele>99</ele>
        <time>2013-10-15T19:57:51.244Z</time>
      </trkpt>
      <trkpt lat="48.83086" lon="2.27843">
        <ele>100</ele>
        <time>2013-10-15T19:57:52.249Z</time>
      </trkpt>
      <trkpt lat="48.8309" lon="2.27852">
        <ele>94</ele>
        <time>2013-10-15T19:57:54.251Z</time>
      </trkpt>
      <trkpt lat="48.83092" lon="2.27856">
        <ele>93</ele>
        <time>2013-10-15T19:57:55.245Z</time>
      </trkpt>
      <trkpt lat="48.83097" lon="2.27865">
        <ele>94</ele>
        <time>2013-10-15T19:57:58.250Z</time>
      </trkpt>
      <trkpt lat="48.83098" lon="2.27868">
        <ele>97</ele>
        <time>2013-10-15T19:57:59.238Z</time>
      </trkpt>
      <trkpt lat="48.83104" lon="2.27875">
        <ele>95</ele>
        <time>2013-10-15T19:58:02.269Z</time>
      </trkpt>
      <trkpt lat="48.83106" lon="2.27877">
        <ele>98</ele>
        <time>2013-10-15T19:58:03.247Z</time>
      </trkpt>
      <trkpt lat="48.83112" lon="2.27886">
        <ele>84</ele>
        <time>2013-10-15T19:58:07.247Z</time>
      </trkpt>
      <trkpt lat="48.83113" lon="2.27888">
        <ele>80</ele>
        <time>2013-10-15T19:58:08.253Z</time>
      </trkpt>
      <trkpt lat="48.83118" lon="2.27896">
        <ele>81</ele>
        <time>2013-10-15T19:58:11.285Z</time>
      </trkpt>
      <trkpt lat="48.8312" lon="2.27898">
        <ele>86</ele>
        <time>2013-10-15T19:58:12.241Z</time>
      </trkpt>
      <trkpt lat="48.83125" lon="2.27907">
        <ele>89</ele>
        <time>2013-10-15T19:58:15.238Z</time>
      </trkpt>
      <trkpt lat="48.83127" lon="2.2791">
        <ele>91</ele>
        <time>2013-10-15T19:58:16.249Z</time>
      </trkpt>
      <trkpt lat="48.83137" lon="2.27939">
        <ele>93</ele>
        <time>2013-10-15T19:58:25.245Z</time>
      </trkpt>
      <trkpt lat="48.83138" lon="2.2795">
        <ele>93</ele>
        <time>2013-10-15T19:58:28.240Z</time>
      </trkpt>
      <trkpt lat="48.83139" lon="2.27953">
        <ele>92</ele>
        <time>2013-10-15T19:58:29.240Z</time>
      </trkpt>
      <trkpt lat="48.83146" lon="2.27969">
        <ele>94</ele>
        <time>2013-10-15T19:58:34.241Z</time>
      </trkpt>
      <trkpt lat="48.83152" lon="2.27979">
        <ele>93</ele>
        <time>2013-10-15T19:58:37.241Z</time>
      </trkpt>
      <trkpt lat="48.83154" lon="2.2798">
        <ele>93</ele>
        <time>2013-10-15T19:58:38.240Z</time>
      </trkpt>
      <trkpt lat="48.83159" lon="2.27985">
        <ele>91</ele>
        <time>2013-10-15T19:58:40.253Z</time>
      </trkpt>
      <trkpt lat="48.83162" lon="2.2799">
        <ele>91</ele>
        <time>2013-10-15T19:58:41.245Z</time>
      </trkpt>
      <trkpt lat="48.83166" lon="2.27999">
        <ele>89</ele>
        <time>2013-10-15T19:58:43.252Z</time>
      </trkpt>
      <trkpt lat="48.83168" lon="2.28003">
        <ele>88</ele>
        <time>2013-10-15T19:58:44.243Z</time>
      </trkpt>
      <trkpt lat="48.83179" lon="2.28028">
        <ele>93</ele>
        <time>2013-10-15T19:58:51.243Z</time>
      </trkpt>
      <trkpt lat="48.83184" lon="2.28035">
        <ele>93</ele>
        <time>2013-10-15T19:58:55.238Z</time>
      </trkpt>
      <trkpt lat="48.83188" lon="2.28035">
        <ele>92</ele>
        <time>2013-10-15T19:58:56.243Z</time>
      </trkpt>
      <trkpt lat="48.83195" lon="2.28033">
        <ele>90</ele>
        <time>2013-10-15T19:58:58.290Z</time>
      </trkpt>
      <trkpt lat="48.83199" lon="2.28032">
        <ele>91</ele>
        <time>2013-10-15T19:58:59.245Z</time>
      </trkpt>
      <trkpt lat="48.83206" lon="2.28031">
        <ele>85</ele>
        <time>2013-10-15T19:59:02.261Z</time>
      </trkpt>
      <trkpt lat="48.83209" lon="2.28032">
        <ele>85</ele>
        <time>2013-10-15T19:59:03.256Z</time>
      </trkpt>
      <trkpt lat="48.83217" lon="2.28035">
        <ele>84</ele>
        <time>2013-10-15T19:59:06.248Z</time>
      </trkpt>
      <trkpt lat="48.8322" lon="2.28036">
        <ele>79</ele>
        <time>2013-10-15T19:59:07.252Z</time>
      </trkpt>
      <trkpt lat="48.83224" lon="2.28047">
        <ele>76</ele>
        <time>2013-10-15T19:59:12.251Z</time>
      </trkpt>
      <trkpt lat="48.83223" lon="2.28049">
        <ele>78</ele>
        <time>2013-10-15T19:59:13.256Z</time>
      </trkpt>
      <trkpt lat="48.83222" lon="2.28054">
        <ele>73</ele>
        <time>2013-10-15T19:59:20.256Z</time>
      </trkpt>
      <trkpt lat="48.83222" lon="2.28054">
        <ele>73</ele>
        <time>2013-10-15T19:59:21.256Z</time>
      </trkpt>
      <trkpt lat="48.83222" lon="2.28054">
        <ele>81</ele>
        <time>2013-10-15T19:59:25.255Z</time>
      </trkpt>
      <trkpt lat="48.83223" lon="2.28055">
        <ele>82</ele>
        <time>2013-10-15T19:59:26.259Z</time>
      </trkpt>
      <trkpt lat="48.83225" lon="2.28068">
        <ele>80</ele>
        <time>2013-10-15T19:59:30.256Z</time>
      </trkpt>
      <trkpt lat="48.83225" lon="2.28071">
        <ele>79</ele>
        <time>2013-10-15T19:59:31.260Z</time>
      </trkpt>
      <trkpt lat="48.83226" lon="2.2808">
        <ele>87</ele>
        <time>2013-10-15T19:59:35.246Z</time>
      </trkpt>
      <trkpt lat="48.83217" lon="2.28123">
        <ele>92</ele>
        <time>2013-10-15T19:59:59.251Z</time>
      </trkpt>
      <trkpt lat="48.83224" lon="2.28134">
        <ele>91</ele>
        <time>2013-10-15T20:00:00.326Z</time>
      </trkpt>
      <trkpt lat="48.8323" lon="2.28137">
        <ele>91</ele>
        <time>2013-10-15T20:00:01.284Z</time>
      </trkpt>
      <trkpt lat="48.83233" lon="2.28139">
        <ele>91</ele>
        <time>2013-10-15T20:00:02.268Z</time>
      </trkpt>
      <trkpt lat="48.83241" lon="2.28144">
        <ele>89</ele>
        <time>2013-10-15T20:00:04.272Z</time>
      </trkpt>
      <trkpt lat="48.83247" lon="2.2815">
        <ele>91</ele>
        <time>2013-10-15T20:00:05.227Z</time>
      </trkpt>
      <trkpt lat="48.83253" lon="2.28157">
        <ele>88</ele>
        <time>2013-10-15T20:00:06.255Z</time>
      </trkpt>
      <trkpt lat="48.83258" lon="2.28163">
        <ele>88</ele>
        <time>2013-10-15T20:00:07.257Z</time>
      </trkpt>
      <trkpt lat="48.83263" lon="2.28169">
        <ele>90</ele>
        <time>2013-10-15T20:00:08.254Z</time>
      </trkpt>
      <trkpt lat="48.83268" lon="2.28173">
        <ele>91</ele>
        <time>2013-10-15T20:00:09.260Z</time>
      </trkpt>
      <trkpt lat="48.83272" lon="2.28178">
        <ele>97</ele>
        <time>2013-10-15T20:00:10.253Z</time>
      </trkpt>
      <trkpt lat="48.83276" lon="2.28181">
        <ele>93</ele>
        <time>2013-10-15T20:00:11.263Z</time>
      </trkpt>
      <trkpt lat="48.83282" lon="2.28188">
        <ele>91</ele>
        <time>2013-10-15T20:00:13.253Z</time>
      </trkpt>
      <trkpt lat="48.83285" lon="2.28191">
        <ele>89</ele>
        <time>2013-10-15T20:00:14.254Z</time>
      </trkpt>
      <trkpt lat="48.83291" lon="2.28198">
        <ele>90</ele>
        <time>2013-10-15T20:00:16.254Z</time>
      </trkpt>
      <trkpt lat="48.83294" lon="2.28201">
        <ele>94</ele>
        <time>2013-10-15T20:00:17.262Z</time>
      </trkpt>
      <trkpt lat="48.833" lon="2.28209">
        <ele>90</ele>
        <time>2013-10-15T20:00:19.263Z</time>
      </trkpt>
      <trkpt lat="48.83303" lon="2.28212">
        <ele>91</ele>
        <time>2013-10-15T20:00:20.267Z</time>
      </trkpt>
      <trkpt lat="48.83308" lon="2.2822">
        <ele>89</ele>
        <time>2013-10-15T20:00:22.257Z</time>
      </trkpt>
      <trkpt lat="48.8331" lon="2.28224">
        <ele>92</ele>
        <time>2013-10-15T20:00:23.257Z</time>
      </trkpt>
      <trkpt lat="48.83316" lon="2.28232">
        <ele>96</ele>
        <time>2013-10-15T20:00:25.260Z</time>
      </trkpt>
      <trkpt lat="48.8332" lon="2.28236">
        <ele>90</ele>
        <time>2013-10-15T20:00:26.257Z</time>
      </trkpt>
      <trkpt lat="48.83323" lon="2.2824">
        <ele>94</ele>
        <time>2013-10-15T20:00:27.257Z</time>
      </trkpt>
      <trkpt lat="48.83327" lon="2.28245">
        <ele>92</ele>
        <time>2013-10-15T20:00:28.259Z</time>
      </trkpt>
      <trkpt lat="48.8333" lon="2.28251">
        <ele>92</ele>
        <time>2013-10-15T20:00:29.230Z</time>
      </trkpt>
      <trkpt lat="48.83334" lon="2.28256">
        <ele>91</ele>
        <time>2013-10-15T20:00:30.231Z</time>
      </trkpt>
      <trkpt lat="48.83337" lon="2.28261">
        <ele>93</ele>
        <time>2013-10-15T20:00:31.235Z</time>
      </trkpt>
      <trkpt lat="48.8334" lon="2.28266">
        <ele>88</ele>
        <time>2013-10-15T20:00:32.230Z</time>
      </trkpt>
      <trkpt lat="48.83344" lon="2.28273">
        <ele>87</ele>
        <time>2013-10-15T20:00:33.243Z</time>
      </trkpt>
      <trkpt lat="48.83347" lon="2.2828">
        <ele>88</ele>
        <time>2013-10-15T20:00:34.235Z</time>
      </trkpt>
      <trkpt lat="48.83351" lon="2.28287">
        <ele>92</ele>
        <time>2013-10-15T20:00:35.247Z</time>
      </trkpt>
      <trkpt lat="48.83355" lon="2.28294">
        <ele>93</ele>
        <time>2013-10-15T20:00:36.234Z</time>
      </trkpt>
      <trkpt lat="48.83359" lon="2.28301">
        <ele>91</ele>
        <time>2013-10-15T20:00:37.213Z</time>
      </trkpt>
      <trkpt lat="48.83362" lon="2.28307">
        <ele>91</ele>
        <time>2013-10-15T20:00:38.237Z</time>
      </trkpt>
      <trkpt lat="48.83365" lon="2.28312">
        <ele>92</ele>
        <time>2013-10-15T20:00:39.243Z</time>
      </trkpt>
      <trkpt lat="48.83368" lon="2.28317">
        <ele>91</ele>
        <time>2013-10-15T20:00:40.239Z</time>
      </trkpt>
      <trkpt lat="48.83374" lon="2.28326">
        <ele>94</ele>
        <time>2013-10-15T20:00:42.188Z</time>
      </trkpt>
      <trkpt lat="48.83377" lon="2.28331">
        <ele>91</ele>
        <time>2013-10-15T20:00:43.247Z</time>
      </trkpt>
      <trkpt lat="48.83383" lon="2.2834">
        <ele>93</ele>
        <time>2013-10-15T20:00:45.237Z</time>
      </trkpt>
      <trkpt lat="48.83386" lon="2.28344">
        <ele>91</ele>
        <time>2013-10-15T20:00:46.302Z</time>
      </trkpt>
      <trkpt lat="48.8339" lon="2.28349">
        <ele>92</ele>
        <time>2013-10-15T20:00:47.234Z</time>
      </trkpt>
      <trkpt lat="48.83393" lon="2.28354">
        <ele>92</ele>
        <time>2013-10-15T20:00:48.235Z</time>
      </trkpt>
      <trkpt lat="48.83397" lon="2.2836">
        <ele>90</ele>
        <time>2013-10-15T20:00:49.247Z</time>
      </trkpt>
      <trkpt lat="48.834" lon="2.28366">
        <ele>86</ele>
        <time>2013-10-15T20:00:50.234Z</time>
      </trkpt>
      <trkpt lat="48.83403" lon="2.28372">
        <ele>85</ele>
        <time>2013-10-15T20:00:51.244Z</time>
      </trkpt>
      <trkpt lat="48.83406" lon="2.28377">
        <ele>86</ele>
        <time>2013-10-15T20:00:52.248Z</time>
      </trkpt>
      <trkpt lat="48.83411" lon="2.28386">
        <ele>85</ele>
        <time>2013-10-15T20:00:56.265Z</time>
      </trkpt>
      <trkpt lat="48.83412" lon="2.2839">
        <ele>86</ele>
        <time>2013-10-15T20:00:57.185Z</time>
      </trkpt>
      <trkpt lat="48.83415" lon="2.28399">
        <ele>79</ele>
        <time>2013-10-15T20:00:59.232Z</time>
      </trkpt>
      <trkpt lat="48.83417" lon="2.28403">
        <ele>79</ele>
        <time>2013-10-15T20:01:00.200Z</time>
      </trkpt>
      <trkpt lat="48.83418" lon="2.28405">
        <ele>79</ele>
        <time>2013-10-15T20:01:05.192Z</time>
      </trkpt>
      <trkpt lat="48.83417" lon="2.28404">
        <ele>79</ele>
        <time>2013-10-15T20:01:06.195Z</time>
      </trkpt>
      <trkpt lat="48.83417" lon="2.28403">
        <ele>72</ele>
        <time>2013-10-15T20:01:17.300Z</time>
      </trkpt>
      <trkpt lat="48.83418" lon="2.28403">
        <ele>72</ele>
        <time>2013-10-15T20:01:18.243Z</time>
      </trkpt>
      <trkpt lat="48.83421" lon="2.28405">
        <ele>73</ele>
        <time>2013-10-15T20:01:25.239Z</time>
      </trkpt>
      <trkpt lat="48.83421" lon="2.28405">
        <ele>73</ele>
        <time>2013-10-15T20:01:26.244Z</time>
      </trkpt>
      <trkpt lat="48.83421" lon="2.28405">
        <ele>73</ele>
        <time>2013-10-15T20:01:30.246Z</time>
      </trkpt>
      <trkpt lat="48.83423" lon="2.28405">
        <ele>81</ele>
        <time>2013-10-15T20:01:31.250Z</time>
      </trkpt>
      <trkpt lat="48.8343" lon="2.28409">
        <ele>76</ele>
        <time>2013-10-15T20:01:35.212Z</time>
      </trkpt>
      <trkpt lat="48.83432" lon="2.2841">
        <ele>77</ele>
        <time>2013-10-15T20:01:36.250Z</time>
      </trkpt>
      <trkpt lat="48.83441" lon="2.28411">
        <ele>77</ele>
        <time>2013-10-15T20:01:48.223Z</time>
      </trkpt>
      <trkpt lat="48.83441" lon="2.28411">
        <ele>77</ele>
        <time>2013-10-15T20:01:49.234Z</time>
      </trkpt>
      <trkpt lat="48.8345" lon="2.28409">
        <ele>86</ele>
        <time>2013-10-15T20:01:52.235Z</time>
      </trkpt>
      <trkpt lat="48.8346" lon="2.2841">
        <ele>86</ele>
        <time>2013-10-15T20:01:53.272Z</time>
      </trkpt>
      <trkpt lat="48.83468" lon="2.28415">
        <ele>83</ele>
        <time>2013-10-15T20:01:55.238Z</time>
      </trkpt>
      <trkpt lat="48.83472" lon="2.2842">
        <ele>84</ele>
        <time>2013-10-15T20:01:56.188Z</time>
      </trkpt>
      <trkpt lat="48.8348" lon="2.2843">
        <ele>87</ele>
        <time>2013-10-15T20:01:58.241Z</time>
      </trkpt>
      <trkpt lat="48.83484" lon="2.28437">
        <ele>88</ele>
        <time>2013-10-15T20:01:59.235Z</time>
      </trkpt>
      <trkpt lat="48.83488" lon="2.28444">
        <ele>87</ele>
        <time>2013-10-15T20:02:00.239Z</time>
      </trkpt>
      <trkpt lat="48.83492" lon="2.2845">
        <ele>88</ele>
        <time>2013-10-15T20:02:01.244Z</time>
      </trkpt>
      <trkpt lat="48.83496" lon="2.28457">
        <ele>92</ele>
        <time>2013-10-15T20:02:02.239Z</time>
      </trkpt>
      <trkpt lat="48.835" lon="2.28463">
        <ele>89</ele>
        <time>2013-10-15T20:02:03.238Z</time>
      </trkpt>
      <trkpt lat="48.83503" lon="2.28469">
        <ele>89</ele>
        <time>2013-10-15T20:02:04.248Z</time>
      </trkpt>
      <trkpt lat="48.83506" lon="2.28475">
        <ele>89</ele>
        <time>2013-10-15T20:02:05.241Z</time>
      </trkpt>
      <trkpt lat="48.83516" lon="2.28492">
        <ele>94</ele>
        <time>2013-10-15T20:02:08.238Z</time>
      </trkpt>
      <trkpt lat="48.83519" lon="2.28497">
        <ele>92</ele>
        <time>2013-10-15T20:02:09.241Z</time>
      </trkpt>
      <trkpt lat="48.83521" lon="2.28504">
        <ele>88</ele>
        <time>2013-10-15T20:02:10.245Z</time>
      </trkpt>
      <trkpt lat="48.83524" lon="2.28511">
        <ele>90</ele>
        <time>2013-10-15T20:02:11.243Z</time>
      </trkpt>
      <trkpt lat="48.83534" lon="2.28539">
        <ele>90</ele>
        <time>2013-10-15T20:02:15.291Z</time>
      </trkpt>
      <trkpt lat="48.83536" lon="2.28546">
        <ele>88</ele>
        <time>2013-10-15T20:02:16.264Z</time>
      </trkpt>
      <trkpt lat="48.83538" lon="2.28553">
        <ele>91</ele>
        <time>2013-10-15T20:02:17.244Z</time>
      </trkpt>
      <trkpt lat="48.8354" lon="2.2856">
        <ele>92</ele>
        <time>2013-10-15T20:02:18.238Z</time>
      </trkpt>
      <trkpt lat="48.83542" lon="2.28567">
        <ele>91</ele>
        <time>2013-10-15T20:02:19.241Z</time>
      </trkpt>
      <trkpt lat="48.83545" lon="2.28573">
        <ele>92</ele>
        <time>2013-10-15T20:02:20.244Z</time>
      </trkpt>
      <trkpt lat="48.83547" lon="2.28579">
        <ele>92</ele>
        <time>2013-10-15T20:02:21.245Z</time>
      </trkpt>
      <trkpt lat="48.8355" lon="2.28585">
        <ele>90</ele>
        <time>2013-10-15T20:02:22.243Z</time>
      </trkpt>
      <trkpt lat="48.83553" lon="2.2859">
        <ele>88</ele>
        <time>2013-10-15T20:02:23.240Z</time>
      </trkpt>
      <trkpt lat="48.83555" lon="2.28596">
        <ele>85</ele>
        <time>2013-10-15T20:02:24.261Z</time>
      </trkpt>
      <trkpt lat="48.83558" lon="2.28602">
        <ele>86</ele>
        <time>2013-10-15T20:02:25.245Z</time>
      </trkpt>
      <trkpt lat="48.83561" lon="2.28609">
        <ele>85</ele>
        <time>2013-10-15T20:02:26.291Z</time>
      </trkpt>
      <trkpt lat="48.83563" lon="2.28616">
        <ele>86</ele>
        <time>2013-10-15T20:02:27.244Z</time>
      </trkpt>
      <trkpt lat="48.83566" lon="2.28623">
        <ele>84</ele>
        <time>2013-10-15T20:02:28.313Z</time>
      </trkpt>
      <trkpt lat="48.83568" lon="2.28631">
        <ele>81</ele>
        <time>2013-10-15T20:02:29.247Z</time>
      </trkpt>
      <trkpt lat="48.8357" lon="2.28639">
        <ele>81</ele>
        <time>2013-10-15T20:02:30.244Z</time>
      </trkpt>
      <trkpt lat="48.83572" lon="2.28646">
        <ele>81</ele>
        <time>2013-10-15T20:02:31.244Z</time>
      </trkpt>
      <trkpt lat="48.83574" lon="2.28654">
        <ele>81</ele>
        <time>2013-10-15T20:02:32.242Z</time>
      </trkpt>
      <trkpt lat="48.83576" lon="2.28661">
        <ele>85</ele>
        <time>2013-10-15T20:02:33.238Z</time>
      </trkpt>
      <trkpt lat="48.83578" lon="2.28669">
        <ele>83</ele>
        <time>2013-10-15T20:02:34.234Z</time>
      </trkpt>
      <trkpt lat="48.8358" lon="2.28677">
        <ele>85</ele>
        <time>2013-10-15T20:02:35.208Z</time>
      </trkpt>
      <trkpt lat="48.83581" lon="2.28684">
        <ele>83</ele>
        <time>2013-10-15T20:02:36.247Z</time>
      </trkpt>
      <trkpt lat="48.83583" lon="2.28692">
        <ele>83</ele>
        <time>2013-10-15T20:02:37.247Z</time>
      </trkpt>
      <trkpt lat="48.83584" lon="2.28699">
        <ele>82</ele>
        <time>2013-10-15T20:02:38.245Z</time>
      </trkpt>
      <trkpt lat="48.83586" lon="2.28706">
        <ele>81</ele>
        <time>2013-10-15T20:02:39.249Z</time>
      </trkpt>
      <trkpt lat="48.83587" lon="2.28714">
        <ele>80</ele>
        <time>2013-10-15T20:02:40.241Z</time>
      </trkpt>
      <trkpt lat="48.83588" lon="2.28721">
        <ele>82</ele>
        <time>2013-10-15T20:02:41.220Z</time>
      </trkpt>
      <trkpt lat="48.83589" lon="2.28729">
        <ele>81</ele>
        <time>2013-10-15T20:02:42.247Z</time>
      </trkpt>
      <trkpt lat="48.8359" lon="2.28736">
        <ele>79</ele>
        <time>2013-10-15T20:02:43.244Z</time>
      </trkpt>
      <trkpt lat="48.83591" lon="2.28744">
        <ele>80</ele>
        <time>2013-10-15T20:02:44.243Z</time>
      </trkpt>
      <trkpt lat="48.83592" lon="2.28751">
        <ele>79</ele>
        <time>2013-10-15T20:02:45.241Z</time>
      </trkpt>
      <trkpt lat="48.83594" lon="2.28759">
        <ele>79</ele>
        <time>2013-10-15T20:02:46.208Z</time>
      </trkpt>
      <trkpt lat="48.83595" lon="2.28766">
        <ele>77</ele>
        <time>2013-10-15T20:02:47.243Z</time>
      </trkpt>
      <trkpt lat="48.83597" lon="2.28779">
        <ele>72</ele>
        <time>2013-10-15T20:02:49.242Z</time>
      </trkpt>
      <trkpt lat="48.83597" lon="2.28786">
        <ele>72</ele>
        <time>2013-10-15T20:02:50.242Z</time>
      </trkpt>
      <trkpt lat="48.83598" lon="2.28799">
        <ele>72</ele>
        <time>2013-10-15T20:02:52.243Z</time>
      </trkpt>
      <trkpt lat="48.83598" lon="2.28807">
        <ele>71</ele>
        <time>2013-10-15T20:02:53.243Z</time>
      </trkpt>
      <trkpt lat="48.83598" lon="2.28814">
        <ele>72</ele>
        <time>2013-10-15T20:02:54.242Z</time>
      </trkpt>
      <trkpt lat="48.83598" lon="2.28821">
        <ele>71</ele>
        <time>2013-10-15T20:02:55.247Z</time>
      </trkpt>
      <trkpt lat="48.83597" lon="2.28828">
        <ele>72</ele>
        <time>2013-10-15T20:02:56.248Z</time>
      </trkpt>
      <trkpt lat="48.83597" lon="2.28835">
        <ele>71</ele>
        <time>2013-10-15T20:02:57.194Z</time>
      </trkpt>
      <trkpt lat="48.83597" lon="2.28843">
        <ele>71</ele>
        <time>2013-10-15T20:02:58.247Z</time>
      </trkpt>
      <trkpt lat="48.83596" lon="2.2885">
        <ele>78</ele>
        <time>2013-10-15T20:02:59.245Z</time>
      </trkpt>
      <trkpt lat="48.83596" lon="2.28857">
        <ele>82</ele>
        <time>2013-10-15T20:03:00.290Z</time>
      </trkpt>
      <trkpt lat="48.83595" lon="2.28864">
        <ele>82</ele>
        <time>2013-10-15T20:03:01.248Z</time>
      </trkpt>
      <trkpt lat="48.83594" lon="2.28871">
        <ele>78</ele>
        <time>2013-10-15T20:03:02.250Z</time>
      </trkpt>
      <trkpt lat="48.83592" lon="2.28879">
        <ele>76</ele>
        <time>2013-10-15T20:03:03.249Z</time>
      </trkpt>
      <trkpt lat="48.83592" lon="2.28886">
        <ele>82</ele>
        <time>2013-10-15T20:03:04.245Z</time>
      </trkpt>
      <trkpt lat="48.83591" lon="2.28892">
        <ele>84</ele>
        <time>2013-10-15T20:03:05.252Z</time>
      </trkpt>
      <trkpt lat="48.8359" lon="2.28899">
        <ele>87</ele>
        <time>2013-10-15T20:03:06.251Z</time>
      </trkpt>
      <trkpt lat="48.83589" lon="2.28906">
        <ele>88</ele>
        <time>2013-10-15T20:03:07.252Z</time>
      </trkpt>
      <trkpt lat="48.83587" lon="2.28919">
        <ele>89</ele>
        <time>2013-10-15T20:03:09.235Z</time>
      </trkpt>
      <trkpt lat="48.83585" lon="2.28925">
        <ele>90</ele>
        <time>2013-10-15T20:03:10.245Z</time>
      </trkpt>
      <trkpt lat="48.83583" lon="2.28938">
        <ele>90</ele>
        <time>2013-10-15T20:03:12.246Z</time>
      </trkpt>
      <trkpt lat="48.83581" lon="2.28943">
        <ele>91</ele>
        <time>2013-10-15T20:03:13.250Z</time>
      </trkpt>
      <trkpt lat="48.83578" lon="2.28954">
        <ele>91</ele>
        <time>2013-10-15T20:03:15.238Z</time>
      </trkpt>
      <trkpt lat="48.83577" lon="2.28959">
        <ele>91</ele>
        <time>2013-10-15T20:03:16.244Z</time>
      </trkpt>
      <trkpt lat="48.83574" lon="2.28968">
        <ele>91</ele>
        <time>2013-10-15T20:03:19.287Z</time>
      </trkpt>
      <trkpt lat="48.83573" lon="2.28971">
        <ele>91</ele>
        <time>2013-10-15T20:03:20.249Z</time>
      </trkpt>
      <trkpt lat="48.83575" lon="2.28967">
        <ele>93</ele>
        <time>2013-10-15T20:03:25.247Z</time>
      </trkpt>
      <trkpt lat="48.83576" lon="2.28965">
        <ele>93</ele>
        <time>2013-10-15T20:03:26.247Z</time>
      </trkpt>
      <trkpt lat="48.83576" lon="2.28964">
        <ele>91</ele>
        <time>2013-10-15T20:03:28.242Z</time>
      </trkpt>
      <trkpt lat="48.83577" lon="2.28963">
        <ele>92</ele>
        <time>2013-10-15T20:03:29.248Z</time>
      </trkpt>
      <trkpt lat="48.83581" lon="2.28958">
        <ele>94</ele>
        <time>2013-10-15T20:03:40.251Z</time>
      </trkpt>
      <trkpt lat="48.83581" lon="2.28958">
        <ele>94</ele>
        <time>2013-10-15T20:03:41.248Z</time>
      </trkpt>
      <trkpt lat="48.83581" lon="2.28959">
        <ele>92</ele>
        <time>2013-10-15T20:03:52.255Z</time>
      </trkpt>
      <trkpt lat="48.83581" lon="2.28962">
        <ele>91</ele>
        <time>2013-10-15T20:03:53.256Z</time>
      </trkpt>
      <trkpt lat="48.83585" lon="2.28971">
        <ele>85</ele>
        <time>2013-10-15T20:03:56.258Z</time>
      </trkpt>
      <trkpt lat="48.83586" lon="2.28974">
        <ele>87</ele>
        <time>2013-10-15T20:03:57.257Z</time>
      </trkpt>
      <trkpt lat="48.83589" lon="2.28986">
        <ele>88</ele>
        <time>2013-10-15T20:04:00.300Z</time>
      </trkpt>
      <trkpt lat="48.83591" lon="2.28991">
        <ele>88</ele>
        <time>2013-10-15T20:04:01.253Z</time>
      </trkpt>
      <trkpt lat="48.83593" lon="2.29003">
        <ele>91</ele>
        <time>2013-10-15T20:04:03.246Z</time>
      </trkpt>
      <trkpt lat="48.83597" lon="2.2902">
        <ele>92</ele>
        <time>2013-10-15T20:04:06.251Z</time>
      </trkpt>
      <trkpt lat="48.83599" lon="2.29027">
        <ele>91</ele>
        <time>2013-10-15T20:04:07.247Z</time>
      </trkpt>
      <trkpt lat="48.83601" lon="2.29033">
        <ele>92</ele>
        <time>2013-10-15T20:04:08.247Z</time>
      </trkpt>
      <trkpt lat="48.83604" lon="2.29045">
        <ele>92</ele>
        <time>2013-10-15T20:04:10.254Z</time>
      </trkpt>
      <trkpt lat="48.83606" lon="2.29051">
        <ele>92</ele>
        <time>2013-10-15T20:04:11.254Z</time>
      </trkpt>
      <trkpt lat="48.83608" lon="2.29064">
        <ele>89</ele>
        <time>2013-10-15T20:04:13.253Z</time>
      </trkpt>
      <trkpt lat="48.83608" lon="2.29068">
        <ele>88</ele>
        <time>2013-10-15T20:04:14.254Z</time>
      </trkpt>
      <trkpt lat="48.83609" lon="2.29079">
        <ele>84</ele>
        <time>2013-10-15T20:04:16.259Z</time>
      </trkpt>
      <trkpt lat="48.83609" lon="2.29085">
        <ele>82</ele>
        <time>2013-10-15T20:04:17.260Z</time>
      </trkpt>
      <trkpt lat="48.8361" lon="2.29097">
        <ele>83</ele>
        <time>2013-10-15T20:04:19.254Z</time>
      </trkpt>
      <trkpt lat="48.83609" lon="2.29103">
        <ele>88</ele>
        <time>2013-10-15T20:04:20.252Z</time>
      </trkpt>
      <trkpt lat="48.83609" lon="2.2911">
        <ele>87</ele>
        <time>2013-10-15T20:04:21.255Z</time>
      </trkpt>
      <trkpt lat="48.83608" lon="2.29117">
        <ele>89</ele>
        <time>2013-10-15T20:04:22.252Z</time>
      </trkpt>
      <trkpt lat="48.83607" lon="2.2913">
        <ele>89</ele>
        <time>2013-10-15T20:04:24.253Z</time>
      </trkpt>
      <trkpt lat="48.83606" lon="2.29136">
        <ele>91</ele>
        <time>2013-10-15T20:04:25.283Z</time>
      </trkpt>
      <trkpt lat="48.83605" lon="2.29148">
        <ele>92</ele>
        <time>2013-10-15T20:04:27.247Z</time>
      </trkpt>
      <trkpt lat="48.83604" lon="2.29154">
        <ele>92</ele>
        <time>2013-10-15T20:04:28.255Z</time>
      </trkpt>
      <trkpt lat="48.83602" lon="2.29165">
        <ele>92</ele>
        <time>2013-10-15T20:04:30.251Z</time>
      </trkpt>
      <trkpt lat="48.83601" lon="2.2917">
        <ele>91</ele>
        <time>2013-10-15T20:04:31.229Z</time>
      </trkpt>
      <trkpt lat="48.836" lon="2.2918">
        <ele>94</ele>
        <time>2013-10-15T20:04:33.258Z</time>
      </trkpt>
      <trkpt lat="48.836" lon="2.29186">
        <ele>93</ele>
        <time>2013-10-15T20:04:34.271Z</time>
      </trkpt>
      <trkpt lat="48.836" lon="2.29198">
        <ele>92</ele>
        <time>2013-10-15T20:04:36.273Z</time>
      </trkpt>
      <trkpt lat="48.836" lon="2.29205">
        <ele>93</ele>
        <time>2013-10-15T20:04:37.216Z</time>
      </trkpt>
      <trkpt lat="48.836" lon="2.29215">
        <ele>95</ele>
        <time>2013-10-15T20:04:38.249Z</time>
      </trkpt>
      <trkpt lat="48.836" lon="2.29225">
        <ele>95</ele>
        <time>2013-10-15T20:04:39.251Z</time>
      </trkpt>
      <trkpt lat="48.83601" lon="2.29234">
        <ele>94</ele>
        <time>2013-10-15T20:04:40.255Z</time>
      </trkpt>
      <trkpt lat="48.83601" lon="2.29244">
        <ele>90</ele>
        <time>2013-10-15T20:04:41.263Z</time>
      </trkpt>
      <trkpt lat="48.83601" lon="2.29252">
        <ele>89</ele>
        <time>2013-10-15T20:04:42.257Z</time>
      </trkpt>
      <trkpt lat="48.83602" lon="2.29261">
        <ele>90</ele>
        <time>2013-10-15T20:04:43.243Z</time>
      </trkpt>
      <trkpt lat="48.83602" lon="2.29269">
        <ele>91</ele>
        <time>2013-10-15T20:04:44.256Z</time>
      </trkpt>
      <trkpt lat="48.83603" lon="2.29276">
        <ele>92</ele>
        <time>2013-10-15T20:04:45.249Z</time>
      </trkpt>
      <trkpt lat="48.83603" lon="2.29284">
        <ele>92</ele>
        <time>2013-10-15T20:04:46.253Z</time>
      </trkpt>
      <trkpt lat="48.83604" lon="2.29291">
        <ele>91</ele>
        <time>2013-10-15T20:04:47.255Z</time>
      </trkpt>
      <trkpt lat="48.83605" lon="2.29304">
        <ele>92</ele>
        <time>2013-10-15T20:04:49.252Z</time>
      </trkpt>
      <trkpt lat="48.83605" lon="2.2931">
        <ele>92</ele>
        <time>2013-10-15T20:04:50.252Z</time>
      </trkpt>
      <trkpt lat="48.83606" lon="2.2932">
        <ele>93</ele>
        <time>2013-10-15T20:04:52.278Z</time>
      </trkpt>
      <trkpt lat="48.83606" lon="2.29325">
        <ele>92</ele>
        <time>2013-10-15T20:04:53.256Z</time>
      </trkpt>
      <trkpt lat="48.83607" lon="2.29336">
        <ele>93</ele>
        <time>2013-10-15T20:04:56.257Z</time>
      </trkpt>
      <trkpt lat="48.83607" lon="2.29339">
        <ele>91</ele>
        <time>2013-10-15T20:04:57.284Z</time>
      </trkpt>
      <trkpt lat="48.83606" lon="2.2935">
        <ele>93</ele>
        <time>2013-10-15T20:05:00.241Z</time>
      </trkpt>
      <trkpt lat="48.83606" lon="2.29353">
        <ele>92</ele>
        <time>2013-10-15T20:05:01.256Z</time>
      </trkpt>
      <trkpt lat="48.83605" lon="2.29364">
        <ele>93</ele>
        <time>2013-10-15T20:05:04.262Z</time>
      </trkpt>
      <trkpt lat="48.83604" lon="2.29368">
        <ele>93</ele>
        <time>2013-10-15T20:05:05.269Z</time>
      </trkpt>
      <trkpt lat="48.836" lon="2.29379">
        <ele>92</ele>
        <time>2013-10-15T20:05:12.267Z</time>
      </trkpt>
      <trkpt lat="48.836" lon="2.2938">
        <ele>91</ele>
        <time>2013-10-15T20:05:13.257Z</time>
      </trkpt>
      <trkpt lat="48.83604" lon="2.29387">
        <ele>90</ele>
        <time>2013-10-15T20:05:17.262Z</time>
      </trkpt>
      <trkpt lat="48.83607" lon="2.2939">
        <ele>89</ele>
        <time>2013-10-15T20:05:18.239Z</time>
      </trkpt>
      <trkpt lat="48.83614" lon="2.29397">
        <ele>92</ele>
        <time>2013-10-15T20:05:21.262Z</time>
      </trkpt>
      <trkpt lat="48.83616" lon="2.294">
        <ele>93</ele>
        <time>2013-10-15T20:05:22.269Z</time>
      </trkpt>
      <trkpt lat="48.8362" lon="2.29408">
        <ele>94</ele>
        <time>2013-10-15T20:05:25.264Z</time>
      </trkpt>
      <trkpt lat="48.83621" lon="2.29412">
        <ele>93</ele>
        <time>2013-10-15T20:05:26.263Z</time>
      </trkpt>
      <trkpt lat="48.83624" lon="2.29419">
        <ele>93</ele>
        <time>2013-10-15T20:05:28.259Z</time>
      </trkpt>
      <trkpt lat="48.83626" lon="2.29423">
        <ele>93</ele>
        <time>2013-10-15T20:05:29.280Z</time>
      </trkpt>
      <trkpt lat="48.83629" lon="2.29432">
        <ele>95</ele>
        <time>2013-10-15T20:05:31.271Z</time>
      </trkpt>
      <trkpt lat="48.83631" lon="2.29436">
        <ele>94</ele>
        <time>2013-10-15T20:05:32.263Z</time>
      </trkpt>
      <trkpt lat="48.83635" lon="2.29448">
        <ele>96</ele>
        <time>2013-10-15T20:05:34.265Z</time>
      </trkpt>
      <trkpt lat="48.83637" lon="2.29454">
        <ele>95</ele>
        <time>2013-10-15T20:05:35.258Z</time>
      </trkpt>
      <trkpt lat="48.8364" lon="2.29461">
        <ele>92</ele>
        <time>2013-10-15T20:05:36.257Z</time>
      </trkpt>
      <trkpt lat="48.83642" lon="2.29468">
        <ele>94</ele>
        <time>2013-10-15T20:05:37.259Z</time>
      </trkpt>
      <trkpt lat="48.83644" lon="2.29475">
        <ele>94</ele>
        <time>2013-10-15T20:05:38.220Z</time>
      </trkpt>
      <trkpt lat="48.83646" lon="2.29482">
        <ele>93</ele>
        <time>2013-10-15T20:05:39.260Z</time>
      </trkpt>
      <trkpt lat="48.8365" lon="2.29494">
        <ele>94</ele>
        <time>2013-10-15T20:05:41.267Z</time>
      </trkpt>
      <trkpt lat="48.83652" lon="2.29499">
        <ele>92</ele>
        <time>2013-10-15T20:05:42.263Z</time>
      </trkpt>
      <trkpt lat="48.83657" lon="2.2951">
        <ele>93</ele>
        <time>2013-10-15T20:05:44.243Z</time>
      </trkpt>
      <trkpt lat="48.8366" lon="2.29516">
        <ele>94</ele>
        <time>2013-10-15T20:05:45.236Z</time>
      </trkpt>
      <trkpt lat="48.83663" lon="2.29522">
        <ele>93</ele>
        <time>2013-10-15T20:05:46.250Z</time>
      </trkpt>
      <trkpt lat="48.83666" lon="2.29528">
        <ele>96</ele>
        <time>2013-10-15T20:05:47.253Z</time>
      </trkpt>
      <trkpt lat="48.83669" lon="2.29534">
        <ele>95</ele>
        <time>2013-10-15T20:05:48.235Z</time>
      </trkpt>
      <trkpt lat="48.83673" lon="2.29541">
        <ele>98</ele>
        <time>2013-10-15T20:05:49.186Z</time>
      </trkpt>
      <trkpt lat="48.83678" lon="2.29548">
        <ele>98</ele>
        <time>2013-10-15T20:05:50.235Z</time>
      </trkpt>
      <trkpt lat="48.83682" lon="2.29554">
        <ele>94</ele>
        <time>2013-10-15T20:05:51.236Z</time>
      </trkpt>
      <trkpt lat="48.83686" lon="2.2956">
        <ele>97</ele>
        <time>2013-10-15T20:05:52.245Z</time>
      </trkpt>
      <trkpt lat="48.83689" lon="2.29566">
        <ele>95</ele>
        <time>2013-10-15T20:05:53.256Z</time>
      </trkpt>
      <trkpt lat="48.83693" lon="2.29571">
        <ele>94</ele>
        <time>2013-10-15T20:05:54.236Z</time>
      </trkpt>
      <trkpt lat="48.83696" lon="2.29576">
        <ele>96</ele>
        <time>2013-10-15T20:05:55.238Z</time>
      </trkpt>
      <trkpt lat="48.83701" lon="2.29587">
        <ele>96</ele>
        <time>2013-10-15T20:05:57.237Z</time>
      </trkpt>
      <trkpt lat="48.83702" lon="2.29592">
        <ele>97</ele>
        <time>2013-10-15T20:05:58.242Z</time>
      </trkpt>
      <trkpt lat="48.83706" lon="2.29603">
        <ele>95</ele>
        <time>2013-10-15T20:06:00.187Z</time>
      </trkpt>
      <trkpt lat="48.83721" lon="2.2963">
        <ele>92</ele>
        <time>2013-10-15T20:06:06.233Z</time>
      </trkpt>
      <trkpt lat="48.83727" lon="2.29637">
        <ele>91</ele>
        <time>2013-10-15T20:06:09.237Z</time>
      </trkpt>
      <trkpt lat="48.83728" lon="2.29639">
        <ele>91</ele>
        <time>2013-10-15T20:06:10.237Z</time>
      </trkpt>
      <trkpt lat="48.83728" lon="2.29651">
        <ele>87</ele>
        <time>2013-10-15T20:06:22.243Z</time>
      </trkpt>
      <trkpt lat="48.83729" lon="2.29654">
        <ele>86</ele>
        <time>2013-10-15T20:06:23.250Z</time>
      </trkpt>
      <trkpt lat="48.83735" lon="2.29664">
        <ele>87</ele>
        <time>2013-10-15T20:06:26.238Z</time>
      </trkpt>
      <trkpt lat="48.83737" lon="2.29668">
        <ele>85</ele>
        <time>2013-10-15T20:06:27.243Z</time>
      </trkpt>
      <trkpt lat="48.83742" lon="2.29677">
        <ele>84</ele>
        <time>2013-10-15T20:06:29.210Z</time>
      </trkpt>
      <trkpt lat="48.83744" lon="2.29682">
        <ele>79</ele>
        <time>2013-10-15T20:06:30.305Z</time>
      </trkpt>
      <trkpt lat="48.83749" lon="2.29693">
        <ele>78</ele>
        <time>2013-10-15T20:06:32.246Z</time>
      </trkpt>
      <trkpt lat="48.83752" lon="2.29698">
        <ele>85</ele>
        <time>2013-10-15T20:06:33.242Z</time>
      </trkpt>
      <trkpt lat="48.83754" lon="2.29705">
        <ele>84</ele>
        <time>2013-10-15T20:06:34.312Z</time>
      </trkpt>
      <trkpt lat="48.83757" lon="2.2971">
        <ele>83</ele>
        <time>2013-10-15T20:06:35.250Z</time>
      </trkpt>
      <trkpt lat="48.8376" lon="2.29716">
        <ele>86</ele>
        <time>2013-10-15T20:06:36.243Z</time>
      </trkpt>
      <trkpt lat="48.83763" lon="2.29722">
        <ele>87</ele>
        <time>2013-10-15T20:06:37.243Z</time>
      </trkpt>
      <trkpt lat="48.83766" lon="2.29728">
        <ele>85</ele>
        <time>2013-10-15T20:06:38.251Z</time>
      </trkpt>
      <trkpt lat="48.83769" lon="2.29734">
        <ele>83</ele>
        <time>2013-10-15T20:06:39.204Z</time>
      </trkpt>
      <trkpt lat="48.83772" lon="2.2974">
        <ele>82</ele>
        <time>2013-10-15T20:06:40.243Z</time>
      </trkpt>
      <trkpt lat="48.83774" lon="2.29745">
        <ele>83</ele>
        <time>2013-10-15T20:06:41.241Z</time>
      </trkpt>
      <trkpt lat="48.83777" lon="2.29751">
        <ele>86</ele>
        <time>2013-10-15T20:06:42.241Z</time>
      </trkpt>
      <trkpt lat="48.8378" lon="2.29756">
        <ele>87</ele>
        <time>2013-10-15T20:06:43.247Z</time>
      </trkpt>
      <trkpt lat="48.83782" lon="2.29762">
        <ele>89</ele>
        <time>2013-10-15T20:06:44.358Z</time>
      </trkpt>
      <trkpt lat="48.83785" lon="2.29768">
        <ele>89</ele>
        <time>2013-10-15T20:06:45.216Z</time>
      </trkpt>
      <trkpt lat="48.83788" lon="2.29774">
        <ele>90</ele>
        <time>2013-10-15T20:06:46.251Z</time>
      </trkpt>
      <trkpt lat="48.83791" lon="2.2978">
        <ele>89</ele>
        <time>2013-10-15T20:06:47.241Z</time>
      </trkpt>
      <trkpt lat="48.83794" lon="2.29786">
        <ele>90</ele>
        <time>2013-10-15T20:06:48.245Z</time>
      </trkpt>
      <trkpt lat="48.83797" lon="2.29793">
        <ele>89</ele>
        <time>2013-10-15T20:06:49.250Z</time>
      </trkpt>
      <trkpt lat="48.838" lon="2.29799">
        <ele>87</ele>
        <time>2013-10-15T20:06:50.249Z</time>
      </trkpt>
      <trkpt lat="48.83803" lon="2.29806">
        <ele>90</ele>
        <time>2013-10-15T20:06:51.244Z</time>
      </trkpt>
      <trkpt lat="48.83807" lon="2.29812">
        <ele>90</ele>
        <time>2013-10-15T20:06:52.242Z</time>
      </trkpt>
      <trkpt lat="48.8381" lon="2.29818">
        <ele>89</ele>
        <time>2013-10-15T20:06:53.252Z</time>
      </trkpt>
      <trkpt lat="48.83813" lon="2.29824">
        <ele>90</ele>
        <time>2013-10-15T20:06:54.243Z</time>
      </trkpt>
      <trkpt lat="48.83816" lon="2.2983">
        <ele>91</ele>
        <time>2013-10-15T20:06:55.241Z</time>
      </trkpt>
      <trkpt lat="48.83819" lon="2.29835">
        <ele>91</ele>
        <time>2013-10-15T20:06:56.239Z</time>
      </trkpt>
      <trkpt lat="48.83822" lon="2.2984">
        <ele>91</ele>
        <time>2013-10-15T20:06:57.252Z</time>
      </trkpt>
      <trkpt lat="48.83827" lon="2.29848">
        <ele>91</ele>
        <time>2013-10-15T20:06:59.245Z</time>
      </trkpt>
      <trkpt lat="48.83829" lon="2.29851">
        <ele>91</ele>
        <time>2013-10-15T20:07:00.376Z</time>
      </trkpt>
      <trkpt lat="48.83834" lon="2.2986">
        <ele>92</ele>
        <time>2013-10-15T20:07:06.245Z</time>
      </trkpt>
      <trkpt lat="48.83835" lon="2.29861">
        <ele>89</ele>
        <time>2013-10-15T20:07:07.247Z</time>
      </trkpt>
      <trkpt lat="48.8384" lon="2.2987">
        <ele>90</ele>
        <time>2013-10-15T20:07:10.243Z</time>
      </trkpt>
      <trkpt lat="48.83842" lon="2.29874">
        <ele>93</ele>
        <time>2013-10-15T20:07:11.238Z</time>
      </trkpt>
      <trkpt lat="48.83845" lon="2.2988">
        <ele>89</ele>
        <time>2013-10-15T20:07:12.244Z</time>
      </trkpt>
      <trkpt lat="48.83848" lon="2.29885">
        <ele>92</ele>
        <time>2013-10-15T20:07:13.243Z</time>
      </trkpt>
      <trkpt lat="48.83851" lon="2.29891">
        <ele>89</ele>
        <time>2013-10-15T20:07:14.245Z</time>
      </trkpt>
      <trkpt lat="48.83854" lon="2.29897">
        <ele>91</ele>
        <time>2013-10-15T20:07:15.255Z</time>
      </trkpt>
      <trkpt lat="48.83857" lon="2.29903">
        <ele>92</ele>
        <time>2013-10-15T20:07:16.247Z</time>
      </trkpt>
      <trkpt lat="48.83859" lon="2.29908">
        <ele>92</ele>
        <time>2013-10-15T20:07:17.244Z</time>
      </trkpt>
      <trkpt lat="48.83864" lon="2.29919">
        <ele>93</ele>
        <time>2013-10-15T20:07:19.244Z</time>
      </trkpt>
      <trkpt lat="48.83867" lon="2.29925">
        <ele>93</ele>
        <time>2013-10-15T20:07:20.208Z</time>
      </trkpt>
      <trkpt lat="48.83869" lon="2.2993">
        <ele>92</ele>
        <time>2013-10-15T20:07:21.244Z</time>
      </trkpt>
      <trkpt lat="48.83872" lon="2.29936">
        <ele>91</ele>
        <time>2013-10-15T20:07:22.244Z</time>
      </trkpt>
      <trkpt lat="48.83877" lon="2.29946">
        <ele>92</ele>
        <time>2013-10-15T20:07:24.248Z</time>
      </trkpt>
      <trkpt lat="48.8388" lon="2.29951">
        <ele>92</ele>
        <time>2013-10-15T20:07:25.248Z</time>
      </trkpt>
      <trkpt lat="48.83884" lon="2.2996">
        <ele>87</ele>
        <time>2013-10-15T20:07:27.254Z</time>
      </trkpt>
      <trkpt lat="48.83887" lon="2.29965">
        <ele>89</ele>
        <time>2013-10-15T20:07:28.246Z</time>
      </trkpt>
      <trkpt lat="48.83891" lon="2.29975">
        <ele>91</ele>
        <time>2013-10-15T20:07:30.255Z</time>
      </trkpt>
      <trkpt lat="48.83894" lon="2.2998">
        <ele>94</ele>
        <time>2013-10-15T20:07:31.256Z</time>
      </trkpt>
      <trkpt lat="48.83899" lon="2.2999">
        <ele>93</ele>
        <time>2013-10-15T20:07:33.249Z</time>
      </trkpt>
      <trkpt lat="48.83902" lon="2.29995">
        <ele>94</ele>
        <time>2013-10-15T20:07:34.248Z</time>
      </trkpt>
      <trkpt lat="48.83908" lon="2.30005">
        <ele>94</ele>
        <time>2013-10-15T20:07:36.247Z</time>
      </trkpt>
      <trkpt lat="48.8391" lon="2.3001">
        <ele>94</ele>
        <time>2013-10-15T20:07:37.247Z</time>
      </trkpt>
      <trkpt lat="48.83913" lon="2.30016">
        <ele>93</ele>
        <time>2013-10-15T20:07:38.242Z</time>
      </trkpt>
      <trkpt lat="48.83915" lon="2.30021">
        <ele>94</ele>
        <time>2013-10-15T20:07:39.255Z</time>
      </trkpt>
      <trkpt lat="48.83918" lon="2.30027">
        <ele>93</ele>
        <time>2013-10-15T20:07:40.196Z</time>
      </trkpt>
      <trkpt lat="48.8392" lon="2.30033">
        <ele>91</ele>
        <time>2013-10-15T20:07:41.251Z</time>
      </trkpt>
      <trkpt lat="48.83922" lon="2.30039">
        <ele>91</ele>
        <time>2013-10-15T20:07:42.242Z</time>
      </trkpt>
      <trkpt lat="48.83925" lon="2.30046">
        <ele>92</ele>
        <time>2013-10-15T20:07:43.275Z</time>
      </trkpt>
      <trkpt lat="48.83927" lon="2.30052">
        <ele>93</ele>
        <time>2013-10-15T20:07:44.247Z</time>
      </trkpt>
      <trkpt lat="48.8393" lon="2.30058">
        <ele>91</ele>
        <time>2013-10-15T20:07:45.247Z</time>
      </trkpt>
      <trkpt lat="48.83933" lon="2.3007">
        <ele>92</ele>
        <time>2013-10-15T20:07:47.237Z</time>
      </trkpt>
      <trkpt lat="48.83935" lon="2.30076">
        <ele>92</ele>
        <time>2013-10-15T20:07:48.248Z</time>
      </trkpt>
      <trkpt lat="48.83938" lon="2.30088">
        <ele>91</ele>
        <time>2013-10-15T20:07:50.251Z</time>
      </trkpt>
      <trkpt lat="48.8394" lon="2.30093">
        <ele>92</ele>
        <time>2013-10-15T20:07:51.216Z</time>
      </trkpt>
      <trkpt lat="48.83944" lon="2.30105">
        <ele>90</ele>
        <time>2013-10-15T20:07:53.257Z</time>
      </trkpt>
      <trkpt lat="48.83946" lon="2.30111">
        <ele>92</ele>
        <time>2013-10-15T20:07:54.246Z</time>
      </trkpt>
      <trkpt lat="48.8395" lon="2.30121">
        <ele>90</ele>
        <time>2013-10-15T20:07:56.218Z</time>
      </trkpt>
      <trkpt lat="48.83952" lon="2.30127">
        <ele>91</ele>
        <time>2013-10-15T20:07:57.246Z</time>
      </trkpt>
      <trkpt lat="48.83956" lon="2.30137">
        <ele>89</ele>
        <time>2013-10-15T20:07:59.247Z</time>
      </trkpt>
      <trkpt lat="48.83958" lon="2.30141">
        <ele>91</ele>
        <time>2013-10-15T20:08:00.274Z</time>
      </trkpt>
      <trkpt lat="48.83962" lon="2.30152">
        <ele>90</ele>
        <time>2013-10-15T20:08:02.227Z</time>
      </trkpt>
      <trkpt lat="48.83965" lon="2.30158">
        <ele>89</ele>
        <time>2013-10-15T20:08:03.256Z</time>
      </trkpt>
      <trkpt lat="48.83968" lon="2.30164">
        <ele>89</ele>
        <time>2013-10-15T20:08:04.253Z</time>
      </trkpt>
      <trkpt lat="48.83971" lon="2.3017">
        <ele>87</ele>
        <time>2013-10-15T20:08:05.255Z</time>
      </trkpt>
      <trkpt lat="48.83973" lon="2.30176">
        <ele>87</ele>
        <time>2013-10-15T20:08:06.286Z</time>
      </trkpt>
      <trkpt lat="48.83975" lon="2.30183">
        <ele>87</ele>
        <time>2013-10-15T20:08:07.255Z</time>
      </trkpt>
      <trkpt lat="48.83977" lon="2.3019">
        <ele>87</ele>
        <time>2013-10-15T20:08:08.251Z</time>
      </trkpt>
      <trkpt lat="48.83979" lon="2.30196">
        <ele>87</ele>
        <time>2013-10-15T20:08:09.252Z</time>
      </trkpt>
      <trkpt lat="48.83983" lon="2.30209">
        <ele>83</ele>
        <time>2013-10-15T20:08:11.250Z</time>
      </trkpt>
      <trkpt lat="48.83984" lon="2.30215">
        <ele>84</ele>
        <time>2013-10-15T20:08:12.239Z</time>
      </trkpt>
      <trkpt lat="48.83987" lon="2.30227">
        <ele>81</ele>
        <time>2013-10-15T20:08:14.250Z</time>
      </trkpt>
      <trkpt lat="48.83988" lon="2.30233">
        <ele>84</ele>
        <time>2013-10-15T20:08:15.250Z</time>
      </trkpt>
      <trkpt lat="48.8399" lon="2.3024">
        <ele>85</ele>
        <time>2013-10-15T20:08:16.240Z</time>
      </trkpt>
      <trkpt lat="48.83992" lon="2.30246">
        <ele>85</ele>
        <time>2013-10-15T20:08:17.257Z</time>
      </trkpt>
      <trkpt lat="48.83995" lon="2.30253">
        <ele>85</ele>
        <time>2013-10-15T20:08:18.256Z</time>
      </trkpt>
      <trkpt lat="48.83997" lon="2.3026">
        <ele>89</ele>
        <time>2013-10-15T20:08:19.263Z</time>
      </trkpt>
      <trkpt lat="48.83999" lon="2.30267">
        <ele>87</ele>
        <time>2013-10-15T20:08:20.259Z</time>
      </trkpt>
      <trkpt lat="48.84001" lon="2.30275">
        <ele>87</ele>
        <time>2013-10-15T20:08:21.223Z</time>
      </trkpt>
      <trkpt lat="48.84003" lon="2.30282">
        <ele>86</ele>
        <time>2013-10-15T20:08:22.257Z</time>
      </trkpt>
      <trkpt lat="48.84005" lon="2.30289">
        <ele>86</ele>
        <time>2013-10-15T20:08:23.264Z</time>
      </trkpt>
      <trkpt lat="48.84006" lon="2.30297">
        <ele>88</ele>
        <time>2013-10-15T20:08:24.264Z</time>
      </trkpt>
      <trkpt lat="48.84007" lon="2.30304">
        <ele>88</ele>
        <time>2013-10-15T20:08:25.265Z</time>
      </trkpt>
      <trkpt lat="48.84009" lon="2.30311">
        <ele>88</ele>
        <time>2013-10-15T20:08:26.259Z</time>
      </trkpt>
      <trkpt lat="48.8401" lon="2.30317">
        <ele>87</ele>
        <time>2013-10-15T20:08:27.208Z</time>
      </trkpt>
      <trkpt lat="48.84011" lon="2.30324">
        <ele>86</ele>
        <time>2013-10-15T20:08:28.309Z</time>
      </trkpt>
      <trkpt lat="48.84013" lon="2.30331">
        <ele>88</ele>
        <time>2013-10-15T20:08:29.260Z</time>
      </trkpt>
      <trkpt lat="48.84014" lon="2.30339">
        <ele>88</ele>
        <time>2013-10-15T20:08:30.256Z</time>
      </trkpt>
      <trkpt lat="48.84016" lon="2.30347">
        <ele>89</ele>
        <time>2013-10-15T20:08:31.262Z</time>
      </trkpt>
      <trkpt lat="48.84018" lon="2.30355">
        <ele>90</ele>
        <time>2013-10-15T20:08:32.459Z</time>
      </trkpt>
      <trkpt lat="48.8402" lon="2.30362">
        <ele>92</ele>
        <time>2013-10-15T20:08:33.257Z</time>
      </trkpt>
      <trkpt lat="48.84022" lon="2.30369">
        <ele>92</ele>
        <time>2013-10-15T20:08:34.259Z</time>
      </trkpt>
      <trkpt lat="48.84024" lon="2.30376">
        <ele>92</ele>
        <time>2013-10-15T20:08:35.249Z</time>
      </trkpt>
      <trkpt lat="48.84026" lon="2.30383">
        <ele>91</ele>
        <time>2013-10-15T20:08:36.261Z</time>
      </trkpt>
      <trkpt lat="48.84028" lon="2.30389">
        <ele>92</ele>
        <time>2013-10-15T20:08:37.263Z</time>
      </trkpt>
      <trkpt lat="48.84033" lon="2.30399">
        <ele>89</ele>
        <time>2013-10-15T20:08:39.261Z</time>
      </trkpt>
      <trkpt lat="48.84036" lon="2.30403">
        <ele>92</ele>
        <time>2013-10-15T20:08:40.257Z</time>
      </trkpt>
      <trkpt lat="48.84041" lon="2.30412">
        <ele>92</ele>
        <time>2013-10-15T20:08:43.258Z</time>
      </trkpt>
      <trkpt lat="48.84043" lon="2.30415">
        <ele>94</ele>
        <time>2013-10-15T20:08:44.254Z</time>
      </trkpt>
      <trkpt lat="48.84047" lon="2.30426">
        <ele>92</ele>
        <time>2013-10-15T20:08:49.254Z</time>
      </trkpt>
      <trkpt lat="48.84048" lon="2.30427">
        <ele>92</ele>
        <time>2013-10-15T20:08:50.260Z</time>
      </trkpt>
      <trkpt lat="48.84044" lon="2.30416">
        <ele>103</ele>
        <time>2013-10-15T20:09:11.205Z</time>
      </trkpt>
      <trkpt lat="48.84044" lon="2.30416">
        <ele>105</ele>
        <time>2013-10-15T20:09:12.289Z</time>
      </trkpt>
      <trkpt lat="48.84044" lon="2.30417">
        <ele>104</ele>
        <time>2013-10-15T20:09:13.260Z</time>
      </trkpt>
      <trkpt lat="48.84044" lon="2.30418">
        <ele>104</ele>
        <time>2013-10-15T20:09:14.270Z</time>
      </trkpt>
      <trkpt lat="48.84047" lon="2.30429">
        <ele>102</ele>
        <time>2013-10-15T20:09:18.320Z</time>
      </trkpt>
      <trkpt lat="48.84048" lon="2.30433">
        <ele>103</ele>
        <time>2013-10-15T20:09:19.263Z</time>
      </trkpt>
      <trkpt lat="48.84051" lon="2.30442">
        <ele>103</ele>
        <time>2013-10-15T20:09:21.265Z</time>
      </trkpt>
      <trkpt lat="48.84052" lon="2.30447">
        <ele>103</ele>
        <time>2013-10-15T20:09:22.251Z</time>
      </trkpt>
      <trkpt lat="48.84056" lon="2.30457">
        <ele>102</ele>
        <time>2013-10-15T20:09:24.259Z</time>
      </trkpt>
      <trkpt lat="48.84057" lon="2.30463">
        <ele>103</ele>
        <time>2013-10-15T20:09:25.260Z</time>
      </trkpt>
      <trkpt lat="48.8406" lon="2.30474">
        <ele>99</ele>
        <time>2013-10-15T20:09:27.263Z</time>
      </trkpt>
      <trkpt lat="48.84062" lon="2.30481">
        <ele>96</ele>
        <time>2013-10-15T20:09:28.267Z</time>
      </trkpt>
      <trkpt lat="48.84065" lon="2.30493">
        <ele>91</ele>
        <time>2013-10-15T20:09:30.261Z</time>
      </trkpt>
      <trkpt lat="48.84066" lon="2.305">
        <ele>91</ele>
        <time>2013-10-15T20:09:31.264Z</time>
      </trkpt>
      <trkpt lat="48.84067" lon="2.30507">
        <ele>90</ele>
        <time>2013-10-15T20:09:32.267Z</time>
      </trkpt>
      <trkpt lat="48.84069" lon="2.30515">
        <ele>88</ele>
        <time>2013-10-15T20:09:33.286Z</time>
      </trkpt>
      <trkpt lat="48.8407" lon="2.30522">
        <ele>87</ele>
        <time>2013-10-15T20:09:34.262Z</time>
      </trkpt>
      <trkpt lat="48.84072" lon="2.30529">
        <ele>87</ele>
        <time>2013-10-15T20:09:35.263Z</time>
      </trkpt>
      <trkpt lat="48.84073" lon="2.30537">
        <ele>86</ele>
        <time>2013-10-15T20:09:36.263Z</time>
      </trkpt>
      <trkpt lat="48.84075" lon="2.30545">
        <ele>84</ele>
        <time>2013-10-15T20:09:37.264Z</time>
      </trkpt>
      <trkpt lat="48.84078" lon="2.30553">
        <ele>85</ele>
        <time>2013-10-15T20:09:38.267Z</time>
      </trkpt>
      <trkpt lat="48.8408" lon="2.30562">
        <ele>85</ele>
        <time>2013-10-15T20:09:39.264Z</time>
      </trkpt>
      <trkpt lat="48.84082" lon="2.3057">
        <ele>78</ele>
        <time>2013-10-15T20:09:40.262Z</time>
      </trkpt>
      <trkpt lat="48.84084" lon="2.30578">
        <ele>78</ele>
        <time>2013-10-15T20:09:41.251Z</time>
      </trkpt>
      <trkpt lat="48.84086" lon="2.30586">
        <ele>79</ele>
        <time>2013-10-15T20:09:42.267Z</time>
      </trkpt>
      <trkpt lat="48.84088" lon="2.30594">
        <ele>81</ele>
        <time>2013-10-15T20:09:43.264Z</time>
      </trkpt>
      <trkpt lat="48.8409" lon="2.30602">
        <ele>83</ele>
        <time>2013-10-15T20:09:44.268Z</time>
      </trkpt>
      <trkpt lat="48.84093" lon="2.3061">
        <ele>83</ele>
        <time>2013-10-15T20:09:45.272Z</time>
      </trkpt>
      <trkpt lat="48.84095" lon="2.30619">
        <ele>82</ele>
        <time>2013-10-15T20:09:46.276Z</time>
      </trkpt>
      <trkpt lat="48.84098" lon="2.30626">
        <ele>82</ele>
        <time>2013-10-15T20:09:47.268Z</time>
      </trkpt>
      <trkpt lat="48.841" lon="2.30634">
        <ele>84</ele>
        <time>2013-10-15T20:09:48.234Z</time>
      </trkpt>
      <trkpt lat="48.84102" lon="2.30643">
        <ele>85</ele>
        <time>2013-10-15T20:09:49.268Z</time>
      </trkpt>
      <trkpt lat="48.84104" lon="2.30651">
        <ele>84</ele>
        <time>2013-10-15T20:09:50.271Z</time>
      </trkpt>
      <trkpt lat="48.84106" lon="2.30659">
        <ele>84</ele>
        <time>2013-10-15T20:09:51.275Z</time>
      </trkpt>
      <trkpt lat="48.84108" lon="2.30667">
        <ele>84</ele>
        <time>2013-10-15T20:09:52.271Z</time>
      </trkpt>
      <trkpt lat="48.84109" lon="2.30674">
        <ele>84</ele>
        <time>2013-10-15T20:09:53.211Z</time>
      </trkpt>
      <trkpt lat="48.84111" lon="2.30682">
        <ele>85</ele>
        <time>2013-10-15T20:09:54.265Z</time>
      </trkpt>
      <trkpt lat="48.84113" lon="2.30689">
        <ele>86</ele>
        <time>2013-10-15T20:09:55.269Z</time>
      </trkpt>
      <trkpt lat="48.84114" lon="2.30696">
        <ele>84</ele>
        <time>2013-10-15T20:09:56.264Z</time>
      </trkpt>
      <trkpt lat="48.84117" lon="2.30703">
        <ele>87</ele>
        <time>2013-10-15T20:09:57.268Z</time>
      </trkpt>
      <trkpt lat="48.84119" lon="2.3071">
        <ele>87</ele>
        <time>2013-10-15T20:09:58.263Z</time>
      </trkpt>
      <trkpt lat="48.84121" lon="2.30718">
        <ele>85</ele>
        <time>2013-10-15T20:09:59.267Z</time>
      </trkpt>
      <trkpt lat="48.84123" lon="2.30726">
        <ele>84</ele>
        <time>2013-10-15T20:10:00.275Z</time>
      </trkpt>
      <trkpt lat="48.84124" lon="2.30734">
        <ele>83</ele>
        <time>2013-10-15T20:10:01.263Z</time>
      </trkpt>
      <trkpt lat="48.84125" lon="2.30742">
        <ele>82</ele>
        <time>2013-10-15T20:10:02.267Z</time>
      </trkpt>
      <trkpt lat="48.84126" lon="2.3075">
        <ele>84</ele>
        <time>2013-10-15T20:10:03.354Z</time>
      </trkpt>
      <trkpt lat="48.84128" lon="2.30756">
        <ele>84</ele>
        <time>2013-10-15T20:10:04.211Z</time>
      </trkpt>
      <trkpt lat="48.8413" lon="2.30764">
        <ele>84</ele>
        <time>2013-10-15T20:10:05.263Z</time>
      </trkpt>
      <trkpt lat="48.84131" lon="2.3077">
        <ele>83</ele>
        <time>2013-10-15T20:10:06.264Z</time>
      </trkpt>
      <trkpt lat="48.84133" lon="2.30777">
        <ele>83</ele>
        <time>2013-10-15T20:10:07.263Z</time>
      </trkpt>
      <trkpt lat="48.84137" lon="2.30788">
        <ele>79</ele>
        <time>2013-10-15T20:10:09.300Z</time>
      </trkpt>
      <trkpt lat="48.84138" lon="2.30793">
        <ele>82</ele>
        <time>2013-10-15T20:10:10.267Z</time>
      </trkpt>
      <trkpt lat="48.84142" lon="2.30802">
        <ele>79</ele>
        <time>2013-10-15T20:10:13.263Z</time>
      </trkpt>
      <trkpt lat="48.84143" lon="2.30806">
        <ele>80</ele>
        <time>2013-10-15T20:10:14.323Z</time>
      </trkpt>
      <trkpt lat="48.84147" lon="2.30814">
        <ele>76</ele>
        <time>2013-10-15T20:10:16.272Z</time>
      </trkpt>
      <trkpt lat="48.84149" lon="2.30819">
        <ele>76</ele>
        <time>2013-10-15T20:10:17.270Z</time>
      </trkpt>
      <trkpt lat="48.84152" lon="2.30831">
        <ele>74</ele>
        <time>2013-10-15T20:10:19.270Z</time>
      </trkpt>
      <trkpt lat="48.84154" lon="2.30837">
        <ele>76</ele>
        <time>2013-10-15T20:10:20.263Z</time>
      </trkpt>
      <trkpt lat="48.84156" lon="2.30844">
        <ele>79</ele>
        <time>2013-10-15T20:10:21.267Z</time>
      </trkpt>
      <trkpt lat="48.84159" lon="2.30851">
        <ele>78</ele>
        <time>2013-10-15T20:10:22.268Z</time>
      </trkpt>
      <trkpt lat="48.84161" lon="2.30858">
        <ele>79</ele>
        <time>2013-10-15T20:10:23.310Z</time>
      </trkpt>
      <trkpt lat="48.84164" lon="2.30864">
        <ele>77</ele>
        <time>2013-10-15T20:10:24.267Z</time>
      </trkpt>
      <trkpt lat="48.84166" lon="2.3087">
        <ele>77</ele>
        <time>2013-10-15T20:10:25.266Z</time>
      </trkpt>
      <trkpt lat="48.84169" lon="2.30877">
        <ele>76</ele>
        <time>2013-10-15T20:10:26.272Z</time>
      </trkpt>
      <trkpt lat="48.84173" lon="2.30888">
        <ele>76</ele>
        <time>2013-10-15T20:10:28.267Z</time>
      </trkpt>
      <trkpt lat="48.84175" lon="2.30894">
        <ele>75</ele>
        <time>2013-10-15T20:10:29.267Z</time>
      </trkpt>
      <trkpt lat="48.84177" lon="2.309">
        <ele>73</ele>
        <time>2013-10-15T20:10:30.268Z</time>
      </trkpt>
      <trkpt lat="48.84179" lon="2.30906">
        <ele>74</ele>
        <time>2013-10-15T20:10:31.267Z</time>
      </trkpt>
      <trkpt lat="48.84181" lon="2.30912">
        <ele>76</ele>
        <time>2013-10-15T20:10:32.267Z</time>
      </trkpt>
      <trkpt lat="48.84183" lon="2.30919">
        <ele>75</ele>
        <time>2013-10-15T20:10:33.267Z</time>
      </trkpt>
      <trkpt lat="48.84186" lon="2.30925">
        <ele>74</ele>
        <time>2013-10-15T20:10:34.433Z</time>
      </trkpt>
      <trkpt lat="48.84188" lon="2.30931">
        <ele>74</ele>
        <time>2013-10-15T20:10:35.265Z</time>
      </trkpt>
      <trkpt lat="48.8419" lon="2.30938">
        <ele>75</ele>
        <time>2013-10-15T20:10:36.267Z</time>
      </trkpt>
      <trkpt lat="48.84193" lon="2.30944">
        <ele>73</ele>
        <time>2013-10-15T20:10:37.270Z</time>
      </trkpt>
      <trkpt lat="48.84195" lon="2.3095">
        <ele>74</ele>
        <time>2013-10-15T20:10:38.269Z</time>
      </trkpt>
      <trkpt lat="48.84197" lon="2.30956">
        <ele>74</ele>
        <time>2013-10-15T20:10:39.269Z</time>
      </trkpt>
      <trkpt lat="48.84201" lon="2.30968">
        <ele>73</ele>
        <time>2013-10-15T20:10:41.272Z</time>
      </trkpt>
      <trkpt lat="48.84202" lon="2.30973">
        <ele>74</ele>
        <time>2013-10-15T20:10:42.288Z</time>
      </trkpt>
      <trkpt lat="48.84205" lon="2.30985">
        <ele>75</ele>
        <time>2013-10-15T20:10:44.275Z</time>
      </trkpt>
      <trkpt lat="48.84206" lon="2.30991">
        <ele>73</ele>
        <time>2013-10-15T20:10:45.237Z</time>
      </trkpt>
      <trkpt lat="48.84208" lon="2.30998">
        <ele>76</ele>
        <time>2013-10-15T20:10:46.271Z</time>
      </trkpt>
      <trkpt lat="48.8421" lon="2.31006">
        <ele>76</ele>
        <time>2013-10-15T20:10:47.271Z</time>
      </trkpt>
      <trkpt lat="48.84212" lon="2.31013">
        <ele>77</ele>
        <time>2013-10-15T20:10:48.299Z</time>
      </trkpt>
      <trkpt lat="48.84214" lon="2.3102">
        <ele>77</ele>
        <time>2013-10-15T20:10:49.271Z</time>
      </trkpt>
      <trkpt lat="48.84216" lon="2.31027">
        <ele>76</ele>
        <time>2013-10-15T20:10:50.303Z</time>
      </trkpt>
      <trkpt lat="48.84219" lon="2.31034">
        <ele>77</ele>
        <time>2013-10-15T20:10:51.268Z</time>
      </trkpt>
      <trkpt lat="48.84221" lon="2.3104">
        <ele>78</ele>
        <time>2013-10-15T20:10:52.270Z</time>
      </trkpt>
      <trkpt lat="48.84223" lon="2.31046">
        <ele>87</ele>
        <time>2013-10-15T20:10:53.338Z</time>
      </trkpt>
      <trkpt lat="48.84227" lon="2.31057">
        <ele>88</ele>
        <time>2013-10-15T20:10:55.301Z</time>
      </trkpt>
      <trkpt lat="48.84229" lon="2.31063">
        <ele>91</ele>
        <time>2013-10-15T20:10:56.269Z</time>
      </trkpt>
      <trkpt lat="48.84234" lon="2.31073">
        <ele>92</ele>
        <time>2013-10-15T20:10:58.263Z</time>
      </trkpt>
      <trkpt lat="48.84235" lon="2.31078">
        <ele>89</ele>
        <time>2013-10-15T20:10:59.269Z</time>
      </trkpt>
      <trkpt lat="48.84238" lon="2.31087">
        <ele>91</ele>
        <time>2013-10-15T20:11:01.239Z</time>
      </trkpt>
      <trkpt lat="48.8424" lon="2.31092">
        <ele>92</ele>
        <time>2013-10-15T20:11:02.239Z</time>
      </trkpt>
      <trkpt lat="48.84242" lon="2.31101">
        <ele>90</ele>
        <time>2013-10-15T20:11:04.239Z</time>
      </trkpt>
      <trkpt lat="48.84244" lon="2.31106">
        <ele>90</ele>
        <time>2013-10-15T20:11:05.220Z</time>
      </trkpt>
      <trkpt lat="48.84246" lon="2.31116">
        <ele>91</ele>
        <time>2013-10-15T20:11:07.247Z</time>
      </trkpt>
      <trkpt lat="48.84247" lon="2.31121">
        <ele>93</ele>
        <time>2013-10-15T20:11:08.242Z</time>
      </trkpt>
      <trkpt lat="48.8425" lon="2.3113">
        <ele>91</ele>
        <time>2013-10-15T20:11:10.248Z</time>
      </trkpt>
      <trkpt lat="48.84251" lon="2.31135">
        <ele>90</ele>
        <time>2013-10-15T20:11:11.251Z</time>
      </trkpt>
      <trkpt lat="48.84254" lon="2.31144">
        <ele>88</ele>
        <time>2013-10-15T20:11:13.192Z</time>
      </trkpt>
      <trkpt lat="48.84256" lon="2.31149">
        <ele>88</ele>
        <time>2013-10-15T20:11:14.252Z</time>
      </trkpt>
      <trkpt lat="48.8426" lon="2.31161">
        <ele>92</ele>
        <time>2013-10-15T20:11:16.249Z</time>
      </trkpt>
      <trkpt lat="48.84263" lon="2.31168">
        <ele>90</ele>
        <time>2013-10-15T20:11:17.251Z</time>
      </trkpt>
      <trkpt lat="48.84266" lon="2.3118">
        <ele>88</ele>
        <time>2013-10-15T20:11:19.248Z</time>
      </trkpt>
      <trkpt lat="48.84268" lon="2.31185">
        <ele>87</ele>
        <time>2013-10-15T20:11:20.249Z</time>
      </trkpt>
      <trkpt lat="48.84271" lon="2.31197">
        <ele>89</ele>
        <time>2013-10-15T20:11:22.249Z</time>
      </trkpt>
      <trkpt lat="48.84273" lon="2.31202">
        <ele>90</ele>
        <time>2013-10-15T20:11:23.247Z</time>
      </trkpt>
      <trkpt lat="48.84276" lon="2.31212">
        <ele>88</ele>
        <time>2013-10-15T20:11:25.249Z</time>
      </trkpt>
      <trkpt lat="48.84278" lon="2.31216">
        <ele>89</ele>
        <time>2013-10-15T20:11:26.247Z</time>
      </trkpt>
      <trkpt lat="48.84283" lon="2.31227">
        <ele>93</ele>
        <time>2013-10-15T20:11:29.269Z</time>
      </trkpt>
      <trkpt lat="48.84285" lon="2.3123">
        <ele>92</ele>
        <time>2013-10-15T20:11:30.251Z</time>
      </trkpt>
      <trkpt lat="48.84289" lon="2.31242">
        <ele>97</ele>
        <time>2013-10-15T20:11:36.251Z</time>
      </trkpt>
      <trkpt lat="48.84289" lon="2.31242">
        <ele>96</ele>
        <time>2013-10-15T20:11:37.247Z</time>
      </trkpt>
      <trkpt lat="48.84295" lon="2.31251">
        <ele>88</ele>
        <time>2013-10-15T20:11:46.267Z</time>
      </trkpt>
      <trkpt lat="48.84296" lon="2.31253">
        <ele>87</ele>
        <time>2013-10-15T20:11:47.244Z</time>
      </trkpt>
      <trkpt lat="48.84301" lon="2.31262">
        <ele>79</ele>
        <time>2013-10-15T20:11:51.280Z</time>
      </trkpt>
      <trkpt lat="48.84302" lon="2.31265">
        <ele>79</ele>
        <time>2013-10-15T20:11:52.287Z</time>
      </trkpt>
      <trkpt lat="48.84307" lon="2.31273">
        <ele>79</ele>
        <time>2013-10-15T20:11:56.247Z</time>
      </trkpt>
      <trkpt lat="48.84309" lon="2.31274">
        <ele>77</ele>
        <time>2013-10-15T20:11:57.247Z</time>
      </trkpt>
      <trkpt lat="48.84315" lon="2.31273">
        <ele>74</ele>
        <time>2013-10-15T20:11:59.247Z</time>
      </trkpt>
      <trkpt lat="48.84319" lon="2.31271">
        <ele>75</ele>
        <time>2013-10-15T20:12:00.263Z</time>
      </trkpt>
      <trkpt lat="48.84326" lon="2.31269">
        <ele>79</ele>
        <time>2013-10-15T20:12:02.253Z</time>
      </trkpt>
      <trkpt lat="48.8433" lon="2.31267">
        <ele>80</ele>
        <time>2013-10-15T20:12:03.252Z</time>
      </trkpt>
      <trkpt lat="48.84337" lon="2.3126">
        <ele>77</ele>
        <time>2013-10-15T20:12:05.249Z</time>
      </trkpt>
      <trkpt lat="48.8434" lon="2.31256">
        <ele>77</ele>
        <time>2013-10-15T20:12:06.231Z</time>
      </trkpt>
      <trkpt lat="48.84344" lon="2.31251">
        <ele>78</ele>
        <time>2013-10-15T20:12:07.252Z</time>
      </trkpt>
      <trkpt lat="48.84347" lon="2.31247">
        <ele>76</ele>
        <time>2013-10-15T20:12:08.202Z</time>
      </trkpt>
      <trkpt lat="48.84351" lon="2.31243">
        <ele>76</ele>
        <time>2013-10-15T20:12:09.196Z</time>
      </trkpt>
      <trkpt lat="48.84356" lon="2.31238">
        <ele>77</ele>
        <time>2013-10-15T20:12:10.255Z</time>
      </trkpt>
      <trkpt lat="48.8436" lon="2.31235">
        <ele>76</ele>
        <time>2013-10-15T20:12:11.204Z</time>
      </trkpt>
      <trkpt lat="48.84365" lon="2.31232">
        <ele>77</ele>
        <time>2013-10-15T20:12:12.247Z</time>
      </trkpt>
      <trkpt lat="48.84369" lon="2.31229">
        <ele>78</ele>
        <time>2013-10-15T20:12:13.252Z</time>
      </trkpt>
      <trkpt lat="48.84374" lon="2.31225">
        <ele>78</ele>
        <time>2013-10-15T20:12:14.198Z</time>
      </trkpt>
      <trkpt lat="48.84378" lon="2.31221">
        <ele>79</ele>
        <time>2013-10-15T20:12:15.253Z</time>
      </trkpt>
      <trkpt lat="48.84383" lon="2.31217">
        <ele>79</ele>
        <time>2013-10-15T20:12:16.250Z</time>
      </trkpt>
      <trkpt lat="48.84387" lon="2.31213">
        <ele>81</ele>
        <time>2013-10-15T20:12:17.218Z</time>
      </trkpt>
      <trkpt lat="48.84392" lon="2.31209">
        <ele>82</ele>
        <time>2013-10-15T20:12:18.251Z</time>
      </trkpt>
      <trkpt lat="48.84397" lon="2.31205">
        <ele>81</ele>
        <time>2013-10-15T20:12:19.252Z</time>
      </trkpt>
      <trkpt lat="48.84402" lon="2.31201">
        <ele>81</ele>
        <time>2013-10-15T20:12:20.252Z</time>
      </trkpt>
      <trkpt lat="48.84407" lon="2.31197">
        <ele>81</ele>
        <time>2013-10-15T20:12:21.251Z</time>
      </trkpt>
      <trkpt lat="48.84412" lon="2.31193">
        <ele>81</ele>
        <time>2013-10-15T20:12:22.200Z</time>
      </trkpt>
      <trkpt lat="48.84417" lon="2.31188">
        <ele>83</ele>
        <time>2013-10-15T20:12:23.252Z</time>
      </trkpt>
      <trkpt lat="48.84422" lon="2.31183">
        <ele>82</ele>
        <time>2013-10-15T20:12:24.252Z</time>
      </trkpt>
      <trkpt lat="48.84427" lon="2.31179">
        <ele>83</ele>
        <time>2013-10-15T20:12:25.252Z</time>
      </trkpt>
      <trkpt lat="48.84433" lon="2.31174">
        <ele>84</ele>
        <time>2013-10-15T20:12:26.252Z</time>
      </trkpt>
      <trkpt lat="48.84438" lon="2.3117">
        <ele>82</ele>
        <time>2013-10-15T20:12:27.255Z</time>
      </trkpt>
      <trkpt lat="48.84443" lon="2.31165">
        <ele>81</ele>
        <time>2013-10-15T20:12:28.251Z</time>
      </trkpt>
      <trkpt lat="48.84448" lon="2.3116">
        <ele>83</ele>
        <time>2013-10-15T20:12:29.251Z</time>
      </trkpt>
      <trkpt lat="48.84453" lon="2.31158">
        <ele>84</ele>
        <time>2013-10-15T20:12:30.252Z</time>
      </trkpt>
      <trkpt lat="48.84458" lon="2.31157">
        <ele>84</ele>
        <time>2013-10-15T20:12:31.253Z</time>
      </trkpt>
      <trkpt lat="48.84463" lon="2.31157">
        <ele>84</ele>
        <time>2013-10-15T20:12:32.253Z</time>
      </trkpt>
      <trkpt lat="48.84468" lon="2.31158">
        <ele>83</ele>
        <time>2013-10-15T20:12:33.267Z</time>
      </trkpt>
      <trkpt lat="48.84473" lon="2.3116">
        <ele>87</ele>
        <time>2013-10-15T20:12:34.252Z</time>
      </trkpt>
      <trkpt lat="48.84477" lon="2.31162">
        <ele>83</ele>
        <time>2013-10-15T20:12:35.253Z</time>
      </trkpt>
      <trkpt lat="48.84482" lon="2.31164">
        <ele>84</ele>
        <time>2013-10-15T20:12:36.252Z</time>
      </trkpt>
      <trkpt lat="48.84486" lon="2.31166">
        <ele>84</ele>
        <time>2013-10-15T20:12:37.251Z</time>
      </trkpt>
      <trkpt lat="48.84491" lon="2.31169">
        <ele>87</ele>
        <time>2013-10-15T20:12:38.256Z</time>
      </trkpt>
      <trkpt lat="48.84499" lon="2.31172">
        <ele>86</ele>
        <time>2013-10-15T20:12:40.225Z</time>
      </trkpt>
      <trkpt lat="48.84503" lon="2.31173">
        <ele>85</ele>
        <time>2013-10-15T20:12:41.265Z</time>
      </trkpt>
      <trkpt lat="48.84511" lon="2.31174">
        <ele>77</ele>
        <time>2013-10-15T20:12:43.258Z</time>
      </trkpt>
      <trkpt lat="48.84515" lon="2.31174">
        <ele>74</ele>
        <time>2013-10-15T20:12:44.335Z</time>
      </trkpt>
      <trkpt lat="48.84522" lon="2.31173">
        <ele>73</ele>
        <time>2013-10-15T20:12:46.269Z</time>
      </trkpt>
      <trkpt lat="48.84525" lon="2.31173">
        <ele>74</ele>
        <time>2013-10-15T20:12:47.259Z</time>
      </trkpt>
      <trkpt lat="48.84533" lon="2.31174">
        <ele>71</ele>
        <time>2013-10-15T20:12:51.267Z</time>
      </trkpt>
      <trkpt lat="48.84534" lon="2.31175">
        <ele>71</ele>
        <time>2013-10-15T20:12:52.267Z</time>
      </trkpt>
      <trkpt lat="48.84542" lon="2.3118">
        <ele>74</ele>
        <time>2013-10-15T20:12:58.264Z</time>
      </trkpt>
      <trkpt lat="48.84544" lon="2.3118">
        <ele>73</ele>
        <time>2013-10-15T20:12:59.272Z</time>
      </trkpt>
      <trkpt lat="48.8455" lon="2.31178">
        <ele>74</ele>
        <time>2013-10-15T20:13:02.259Z</time>
      </trkpt>
      <trkpt lat="48.84553" lon="2.31178">
        <ele>74</ele>
        <time>2013-10-15T20:13:03.259Z</time>
      </trkpt>
      <trkpt lat="48.84559" lon="2.31178">
        <ele>76</ele>
        <time>2013-10-15T20:13:05.258Z</time>
      </trkpt>
      <trkpt lat="48.84563" lon="2.31178">
        <ele>73</ele>
        <time>2013-10-15T20:13:06.258Z</time>
      </trkpt>
      <trkpt lat="48.84571" lon="2.31178">
        <ele>77</ele>
        <time>2013-10-15T20:13:08.268Z</time>
      </trkpt>
      <trkpt lat="48.84576" lon="2.3118">
        <ele>78</ele>
        <time>2013-10-15T20:13:09.255Z</time>
      </trkpt>
      <trkpt lat="48.84584" lon="2.31181">
        <ele>79</ele>
        <time>2013-10-15T20:13:11.264Z</time>
      </trkpt>
      <trkpt lat="48.84589" lon="2.31182">
        <ele>80</ele>
        <time>2013-10-15T20:13:12.261Z</time>
      </trkpt>
      <trkpt lat="48.84593" lon="2.31183">
        <ele>80</ele>
        <time>2013-10-15T20:13:13.263Z</time>
      </trkpt>
      <trkpt lat="48.84598" lon="2.31184">
        <ele>82</ele>
        <time>2013-10-15T20:13:14.264Z</time>
      </trkpt>
      <trkpt lat="48.84603" lon="2.31185">
        <ele>81</ele>
        <time>2013-10-15T20:13:15.239Z</time>
      </trkpt>
      <trkpt lat="48.84608" lon="2.31186">
        <ele>80</ele>
        <time>2013-10-15T20:13:16.270Z</time>
      </trkpt>
      <trkpt lat="48.84613" lon="2.31187">
        <ele>82</ele>
        <time>2013-10-15T20:13:17.263Z</time>
      </trkpt>
      <trkpt lat="48.84619" lon="2.31188">
        <ele>80</ele>
        <time>2013-10-15T20:13:18.264Z</time>
      </trkpt>
      <trkpt lat="48.84624" lon="2.31189">
        <ele>77</ele>
        <time>2013-10-15T20:13:19.264Z</time>
      </trkpt>
      <trkpt lat="48.84629" lon="2.3119">
        <ele>80</ele>
        <time>2013-10-15T20:13:20.255Z</time>
      </trkpt>
      <trkpt lat="48.84634" lon="2.31191">
        <ele>83</ele>
        <time>2013-10-15T20:13:21.266Z</time>
      </trkpt>
      <trkpt lat="48.84638" lon="2.31192">
        <ele>81</ele>
        <time>2013-10-15T20:13:22.264Z</time>
      </trkpt>
      <trkpt lat="48.84643" lon="2.31194">
        <ele>80</ele>
        <time>2013-10-15T20:13:23.276Z</time>
      </trkpt>
      <trkpt lat="48.84647" lon="2.31195">
        <ele>79</ele>
        <time>2013-10-15T20:13:24.261Z</time>
      </trkpt>
      <trkpt lat="48.84656" lon="2.31197">
        <ele>80</ele>
        <time>2013-10-15T20:13:26.306Z</time>
      </trkpt>
      <trkpt lat="48.8466" lon="2.31198">
        <ele>78</ele>
        <time>2013-10-15T20:13:27.255Z</time>
      </trkpt>
      <trkpt lat="48.84665" lon="2.31199">
        <ele>78</ele>
        <time>2013-10-15T20:13:28.262Z</time>
      </trkpt>
      <trkpt lat="48.8467" lon="2.312">
        <ele>83</ele>
        <time>2013-10-15T20:13:29.256Z</time>
      </trkpt>
      <trkpt lat="48.84675" lon="2.31201">
        <ele>84</ele>
        <time>2013-10-15T20:13:30.256Z</time>
      </trkpt>
      <trkpt lat="48.8468" lon="2.31202">
        <ele>84</ele>
        <time>2013-10-15T20:13:31.261Z</time>
      </trkpt>
      <trkpt lat="48.84684" lon="2.31202">
        <ele>83</ele>
        <time>2013-10-15T20:13:32.261Z</time>
      </trkpt>
      <trkpt lat="48.84689" lon="2.31202">
        <ele>85</ele>
        <time>2013-10-15T20:13:33.264Z</time>
      </trkpt>
      <trkpt lat="48.84698" lon="2.31202">
        <ele>80</ele>
        <time>2013-10-15T20:13:35.261Z</time>
      </trkpt>
      <trkpt lat="48.84702" lon="2.31202">
        <ele>81</ele>
        <time>2013-10-15T20:13:36.264Z</time>
      </trkpt>
      <trkpt lat="48.84707" lon="2.31202">
        <ele>78</ele>
        <time>2013-10-15T20:13:37.263Z</time>
      </trkpt>
      <trkpt lat="48.84711" lon="2.31202">
        <ele>77</ele>
        <time>2013-10-15T20:13:38.267Z</time>
      </trkpt>
      <trkpt lat="48.84716" lon="2.31204">
        <ele>76</ele>
        <time>2013-10-15T20:13:39.263Z</time>
      </trkpt>
      <trkpt lat="48.84721" lon="2.31205">
        <ele>77</ele>
        <time>2013-10-15T20:13:40.263Z</time>
      </trkpt>
      <trkpt lat="48.84726" lon="2.31207">
        <ele>75</ele>
        <time>2013-10-15T20:13:41.267Z</time>
      </trkpt>
      <trkpt lat="48.84732" lon="2.31208">
        <ele>72</ele>
        <time>2013-10-15T20:13:42.271Z</time>
      </trkpt>
      <trkpt lat="48.84737" lon="2.31209">
        <ele>73</ele>
        <time>2013-10-15T20:13:43.267Z</time>
      </trkpt>
      <trkpt lat="48.84741" lon="2.31209">
        <ele>73</ele>
        <time>2013-10-15T20:13:44.271Z</time>
      </trkpt>
      <trkpt lat="48.8475" lon="2.31209">
        <ele>74</ele>
        <time>2013-10-15T20:13:46.212Z</time>
      </trkpt>
      <trkpt lat="48.84754" lon="2.3121">
        <ele>72</ele>
        <time>2013-10-15T20:13:47.271Z</time>
      </trkpt>
      <trkpt lat="48.84759" lon="2.3121">
        <ele>72</ele>
        <time>2013-10-15T20:13:48.250Z</time>
      </trkpt>
      <trkpt lat="48.84764" lon="2.3121">
        <ele>74</ele>
        <time>2013-10-15T20:13:49.271Z</time>
      </trkpt>
      <trkpt lat="48.84768" lon="2.31209">
        <ele>73</ele>
        <time>2013-10-15T20:13:50.266Z</time>
      </trkpt>
      <trkpt lat="48.84773" lon="2.31208">
        <ele>72</ele>
        <time>2013-10-15T20:13:51.239Z</time>
      </trkpt>
      <trkpt lat="48.84779" lon="2.31208">
        <ele>74</ele>
        <time>2013-10-15T20:13:52.264Z</time>
      </trkpt>
      <trkpt lat="48.84783" lon="2.31207">
        <ele>74</ele>
        <time>2013-10-15T20:13:53.268Z</time>
      </trkpt>
      <trkpt lat="48.84788" lon="2.31207">
        <ele>76</ele>
        <time>2013-10-15T20:13:54.263Z</time>
      </trkpt>
      <trkpt lat="48.84792" lon="2.31207">
        <ele>74</ele>
        <time>2013-10-15T20:13:55.265Z</time>
      </trkpt>
      <trkpt lat="48.84801" lon="2.31207">
        <ele>69</ele>
        <time>2013-10-15T20:13:57.239Z</time>
      </trkpt>
      <trkpt lat="48.84806" lon="2.31207">
        <ele>72</ele>
        <time>2013-10-15T20:13:58.268Z</time>
      </trkpt>
      <trkpt lat="48.84811" lon="2.31206">
        <ele>76</ele>
        <time>2013-10-15T20:13:59.263Z</time>
      </trkpt>
      <trkpt lat="48.84816" lon="2.31206">
        <ele>74</ele>
        <time>2013-10-15T20:14:00.276Z</time>
      </trkpt>
      <trkpt lat="48.84821" lon="2.31205">
        <ele>74</ele>
        <time>2013-10-15T20:14:01.261Z</time>
      </trkpt>
      <trkpt lat="48.84826" lon="2.31205">
        <ele>73</ele>
        <time>2013-10-15T20:14:02.264Z</time>
      </trkpt>
      <trkpt lat="48.84831" lon="2.31206">
        <ele>75</ele>
        <time>2013-10-15T20:14:03.259Z</time>
      </trkpt>
      <trkpt lat="48.84836" lon="2.31206">
        <ele>74</ele>
        <time>2013-10-15T20:14:04.257Z</time>
      </trkpt>
      <trkpt lat="48.84841" lon="2.31206">
        <ele>74</ele>
        <time>2013-10-15T20:14:05.267Z</time>
      </trkpt>
      <trkpt lat="48.84846" lon="2.31206">
        <ele>74</ele>
        <time>2013-10-15T20:14:06.262Z</time>
      </trkpt>
      <trkpt lat="48.84852" lon="2.31207">
        <ele>74</ele>
        <time>2013-10-15T20:14:07.259Z</time>
      </trkpt>
      <trkpt lat="48.84857" lon="2.31208">
        <ele>73</ele>
        <time>2013-10-15T20:14:08.220Z</time>
      </trkpt>
      <trkpt lat="48.84862" lon="2.31209">
        <ele>72</ele>
        <time>2013-10-15T20:14:09.265Z</time>
      </trkpt>
      <trkpt lat="48.84867" lon="2.31209">
        <ele>75</ele>
        <time>2013-10-15T20:14:10.264Z</time>
      </trkpt>
      <trkpt lat="48.84871" lon="2.31208">
        <ele>74</ele>
        <time>2013-10-15T20:14:11.263Z</time>
      </trkpt>
      <trkpt lat="48.84876" lon="2.31209">
        <ele>76</ele>
        <time>2013-10-15T20:14:12.264Z</time>
      </trkpt>
      <trkpt lat="48.84881" lon="2.31209">
        <ele>77</ele>
        <time>2013-10-15T20:14:13.264Z</time>
      </trkpt>
      <trkpt lat="48.84886" lon="2.3121">
        <ele>78</ele>
        <time>2013-10-15T20:14:14.264Z</time>
      </trkpt>
      <trkpt lat="48.84891" lon="2.31211">
        <ele>78</ele>
        <time>2013-10-15T20:14:15.263Z</time>
      </trkpt>
      <trkpt lat="48.84896" lon="2.31211">
        <ele>75</ele>
        <time>2013-10-15T20:14:16.248Z</time>
      </trkpt>
      <trkpt lat="48.84901" lon="2.31211">
        <ele>75</ele>
        <time>2013-10-15T20:14:17.267Z</time>
      </trkpt>
      <trkpt lat="48.84907" lon="2.31211">
        <ele>74</ele>
        <time>2013-10-15T20:14:18.264Z</time>
      </trkpt>
      <trkpt lat="48.84912" lon="2.31212">
        <ele>75</ele>
        <time>2013-10-15T20:14:19.263Z</time>
      </trkpt>
      <trkpt lat="48.84917" lon="2.31213">
        <ele>78</ele>
        <time>2013-10-15T20:14:20.267Z</time>
      </trkpt>
      <trkpt lat="48.84921" lon="2.31214">
        <ele>79</ele>
        <time>2013-10-15T20:14:21.263Z</time>
      </trkpt>
      <trkpt lat="48.84926" lon="2.31215">
        <ele>78</ele>
        <time>2013-10-15T20:14:22.264Z</time>
      </trkpt>
      <trkpt lat="48.84931" lon="2.31217">
        <ele>76</ele>
        <time>2013-10-15T20:14:23.263Z</time>
      </trkpt>
      <trkpt lat="48.84935" lon="2.31219">
        <ele>77</ele>
        <time>2013-10-15T20:14:24.261Z</time>
      </trkpt>
      <trkpt lat="48.8494" lon="2.3122">
        <ele>79</ele>
        <time>2013-10-15T20:14:25.265Z</time>
      </trkpt>
      <trkpt lat="48.84944" lon="2.31222">
        <ele>81</ele>
        <time>2013-10-15T20:14:26.217Z</time>
      </trkpt>
      <trkpt lat="48.84949" lon="2.31224">
        <ele>81</ele>
        <time>2013-10-15T20:14:27.264Z</time>
      </trkpt>
      <trkpt lat="48.84954" lon="2.31225">
        <ele>80</ele>
        <time>2013-10-15T20:14:28.301Z</time>
      </trkpt>
      <trkpt lat="48.84963" lon="2.31226">
        <ele>80</ele>
        <time>2013-10-15T20:14:30.264Z</time>
      </trkpt>
      <trkpt lat="48.84967" lon="2.31226">
        <ele>79</ele>
        <time>2013-10-15T20:14:31.263Z</time>
      </trkpt>
      <trkpt lat="48.84976" lon="2.31225">
        <ele>79</ele>
        <time>2013-10-15T20:14:33.267Z</time>
      </trkpt>
      <trkpt lat="48.8498" lon="2.31225">
        <ele>82</ele>
        <time>2013-10-15T20:14:34.263Z</time>
      </trkpt>
      <trkpt lat="48.84988" lon="2.31224">
        <ele>85</ele>
        <time>2013-10-15T20:14:36.268Z</time>
      </trkpt>
      <trkpt lat="48.84993" lon="2.31224">
        <ele>82</ele>
        <time>2013-10-15T20:14:37.261Z</time>
      </trkpt>
      <trkpt lat="48.85001" lon="2.31229">
        <ele>80</ele>
        <time>2013-10-15T20:14:39.263Z</time>
      </trkpt>
      <trkpt lat="48.85004" lon="2.31233">
        <ele>77</ele>
        <time>2013-10-15T20:14:40.269Z</time>
      </trkpt>
      <trkpt lat="48.85012" lon="2.31236">
        <ele>79</ele>
        <time>2013-10-15T20:14:44.268Z</time>
      </trkpt>
      <trkpt lat="48.85013" lon="2.31234">
        <ele>83</ele>
        <time>2013-10-15T20:14:45.268Z</time>
      </trkpt>
      <trkpt lat="48.85019" lon="2.3123">
        <ele>79</ele>
        <time>2013-10-15T20:14:47.276Z</time>
      </trkpt>
      <trkpt lat="48.85022" lon="2.31229">
        <ele>77</ele>
        <time>2013-10-15T20:14:48.272Z</time>
      </trkpt>
      <trkpt lat="48.85031" lon="2.31227">
        <ele>74</ele>
        <time>2013-10-15T20:14:50.272Z</time>
      </trkpt>
      <trkpt lat="48.85035" lon="2.31227">
        <ele>71</ele>
        <time>2013-10-15T20:14:51.272Z</time>
      </trkpt>
      <trkpt lat="48.85044" lon="2.31228">
        <ele>70</ele>
        <time>2013-10-15T20:14:53.278Z</time>
      </trkpt>
      <trkpt lat="48.85048" lon="2.31229">
        <ele>70</ele>
        <time>2013-10-15T20:14:54.273Z</time>
      </trkpt>
      <trkpt lat="48.85053" lon="2.3123">
        <ele>70</ele>
        <time>2013-10-15T20:14:55.274Z</time>
      </trkpt>
      <trkpt lat="48.85058" lon="2.31232">
        <ele>70</ele>
        <time>2013-10-15T20:14:56.272Z</time>
      </trkpt>
      <trkpt lat="48.85063" lon="2.31234">
        <ele>71</ele>
        <time>2013-10-15T20:14:57.362Z</time>
      </trkpt>
      <trkpt lat="48.85068" lon="2.31235">
        <ele>71</ele>
        <time>2013-10-15T20:14:58.215Z</time>
      </trkpt>
      <trkpt lat="48.85073" lon="2.31236">
        <ele>72</ele>
        <time>2013-10-15T20:14:59.275Z</time>
      </trkpt>
      <trkpt lat="48.85078" lon="2.31237">
        <ele>74</ele>
        <time>2013-10-15T20:15:00.290Z</time>
      </trkpt>
      <trkpt lat="48.85083" lon="2.31238">
        <ele>74</ele>
        <time>2013-10-15T20:15:01.275Z</time>
      </trkpt>
      <trkpt lat="48.85088" lon="2.31238">
        <ele>73</ele>
        <time>2013-10-15T20:15:02.303Z</time>
      </trkpt>
      <trkpt lat="48.85093" lon="2.31239">
        <ele>73</ele>
        <time>2013-10-15T20:15:03.276Z</time>
      </trkpt>
      <trkpt lat="48.85098" lon="2.31241">
        <ele>74</ele>
        <time>2013-10-15T20:15:04.271Z</time>
      </trkpt>
      <trkpt lat="48.85103" lon="2.31242">
        <ele>74</ele>
        <time>2013-10-15T20:15:05.270Z</time>
      </trkpt>
      <trkpt lat="48.85108" lon="2.31244">
        <ele>72</ele>
        <time>2013-10-15T20:15:06.221Z</time>
      </trkpt>
      <trkpt lat="48.85113" lon="2.31245">
        <ele>76</ele>
        <time>2013-10-15T20:15:07.271Z</time>
      </trkpt>
      <trkpt lat="48.85119" lon="2.31247">
        <ele>76</ele>
        <time>2013-10-15T20:15:08.267Z</time>
      </trkpt>
      <trkpt lat="48.85123" lon="2.31248">
        <ele>76</ele>
        <time>2013-10-15T20:15:09.229Z</time>
      </trkpt>
      <trkpt lat="48.85128" lon="2.31249">
        <ele>77</ele>
        <time>2013-10-15T20:15:10.271Z</time>
      </trkpt>
      <trkpt lat="48.85132" lon="2.3125">
        <ele>77</ele>
        <time>2013-10-15T20:15:11.267Z</time>
      </trkpt>
      <trkpt lat="48.85137" lon="2.31252">
        <ele>75</ele>
        <time>2013-10-15T20:15:12.271Z</time>
      </trkpt>
      <trkpt lat="48.85145" lon="2.31254">
        <ele>75</ele>
        <time>2013-10-15T20:15:14.275Z</time>
      </trkpt>
      <trkpt lat="48.8515" lon="2.31255">
        <ele>77</ele>
        <time>2013-10-15T20:15:15.274Z</time>
      </trkpt>
      <trkpt lat="48.85154" lon="2.31257">
        <ele>79</ele>
        <time>2013-10-15T20:15:16.275Z</time>
      </trkpt>
      <trkpt lat="48.85159" lon="2.31258">
        <ele>75</ele>
        <time>2013-10-15T20:15:17.232Z</time>
      </trkpt>
      <trkpt lat="48.85167" lon="2.31259">
        <ele>75</ele>
        <time>2013-10-15T20:15:19.273Z</time>
      </trkpt>
      <trkpt lat="48.85171" lon="2.3126">
        <ele>78</ele>
        <time>2013-10-15T20:15:20.271Z</time>
      </trkpt>
      <trkpt lat="48.8518" lon="2.31261">
        <ele>80</ele>
        <time>2013-10-15T20:15:22.272Z</time>
      </trkpt>
      <trkpt lat="48.85185" lon="2.31262">
        <ele>79</ele>
        <time>2013-10-15T20:15:23.271Z</time>
      </trkpt>
      <trkpt lat="48.85189" lon="2.31263">
        <ele>80</ele>
        <time>2013-10-15T20:15:24.271Z</time>
      </trkpt>
      <trkpt lat="48.85194" lon="2.31264">
        <ele>79</ele>
        <time>2013-10-15T20:15:25.272Z</time>
      </trkpt>
      <trkpt lat="48.85198" lon="2.31264">
        <ele>81</ele>
        <time>2013-10-15T20:15:26.270Z</time>
      </trkpt>
      <trkpt lat="48.85203" lon="2.31265">
        <ele>80</ele>
        <time>2013-10-15T20:15:27.268Z</time>
      </trkpt>
      <trkpt lat="48.85212" lon="2.31265">
        <ele>76</ele>
        <time>2013-10-15T20:15:29.270Z</time>
      </trkpt>
      <trkpt lat="48.85216" lon="2.31264">
        <ele>77</ele>
        <time>2013-10-15T20:15:30.267Z</time>
      </trkpt>
      <trkpt lat="48.85224" lon="2.3126">
        <ele>73</ele>
        <time>2013-10-15T20:15:32.272Z</time>
      </trkpt>
      <trkpt lat="48.85229" lon="2.31259">
        <ele>76</ele>
        <time>2013-10-15T20:15:33.271Z</time>
      </trkpt>
      <trkpt lat="48.85235" lon="2.31258">
        <ele>73</ele>
        <time>2013-10-15T20:15:34.271Z</time>
      </trkpt>
      <trkpt lat="48.8524" lon="2.31258">
        <ele>76</ele>
        <time>2013-10-15T20:15:35.271Z</time>
      </trkpt>
      <trkpt lat="48.85245" lon="2.31257">
        <ele>76</ele>
        <time>2013-10-15T20:15:36.271Z</time>
      </trkpt>
      <trkpt lat="48.8525" lon="2.31257">
        <ele>78</ele>
        <time>2013-10-15T20:15:37.268Z</time>
      </trkpt>
      <trkpt lat="48.85255" lon="2.31256">
        <ele>78</ele>
        <time>2013-10-15T20:15:38.272Z</time>
      </trkpt>
      <trkpt lat="48.8526" lon="2.31256">
        <ele>78</ele>
        <time>2013-10-15T20:15:39.274Z</time>
      </trkpt>
      <trkpt lat="48.85268" lon="2.31256">
        <ele>76</ele>
        <time>2013-10-15T20:15:41.268Z</time>
      </trkpt>
      <trkpt lat="48.85273" lon="2.31256">
        <ele>79</ele>
        <time>2013-10-15T20:15:42.271Z</time>
      </trkpt>
      <trkpt lat="48.85278" lon="2.31256">
        <ele>85</ele>
        <time>2013-10-15T20:15:43.271Z</time>
      </trkpt>
      <trkpt lat="48.85282" lon="2.31256">
        <ele>82</ele>
        <time>2013-10-15T20:15:44.271Z</time>
      </trkpt>
      <trkpt lat="48.85287" lon="2.31256">
        <ele>81</ele>
        <time>2013-10-15T20:15:45.272Z</time>
      </trkpt>
      <trkpt lat="48.85292" lon="2.31256">
        <ele>80</ele>
        <time>2013-10-15T20:15:46.224Z</time>
      </trkpt>
      <trkpt lat="48.85297" lon="2.31257">
        <ele>83</ele>
        <time>2013-10-15T20:15:47.253Z</time>
      </trkpt>
      <trkpt lat="48.85302" lon="2.31258">
        <ele>81</ele>
        <time>2013-10-15T20:15:48.272Z</time>
      </trkpt>
      <trkpt lat="48.8531" lon="2.3126">
        <ele>87</ele>
        <time>2013-10-15T20:15:50.267Z</time>
      </trkpt>
      <trkpt lat="48.85313" lon="2.31261">
        <ele>87</ele>
        <time>2013-10-15T20:15:51.271Z</time>
      </trkpt>
      <trkpt lat="48.85318" lon="2.31268">
        <ele>89</ele>
        <time>2013-10-15T20:16:01.271Z</time>
      </trkpt>
      <trkpt lat="48.85318" lon="2.31267">
        <ele>88</ele>
        <time>2013-10-15T20:16:02.269Z</time>
      </trkpt>
      <trkpt lat="48.85318" lon="2.31267">
        <ele>90</ele>
        <time>2013-10-15T20:16:04.279Z</time>
      </trkpt>
      <trkpt lat="48.85317" lon="2.31267">
        <ele>89</ele>
        <time>2013-10-15T20:16:05.278Z</time>
      </trkpt>
      <trkpt lat="48.85319" lon="2.31275">
        <ele>86</ele>
        <time>2013-10-15T20:16:09.274Z</time>
      </trkpt>
      <trkpt lat="48.85322" lon="2.31279">
        <ele>81</ele>
        <time>2013-10-15T20:16:10.231Z</time>
      </trkpt>
      <trkpt lat="48.85326" lon="2.31283">
        <ele>78</ele>
        <time>2013-10-15T20:16:11.280Z</time>
      </trkpt>
      <trkpt lat="48.8533" lon="2.31287">
        <ele>76</ele>
        <time>2013-10-15T20:16:12.278Z</time>
      </trkpt>
      <trkpt lat="48.85337" lon="2.31292">
        <ele>77</ele>
        <time>2013-10-15T20:16:14.282Z</time>
      </trkpt>
      <trkpt lat="48.8534" lon="2.31294">
        <ele>75</ele>
        <time>2013-10-15T20:16:15.230Z</time>
      </trkpt>
      <trkpt lat="48.85348" lon="2.31296">
        <ele>75</ele>
        <time>2013-10-15T20:16:19.249Z</time>
      </trkpt>
      <trkpt lat="48.8535" lon="2.31296">
        <ele>76</ele>
        <time>2013-10-15T20:16:20.256Z</time>
      </trkpt>
      <trkpt lat="48.85358" lon="2.31298">
        <ele>77</ele>
        <time>2013-10-15T20:16:24.255Z</time>
      </trkpt>
      <trkpt lat="48.8536" lon="2.31298">
        <ele>76</ele>
        <time>2013-10-15T20:16:25.264Z</time>
      </trkpt>
      <trkpt lat="48.85367" lon="2.31293">
        <ele>78</ele>
        <time>2013-10-15T20:16:29.262Z</time>
      </trkpt>
      <trkpt lat="48.85369" lon="2.31291">
        <ele>76</ele>
        <time>2013-10-15T20:16:30.259Z</time>
      </trkpt>
      <trkpt lat="48.85376" lon="2.31288">
        <ele>75</ele>
        <time>2013-10-15T20:16:33.265Z</time>
      </trkpt>
      <trkpt lat="48.85379" lon="2.31287">
        <ele>73</ele>
        <time>2013-10-15T20:16:34.260Z</time>
      </trkpt>
      <trkpt lat="48.85386" lon="2.31282">
        <ele>76</ele>
        <time>2013-10-15T20:16:36.258Z</time>
      </trkpt>
      <trkpt lat="48.85389" lon="2.31278">
        <ele>76</ele>
        <time>2013-10-15T20:16:37.263Z</time>
      </trkpt>
      <trkpt lat="48.85393" lon="2.31268">
        <ele>77</ele>
        <time>2013-10-15T20:16:39.248Z</time>
      </trkpt>
      <trkpt lat="48.85395" lon="2.31263">
        <ele>77</ele>
        <time>2013-10-15T20:16:40.263Z</time>
      </trkpt>
      <trkpt lat="48.85396" lon="2.31252">
        <ele>77</ele>
        <time>2013-10-15T20:16:42.267Z</time>
      </trkpt>
      <trkpt lat="48.85396" lon="2.31246">
        <ele>77</ele>
        <time>2013-10-15T20:16:43.264Z</time>
      </trkpt>
      <trkpt lat="48.85396" lon="2.31234">
        <ele>75</ele>
        <time>2013-10-15T20:16:45.263Z</time>
      </trkpt>
      <trkpt lat="48.85396" lon="2.31229">
        <ele>76</ele>
        <time>2013-10-15T20:16:46.257Z</time>
      </trkpt>
      <trkpt lat="48.85396" lon="2.3122">
        <ele>76</ele>
        <time>2013-10-15T20:16:48.288Z</time>
      </trkpt>
      <trkpt lat="48.85396" lon="2.31215">
        <ele>74</ele>
        <time>2013-10-15T20:16:49.264Z</time>
      </trkpt>
      <trkpt lat="48.85397" lon="2.31204">
        <ele>77</ele>
        <time>2013-10-15T20:16:51.269Z</time>
      </trkpt>
      <trkpt lat="48.85397" lon="2.31199">
        <ele>75</ele>
        <time>2013-10-15T20:16:52.252Z</time>
      </trkpt>
      <trkpt lat="48.85399" lon="2.3119">
        <ele>79</ele>
        <time>2013-10-15T20:16:54.251Z</time>
      </trkpt>
      <trkpt lat="48.85399" lon="2.31185">
        <ele>77</ele>
        <time>2013-10-15T20:16:55.264Z</time>
      </trkpt>
      <trkpt lat="48.85399" lon="2.31174">
        <ele>75</ele>
        <time>2013-10-15T20:16:57.261Z</time>
      </trkpt>
      <trkpt lat="48.85398" lon="2.31169">
        <ele>75</ele>
        <time>2013-10-15T20:16:58.252Z</time>
      </trkpt>
      <trkpt lat="48.85397" lon="2.31157">
        <ele>74</ele>
        <time>2013-10-15T20:17:00.202Z</time>
      </trkpt>
      <trkpt lat="48.85396" lon="2.3115">
        <ele>74</ele>
        <time>2013-10-15T20:17:01.249Z</time>
      </trkpt>
      <trkpt lat="48.85397" lon="2.31137">
        <ele>73</ele>
        <time>2013-10-15T20:17:03.263Z</time>
      </trkpt>
      <trkpt lat="48.85397" lon="2.3113">
        <ele>74</ele>
        <time>2013-10-15T20:17:04.273Z</time>
      </trkpt>
      <trkpt lat="48.85398" lon="2.31123">
        <ele>74</ele>
        <time>2013-10-15T20:17:05.253Z</time>
      </trkpt>
      <trkpt lat="48.85398" lon="2.31116">
        <ele>75</ele>
        <time>2013-10-15T20:17:06.235Z</time>
      </trkpt>
      <trkpt lat="48.85398" lon="2.31109">
        <ele>76</ele>
        <time>2013-10-15T20:17:07.267Z</time>
      </trkpt>
      <trkpt lat="48.85399" lon="2.31102">
        <ele>77</ele>
        <time>2013-10-15T20:17:08.272Z</time>
      </trkpt>
      <trkpt lat="48.85399" lon="2.3109">
        <ele>77</ele>
        <time>2013-10-15T20:17:10.262Z</time>
      </trkpt>
      <trkpt lat="48.85399" lon="2.31084">
        <ele>77</ele>
        <time>2013-10-15T20:17:11.239Z</time>
      </trkpt>
      <trkpt lat="48.854" lon="2.31072">
        <ele>76</ele>
        <time>2013-10-15T20:17:13.263Z</time>
      </trkpt>
      <trkpt lat="48.854" lon="2.31066">
        <ele>74</ele>
        <time>2013-10-15T20:17:14.292Z</time>
      </trkpt>
      <trkpt lat="48.85402" lon="2.31053">
        <ele>69</ele>
        <time>2013-10-15T20:17:16.266Z</time>
      </trkpt>
      <trkpt lat="48.85403" lon="2.31046">
        <ele>69</ele>
        <time>2013-10-15T20:17:17.267Z</time>
      </trkpt>
      <trkpt lat="48.85404" lon="2.31034">
        <ele>69</ele>
        <time>2013-10-15T20:17:19.230Z</time>
      </trkpt>
      <trkpt lat="48.85405" lon="2.31028">
        <ele>69</ele>
        <time>2013-10-15T20:17:20.258Z</time>
      </trkpt>
      <trkpt lat="48.85405" lon="2.31016">
        <ele>69</ele>
        <time>2013-10-15T20:17:22.259Z</time>
      </trkpt>
      <trkpt lat="48.85406" lon="2.3101">
        <ele>68</ele>
        <time>2013-10-15T20:17:23.263Z</time>
      </trkpt>
      <trkpt lat="48.85407" lon="2.30997">
        <ele>67</ele>
        <time>2013-10-15T20:17:25.248Z</time>
      </trkpt>
      <trkpt lat="48.85408" lon="2.30991">
        <ele>67</ele>
        <time>2013-10-15T20:17:26.267Z</time>
      </trkpt>
      <trkpt lat="48.85411" lon="2.30979">
        <ele>68</ele>
        <time>2013-10-15T20:17:28.258Z</time>
      </trkpt>
      <trkpt lat="48.85414" lon="2.30975">
        <ele>69</ele>
        <time>2013-10-15T20:17:29.256Z</time>
      </trkpt>
      <trkpt lat="48.85421" lon="2.30968">
        <ele>68</ele>
        <time>2013-10-15T20:17:31.278Z</time>
      </trkpt>
      <trkpt lat="48.85425" lon="2.30966">
        <ele>69</ele>
        <time>2013-10-15T20:17:32.320Z</time>
      </trkpt>
      <trkpt lat="48.85434" lon="2.30967">
        <ele>75</ele>
        <time>2013-10-15T20:17:34.252Z</time>
      </trkpt>
      <trkpt lat="48.85439" lon="2.30968">
        <ele>72</ele>
        <time>2013-10-15T20:17:35.267Z</time>
      </trkpt>
      <trkpt lat="48.85443" lon="2.3097">
        <ele>74</ele>
        <time>2013-10-15T20:17:36.271Z</time>
      </trkpt>
      <trkpt lat="48.85448" lon="2.30971">
        <ele>72</ele>
        <time>2013-10-15T20:17:37.280Z</time>
      </trkpt>
      <trkpt lat="48.85453" lon="2.30972">
        <ele>74</ele>
        <time>2013-10-15T20:17:38.272Z</time>
      </trkpt>
      <trkpt lat="48.85457" lon="2.30973">
        <ele>76</ele>
        <time>2013-10-15T20:17:39.275Z</time>
      </trkpt>
      <trkpt lat="48.85462" lon="2.30973">
        <ele>76</ele>
        <time>2013-10-15T20:17:40.267Z</time>
      </trkpt>
      <trkpt lat="48.85466" lon="2.30972">
        <ele>75</ele>
        <time>2013-10-15T20:17:41.250Z</time>
      </trkpt>
      <trkpt lat="48.85471" lon="2.30972">
        <ele>76</ele>
        <time>2013-10-15T20:17:42.271Z</time>
      </trkpt>
      <trkpt lat="48.85476" lon="2.30972">
        <ele>75</ele>
        <time>2013-10-15T20:17:43.278Z</time>
      </trkpt>
      <trkpt lat="48.8548" lon="2.30972">
        <ele>77</ele>
        <time>2013-10-15T20:17:44.272Z</time>
      </trkpt>
      <trkpt lat="48.85485" lon="2.30973">
        <ele>74</ele>
        <time>2013-10-15T20:17:45.262Z</time>
      </trkpt>
      <trkpt lat="48.85489" lon="2.30974">
        <ele>71</ele>
        <time>2013-10-15T20:17:46.218Z</time>
      </trkpt>
      <trkpt lat="48.85494" lon="2.30975">
        <ele>73</ele>
        <time>2013-10-15T20:17:47.279Z</time>
      </trkpt>
      <trkpt lat="48.85499" lon="2.30976">
        <ele>75</ele>
        <time>2013-10-15T20:17:48.273Z</time>
      </trkpt>
      <trkpt lat="48.85504" lon="2.30977">
        <ele>77</ele>
        <time>2013-10-15T20:17:49.302Z</time>
      </trkpt>
      <trkpt lat="48.85509" lon="2.30977">
        <ele>76</ele>
        <time>2013-10-15T20:17:50.274Z</time>
      </trkpt>
      <trkpt lat="48.85514" lon="2.30977">
        <ele>77</ele>
        <time>2013-10-15T20:17:51.273Z</time>
      </trkpt>
      <trkpt lat="48.85519" lon="2.30978">
        <ele>76</ele>
        <time>2013-10-15T20:17:52.273Z</time>
      </trkpt>
      <trkpt lat="48.85524" lon="2.30978">
        <ele>74</ele>
        <time>2013-10-15T20:17:53.271Z</time>
      </trkpt>
      <trkpt lat="48.85529" lon="2.30978">
        <ele>76</ele>
        <time>2013-10-15T20:17:54.267Z</time>
      </trkpt>
      <trkpt lat="48.85534" lon="2.30978">
        <ele>78</ele>
        <time>2013-10-15T20:17:55.243Z</time>
      </trkpt>
      <trkpt lat="48.85538" lon="2.30979">
        <ele>77</ele>
        <time>2013-10-15T20:17:56.267Z</time>
      </trkpt>
      <trkpt lat="48.85543" lon="2.3098">
        <ele>79</ele>
        <time>2013-10-15T20:17:57.268Z</time>
      </trkpt>
      <trkpt lat="48.85548" lon="2.30981">
        <ele>77</ele>
        <time>2013-10-15T20:17:58.274Z</time>
      </trkpt>
      <trkpt lat="48.85552" lon="2.30981">
        <ele>79</ele>
        <time>2013-10-15T20:17:59.279Z</time>
      </trkpt>
      <trkpt lat="48.85557" lon="2.30982">
        <ele>78</ele>
        <time>2013-10-15T20:18:00.281Z</time>
      </trkpt>
      <trkpt lat="48.85562" lon="2.30982">
        <ele>81</ele>
        <time>2013-10-15T20:18:01.208Z</time>
      </trkpt>
      <trkpt lat="48.85566" lon="2.30983">
        <ele>84</ele>
        <time>2013-10-15T20:18:02.271Z</time>
      </trkpt>
      <trkpt lat="48.85571" lon="2.30983">
        <ele>81</ele>
        <time>2013-10-15T20:18:03.273Z</time>
      </trkpt>
      <trkpt lat="48.85576" lon="2.30983">
        <ele>81</ele>
        <time>2013-10-15T20:18:04.280Z</time>
      </trkpt>
      <trkpt lat="48.85581" lon="2.30984">
        <ele>83</ele>
        <time>2013-10-15T20:18:05.273Z</time>
      </trkpt>
      <trkpt lat="48.85586" lon="2.30984">
        <ele>85</ele>
        <time>2013-10-15T20:18:06.275Z</time>
      </trkpt>
      <trkpt lat="48.85591" lon="2.30985">
        <ele>87</ele>
        <time>2013-10-15T20:18:07.275Z</time>
      </trkpt>
      <trkpt lat="48.85596" lon="2.30986">
        <ele>86</ele>
        <time>2013-10-15T20:18:08.267Z</time>
      </trkpt>
      <trkpt lat="48.856" lon="2.30987">
        <ele>85</ele>
        <time>2013-10-15T20:18:09.308Z</time>
      </trkpt>
      <trkpt lat="48.85608" lon="2.30988">
        <ele>78</ele>
        <time>2013-10-15T20:18:11.271Z</time>
      </trkpt>
      <trkpt lat="48.85611" lon="2.30989">
        <ele>76</ele>
        <time>2013-10-15T20:18:12.209Z</time>
      </trkpt>
      <trkpt lat="48.85619" lon="2.3099">
        <ele>74</ele>
        <time>2013-10-15T20:18:14.275Z</time>
      </trkpt>
      <trkpt lat="48.85623" lon="2.3099">
        <ele>75</ele>
        <time>2013-10-15T20:18:15.272Z</time>
      </trkpt>
      <trkpt lat="48.85631" lon="2.30989">
        <ele>77</ele>
        <time>2013-10-15T20:18:17.272Z</time>
      </trkpt>
      <trkpt lat="48.85635" lon="2.30989">
        <ele>78</ele>
        <time>2013-10-15T20:18:18.268Z</time>
      </trkpt>
      <trkpt lat="48.85643" lon="2.30988">
        <ele>78</ele>
        <time>2013-10-15T20:18:20.210Z</time>
      </trkpt>
      <trkpt lat="48.85648" lon="2.30988">
        <ele>81</ele>
        <time>2013-10-15T20:18:21.267Z</time>
      </trkpt>
      <trkpt lat="48.85656" lon="2.30989">
        <ele>79</ele>
        <time>2013-10-15T20:18:23.268Z</time>
      </trkpt>
      <trkpt lat="48.8566" lon="2.30991">
        <ele>78</ele>
        <time>2013-10-15T20:18:24.268Z</time>
      </trkpt>
      <trkpt lat="48.85667" lon="2.30993">
        <ele>80</ele>
        <time>2013-10-15T20:18:26.215Z</time>
      </trkpt>
      <trkpt lat="48.8567" lon="2.30994">
        <ele>79</ele>
        <time>2013-10-15T20:18:27.276Z</time>
      </trkpt>
      <trkpt lat="48.85678" lon="2.30996">
        <ele>78</ele>
        <time>2013-10-15T20:18:29.276Z</time>
      </trkpt>
      <trkpt lat="48.85681" lon="2.30997">
        <ele>81</ele>
        <time>2013-10-15T20:18:30.271Z</time>
      </trkpt>
      <trkpt lat="48.85689" lon="2.30999">
        <ele>78</ele>
        <time>2013-10-15T20:18:32.271Z</time>
      </trkpt>
      <trkpt lat="48.85693" lon="2.31001">
        <ele>76</ele>
        <time>2013-10-15T20:18:33.267Z</time>
      </trkpt>
      <trkpt lat="48.85701" lon="2.31003">
        <ele>74</ele>
        <time>2013-10-15T20:18:35.271Z</time>
      </trkpt>
      <trkpt lat="48.85704" lon="2.31004">
        <ele>76</ele>
        <time>2013-10-15T20:18:36.253Z</time>
      </trkpt>
      <trkpt lat="48.85712" lon="2.31005">
        <ele>75</ele>
        <time>2013-10-15T20:18:38.265Z</time>
      </trkpt>
      <trkpt lat="48.85716" lon="2.31005">
        <ele>72</ele>
        <time>2013-10-15T20:18:39.270Z</time>
      </trkpt>
      <trkpt lat="48.85721" lon="2.31006">
        <ele>73</ele>
        <time>2013-10-15T20:18:40.267Z</time>
      </trkpt>
      <trkpt lat="48.85725" lon="2.31008">
        <ele>72</ele>
        <time>2013-10-15T20:18:41.267Z</time>
      </trkpt>
      <trkpt lat="48.85733" lon="2.31012">
        <ele>71</ele>
        <time>2013-10-15T20:18:43.263Z</time>
      </trkpt>
      <trkpt lat="48.85737" lon="2.31014">
        <ele>72</ele>
        <time>2013-10-15T20:18:44.269Z</time>
      </trkpt>
      <trkpt lat="48.85743" lon="2.3102">
        <ele>73</ele>
        <time>2013-10-15T20:18:46.270Z</time>
      </trkpt>
      <trkpt lat="48.85746" lon="2.31023">
        <ele>72</ele>
        <time>2013-10-15T20:18:47.269Z</time>
      </trkpt>
      <trkpt lat="48.85752" lon="2.31031">
        <ele>70</ele>
        <time>2013-10-15T20:18:49.268Z</time>
      </trkpt>
      <trkpt lat="48.85755" lon="2.31036">
        <ele>74</ele>
        <time>2013-10-15T20:18:50.292Z</time>
      </trkpt>
      <trkpt lat="48.8576" lon="2.31045">
        <ele>70</ele>
        <time>2013-10-15T20:18:52.267Z</time>
      </trkpt>
      <trkpt lat="48.85762" lon="2.3105">
        <ele>72</ele>
        <time>2013-10-15T20:18:53.268Z</time>
      </trkpt>
      <trkpt lat="48.85767" lon="2.31061">
        <ele>68</ele>
        <time>2013-10-15T20:18:55.264Z</time>
      </trkpt>
      <trkpt lat="48.85769" lon="2.31066">
        <ele>67</ele>
        <time>2013-10-15T20:18:56.227Z</time>
      </trkpt>
      <trkpt lat="48.85773" lon="2.31077">
        <ele>64</ele>
        <time>2013-10-15T20:18:58.274Z</time>
      </trkpt>
      <trkpt lat="48.85776" lon="2.31082">
        <ele>67</ele>
        <time>2013-10-15T20:18:59.271Z</time>
      </trkpt>
      <trkpt lat="48.85781" lon="2.31092">
        <ele>70</ele>
        <time>2013-10-15T20:19:01.267Z</time>
      </trkpt>
      <trkpt lat="48.85784" lon="2.31096">
        <ele>70</ele>
        <time>2013-10-15T20:19:02.212Z</time>
      </trkpt>
      <trkpt lat="48.85789" lon="2.31104">
        <ele>68</ele>
        <time>2013-10-15T20:19:04.271Z</time>
      </trkpt>
      <trkpt lat="48.85791" lon="2.31108">
        <ele>67</ele>
        <time>2013-10-15T20:19:05.274Z</time>
      </trkpt>
      <trkpt lat="48.85798" lon="2.31114">
        <ele>70</ele>
        <time>2013-10-15T20:19:07.275Z</time>
      </trkpt>
      <trkpt lat="48.85801" lon="2.31117">
        <ele>69</ele>
        <time>2013-10-15T20:19:08.275Z</time>
      </trkpt>
      <trkpt lat="48.85808" lon="2.31124">
        <ele>72</ele>
        <time>2013-10-15T20:19:10.272Z</time>
      </trkpt>
      <trkpt lat="48.85811" lon="2.31128">
        <ele>76</ele>
        <time>2013-10-15T20:19:11.293Z</time>
      </trkpt>
      <trkpt lat="48.85818" lon="2.31135">
        <ele>82</ele>
        <time>2013-10-15T20:19:13.214Z</time>
      </trkpt>
      <trkpt lat="48.8582" lon="2.31138">
        <ele>80</ele>
        <time>2013-10-15T20:19:14.276Z</time>
      </trkpt>
      <trkpt lat="48.85828" lon="2.31144">
        <ele>83</ele>
        <time>2013-10-15T20:19:17.267Z</time>
      </trkpt>
      <trkpt lat="48.85829" lon="2.31147">
        <ele>82</ele>
        <time>2013-10-15T20:19:18.274Z</time>
      </trkpt>
      <trkpt lat="48.85831" lon="2.31157">
        <ele>79</ele>
        <time>2013-10-15T20:19:21.216Z</time>
      </trkpt>
      <trkpt lat="48.85832" lon="2.31163">
        <ele>81</ele>
        <time>2013-10-15T20:19:22.280Z</time>
      </trkpt>
      <trkpt lat="48.85834" lon="2.31175">
        <ele>83</ele>
        <time>2013-10-15T20:19:24.276Z</time>
      </trkpt>
      <trkpt lat="48.85834" lon="2.31182">
        <ele>84</ele>
        <time>2013-10-15T20:19:25.276Z</time>
      </trkpt>
      <trkpt lat="48.85835" lon="2.31193">
        <ele>85</ele>
        <time>2013-10-15T20:19:27.282Z</time>
      </trkpt>
      <trkpt lat="48.85836" lon="2.31198">
        <ele>83</ele>
        <time>2013-10-15T20:19:28.283Z</time>
      </trkpt>
      <trkpt lat="48.85837" lon="2.31208">
        <ele>80</ele>
        <time>2013-10-15T20:19:30.277Z</time>
      </trkpt>
      <trkpt lat="48.85838" lon="2.31212">
        <ele>80</ele>
        <time>2013-10-15T20:19:31.278Z</time>
      </trkpt>
      <trkpt lat="48.85844" lon="2.31222">
        <ele>75</ele>
        <time>2013-10-15T20:19:34.260Z</time>
      </trkpt>
      <trkpt lat="48.85847" lon="2.31223">
        <ele>75</ele>
        <time>2013-10-15T20:19:35.279Z</time>
      </trkpt>
      <trkpt lat="48.85855" lon="2.31225">
        <ele>75</ele>
        <time>2013-10-15T20:19:38.279Z</time>
      </trkpt>
      <trkpt lat="48.85857" lon="2.31227">
        <ele>76</ele>
        <time>2013-10-15T20:19:39.406Z</time>
      </trkpt>
      <trkpt lat="48.85863" lon="2.31231">
        <ele>73</ele>
        <time>2013-10-15T20:19:41.282Z</time>
      </trkpt>
      <trkpt lat="48.85865" lon="2.31234">
        <ele>74</ele>
        <time>2013-10-15T20:19:42.286Z</time>
      </trkpt>
      <trkpt lat="48.85871" lon="2.31238">
        <ele>75</ele>
        <time>2013-10-15T20:19:44.278Z</time>
      </trkpt>
      <trkpt lat="48.85874" lon="2.31241">
        <ele>76</ele>
        <time>2013-10-15T20:19:45.287Z</time>
      </trkpt>
      <trkpt lat="48.85879" lon="2.31247">
        <ele>76</ele>
        <time>2013-10-15T20:19:47.281Z</time>
      </trkpt>
      <trkpt lat="48.85882" lon="2.31251">
        <ele>76</ele>
        <time>2013-10-15T20:19:48.282Z</time>
      </trkpt>
      <trkpt lat="48.85887" lon="2.3126">
        <ele>75</ele>
        <time>2013-10-15T20:19:50.280Z</time>
      </trkpt>
      <trkpt lat="48.85889" lon="2.31265">
        <ele>74</ele>
        <time>2013-10-15T20:19:51.346Z</time>
      </trkpt>
      <trkpt lat="48.85891" lon="2.31274">
        <ele>77</ele>
        <time>2013-10-15T20:19:53.286Z</time>
      </trkpt>
      <trkpt lat="48.85892" lon="2.31278">
        <ele>74</ele>
        <time>2013-10-15T20:19:54.321Z</time>
      </trkpt>
      <trkpt lat="48.85897" lon="2.31286">
        <ele>73</ele>
        <time>2013-10-15T20:19:57.271Z</time>
      </trkpt>
      <trkpt lat="48.859" lon="2.31287">
        <ele>71</ele>
        <time>2013-10-15T20:19:58.286Z</time>
      </trkpt>
      <trkpt lat="48.85906" lon="2.31287">
        <ele>69</ele>
        <time>2013-10-15T20:20:00.352Z</time>
      </trkpt>
      <trkpt lat="48.8591" lon="2.31286">
        <ele>68</ele>
        <time>2013-10-15T20:20:01.290Z</time>
      </trkpt>
      <trkpt lat="48.85918" lon="2.31286">
        <ele>71</ele>
        <time>2013-10-15T20:20:03.247Z</time>
      </trkpt>
      <trkpt lat="48.85922" lon="2.31287">
        <ele>71</ele>
        <time>2013-10-15T20:20:04.291Z</time>
      </trkpt>
      <trkpt lat="48.85931" lon="2.31287">
        <ele>70</ele>
        <time>2013-10-15T20:20:06.283Z</time>
      </trkpt>
      <trkpt lat="48.85935" lon="2.31286">
        <ele>71</ele>
        <time>2013-10-15T20:20:07.286Z</time>
      </trkpt>
      <trkpt lat="48.85943" lon="2.31286">
        <ele>76</ele>
        <time>2013-10-15T20:20:09.290Z</time>
      </trkpt>
      <trkpt lat="48.85947" lon="2.31286">
        <ele>77</ele>
        <time>2013-10-15T20:20:10.281Z</time>
      </trkpt>
      <trkpt lat="48.85954" lon="2.31286">
        <ele>75</ele>
        <time>2013-10-15T20:20:12.286Z</time>
      </trkpt>
      <trkpt lat="48.85958" lon="2.31286">
        <ele>73</ele>
        <time>2013-10-15T20:20:13.284Z</time>
      </trkpt>
      <trkpt lat="48.85964" lon="2.31286">
        <ele>78</ele>
        <time>2013-10-15T20:20:15.291Z</time>
      </trkpt>
      <trkpt lat="48.85967" lon="2.31287">
        <ele>73</ele>
        <time>2013-10-15T20:20:16.290Z</time>
      </trkpt>
      <trkpt lat="48.85973" lon="2.31289">
        <ele>71</ele>
        <time>2013-10-15T20:20:18.284Z</time>
      </trkpt>
      <trkpt lat="48.85976" lon="2.3129">
        <ele>70</ele>
        <time>2013-10-15T20:20:19.291Z</time>
      </trkpt>
      <trkpt lat="48.85983" lon="2.31289">
        <ele>67</ele>
        <time>2013-10-15T20:20:22.247Z</time>
      </trkpt>
      <trkpt lat="48.85986" lon="2.31288">
        <ele>68</ele>
        <time>2013-10-15T20:20:23.292Z</time>
      </trkpt>
      <trkpt lat="48.85994" lon="2.31286">
        <ele>70</ele>
        <time>2013-10-15T20:20:26.229Z</time>
      </trkpt>
      <trkpt lat="48.85998" lon="2.31285">
        <ele>70</ele>
        <time>2013-10-15T20:20:27.294Z</time>
      </trkpt>
      <trkpt lat="48.86004" lon="2.31285">
        <ele>71</ele>
        <time>2013-10-15T20:20:29.288Z</time>
      </trkpt>
      <trkpt lat="48.86008" lon="2.31286">
        <ele>72</ele>
        <time>2013-10-15T20:20:30.282Z</time>
      </trkpt>
      <trkpt lat="48.86015" lon="2.3129">
        <ele>71</ele>
        <time>2013-10-15T20:20:32.294Z</time>
      </trkpt>
      <trkpt lat="48.86019" lon="2.31292">
        <ele>69</ele>
        <time>2013-10-15T20:20:33.284Z</time>
      </trkpt>
      <trkpt lat="48.86027" lon="2.31295">
        <ele>69</ele>
        <time>2013-10-15T20:20:35.294Z</time>
      </trkpt>
      <trkpt lat="48.86031" lon="2.31296">
        <ele>68</ele>
        <time>2013-10-15T20:20:36.286Z</time>
      </trkpt>
      <trkpt lat="48.86039" lon="2.31296">
        <ele>66</ele>
        <time>2013-10-15T20:20:38.287Z</time>
      </trkpt>
      <trkpt lat="48.86043" lon="2.31297">
        <ele>66</ele>
        <time>2013-10-15T20:20:39.289Z</time>
      </trkpt>
      <trkpt lat="48.86051" lon="2.31297">
        <ele>65</ele>
        <time>2013-10-15T20:20:41.294Z</time>
      </trkpt>
      <trkpt lat="48.86056" lon="2.31298">
        <ele>66</ele>
        <time>2013-10-15T20:20:42.288Z</time>
      </trkpt>
      <trkpt lat="48.86064" lon="2.31299">
        <ele>68</ele>
        <time>2013-10-15T20:20:44.357Z</time>
      </trkpt>
      <trkpt lat="48.86067" lon="2.313">
        <ele>69</ele>
        <time>2013-10-15T20:20:45.288Z</time>
      </trkpt>
      <trkpt lat="48.86075" lon="2.31301">
        <ele>68</ele>
        <time>2013-10-15T20:20:47.296Z</time>
      </trkpt>
      <trkpt lat="48.86078" lon="2.31301">
        <ele>68</ele>
        <time>2013-10-15T20:20:48.288Z</time>
      </trkpt>
      <trkpt lat="48.86085" lon="2.31303">
        <ele>69</ele>
        <time>2013-10-15T20:20:50.288Z</time>
      </trkpt>
      <trkpt lat="48.86088" lon="2.31303">
        <ele>71</ele>
        <time>2013-10-15T20:20:51.296Z</time>
      </trkpt>
      <trkpt lat="48.86094" lon="2.31304">
        <ele>73</ele>
        <time>2013-10-15T20:20:53.290Z</time>
      </trkpt>
      <trkpt lat="48.86097" lon="2.31303">
        <ele>71</ele>
        <time>2013-10-15T20:20:54.287Z</time>
      </trkpt>
      <trkpt lat="48.86104" lon="2.31302">
        <ele>70</ele>
        <time>2013-10-15T20:20:56.295Z</time>
      </trkpt>
      <trkpt lat="48.86108" lon="2.31302">
        <ele>71</ele>
        <time>2013-10-15T20:20:57.288Z</time>
      </trkpt>
      <trkpt lat="48.86116" lon="2.31305">
        <ele>70</ele>
        <time>2013-10-15T20:21:00.289Z</time>
      </trkpt>
      <trkpt lat="48.86118" lon="2.31306">
        <ele>71</ele>
        <time>2013-10-15T20:21:01.290Z</time>
      </trkpt>
      <trkpt lat="48.86126" lon="2.3131">
        <ele>70</ele>
        <time>2013-10-15T20:21:04.249Z</time>
      </trkpt>
      <trkpt lat="48.86129" lon="2.31311">
        <ele>68</ele>
        <time>2013-10-15T20:21:05.292Z</time>
      </trkpt>
      <trkpt lat="48.86136" lon="2.31312">
        <ele>71</ele>
        <time>2013-10-15T20:21:07.291Z</time>
      </trkpt>
      <trkpt lat="48.86141" lon="2.31312">
        <ele>69</ele>
        <time>2013-10-15T20:21:08.291Z</time>
      </trkpt>
      <trkpt lat="48.86149" lon="2.31313">
        <ele>69</ele>
        <time>2013-10-15T20:21:10.296Z</time>
      </trkpt>
      <trkpt lat="48.86153" lon="2.31313">
        <ele>69</ele>
        <time>2013-10-15T20:21:11.294Z</time>
      </trkpt>
      <trkpt lat="48.86162" lon="2.31313">
        <ele>70</ele>
        <time>2013-10-15T20:21:13.295Z</time>
      </trkpt>
      <trkpt lat="48.86165" lon="2.31313">
        <ele>71</ele>
        <time>2013-10-15T20:21:14.254Z</time>
      </trkpt>
      <trkpt lat="48.86172" lon="2.31314">
        <ele>69</ele>
        <time>2013-10-15T20:21:16.298Z</time>
      </trkpt>
      <trkpt lat="48.86176" lon="2.31315">
        <ele>69</ele>
        <time>2013-10-15T20:21:17.294Z</time>
      </trkpt>
      <trkpt lat="48.86183" lon="2.31316">
        <ele>72</ele>
        <time>2013-10-15T20:21:19.228Z</time>
      </trkpt>
      <trkpt lat="48.86187" lon="2.31317">
        <ele>72</ele>
        <time>2013-10-15T20:21:20.294Z</time>
      </trkpt>
      <trkpt lat="48.86195" lon="2.31319">
        <ele>69</ele>
        <time>2013-10-15T20:21:22.292Z</time>
      </trkpt>
      <trkpt lat="48.86199" lon="2.3132">
        <ele>71</ele>
        <time>2013-10-15T20:21:23.263Z</time>
      </trkpt>
      <trkpt lat="48.86206" lon="2.31321">
        <ele>73</ele>
        <time>2013-10-15T20:21:25.293Z</time>
      </trkpt>
      <trkpt lat="48.8621" lon="2.31321">
        <ele>71</ele>
        <time>2013-10-15T20:21:26.292Z</time>
      </trkpt>
      <trkpt lat="48.86217" lon="2.31321">
        <ele>73</ele>
        <time>2013-10-15T20:21:28.298Z</time>
      </trkpt>
      <trkpt lat="48.86221" lon="2.3132">
        <ele>73</ele>
        <time>2013-10-15T20:21:29.292Z</time>
      </trkpt>
      <trkpt lat="48.86229" lon="2.3132">
        <ele>76</ele>
        <time>2013-10-15T20:21:32.254Z</time>
      </trkpt>
      <trkpt lat="48.86232" lon="2.3132">
        <ele>75</ele>
        <time>2013-10-15T20:21:33.265Z</time>
      </trkpt>
      <trkpt lat="48.86239" lon="2.31321">
        <ele>73</ele>
        <time>2013-10-15T20:21:39.271Z</time>
      </trkpt>
      <trkpt lat="48.86241" lon="2.31321">
        <ele>73</ele>
        <time>2013-10-15T20:21:40.272Z</time>
      </trkpt>
      <trkpt lat="48.86249" lon="2.3132">
        <ele>73</ele>
        <time>2013-10-15T20:21:43.267Z</time>
      </trkpt>
      <trkpt lat="48.86252" lon="2.3132">
        <ele>72</ele>
        <time>2013-10-15T20:21:44.264Z</time>
      </trkpt>
      <trkpt lat="48.86261" lon="2.31319">
        <ele>74</ele>
        <time>2013-10-15T20:21:47.257Z</time>
      </trkpt>
      <trkpt lat="48.86263" lon="2.31319">
        <ele>72</ele>
        <time>2013-10-15T20:21:48.256Z</time>
      </trkpt>
      <trkpt lat="48.86271" lon="2.31317">
        <ele>73</ele>
        <time>2013-10-15T20:21:56.254Z</time>
      </trkpt>
      <trkpt lat="48.86272" lon="2.31317">
        <ele>72</ele>
        <time>2013-10-15T20:21:57.259Z</time>
      </trkpt>
      <trkpt lat="48.86279" lon="2.31318">
        <ele>76</ele>
        <time>2013-10-15T20:22:06.257Z</time>
      </trkpt>
      <trkpt lat="48.86281" lon="2.31319">
        <ele>74</ele>
        <time>2013-10-15T20:22:07.274Z</time>
      </trkpt>
      <trkpt lat="48.86288" lon="2.31322">
        <ele>74</ele>
        <time>2013-10-15T20:22:13.271Z</time>
      </trkpt>
      <trkpt lat="48.8629" lon="2.31323">
        <ele>75</ele>
        <time>2013-10-15T20:22:14.274Z</time>
      </trkpt>
      <trkpt lat="48.86297" lon="2.31324">
        <ele>74</ele>
        <time>2013-10-15T20:22:17.258Z</time>
      </trkpt>
      <trkpt lat="48.86299" lon="2.31325">
        <ele>74</ele>
        <time>2013-10-15T20:22:18.260Z</time>
      </trkpt>
      <trkpt lat="48.86307" lon="2.31325">
        <ele>72</ele>
        <time>2013-10-15T20:22:21.275Z</time>
      </trkpt>
      <trkpt lat="48.8631" lon="2.31325">
        <ele>69</ele>
        <time>2013-10-15T20:22:22.276Z</time>
      </trkpt>
      <trkpt lat="48.86315" lon="2.31326">
        <ele>70</ele>
        <time>2013-10-15T20:22:24.247Z</time>
      </trkpt>
      <trkpt lat="48.86319" lon="2.31326">
        <ele>74</ele>
        <time>2013-10-15T20:22:25.275Z</time>
      </trkpt>
      <trkpt lat="48.86325" lon="2.31327">
        <ele>73</ele>
        <time>2013-10-15T20:22:27.276Z</time>
      </trkpt>
      <trkpt lat="48.86328" lon="2.31327">
        <ele>74</ele>
        <time>2013-10-15T20:22:28.275Z</time>
      </trkpt>
      <trkpt lat="48.86335" lon="2.31328">
        <ele>77</ele>
        <time>2013-10-15T20:22:30.275Z</time>
      </trkpt>
      <trkpt lat="48.86339" lon="2.31329">
        <ele>76</ele>
        <time>2013-10-15T20:22:31.275Z</time>
      </trkpt>
      <trkpt lat="48.86347" lon="2.31329">
        <ele>71</ele>
        <time>2013-10-15T20:22:33.275Z</time>
      </trkpt>
      <trkpt lat="48.8635" lon="2.31329">
        <ele>75</ele>
        <time>2013-10-15T20:22:34.275Z</time>
      </trkpt>
      <trkpt lat="48.86356" lon="2.3133">
        <ele>77</ele>
        <time>2013-10-15T20:22:36.275Z</time>
      </trkpt>
      <trkpt lat="48.8636" lon="2.31331">
        <ele>77</ele>
        <time>2013-10-15T20:22:37.272Z</time>
      </trkpt>
      <trkpt lat="48.86366" lon="2.31331">
        <ele>76</ele>
        <time>2013-10-15T20:22:39.273Z</time>
      </trkpt>
      <trkpt lat="48.8637" lon="2.31331">
        <ele>75</ele>
        <time>2013-10-15T20:22:40.276Z</time>
      </trkpt>
      <trkpt lat="48.86378" lon="2.31333">
        <ele>77</ele>
        <time>2013-10-15T20:22:43.276Z</time>
      </trkpt>
      <trkpt lat="48.86381" lon="2.31334">
        <ele>77</ele>
        <time>2013-10-15T20:22:44.274Z</time>
      </trkpt>
      <trkpt lat="48.86388" lon="2.31337">
        <ele>77</ele>
        <time>2013-10-15T20:22:46.299Z</time>
      </trkpt>
      <trkpt lat="48.86391" lon="2.31338">
        <ele>77</ele>
        <time>2013-10-15T20:22:47.265Z</time>
      </trkpt>
      <trkpt lat="48.86398" lon="2.3134">
        <ele>75</ele>
        <time>2013-10-15T20:22:49.276Z</time>
      </trkpt>
      <trkpt lat="48.86401" lon="2.3134">
        <ele>75</ele>
        <time>2013-10-15T20:22:50.275Z</time>
      </trkpt>
      <trkpt lat="48.86407" lon="2.3134">
        <ele>74</ele>
        <time>2013-10-15T20:22:52.283Z</time>
      </trkpt>
      <trkpt lat="48.8641" lon="2.3134">
        <ele>73</ele>
        <time>2013-10-15T20:22:53.271Z</time>
      </trkpt>
      <trkpt lat="48.86416" lon="2.31341">
        <ele>71</ele>
        <time>2013-10-15T20:22:55.279Z</time>
      </trkpt>
      <trkpt lat="48.86419" lon="2.31341">
        <ele>73</ele>
        <time>2013-10-15T20:22:56.282Z</time>
      </trkpt>
      <trkpt lat="48.86428" lon="2.31341">
        <ele>68</ele>
        <time>2013-10-15T20:22:59.258Z</time>
      </trkpt>
      <trkpt lat="48.8643" lon="2.3134">
        <ele>72</ele>
        <time>2013-10-15T20:23:00.212Z</time>
      </trkpt>
      <trkpt lat="48.86439" lon="2.31338">
        <ele>71</ele>
        <time>2013-10-15T20:23:04.278Z</time>
      </trkpt>
      <trkpt lat="48.86441" lon="2.31337">
        <ele>69</ele>
        <time>2013-10-15T20:23:05.271Z</time>
      </trkpt>
      <trkpt lat="48.8645" lon="2.31337">
        <ele>74</ele>
        <time>2013-10-15T20:23:08.273Z</time>
      </trkpt>
      <trkpt lat="48.86453" lon="2.31339">
        <ele>77</ele>
        <time>2013-10-15T20:23:09.263Z</time>
      </trkpt>
      <trkpt lat="48.8646" lon="2.31331">
        <ele>76</ele>
        <time>2013-10-15T20:23:25.221Z</time>
      </trkpt>
      <trkpt lat="48.86461" lon="2.31329">
        <ele>75</ele>
        <time>2013-10-15T20:23:26.282Z</time>
      </trkpt>
      <trkpt lat="48.86469" lon="2.31325">
        <ele>76</ele>
        <time>2013-10-15T20:23:31.286Z</time>
      </trkpt>
      <trkpt lat="48.86472" lon="2.31326">
        <ele>78</ele>
        <time>2013-10-15T20:23:32.313Z</time>
      </trkpt>
      <trkpt lat="48.86479" lon="2.31328">
        <ele>79</ele>
        <time>2013-10-15T20:23:35.276Z</time>
      </trkpt>
      <trkpt lat="48.86482" lon="2.31328">
        <ele>77</ele>
        <time>2013-10-15T20:23:36.411Z</time>
      </trkpt>
      <trkpt lat="48.8649" lon="2.31328">
        <ele>76</ele>
        <time>2013-10-15T20:23:39.276Z</time>
      </trkpt>
      <trkpt lat="48.86493" lon="2.31328">
        <ele>76</ele>
        <time>2013-10-15T20:23:40.275Z</time>
      </trkpt>
      <trkpt lat="48.865" lon="2.31327">
        <ele>79</ele>
        <time>2013-10-15T20:23:43.282Z</time>
      </trkpt>
      <trkpt lat="48.86503" lon="2.31326">
        <ele>76</ele>
        <time>2013-10-15T20:23:44.278Z</time>
      </trkpt>
      <trkpt lat="48.8651" lon="2.31328">
        <ele>80</ele>
        <time>2013-10-15T20:23:47.321Z</time>
      </trkpt>
      <trkpt lat="48.86512" lon="2.3133">
        <ele>77</ele>
        <time>2013-10-15T20:23:48.275Z</time>
      </trkpt>
      <trkpt lat="48.86519" lon="2.31337">
        <ele>74</ele>
        <time>2013-10-15T20:23:51.275Z</time>
      </trkpt>
      <trkpt lat="48.86522" lon="2.3134">
        <ele>71</ele>
        <time>2013-10-15T20:23:52.274Z</time>
      </trkpt>
      <trkpt lat="48.86528" lon="2.31344">
        <ele>69</ele>
        <time>2013-10-15T20:23:54.278Z</time>
      </trkpt>
      <trkpt lat="48.86532" lon="2.31345">
        <ele>70</ele>
        <time>2013-10-15T20:23:55.337Z</time>
      </trkpt>
      <trkpt lat="48.86538" lon="2.31347">
        <ele>70</ele>
        <time>2013-10-15T20:23:57.302Z</time>
      </trkpt>
      <trkpt lat="48.86541" lon="2.31347">
        <ele>70</ele>
        <time>2013-10-15T20:23:58.283Z</time>
      </trkpt>
      <trkpt lat="48.86547" lon="2.31348">
        <ele>70</ele>
        <time>2013-10-15T20:24:00.274Z</time>
      </trkpt>
      <trkpt lat="48.86551" lon="2.31349">
        <ele>69</ele>
        <time>2013-10-15T20:24:01.217Z</time>
      </trkpt>
      <trkpt lat="48.86558" lon="2.31351">
        <ele>70</ele>
        <time>2013-10-15T20:24:03.282Z</time>
      </trkpt>
      <trkpt lat="48.86562" lon="2.31352">
        <ele>71</ele>
        <time>2013-10-15T20:24:04.280Z</time>
      </trkpt>
      <trkpt lat="48.8657" lon="2.31353">
        <ele>75</ele>
        <time>2013-10-15T20:24:06.278Z</time>
      </trkpt>
      <trkpt lat="48.86573" lon="2.31354">
        <ele>72</ele>
        <time>2013-10-15T20:24:07.219Z</time>
      </trkpt>
      <trkpt lat="48.86581" lon="2.31355">
        <ele>75</ele>
        <time>2013-10-15T20:24:09.273Z</time>
      </trkpt>
      <trkpt lat="48.86585" lon="2.31356">
        <ele>74</ele>
        <time>2013-10-15T20:24:10.273Z</time>
      </trkpt>
      <trkpt lat="48.86591" lon="2.31357">
        <ele>75</ele>
        <time>2013-10-15T20:24:12.273Z</time>
      </trkpt>
      <trkpt lat="48.86595" lon="2.31357">
        <ele>74</ele>
        <time>2013-10-15T20:24:13.280Z</time>
      </trkpt>
      <trkpt lat="48.86601" lon="2.31358">
        <ele>74</ele>
        <time>2013-10-15T20:24:15.275Z</time>
      </trkpt>
      <trkpt lat="48.86604" lon="2.31358">
        <ele>75</ele>
        <time>2013-10-15T20:24:16.280Z</time>
      </trkpt>
      <trkpt lat="48.8661" lon="2.31359">
        <ele>76</ele>
        <time>2013-10-15T20:24:18.218Z</time>
      </trkpt>
      <trkpt lat="48.86614" lon="2.31359">
        <ele>78</ele>
        <time>2013-10-15T20:24:19.280Z</time>
      </trkpt>
      <trkpt lat="48.8662" lon="2.31358">
        <ele>78</ele>
        <time>2013-10-15T20:24:21.282Z</time>
      </trkpt>
      <trkpt lat="48.86624" lon="2.31358">
        <ele>77</ele>
        <time>2013-10-15T20:24:22.278Z</time>
      </trkpt>
      <trkpt lat="48.86631" lon="2.31361">
        <ele>76</ele>
        <time>2013-10-15T20:24:24.278Z</time>
      </trkpt>
      <trkpt lat="48.86634" lon="2.31363">
        <ele>73</ele>
        <time>2013-10-15T20:24:25.290Z</time>
      </trkpt>
      <trkpt lat="48.86641" lon="2.31366">
        <ele>75</ele>
        <time>2013-10-15T20:24:27.288Z</time>
      </trkpt>
      <trkpt lat="48.86644" lon="2.31367">
        <ele>75</ele>
        <time>2013-10-15T20:24:28.277Z</time>
      </trkpt>
      <trkpt lat="48.8665" lon="2.3137">
        <ele>77</ele>
        <time>2013-10-15T20:24:30.288Z</time>
      </trkpt>
      <trkpt lat="48.86654" lon="2.3137">
        <ele>73</ele>
        <time>2013-10-15T20:24:31.358Z</time>
      </trkpt>
      <trkpt lat="48.86661" lon="2.31371">
        <ele>70</ele>
        <time>2013-10-15T20:24:33.283Z</time>
      </trkpt>
      <trkpt lat="48.86664" lon="2.31371">
        <ele>71</ele>
        <time>2013-10-15T20:24:34.288Z</time>
      </trkpt>
      <trkpt lat="48.8667" lon="2.3137">
        <ele>74</ele>
        <time>2013-10-15T20:24:36.283Z</time>
      </trkpt>
      <trkpt lat="48.86673" lon="2.3137">
        <ele>75</ele>
        <time>2013-10-15T20:24:37.290Z</time>
      </trkpt>
      <trkpt lat="48.86679" lon="2.3137">
        <ele>75</ele>
        <time>2013-10-15T20:24:39.286Z</time>
      </trkpt>
      <trkpt lat="48.86682" lon="2.31371">
        <ele>73</ele>
        <time>2013-10-15T20:24:40.288Z</time>
      </trkpt>
      <trkpt lat="48.86689" lon="2.31373">
        <ele>72</ele>
        <time>2013-10-15T20:24:42.284Z</time>
      </trkpt>
      <trkpt lat="48.86692" lon="2.31375">
        <ele>72</ele>
        <time>2013-10-15T20:24:43.290Z</time>
      </trkpt>
      <trkpt lat="48.86701" lon="2.31377">
        <ele>68</ele>
        <time>2013-10-15T20:24:46.290Z</time>
      </trkpt>
      <trkpt lat="48.86704" lon="2.31377">
        <ele>70</ele>
        <time>2013-10-15T20:24:47.291Z</time>
      </trkpt>
      <trkpt lat="48.86712" lon="2.31376">
        <ele>67</ele>
        <time>2013-10-15T20:24:50.286Z</time>
      </trkpt>
      <trkpt lat="48.86715" lon="2.31376">
        <ele>70</ele>
        <time>2013-10-15T20:24:51.291Z</time>
      </trkpt>
      <trkpt lat="48.86723" lon="2.31375">
        <ele>72</ele>
        <time>2013-10-15T20:24:54.287Z</time>
      </trkpt>
      <trkpt lat="48.86726" lon="2.31374">
        <ele>72</ele>
        <time>2013-10-15T20:24:55.265Z</time>
      </trkpt>
      <trkpt lat="48.86734" lon="2.31373">
        <ele>72</ele>
        <time>2013-10-15T20:24:58.287Z</time>
      </trkpt>
      <trkpt lat="48.86736" lon="2.31372">
        <ele>72</ele>
        <time>2013-10-15T20:24:59.282Z</time>
      </trkpt>
      <trkpt lat="48.86745" lon="2.31371">
        <ele>72</ele>
        <time>2013-10-15T20:25:02.224Z</time>
      </trkpt>
      <trkpt lat="48.86749" lon="2.31371">
        <ele>75</ele>
        <time>2013-10-15T20:25:03.290Z</time>
      </trkpt>
      <trkpt lat="48.86755" lon="2.3137">
        <ele>73</ele>
        <time>2013-10-15T20:25:05.286Z</time>
      </trkpt>
      <trkpt lat="48.86758" lon="2.31369">
        <ele>73</ele>
        <time>2013-10-15T20:25:06.288Z</time>
      </trkpt>
      <trkpt lat="48.86766" lon="2.31364">
        <ele>72</ele>
        <time>2013-10-15T20:25:09.278Z</time>
      </trkpt>
      <trkpt lat="48.86769" lon="2.31361">
        <ele>68</ele>
        <time>2013-10-15T20:25:10.290Z</time>
      </trkpt>
      <trkpt lat="48.86774" lon="2.31354">
        <ele>66</ele>
        <time>2013-10-15T20:25:12.286Z</time>
      </trkpt>
      <trkpt lat="48.86776" lon="2.31351">
        <ele>68</ele>
        <time>2013-10-15T20:25:13.286Z</time>
      </trkpt>
      <trkpt lat="48.86778" lon="2.3134">
        <ele>73</ele>
        <time>2013-10-15T20:25:16.298Z</time>
      </trkpt>
      <trkpt lat="48.86778" lon="2.31336">
        <ele>73</ele>
        <time>2013-10-15T20:25:17.294Z</time>
      </trkpt>
      <trkpt lat="48.86786" lon="2.31333">
        <ele>75</ele>
        <time>2013-10-15T20:25:29.291Z</time>
      </trkpt>
      <trkpt lat="48.86788" lon="2.31335">
        <ele>74</ele>
        <time>2013-10-15T20:25:30.291Z</time>
      </trkpt>
      <trkpt lat="48.86796" lon="2.31339">
        <ele>75</ele>
        <time>2013-10-15T20:25:35.290Z</time>
      </trkpt>
      <trkpt lat="48.86798" lon="2.31341">
        <ele>76</ele>
        <time>2013-10-15T20:25:36.286Z</time>
      </trkpt>
      <trkpt lat="48.86804" lon="2.31346">
        <ele>70</ele>
        <time>2013-10-15T20:25:39.290Z</time>
      </trkpt>
      <trkpt lat="48.86806" lon="2.31348">
        <ele>73</ele>
        <time>2013-10-15T20:25:40.298Z</time>
      </trkpt>
      <trkpt lat="48.86811" lon="2.31356">
        <ele>69</ele>
        <time>2013-10-15T20:25:43.286Z</time>
      </trkpt>
      <trkpt lat="48.86812" lon="2.31359">
        <ele>69</ele>
        <time>2013-10-15T20:25:44.295Z</time>
      </trkpt>
      <trkpt lat="48.8681" lon="2.31371">
        <ele>71</ele>
        <time>2013-10-15T20:25:47.286Z</time>
      </trkpt>
      <trkpt lat="48.86809" lon="2.31375">
        <ele>70</ele>
        <time>2013-10-15T20:25:48.310Z</time>
      </trkpt>
      <trkpt lat="48.86806" lon="2.31386">
        <ele>70</ele>
        <time>2013-10-15T20:25:51.290Z</time>
      </trkpt>
      <trkpt lat="48.86806" lon="2.31389">
        <ele>69</ele>
        <time>2013-10-15T20:25:52.292Z</time>
      </trkpt>
      <trkpt lat="48.86812" lon="2.31398">
        <ele>63</ele>
        <time>2013-10-15T20:25:55.294Z</time>
      </trkpt>
      <trkpt lat="48.86814" lon="2.314">
        <ele>65</ele>
        <time>2013-10-15T20:25:56.305Z</time>
      </trkpt>
      <trkpt lat="48.8682" lon="2.31403">
        <ele>69</ele>
        <time>2013-10-15T20:25:58.298Z</time>
      </trkpt>
      <trkpt lat="48.86823" lon="2.31404">
        <ele>71</ele>
        <time>2013-10-15T20:25:59.295Z</time>
      </trkpt>
      <trkpt lat="48.86829" lon="2.31407">
        <ele>71</ele>
        <time>2013-10-15T20:26:01.292Z</time>
      </trkpt>
      <trkpt lat="48.86832" lon="2.31409">
        <ele>70</ele>
        <time>2013-10-15T20:26:02.310Z</time>
      </trkpt>
      <trkpt lat="48.86839" lon="2.31415">
        <ele>71</ele>
        <time>2013-10-15T20:26:04.406Z</time>
      </trkpt>
      <trkpt lat="48.86842" lon="2.31417">
        <ele>71</ele>
        <time>2013-10-15T20:26:05.292Z</time>
      </trkpt>
      <trkpt lat="48.86849" lon="2.31422">
        <ele>69</ele>
        <time>2013-10-15T20:26:07.299Z</time>
      </trkpt>
      <trkpt lat="48.86853" lon="2.31425">
        <ele>70</ele>
        <time>2013-10-15T20:26:08.294Z</time>
      </trkpt>
      <trkpt lat="48.86859" lon="2.31429">
        <ele>71</ele>
        <time>2013-10-15T20:26:10.298Z</time>
      </trkpt>
      <trkpt lat="48.86862" lon="2.31431">
        <ele>69</ele>
        <time>2013-10-15T20:26:11.298Z</time>
      </trkpt>
      <trkpt lat="48.86868" lon="2.31433">
        <ele>70</ele>
        <time>2013-10-15T20:26:13.292Z</time>
      </trkpt>
      <trkpt lat="48.86872" lon="2.31435">
        <ele>68</ele>
        <time>2013-10-15T20:26:14.296Z</time>
      </trkpt>
      <trkpt lat="48.86879" lon="2.31439">
        <ele>74</ele>
        <time>2013-10-15T20:26:16.294Z</time>
      </trkpt>
      <trkpt lat="48.86882" lon="2.3144">
        <ele>74</ele>
        <time>2013-10-15T20:26:17.291Z</time>
      </trkpt>
      <trkpt lat="48.86889" lon="2.31443">
        <ele>78</ele>
        <time>2013-10-15T20:26:19.299Z</time>
      </trkpt>
      <trkpt lat="48.86892" lon="2.31446">
        <ele>78</ele>
        <time>2013-10-15T20:26:20.255Z</time>
      </trkpt>
      <trkpt lat="48.86901" lon="2.31448">
        <ele>71</ele>
        <time>2013-10-15T20:26:23.302Z</time>
      </trkpt>
      <trkpt lat="48.86902" lon="2.31445">
        <ele>67</ele>
        <time>2013-10-15T20:26:24.292Z</time>
      </trkpt>
      <trkpt lat="48.86905" lon="2.31435">
        <ele>69</ele>
        <time>2013-10-15T20:26:26.302Z</time>
      </trkpt>
      <trkpt lat="48.86906" lon="2.3143">
        <ele>68</ele>
        <time>2013-10-15T20:26:27.326Z</time>
      </trkpt>
      <trkpt lat="48.86909" lon="2.31418">
        <ele>67</ele>
        <time>2013-10-15T20:26:29.294Z</time>
      </trkpt>
      <trkpt lat="48.8691" lon="2.31413">
        <ele>68</ele>
        <time>2013-10-15T20:26:30.294Z</time>
      </trkpt>
      <trkpt lat="48.86914" lon="2.31402">
        <ele>71</ele>
        <time>2013-10-15T20:26:32.299Z</time>
      </trkpt>
      <trkpt lat="48.86915" lon="2.31397">
        <ele>71</ele>
        <time>2013-10-15T20:26:33.278Z</time>
      </trkpt>
      <trkpt lat="48.86919" lon="2.31387">
        <ele>71</ele>
        <time>2013-10-15T20:26:35.299Z</time>
      </trkpt>
      <trkpt lat="48.8692" lon="2.31383">
        <ele>72</ele>
        <time>2013-10-15T20:26:36.292Z</time>
      </trkpt>
      <trkpt lat="48.86924" lon="2.31372">
        <ele>71</ele>
        <time>2013-10-15T20:26:39.456Z</time>
      </trkpt>
      <trkpt lat="48.86925" lon="2.31369">
        <ele>69</ele>
        <time>2013-10-15T20:26:40.296Z</time>
      </trkpt>
      <trkpt lat="48.86929" lon="2.31357">
        <ele>69</ele>
        <time>2013-10-15T20:26:44.298Z</time>
      </trkpt>
      <trkpt lat="48.8693" lon="2.31355">
        <ele>68</ele>
        <time>2013-10-15T20:26:45.302Z</time>
      </trkpt>
      <trkpt lat="48.86933" lon="2.31345">
        <ele>67</ele>
        <time>2013-10-15T20:26:48.276Z</time>
      </trkpt>
      <trkpt lat="48.86935" lon="2.31341">
        <ele>66</ele>
        <time>2013-10-15T20:26:49.270Z</time>
      </trkpt>
      <trkpt lat="48.86939" lon="2.31332">
        <ele>66</ele>
        <time>2013-10-15T20:26:52.268Z</time>
      </trkpt>
      <trkpt lat="48.8694" lon="2.31329">
        <ele>63</ele>
        <time>2013-10-15T20:26:53.275Z</time>
      </trkpt>
      <trkpt lat="48.86948" lon="2.3133">
        <ele>65</ele>
        <time>2013-10-15T20:26:58.225Z</time>
      </trkpt>
      <trkpt lat="48.86949" lon="2.31332">
        <ele>67</ele>
        <time>2013-10-15T20:26:59.275Z</time>
      </trkpt>
      <trkpt lat="48.86952" lon="2.31343">
        <ele>66</ele>
        <time>2013-10-15T20:27:03.261Z</time>
      </trkpt>
      <trkpt lat="48.86953" lon="2.31346">
        <ele>70</ele>
        <time>2013-10-15T20:27:04.263Z</time>
      </trkpt>
      <trkpt lat="48.86957" lon="2.31356">
        <ele>75</ele>
        <time>2013-10-15T20:27:07.270Z</time>
      </trkpt>
      <trkpt lat="48.86959" lon="2.31361">
        <ele>75</ele>
        <time>2013-10-15T20:27:08.280Z</time>
      </trkpt>
      <trkpt lat="48.86963" lon="2.3137">
        <ele>75</ele>
        <time>2013-10-15T20:27:10.243Z</time>
      </trkpt>
      <trkpt lat="48.86965" lon="2.31375">
        <ele>78</ele>
        <time>2013-10-15T20:27:11.269Z</time>
      </trkpt>
      <trkpt lat="48.86969" lon="2.31385">
        <ele>79</ele>
        <time>2013-10-15T20:27:13.268Z</time>
      </trkpt>
      <trkpt lat="48.86971" lon="2.3139">
        <ele>76</ele>
        <time>2013-10-15T20:27:14.265Z</time>
      </trkpt>
      <trkpt lat="48.86975" lon="2.314">
        <ele>80</ele>
        <time>2013-10-15T20:27:16.258Z</time>
      </trkpt>
      <trkpt lat="48.86978" lon="2.31404">
        <ele>80</ele>
        <time>2013-10-15T20:27:17.264Z</time>
      </trkpt>
      <trkpt lat="48.86984" lon="2.31413">
        <ele>78</ele>
        <time>2013-10-15T20:27:19.264Z</time>
      </trkpt>
      <trkpt lat="48.86987" lon="2.31417">
        <ele>78</ele>
        <time>2013-10-15T20:27:20.260Z</time>
      </trkpt>
      <trkpt lat="48.86993" lon="2.31425">
        <ele>79</ele>
        <time>2013-10-15T20:27:22.262Z</time>
      </trkpt>
      <trkpt lat="48.86996" lon="2.3143">
        <ele>86</ele>
        <time>2013-10-15T20:27:23.263Z</time>
      </trkpt>
      <trkpt lat="48.86999" lon="2.31435">
        <ele>89</ele>
        <time>2013-10-15T20:27:24.261Z</time>
      </trkpt>
      <trkpt lat="48.87003" lon="2.3144">
        <ele>90</ele>
        <time>2013-10-15T20:27:25.259Z</time>
      </trkpt>
      <trkpt lat="48.87006" lon="2.31445">
        <ele>92</ele>
        <time>2013-10-15T20:27:26.277Z</time>
      </trkpt>
      <trkpt lat="48.87009" lon="2.3145">
        <ele>90</ele>
        <time>2013-10-15T20:27:27.259Z</time>
      </trkpt>
      <trkpt lat="48.87013" lon="2.31455">
        <ele>91</ele>
        <time>2013-10-15T20:27:28.256Z</time>
      </trkpt>
      <trkpt lat="48.87016" lon="2.3146">
        <ele>93</ele>
        <time>2013-10-15T20:27:29.256Z</time>
      </trkpt>
      <trkpt lat="48.8702" lon="2.31465">
        <ele>94</ele>
        <time>2013-10-15T20:27:30.263Z</time>
      </trkpt>
      <trkpt lat="48.87025" lon="2.31469">
        <ele>95</ele>
        <time>2013-10-15T20:27:31.257Z</time>
      </trkpt>
      <trkpt lat="48.8703" lon="2.31474">
        <ele>93</ele>
        <time>2013-10-15T20:27:32.258Z</time>
      </trkpt>
      <trkpt lat="48.87034" lon="2.31479">
        <ele>93</ele>
        <time>2013-10-15T20:27:33.271Z</time>
      </trkpt>
      <trkpt lat="48.87039" lon="2.31484">
        <ele>91</ele>
        <time>2013-10-15T20:27:34.279Z</time>
      </trkpt>
      <trkpt lat="48.87043" lon="2.31489">
        <ele>94</ele>
        <time>2013-10-15T20:27:35.264Z</time>
      </trkpt>
      <trkpt lat="48.87047" lon="2.31498">
        <ele>90</ele>
        <time>2013-10-15T20:27:37.258Z</time>
      </trkpt>
      <trkpt lat="48.8705" lon="2.31504">
        <ele>94</ele>
        <time>2013-10-15T20:27:38.263Z</time>
      </trkpt>
      <trkpt lat="48.87054" lon="2.31509">
        <ele>93</ele>
        <time>2013-10-15T20:27:39.262Z</time>
      </trkpt>
      <trkpt lat="48.87059" lon="2.31514">
        <ele>91</ele>
        <time>2013-10-15T20:27:40.262Z</time>
      </trkpt>
      <trkpt lat="48.87065" lon="2.31518">
        <ele>90</ele>
        <time>2013-10-15T20:27:41.263Z</time>
      </trkpt>
      <trkpt lat="48.87074" lon="2.31521">
        <ele>91</ele>
        <time>2013-10-15T20:27:42.260Z</time>
      </trkpt>
      <trkpt lat="48.87084" lon="2.31522">
        <ele>90</ele>
        <time>2013-10-15T20:27:43.264Z</time>
      </trkpt>
      <trkpt lat="48.87094" lon="2.31524">
        <ele>91</ele>
        <time>2013-10-15T20:27:44.259Z</time>
      </trkpt>
      <trkpt lat="48.87103" lon="2.31524">
        <ele>91</ele>
        <time>2013-10-15T20:27:45.260Z</time>
      </trkpt>
      <trkpt lat="48.8711" lon="2.31524">
        <ele>91</ele>
        <time>2013-10-15T20:27:46.260Z</time>
      </trkpt>
      <trkpt lat="48.87116" lon="2.31523">
        <ele>92</ele>
        <time>2013-10-15T20:27:47.257Z</time>
      </trkpt>
      <trkpt lat="48.87123" lon="2.31523">
        <ele>90</ele>
        <time>2013-10-15T20:27:48.263Z</time>
      </trkpt>
      <trkpt lat="48.87129" lon="2.31523">
        <ele>90</ele>
        <time>2013-10-15T20:27:49.264Z</time>
      </trkpt>
      <trkpt lat="48.87134" lon="2.31523">
        <ele>90</ele>
        <time>2013-10-15T20:27:50.263Z</time>
      </trkpt>
      <trkpt lat="48.87142" lon="2.31525">
        <ele>87</ele>
        <time>2013-10-15T20:27:52.260Z</time>
      </trkpt>
      <trkpt lat="48.87145" lon="2.31526">
        <ele>90</ele>
        <time>2013-10-15T20:27:53.261Z</time>
      </trkpt>
      <trkpt lat="48.87154" lon="2.31529">
        <ele>93</ele>
        <time>2013-10-15T20:27:56.263Z</time>
      </trkpt>
      <trkpt lat="48.87155" lon="2.3153">
        <ele>86</ele>
        <time>2013-10-15T20:27:57.271Z</time>
      </trkpt>
      <trkpt lat="48.87156" lon="2.31519">
        <ele>72</ele>
        <time>2013-10-15T20:28:06.274Z</time>
      </trkpt>
      <trkpt lat="48.87158" lon="2.31513">
        <ele>73</ele>
        <time>2013-10-15T20:28:07.270Z</time>
      </trkpt>
      <trkpt lat="48.8716" lon="2.31507">
        <ele>75</ele>
        <time>2013-10-15T20:28:08.273Z</time>
      </trkpt>
      <trkpt lat="48.87162" lon="2.315">
        <ele>76</ele>
        <time>2013-10-15T20:28:09.271Z</time>
      </trkpt>
      <trkpt lat="48.87165" lon="2.31494">
        <ele>77</ele>
        <time>2013-10-15T20:28:10.356Z</time>
      </trkpt>
      <trkpt lat="48.87168" lon="2.31488">
        <ele>77</ele>
        <time>2013-10-15T20:28:11.231Z</time>
      </trkpt>
      <trkpt lat="48.87171" lon="2.31482">
        <ele>75</ele>
        <time>2013-10-15T20:28:12.272Z</time>
      </trkpt>
      <trkpt lat="48.87173" lon="2.31476">
        <ele>76</ele>
        <time>2013-10-15T20:28:13.275Z</time>
      </trkpt>
      <trkpt lat="48.87177" lon="2.31466">
        <ele>76</ele>
        <time>2013-10-15T20:28:15.274Z</time>
      </trkpt>
      <trkpt lat="48.87179" lon="2.31462">
        <ele>76</ele>
        <time>2013-10-15T20:28:16.271Z</time>
      </trkpt>
      <trkpt lat="48.87182" lon="2.31454">
        <ele>74</ele>
        <time>2013-10-15T20:28:18.312Z</time>
      </trkpt>
      <trkpt lat="48.87184" lon="2.3145">
        <ele>73</ele>
        <time>2013-10-15T20:28:19.267Z</time>
      </trkpt>
      <trkpt lat="48.87189" lon="2.31441">
        <ele>77</ele>
        <time>2013-10-15T20:28:22.271Z</time>
      </trkpt>
      <trkpt lat="48.87191" lon="2.31439">
        <ele>78</ele>
        <time>2013-10-15T20:28:23.268Z</time>
      </trkpt>
      <trkpt lat="48.87197" lon="2.31442">
        <ele>84</ele>
        <time>2013-10-15T20:28:33.271Z</time>
      </trkpt>
      <trkpt lat="48.872" lon="2.31443">
        <ele>85</ele>
        <time>2013-10-15T20:28:34.270Z</time>
      </trkpt>
      <trkpt lat="48.87206" lon="2.31445">
        <ele>90</ele>
        <time>2013-10-15T20:28:37.271Z</time>
      </trkpt>
      <trkpt lat="48.87209" lon="2.31447">
        <ele>90</ele>
        <time>2013-10-15T20:28:38.267Z</time>
      </trkpt>
      <trkpt lat="48.87215" lon="2.31454">
        <ele>89</ele>
        <time>2013-10-15T20:28:40.266Z</time>
      </trkpt>
      <trkpt lat="48.87219" lon="2.31457">
        <ele>89</ele>
        <time>2013-10-15T20:28:41.265Z</time>
      </trkpt>
      <trkpt lat="48.87225" lon="2.31462">
        <ele>89</ele>
        <time>2013-10-15T20:28:43.267Z</time>
      </trkpt>
      <trkpt lat="48.87229" lon="2.31464">
        <ele>89</ele>
        <time>2013-10-15T20:28:44.266Z</time>
      </trkpt>
      <trkpt lat="48.87235" lon="2.31467">
        <ele>91</ele>
        <time>2013-10-15T20:28:46.271Z</time>
      </trkpt>
      <trkpt lat="48.87239" lon="2.31468">
        <ele>93</ele>
        <time>2013-10-15T20:28:47.270Z</time>
      </trkpt>
      <trkpt lat="48.87245" lon="2.31472">
        <ele>93</ele>
        <time>2013-10-15T20:28:49.265Z</time>
      </trkpt>
      <trkpt lat="48.87249" lon="2.31473">
        <ele>92</ele>
        <time>2013-10-15T20:28:50.266Z</time>
      </trkpt>
      <trkpt lat="48.87256" lon="2.31476">
        <ele>91</ele>
        <time>2013-10-15T20:28:52.244Z</time>
      </trkpt>
      <trkpt lat="48.8726" lon="2.31478">
        <ele>91</ele>
        <time>2013-10-15T20:28:53.271Z</time>
      </trkpt>
      <trkpt lat="48.87267" lon="2.31481">
        <ele>91</ele>
        <time>2013-10-15T20:28:55.271Z</time>
      </trkpt>
      <trkpt lat="48.87271" lon="2.31483">
        <ele>90</ele>
        <time>2013-10-15T20:28:56.275Z</time>
      </trkpt>
      <trkpt lat="48.87278" lon="2.31484">
        <ele>92</ele>
        <time>2013-10-15T20:28:58.276Z</time>
      </trkpt>
      <trkpt lat="48.87281" lon="2.31484">
        <ele>91</ele>
        <time>2013-10-15T20:28:59.273Z</time>
      </trkpt>
      <trkpt lat="48.87289" lon="2.31482">
        <ele>91</ele>
        <time>2013-10-15T20:29:01.272Z</time>
      </trkpt>
      <trkpt lat="48.87293" lon="2.3148">
        <ele>95</ele>
        <time>2013-10-15T20:29:02.268Z</time>
      </trkpt>
      <trkpt lat="48.873" lon="2.31476">
        <ele>89</ele>
        <time>2013-10-15T20:29:04.273Z</time>
      </trkpt>
      <trkpt lat="48.87304" lon="2.31475">
        <ele>90</ele>
        <time>2013-10-15T20:29:05.273Z</time>
      </trkpt>
      <trkpt lat="48.8731" lon="2.31472">
        <ele>89</ele>
        <time>2013-10-15T20:29:07.275Z</time>
      </trkpt>
      <trkpt lat="48.87314" lon="2.31472">
        <ele>91</ele>
        <time>2013-10-15T20:29:08.277Z</time>
      </trkpt>
      <trkpt lat="48.8732" lon="2.31472">
        <ele>93</ele>
        <time>2013-10-15T20:29:10.284Z</time>
      </trkpt>
      <trkpt lat="48.87323" lon="2.31472">
        <ele>94</ele>
        <time>2013-10-15T20:29:11.280Z</time>
      </trkpt>
      <trkpt lat="48.8733" lon="2.31469">
        <ele>95</ele>
        <time>2013-10-15T20:29:13.287Z</time>
      </trkpt>
      <trkpt lat="48.87332" lon="2.31468">
        <ele>95</ele>
        <time>2013-10-15T20:29:14.286Z</time>
      </trkpt>
      <trkpt lat="48.87338" lon="2.31465">
        <ele>90</ele>
        <time>2013-10-15T20:29:16.278Z</time>
      </trkpt>
      <trkpt lat="48.87342" lon="2.31463">
        <ele>88</ele>
        <time>2013-10-15T20:29:17.276Z</time>
      </trkpt>
      <trkpt lat="48.87349" lon="2.31458">
        <ele>90</ele>
        <time>2013-10-15T20:29:20.271Z</time>
      </trkpt>
      <trkpt lat="48.87351" lon="2.31457">
        <ele>90</ele>
        <time>2013-10-15T20:29:21.275Z</time>
      </trkpt>
      <trkpt lat="48.87357" lon="2.3145">
        <ele>89</ele>
        <time>2013-10-15T20:29:30.270Z</time>
      </trkpt>
      <trkpt lat="48.87357" lon="2.31451">
        <ele>89</ele>
        <time>2013-10-15T20:29:31.224Z</time>
      </trkpt>
      <trkpt lat="48.87356" lon="2.31452">
        <ele>89</ele>
        <time>2013-10-15T20:29:41.275Z</time>
      </trkpt>
      <trkpt lat="48.87361" lon="2.31451">
        <ele>90</ele>
        <time>2013-10-15T20:29:42.286Z</time>
      </trkpt>
      <trkpt lat="48.87368" lon="2.31451">
        <ele>90</ele>
        <time>2013-10-15T20:29:46.278Z</time>
      </trkpt>
      <trkpt lat="48.87371" lon="2.31449">
        <ele>84</ele>
        <time>2013-10-15T20:29:47.280Z</time>
      </trkpt>
      <trkpt lat="48.87379" lon="2.31446">
        <ele>81</ele>
        <time>2013-10-15T20:29:51.278Z</time>
      </trkpt>
      <trkpt lat="48.87383" lon="2.31446">
        <ele>77</ele>
        <time>2013-10-15T20:29:52.284Z</time>
      </trkpt>
      <trkpt lat="48.87391" lon="2.31447">
        <ele>78</ele>
        <time>2013-10-15T20:29:55.283Z</time>
      </trkpt>
      <trkpt lat="48.87393" lon="2.31447">
        <ele>78</ele>
        <time>2013-10-15T20:29:56.282Z</time>
      </trkpt>
      <trkpt lat="48.87398" lon="2.31447">
        <ele>80</ele>
        <time>2013-10-15T20:30:00.274Z</time>
      </trkpt>
      <trkpt lat="48.87402" lon="2.31446">
        <ele>78</ele>
        <time>2013-10-15T20:30:01.303Z</time>
      </trkpt>
      <trkpt lat="48.87409" lon="2.31445">
        <ele>78</ele>
        <time>2013-10-15T20:30:03.286Z</time>
      </trkpt>
      <trkpt lat="48.87412" lon="2.31444">
        <ele>81</ele>
        <time>2013-10-15T20:30:04.346Z</time>
      </trkpt>
      <trkpt lat="48.87418" lon="2.31443">
        <ele>85</ele>
        <time>2013-10-15T20:30:06.284Z</time>
      </trkpt>
      <trkpt lat="48.87421" lon="2.31442">
        <ele>85</ele>
        <time>2013-10-15T20:30:07.282Z</time>
      </trkpt>
      <trkpt lat="48.8743" lon="2.3144">
        <ele>88</ele>
        <time>2013-10-15T20:30:10.282Z</time>
      </trkpt>
      <trkpt lat="48.87433" lon="2.31439">
        <ele>88</ele>
        <time>2013-10-15T20:30:11.282Z</time>
      </trkpt>
      <trkpt lat="48.87439" lon="2.31439">
        <ele>85</ele>
        <time>2013-10-15T20:30:13.228Z</time>
      </trkpt>
      <trkpt lat="48.87443" lon="2.31439">
        <ele>81</ele>
        <time>2013-10-15T20:30:14.284Z</time>
      </trkpt>
      <trkpt lat="48.87449" lon="2.31437">
        <ele>81</ele>
        <time>2013-10-15T20:30:16.288Z</time>
      </trkpt>
      <trkpt lat="48.87453" lon="2.31437">
        <ele>84</ele>
        <time>2013-10-15T20:30:17.282Z</time>
      </trkpt>
      <trkpt lat="48.87461" lon="2.31436">
        <ele>82</ele>
        <time>2013-10-15T20:30:22.282Z</time>
      </trkpt>
      <trkpt lat="48.87465" lon="2.31436">
        <ele>83</ele>
        <time>2013-10-15T20:30:23.282Z</time>
      </trkpt>
      <trkpt lat="48.8747" lon="2.31436">
        <ele>84</ele>
        <time>2013-10-15T20:30:24.282Z</time>
      </trkpt>
      <trkpt lat="48.87475" lon="2.31436">
        <ele>82</ele>
        <time>2013-10-15T20:30:25.286Z</time>
      </trkpt>
      <trkpt lat="48.87481" lon="2.31436">
        <ele>83</ele>
        <time>2013-10-15T20:30:26.283Z</time>
      </trkpt>
      <trkpt lat="48.87486" lon="2.31436">
        <ele>79</ele>
        <time>2013-10-15T20:30:27.283Z</time>
      </trkpt>
      <trkpt lat="48.87494" lon="2.31433">
        <ele>83</ele>
        <time>2013-10-15T20:30:29.294Z</time>
      </trkpt>
      <trkpt lat="48.87496" lon="2.31432">
        <ele>83</ele>
        <time>2013-10-15T20:30:30.290Z</time>
      </trkpt>
      <trkpt lat="48.87505" lon="2.3143">
        <ele>80</ele>
        <time>2013-10-15T20:30:34.294Z</time>
      </trkpt>
      <trkpt lat="48.87509" lon="2.31435">
        <ele>76</ele>
        <time>2013-10-15T20:30:35.286Z</time>
      </trkpt>
      <trkpt lat="48.87514" lon="2.31444">
        <ele>75</ele>
        <time>2013-10-15T20:30:37.235Z</time>
      </trkpt>
      <trkpt lat="48.87517" lon="2.31447">
        <ele>82</ele>
        <time>2013-10-15T20:30:38.280Z</time>
      </trkpt>
      <trkpt lat="48.87523" lon="2.31454">
        <ele>87</ele>
        <time>2013-10-15T20:30:40.278Z</time>
      </trkpt>
      <trkpt lat="48.87525" lon="2.3146">
        <ele>87</ele>
        <time>2013-10-15T20:30:41.280Z</time>
      </trkpt>
      <trkpt lat="48.87526" lon="2.31467">
        <ele>86</ele>
        <time>2013-10-15T20:30:42.278Z</time>
      </trkpt>
      <trkpt lat="48.87527" lon="2.31474">
        <ele>89</ele>
        <time>2013-10-15T20:30:43.310Z</time>
      </trkpt>
      <trkpt lat="48.87527" lon="2.31482">
        <ele>90</ele>
        <time>2013-10-15T20:30:44.282Z</time>
      </trkpt>
      <trkpt lat="48.87527" lon="2.31489">
        <ele>89</ele>
        <time>2013-10-15T20:30:45.277Z</time>
      </trkpt>
      <trkpt lat="48.87526" lon="2.31497">
        <ele>90</ele>
        <time>2013-10-15T20:30:46.284Z</time>
      </trkpt>
      <trkpt lat="48.87525" lon="2.31504">
        <ele>89</ele>
        <time>2013-10-15T20:30:47.277Z</time>
      </trkpt>
      <trkpt lat="48.87525" lon="2.31511">
        <ele>91</ele>
        <time>2013-10-15T20:30:48.250Z</time>
      </trkpt>
      <trkpt lat="48.87524" lon="2.31517">
        <ele>92</ele>
        <time>2013-10-15T20:30:49.278Z</time>
      </trkpt>
      <trkpt lat="48.87523" lon="2.31529">
        <ele>90</ele>
        <time>2013-10-15T20:30:51.278Z</time>
      </trkpt>
      <trkpt lat="48.87523" lon="2.31535">
        <ele>91</ele>
        <time>2013-10-15T20:30:52.278Z</time>
      </trkpt>
      <trkpt lat="48.87524" lon="2.31545">
        <ele>92</ele>
        <time>2013-10-15T20:30:54.267Z</time>
      </trkpt>
      <trkpt lat="48.87525" lon="2.31548">
        <ele>92</ele>
        <time>2013-10-15T20:30:55.282Z</time>
      </trkpt>
      <trkpt lat="48.87527" lon="2.31561">
        <ele>91</ele>
        <time>2013-10-15T20:30:59.282Z</time>
      </trkpt>
      <trkpt lat="48.87539" lon="2.31606">
        <ele>90</ele>
        <time>2013-10-15T20:31:10.363Z</time>
      </trkpt>
      <trkpt lat="48.8754" lon="2.31609">
        <ele>93</ele>
        <time>2013-10-15T20:31:11.284Z</time>
      </trkpt>
      <trkpt lat="48.87545" lon="2.31708">
        <ele>97</ele>
        <time>2013-10-15T20:31:33.242Z</time>
      </trkpt>
      <trkpt lat="48.87511" lon="2.31919">
        <ele>89</ele>
        <time>2013-10-15T20:32:14.287Z</time>
      </trkpt>
      <trkpt lat="48.87504" lon="2.31919">
        <ele>82</ele>
        <time>2013-10-15T20:32:28.271Z</time>
      </trkpt>
      <trkpt lat="48.87504" lon="2.31919">
        <ele>82</ele>
        <time>2013-10-15T20:32:29.271Z</time>
      </trkpt>
      <trkpt lat="48.87505" lon="2.3192">
        <ele>93</ele>
        <time>2013-10-15T20:32:58.270Z</time>
      </trkpt>
      <trkpt lat="48.87502" lon="2.31923">
        <ele>93</ele>
        <time>2013-10-15T20:32:59.271Z</time>
      </trkpt>
      <trkpt lat="48.87495" lon="2.31931">
        <ele>92</ele>
        <time>2013-10-15T20:33:01.272Z</time>
      </trkpt>
      <trkpt lat="48.87493" lon="2.31934">
        <ele>93</ele>
        <time>2013-10-15T20:33:02.267Z</time>
      </trkpt>
      <trkpt lat="48.87493" lon="2.31934">
        <ele>96</ele>
        <time>2013-10-15T20:33:07.264Z</time>
      </trkpt>
      <trkpt lat="48.87493" lon="2.31933">
        <ele>94</ele>
        <time>2013-10-15T20:33:08.274Z</time>
      </trkpt>
      <trkpt lat="48.87493" lon="2.31931">
        <ele>79</ele>
        <time>2013-10-15T20:33:22.276Z</time>
      </trkpt>
      <trkpt lat="48.87493" lon="2.31929">
        <ele>78</ele>
        <time>2013-10-15T20:33:23.265Z</time>
      </trkpt>
      <trkpt lat="48.87499" lon="2.31928">
        <ele>77</ele>
        <time>2013-10-15T20:33:30.288Z</time>
      </trkpt>
      <trkpt lat="48.87502" lon="2.3193">
        <ele>80</ele>
        <time>2013-10-15T20:33:31.280Z</time>
      </trkpt>
      <trkpt lat="48.87509" lon="2.31935">
        <ele>78</ele>
        <time>2013-10-15T20:33:33.267Z</time>
      </trkpt>
      <trkpt lat="48.87514" lon="2.31938">
        <ele>76</ele>
        <time>2013-10-15T20:33:34.272Z</time>
      </trkpt>
      <trkpt lat="48.87519" lon="2.31943">
        <ele>76</ele>
        <time>2013-10-15T20:33:35.243Z</time>
      </trkpt>
      <trkpt lat="48.87522" lon="2.31948">
        <ele>80</ele>
        <time>2013-10-15T20:33:36.278Z</time>
      </trkpt>
      <trkpt lat="48.87526" lon="2.31958">
        <ele>81</ele>
        <time>2013-10-15T20:33:38.278Z</time>
      </trkpt>
      <trkpt lat="48.87526" lon="2.31963">
        <ele>80</ele>
        <time>2013-10-15T20:33:39.286Z</time>
      </trkpt>
      <trkpt lat="48.87525" lon="2.31976">
        <ele>84</ele>
        <time>2013-10-15T20:33:42.276Z</time>
      </trkpt>
      <trkpt lat="48.87524" lon="2.3198">
        <ele>82</ele>
        <time>2013-10-15T20:33:43.278Z</time>
      </trkpt>
      <trkpt lat="48.87529" lon="2.31989">
        <ele>78</ele>
        <time>2013-10-15T20:33:48.287Z</time>
      </trkpt>
      <trkpt lat="48.87531" lon="2.31989">
        <ele>73</ele>
        <time>2013-10-15T20:33:49.287Z</time>
      </trkpt>
      <trkpt lat="48.87539" lon="2.31991">
        <ele>73</ele>
        <time>2013-10-15T20:33:53.290Z</time>
      </trkpt>
      <trkpt lat="48.87542" lon="2.31991">
        <ele>74</ele>
        <time>2013-10-15T20:33:54.286Z</time>
      </trkpt>
      <trkpt lat="48.8755" lon="2.31988">
        <ele>71</ele>
        <time>2013-10-15T20:33:57.230Z</time>
      </trkpt>
      <trkpt lat="48.87553" lon="2.31986">
        <ele>74</ele>
        <time>2013-10-15T20:33:58.290Z</time>
      </trkpt>
      <trkpt lat="48.8756" lon="2.31983">
        <ele>77</ele>
        <time>2013-10-15T20:34:00.281Z</time>
      </trkpt>
      <trkpt lat="48.87563" lon="2.31982">
        <ele>78</ele>
        <time>2013-10-15T20:34:01.294Z</time>
      </trkpt>
      <trkpt lat="48.87572" lon="2.3198">
        <ele>73</ele>
        <time>2013-10-15T20:34:04.290Z</time>
      </trkpt>
      <trkpt lat="48.87575" lon="2.31979">
        <ele>71</ele>
        <time>2013-10-15T20:34:05.294Z</time>
      </trkpt>
      <trkpt lat="48.87584" lon="2.31977">
        <ele>70</ele>
        <time>2013-10-15T20:34:08.282Z</time>
      </trkpt>
      <trkpt lat="48.87586" lon="2.31976">
        <ele>70</ele>
        <time>2013-10-15T20:34:09.286Z</time>
      </trkpt>
      <trkpt lat="48.87593" lon="2.31974">
        <ele>62</ele>
        <time>2013-10-15T20:34:12.288Z</time>
      </trkpt>
      <trkpt lat="48.87596" lon="2.31974">
        <ele>61</ele>
        <time>2013-10-15T20:34:13.317Z</time>
      </trkpt>
      <trkpt lat="48.87602" lon="2.31972">
        <ele>61</ele>
        <time>2013-10-15T20:34:15.288Z</time>
      </trkpt>
      <trkpt lat="48.87605" lon="2.31971">
        <ele>66</ele>
        <time>2013-10-15T20:34:16.300Z</time>
      </trkpt>
      <trkpt lat="48.87612" lon="2.31971">
        <ele>65</ele>
        <time>2013-10-15T20:34:18.291Z</time>
      </trkpt>
      <trkpt lat="48.87616" lon="2.31973">
        <ele>65</ele>
        <time>2013-10-15T20:34:19.286Z</time>
      </trkpt>
      <trkpt lat="48.87619" lon="2.31983">
        <ele>66</ele>
        <time>2013-10-15T20:34:22.275Z</time>
      </trkpt>
      <trkpt lat="48.87619" lon="2.31988">
        <ele>69</ele>
        <time>2013-10-15T20:34:23.300Z</time>
      </trkpt>
      <trkpt lat="48.87618" lon="2.32">
        <ele>71</ele>
        <time>2013-10-15T20:34:25.282Z</time>
      </trkpt>
      <trkpt lat="48.87619" lon="2.32006">
        <ele>74</ele>
        <time>2013-10-15T20:34:26.295Z</time>
      </trkpt>
      <trkpt lat="48.87619" lon="2.32017">
        <ele>76</ele>
        <time>2013-10-15T20:34:28.286Z</time>
      </trkpt>
      <trkpt lat="48.87619" lon="2.32022">
        <ele>75</ele>
        <time>2013-10-15T20:34:29.289Z</time>
      </trkpt>
      <trkpt lat="48.87619" lon="2.32032">
        <ele>77</ele>
        <time>2013-10-15T20:34:31.280Z</time>
      </trkpt>
      <trkpt lat="48.87619" lon="2.32037">
        <ele>78</ele>
        <time>2013-10-15T20:34:32.290Z</time>
      </trkpt>
      <trkpt lat="48.87618" lon="2.32048">
        <ele>80</ele>
        <time>2013-10-15T20:34:35.290Z</time>
      </trkpt>
      <trkpt lat="48.87618" lon="2.32051">
        <ele>79</ele>
        <time>2013-10-15T20:34:36.229Z</time>
      </trkpt>
      <trkpt lat="48.87619" lon="2.32061">
        <ele>85</ele>
        <time>2013-10-15T20:34:39.299Z</time>
      </trkpt>
      <trkpt lat="48.87619" lon="2.32065">
        <ele>81</ele>
        <time>2013-10-15T20:34:40.291Z</time>
      </trkpt>
      <trkpt lat="48.87619" lon="2.32075">
        <ele>77</ele>
        <time>2013-10-15T20:34:42.296Z</time>
      </trkpt>
      <trkpt lat="48.8762" lon="2.32081">
        <ele>76</ele>
        <time>2013-10-15T20:34:43.294Z</time>
      </trkpt>
      <trkpt lat="48.87621" lon="2.32091">
        <ele>75</ele>
        <time>2013-10-15T20:34:45.304Z</time>
      </trkpt>
      <trkpt lat="48.87621" lon="2.32096">
        <ele>75</ele>
        <time>2013-10-15T20:34:46.290Z</time>
      </trkpt>
      <trkpt lat="48.87621" lon="2.32108">
        <ele>79</ele>
        <time>2013-10-15T20:34:49.290Z</time>
      </trkpt>
      <trkpt lat="48.87621" lon="2.32111">
        <ele>80</ele>
        <time>2013-10-15T20:34:50.294Z</time>
      </trkpt>
      <trkpt lat="48.87626" lon="2.32118">
        <ele>79</ele>
        <time>2013-10-15T20:34:53.290Z</time>
      </trkpt>
      <trkpt lat="48.87629" lon="2.32119">
        <ele>77</ele>
        <time>2013-10-15T20:34:54.290Z</time>
      </trkpt>
      <trkpt lat="48.87636" lon="2.32124">
        <ele>71</ele>
        <time>2013-10-15T20:34:57.286Z</time>
      </trkpt>
      <trkpt lat="48.87639" lon="2.32125">
        <ele>76</ele>
        <time>2013-10-15T20:34:58.243Z</time>
      </trkpt>
      <trkpt lat="48.87647" lon="2.32129">
        <ele>78</ele>
        <time>2013-10-15T20:35:01.325Z</time>
      </trkpt>
      <trkpt lat="48.87649" lon="2.32131">
        <ele>75</ele>
        <time>2013-10-15T20:35:02.286Z</time>
      </trkpt>
      <trkpt lat="48.87654" lon="2.32136">
        <ele>75</ele>
        <time>2013-10-15T20:35:04.288Z</time>
      </trkpt>
      <trkpt lat="48.87657" lon="2.32138">
        <ele>73</ele>
        <time>2013-10-15T20:35:05.285Z</time>
      </trkpt>
      <trkpt lat="48.87662" lon="2.32144">
        <ele>74</ele>
        <time>2013-10-15T20:35:07.286Z</time>
      </trkpt>
      <trkpt lat="48.87664" lon="2.32147">
        <ele>76</ele>
        <time>2013-10-15T20:35:08.287Z</time>
      </trkpt>
      <trkpt lat="48.87671" lon="2.32153">
        <ele>80</ele>
        <time>2013-10-15T20:35:11.267Z</time>
      </trkpt>
      <trkpt lat="48.87673" lon="2.32155">
        <ele>82</ele>
        <time>2013-10-15T20:35:12.294Z</time>
      </trkpt>
      <trkpt lat="48.8768" lon="2.32162">
        <ele>82</ele>
        <time>2013-10-15T20:35:15.318Z</time>
      </trkpt>
      <trkpt lat="48.87681" lon="2.32165">
        <ele>80</ele>
        <time>2013-10-15T20:35:16.290Z</time>
      </trkpt>
      <trkpt lat="48.87687" lon="2.32175">
        <ele>81</ele>
        <time>2013-10-15T20:35:20.293Z</time>
      </trkpt>
      <trkpt lat="48.87688" lon="2.32175">
        <ele>81</ele>
        <time>2013-10-15T20:35:21.299Z</time>
      </trkpt>
      <trkpt lat="48.87694" lon="2.32179">
        <ele>86</ele>
        <time>2013-10-15T20:35:24.298Z</time>
      </trkpt>
      <trkpt lat="48.87697" lon="2.32181">
        <ele>84</ele>
        <time>2013-10-15T20:35:25.294Z</time>
      </trkpt>
      <trkpt lat="48.87702" lon="2.32185">
        <ele>81</ele>
        <time>2013-10-15T20:35:27.288Z</time>
      </trkpt>
      <trkpt lat="48.87705" lon="2.32187">
        <ele>84</ele>
        <time>2013-10-15T20:35:28.321Z</time>
      </trkpt>
      <trkpt lat="48.87711" lon="2.3219">
        <ele>86</ele>
        <time>2013-10-15T20:35:30.288Z</time>
      </trkpt>
      <trkpt lat="48.87713" lon="2.32193">
        <ele>85</ele>
        <time>2013-10-15T20:35:31.286Z</time>
      </trkpt>
      <trkpt lat="48.87718" lon="2.32198">
        <ele>87</ele>
        <time>2013-10-15T20:35:33.276Z</time>
      </trkpt>
      <trkpt lat="48.87721" lon="2.322">
        <ele>90</ele>
        <time>2013-10-15T20:35:34.290Z</time>
      </trkpt>
      <trkpt lat="48.87727" lon="2.32208">
        <ele>91</ele>
        <time>2013-10-15T20:35:36.299Z</time>
      </trkpt>
      <trkpt lat="48.8773" lon="2.32211">
        <ele>90</ele>
        <time>2013-10-15T20:35:37.235Z</time>
      </trkpt>
      <trkpt lat="48.87737" lon="2.32216">
        <ele>92</ele>
        <time>2013-10-15T20:35:39.294Z</time>
      </trkpt>
      <trkpt lat="48.87741" lon="2.32218">
        <ele>91</ele>
        <time>2013-10-15T20:35:40.299Z</time>
      </trkpt>
      <trkpt lat="48.8775" lon="2.32223">
        <ele>91</ele>
        <time>2013-10-15T20:35:42.298Z</time>
      </trkpt>
      <trkpt lat="48.87754" lon="2.32226">
        <ele>92</ele>
        <time>2013-10-15T20:35:43.260Z</time>
      </trkpt>
      <trkpt lat="48.87762" lon="2.3223">
        <ele>97</ele>
        <time>2013-10-15T20:35:45.291Z</time>
      </trkpt>
      <trkpt lat="48.87766" lon="2.32232">
        <ele>95</ele>
        <time>2013-10-15T20:35:46.295Z</time>
      </trkpt>
      <trkpt lat="48.87772" lon="2.32235">
        <ele>96</ele>
        <time>2013-10-15T20:35:48.286Z</time>
      </trkpt>
      <trkpt lat="48.87775" lon="2.32236">
        <ele>98</ele>
        <time>2013-10-15T20:35:49.235Z</time>
      </trkpt>
      <trkpt lat="48.87782" lon="2.32241">
        <ele>98</ele>
        <time>2013-10-15T20:35:52.286Z</time>
      </trkpt>
      <trkpt lat="48.87784" lon="2.32242">
        <ele>95</ele>
        <time>2013-10-15T20:35:53.287Z</time>
      </trkpt>
      <trkpt lat="48.87791" lon="2.32248">
        <ele>91</ele>
        <time>2013-10-15T20:35:57.286Z</time>
      </trkpt>
      <trkpt lat="48.87792" lon="2.3225">
        <ele>92</ele>
        <time>2013-10-15T20:35:58.287Z</time>
      </trkpt>
      <trkpt lat="48.87801" lon="2.32248">
        <ele>94</ele>
        <time>2013-10-15T20:36:03.290Z</time>
      </trkpt>
      <trkpt lat="48.87803" lon="2.32248">
        <ele>97</ele>
        <time>2013-10-15T20:36:04.292Z</time>
      </trkpt>
      <trkpt lat="48.87811" lon="2.32249">
        <ele>95</ele>
        <time>2013-10-15T20:36:08.287Z</time>
      </trkpt>
      <trkpt lat="48.87813" lon="2.32249">
        <ele>93</ele>
        <time>2013-10-15T20:36:09.288Z</time>
      </trkpt>
      <trkpt lat="48.87818" lon="2.3225">
        <ele>91</ele>
        <time>2013-10-15T20:36:12.242Z</time>
      </trkpt>
      <trkpt lat="48.87825" lon="2.32251">
        <ele>95</ele>
        <time>2013-10-15T20:36:16.286Z</time>
      </trkpt>
      <trkpt lat="48.8785" lon="2.32253">
        <ele>96</ele>
        <time>2013-10-15T20:36:30.401Z</time>
      </trkpt>
      <trkpt lat="48.87854" lon="2.3225">
        <ele>97</ele>
        <time>2013-10-15T20:36:31.299Z</time>
      </trkpt>
      <trkpt lat="48.87859" lon="2.32245">
        <ele>96</ele>
        <time>2013-10-15T20:36:32.303Z</time>
      </trkpt>
      <trkpt lat="48.87864" lon="2.32239">
        <ele>94</ele>
        <time>2013-10-15T20:36:33.302Z</time>
      </trkpt>
      <trkpt lat="48.87869" lon="2.32235">
        <ele>94</ele>
        <time>2013-10-15T20:36:34.302Z</time>
      </trkpt>
      <trkpt lat="48.87874" lon="2.32233">
        <ele>93</ele>
        <time>2013-10-15T20:36:35.299Z</time>
      </trkpt>
      <trkpt lat="48.87878" lon="2.32231">
        <ele>93</ele>
        <time>2013-10-15T20:36:36.300Z</time>
      </trkpt>
      <trkpt lat="48.87886" lon="2.32228">
        <ele>95</ele>
        <time>2013-10-15T20:36:38.240Z</time>
      </trkpt>
      <trkpt lat="48.8789" lon="2.32225">
        <ele>92</ele>
        <time>2013-10-15T20:36:39.298Z</time>
      </trkpt>
      <trkpt lat="48.87898" lon="2.3222">
        <ele>97</ele>
        <time>2013-10-15T20:36:41.296Z</time>
      </trkpt>
      <trkpt lat="48.87903" lon="2.32217">
        <ele>95</ele>
        <time>2013-10-15T20:36:42.519Z</time>
      </trkpt>
      <trkpt lat="48.8791" lon="2.32212">
        <ele>95</ele>
        <time>2013-10-15T20:36:44.295Z</time>
      </trkpt>
      <trkpt lat="48.87913" lon="2.32209">
        <ele>92</ele>
        <time>2013-10-15T20:36:45.303Z</time>
      </trkpt>
      <trkpt lat="48.87918" lon="2.32202">
        <ele>93</ele>
        <time>2013-10-15T20:36:47.296Z</time>
      </trkpt>
      <trkpt lat="48.87921" lon="2.32198">
        <ele>93</ele>
        <time>2013-10-15T20:36:48.294Z</time>
      </trkpt>
      <trkpt lat="48.87927" lon="2.32192">
        <ele>95</ele>
        <time>2013-10-15T20:36:50.241Z</time>
      </trkpt>
      <trkpt lat="48.8793" lon="2.3219">
        <ele>97</ele>
        <time>2013-10-15T20:36:51.296Z</time>
      </trkpt>
      <trkpt lat="48.87938" lon="2.32185">
        <ele>98</ele>
        <time>2013-10-15T20:36:53.312Z</time>
      </trkpt>
      <trkpt lat="48.87942" lon="2.32183">
        <ele>97</ele>
        <time>2013-10-15T20:36:54.307Z</time>
      </trkpt>
      <trkpt lat="48.87949" lon="2.32177">
        <ele>90</ele>
        <time>2013-10-15T20:36:56.298Z</time>
      </trkpt>
      <trkpt lat="48.87953" lon="2.32174">
        <ele>92</ele>
        <time>2013-10-15T20:36:57.293Z</time>
      </trkpt>
      <trkpt lat="48.87961" lon="2.3217">
        <ele>92</ele>
        <time>2013-10-15T20:36:59.298Z</time>
      </trkpt>
      <trkpt lat="48.87965" lon="2.32169">
        <ele>91</ele>
        <time>2013-10-15T20:37:00.271Z</time>
      </trkpt>
      <trkpt lat="48.87972" lon="2.32165">
        <ele>91</ele>
        <time>2013-10-15T20:37:02.298Z</time>
      </trkpt>
      <trkpt lat="48.87976" lon="2.32164">
        <ele>93</ele>
        <time>2013-10-15T20:37:03.282Z</time>
      </trkpt>
      <trkpt lat="48.87982" lon="2.3216">
        <ele>97</ele>
        <time>2013-10-15T20:37:05.295Z</time>
      </trkpt>
      <trkpt lat="48.87986" lon="2.32158">
        <ele>98</ele>
        <time>2013-10-15T20:37:06.297Z</time>
      </trkpt>
      <trkpt lat="48.87993" lon="2.32154">
        <ele>96</ele>
        <time>2013-10-15T20:37:08.325Z</time>
      </trkpt>
      <trkpt lat="48.87997" lon="2.32152">
        <ele>95</ele>
        <time>2013-10-15T20:37:09.318Z</time>
      </trkpt>
      <trkpt lat="48.88005" lon="2.3215">
        <ele>98</ele>
        <time>2013-10-15T20:37:11.302Z</time>
      </trkpt>
      <trkpt lat="48.8801" lon="2.32149">
        <ele>98</ele>
        <time>2013-10-15T20:37:12.300Z</time>
      </trkpt>
      <trkpt lat="48.88018" lon="2.32148">
        <ele>98</ele>
        <time>2013-10-15T20:37:14.300Z</time>
      </trkpt>
      <trkpt lat="48.88022" lon="2.32148">
        <ele>96</ele>
        <time>2013-10-15T20:37:15.300Z</time>
      </trkpt>
      <trkpt lat="48.88029" lon="2.32146">
        <ele>100</ele>
        <time>2013-10-15T20:37:17.268Z</time>
      </trkpt>
      <trkpt lat="48.88033" lon="2.32145">
        <ele>100</ele>
        <time>2013-10-15T20:37:18.266Z</time>
      </trkpt>
      <trkpt lat="48.88039" lon="2.3214">
        <ele>96</ele>
        <time>2013-10-15T20:37:20.308Z</time>
      </trkpt>
      <trkpt lat="48.88042" lon="2.32137">
        <ele>94</ele>
        <time>2013-10-15T20:37:21.269Z</time>
      </trkpt>
      <trkpt lat="48.88048" lon="2.3213">
        <ele>95</ele>
        <time>2013-10-15T20:37:23.271Z</time>
      </trkpt>
      <trkpt lat="48.88051" lon="2.32128">
        <ele>94</ele>
        <time>2013-10-15T20:37:24.272Z</time>
      </trkpt>
      <trkpt lat="48.88058" lon="2.32125">
        <ele>98</ele>
        <time>2013-10-15T20:37:26.281Z</time>
      </trkpt>
      <trkpt lat="48.88062" lon="2.32124">
        <ele>99</ele>
        <time>2013-10-15T20:37:27.269Z</time>
      </trkpt>
      <trkpt lat="48.8807" lon="2.32123">
        <ele>100</ele>
        <time>2013-10-15T20:37:29.270Z</time>
      </trkpt>
      <trkpt lat="48.88074" lon="2.3212">
        <ele>97</ele>
        <time>2013-10-15T20:37:30.267Z</time>
      </trkpt>
      <trkpt lat="48.88078" lon="2.32118">
        <ele>88</ele>
        <time>2013-10-15T20:37:31.278Z</time>
      </trkpt>
      <trkpt lat="48.88083" lon="2.32115">
        <ele>89</ele>
        <time>2013-10-15T20:37:32.280Z</time>
      </trkpt>
      <trkpt lat="48.88087" lon="2.32111">
        <ele>94</ele>
        <time>2013-10-15T20:37:33.279Z</time>
      </trkpt>
      <trkpt lat="48.88091" lon="2.32107">
        <ele>91</ele>
        <time>2013-10-15T20:37:34.284Z</time>
      </trkpt>
      <trkpt lat="48.88099" lon="2.32101">
        <ele>90</ele>
        <time>2013-10-15T20:37:36.276Z</time>
      </trkpt>
      <trkpt lat="48.88102" lon="2.32098">
        <ele>91</ele>
        <time>2013-10-15T20:37:37.275Z</time>
      </trkpt>
      <trkpt lat="48.8811" lon="2.32093">
        <ele>92</ele>
        <time>2013-10-15T20:37:39.237Z</time>
      </trkpt>
      <trkpt lat="48.88114" lon="2.32091">
        <ele>91</ele>
        <time>2013-10-15T20:37:40.273Z</time>
      </trkpt>
      <trkpt lat="48.88121" lon="2.32087">
        <ele>91</ele>
        <time>2013-10-15T20:37:42.272Z</time>
      </trkpt>
      <trkpt lat="48.88125" lon="2.32086">
        <ele>93</ele>
        <time>2013-10-15T20:37:43.274Z</time>
      </trkpt>
      <trkpt lat="48.88133" lon="2.32083">
        <ele>93</ele>
        <time>2013-10-15T20:37:45.272Z</time>
      </trkpt>
      <trkpt lat="48.88137" lon="2.32082">
        <ele>96</ele>
        <time>2013-10-15T20:37:46.286Z</time>
      </trkpt>
      <trkpt lat="48.88144" lon="2.32079">
        <ele>100</ele>
        <time>2013-10-15T20:37:48.282Z</time>
      </trkpt>
      <trkpt lat="48.88148" lon="2.32077">
        <ele>98</ele>
        <time>2013-10-15T20:37:49.282Z</time>
      </trkpt>
      <trkpt lat="48.88156" lon="2.32073">
        <ele>98</ele>
        <time>2013-10-15T20:37:51.223Z</time>
      </trkpt>
      <trkpt lat="48.8816" lon="2.32071">
        <ele>100</ele>
        <time>2013-10-15T20:37:52.276Z</time>
      </trkpt>
      <trkpt lat="48.88167" lon="2.32067">
        <ele>102</ele>
        <time>2013-10-15T20:37:54.286Z</time>
      </trkpt>
      <trkpt lat="48.88171" lon="2.32065">
        <ele>101</ele>
        <time>2013-10-15T20:37:55.287Z</time>
      </trkpt>
      <trkpt lat="48.88177" lon="2.32062">
        <ele>101</ele>
        <time>2013-10-15T20:37:57.287Z</time>
      </trkpt>
      <trkpt lat="48.8818" lon="2.32061">
        <ele>102</ele>
        <time>2013-10-15T20:37:58.281Z</time>
      </trkpt>
      <trkpt lat="48.88188" lon="2.32057">
        <ele>101</ele>
        <time>2013-10-15T20:38:01.242Z</time>
      </trkpt>
      <trkpt lat="48.8819" lon="2.32057">
        <ele>101</ele>
        <time>2013-10-15T20:38:02.282Z</time>
      </trkpt>
      <trkpt lat="48.88191" lon="2.32058">
        <ele>109</ele>
        <time>2013-10-15T20:38:08.290Z</time>
      </trkpt>
      <trkpt lat="48.88191" lon="2.32058">
        <ele>110</ele>
        <time>2013-10-15T20:38:09.298Z</time>
      </trkpt>
      <trkpt lat="48.8819" lon="2.32058">
        <ele>113</ele>
        <time>2013-10-15T20:38:14.259Z</time>
      </trkpt>
      <trkpt lat="48.88189" lon="2.32058">
        <ele>113</ele>
        <time>2013-10-15T20:38:15.284Z</time>
      </trkpt>
      <trkpt lat="48.88188" lon="2.32058">
        <ele>113</ele>
        <time>2013-10-15T20:38:19.282Z</time>
      </trkpt>
      <trkpt lat="48.88188" lon="2.32058">
        <ele>111</ele>
        <time>2013-10-15T20:38:20.272Z</time>
      </trkpt>
      <trkpt lat="48.88188" lon="2.32058">
        <ele>114</ele>
        <time>2013-10-15T20:38:22.284Z</time>
      </trkpt>
      <trkpt lat="48.88189" lon="2.32057">
        <ele>113</ele>
        <time>2013-10-15T20:38:23.277Z</time>
      </trkpt>
      <trkpt lat="48.88196" lon="2.32054">
        <ele>107</ele>
        <time>2013-10-15T20:38:28.278Z</time>
      </trkpt>
      <trkpt lat="48.88198" lon="2.32054">
        <ele>105</ele>
        <time>2013-10-15T20:38:29.349Z</time>
      </trkpt>
      <trkpt lat="48.88206" lon="2.32052">
        <ele>104</ele>
        <time>2013-10-15T20:38:36.299Z</time>
      </trkpt>
      <trkpt lat="48.88207" lon="2.32052">
        <ele>105</ele>
        <time>2013-10-15T20:38:37.290Z</time>
      </trkpt>
      <trkpt lat="48.88216" lon="2.32051">
        <ele>103</ele>
        <time>2013-10-15T20:38:43.274Z</time>
      </trkpt>
      <trkpt lat="48.88218" lon="2.32049">
        <ele>106</ele>
        <time>2013-10-15T20:38:44.299Z</time>
      </trkpt>
      <trkpt lat="48.88226" lon="2.32053">
        <ele>99</ele>
        <time>2013-10-15T20:38:48.291Z</time>
      </trkpt>
      <trkpt lat="48.88228" lon="2.32056">
        <ele>98</ele>
        <time>2013-10-15T20:38:49.294Z</time>
      </trkpt>
      <trkpt lat="48.88233" lon="2.32065">
        <ele>98</ele>
        <time>2013-10-15T20:38:52.229Z</time>
      </trkpt>
      <trkpt lat="48.88234" lon="2.3207">
        <ele>98</ele>
        <time>2013-10-15T20:38:53.298Z</time>
      </trkpt>
      <trkpt lat="48.88237" lon="2.32081">
        <ele>102</ele>
        <time>2013-10-15T20:38:57.302Z</time>
      </trkpt>
      <trkpt lat="48.88238" lon="2.32083">
        <ele>100</ele>
        <time>2013-10-15T20:38:58.291Z</time>
      </trkpt>
      <trkpt lat="48.88241" lon="2.32089">
        <ele>110</ele>
        <time>2013-10-15T20:39:09.285Z</time>
      </trkpt>
      <trkpt lat="48.88241" lon="2.32089">
        <ele>108</ele>
        <time>2013-10-15T20:39:10.263Z</time>
      </trkpt>
      <trkpt lat="48.88242" lon="2.32089">
        <ele>105</ele>
        <time>2013-10-15T20:39:11.296Z</time>
      </trkpt>
      <trkpt lat="48.88242" lon="2.32089">
        <ele>104</ele>
        <time>2013-10-15T20:39:12.294Z</time>
      </trkpt>
      <trkpt lat="48.8825" lon="2.3209">
        <ele>92</ele>
        <time>2013-10-15T20:39:16.294Z</time>
      </trkpt>
      <trkpt lat="48.88252" lon="2.32089">
        <ele>92</ele>
        <time>2013-10-15T20:39:17.298Z</time>
      </trkpt>
      <trkpt lat="48.88258" lon="2.32086">
        <ele>96</ele>
        <time>2013-10-15T20:39:19.294Z</time>
      </trkpt>
      <trkpt lat="48.88262" lon="2.32084">
        <ele>98</ele>
        <time>2013-10-15T20:39:20.299Z</time>
      </trkpt>
      <trkpt lat="48.88267" lon="2.32081">
        <ele>98</ele>
        <time>2013-10-15T20:39:21.294Z</time>
      </trkpt>
      <trkpt lat="48.88272" lon="2.32079">
        <ele>97</ele>
        <time>2013-10-15T20:39:22.315Z</time>
      </trkpt>
      <trkpt lat="48.88276" lon="2.32078">
        <ele>95</ele>
        <time>2013-10-15T20:39:23.290Z</time>
      </trkpt>
      <trkpt lat="48.88281" lon="2.32078">
        <ele>95</ele>
        <time>2013-10-15T20:39:24.289Z</time>
      </trkpt>
      <trkpt lat="48.88289" lon="2.32074">
        <ele>95</ele>
        <time>2013-10-15T20:39:26.289Z</time>
      </trkpt>
      <trkpt lat="48.88293" lon="2.32072">
        <ele>94</ele>
        <time>2013-10-15T20:39:27.354Z</time>
      </trkpt>
      <trkpt lat="48.883" lon="2.32069">
        <ele>92</ele>
        <time>2013-10-15T20:39:29.298Z</time>
      </trkpt>
      <trkpt lat="48.88303" lon="2.32068">
        <ele>89</ele>
        <time>2013-10-15T20:39:30.295Z</time>
      </trkpt>
      <trkpt lat="48.8831" lon="2.32066">
        <ele>92</ele>
        <time>2013-10-15T20:39:32.325Z</time>
      </trkpt>
      <trkpt lat="48.88314" lon="2.32065">
        <ele>89</ele>
        <time>2013-10-15T20:39:33.284Z</time>
      </trkpt>
      <trkpt lat="48.88321" lon="2.32063">
        <ele>90</ele>
        <time>2013-10-15T20:39:35.284Z</time>
      </trkpt>
      <trkpt lat="48.88324" lon="2.32062">
        <ele>91</ele>
        <time>2013-10-15T20:39:36.283Z</time>
      </trkpt>
      <trkpt lat="48.88331" lon="2.3206">
        <ele>92</ele>
        <time>2013-10-15T20:39:38.283Z</time>
      </trkpt>
      <trkpt lat="48.88334" lon="2.32059">
        <ele>93</ele>
        <time>2013-10-15T20:39:39.279Z</time>
      </trkpt>
      <trkpt lat="48.88341" lon="2.32058">
        <ele>93</ele>
        <time>2013-10-15T20:39:41.280Z</time>
      </trkpt>
      <trkpt lat="48.88345" lon="2.32058">
        <ele>93</ele>
        <time>2013-10-15T20:39:42.280Z</time>
      </trkpt>
      <trkpt lat="48.88353" lon="2.32057">
        <ele>93</ele>
        <time>2013-10-15T20:39:44.284Z</time>
      </trkpt>
      <trkpt lat="48.88356" lon="2.32054">
        <ele>94</ele>
        <time>2013-10-15T20:39:45.283Z</time>
      </trkpt>
      <trkpt lat="48.88363" lon="2.32057">
        <ele>97</ele>
        <time>2013-10-15T20:39:49.285Z</time>
      </trkpt>
      <trkpt lat="48.88365" lon="2.32061">
        <ele>99</ele>
        <time>2013-10-15T20:39:50.285Z</time>
      </trkpt>
      <trkpt lat="48.88368" lon="2.32071">
        <ele>97</ele>
        <time>2013-10-15T20:39:52.288Z</time>
      </trkpt>
      <trkpt lat="48.8837" lon="2.32076">
        <ele>95</ele>
        <time>2013-10-15T20:39:53.234Z</time>
      </trkpt>
      <trkpt lat="48.88373" lon="2.32085">
        <ele>94</ele>
        <time>2013-10-15T20:39:55.287Z</time>
      </trkpt>
      <trkpt lat="48.88375" lon="2.3209">
        <ele>93</ele>
        <time>2013-10-15T20:39:56.288Z</time>
      </trkpt>
      <trkpt lat="48.88377" lon="2.32099">
        <ele>90</ele>
        <time>2013-10-15T20:39:58.287Z</time>
      </trkpt>
      <trkpt lat="48.88378" lon="2.32104">
        <ele>90</ele>
        <time>2013-10-15T20:39:59.287Z</time>
      </trkpt>
      <trkpt lat="48.8838" lon="2.32116">
        <ele>93</ele>
        <time>2013-10-15T20:40:01.288Z</time>
      </trkpt>
      <trkpt lat="48.88382" lon="2.32122">
        <ele>90</ele>
        <time>2013-10-15T20:40:02.286Z</time>
      </trkpt>
      <trkpt lat="48.88385" lon="2.32134">
        <ele>88</ele>
        <time>2013-10-15T20:40:04.286Z</time>
      </trkpt>
      <trkpt lat="48.88386" lon="2.32139">
        <ele>90</ele>
        <time>2013-10-15T20:40:05.284Z</time>
      </trkpt>
      <trkpt lat="48.88389" lon="2.3215">
        <ele>92</ele>
        <time>2013-10-15T20:40:07.286Z</time>
      </trkpt>
      <trkpt lat="48.88392" lon="2.32156">
        <ele>91</ele>
        <time>2013-10-15T20:40:08.286Z</time>
      </trkpt>
      <trkpt lat="48.88395" lon="2.32161">
        <ele>92</ele>
        <time>2013-10-15T20:40:09.286Z</time>
      </trkpt>
      <trkpt lat="48.88397" lon="2.32167">
        <ele>93</ele>
        <time>2013-10-15T20:40:10.287Z</time>
      </trkpt>
      <trkpt lat="48.884" lon="2.32174">
        <ele>93</ele>
        <time>2013-10-15T20:40:11.301Z</time>
      </trkpt>
      <trkpt lat="48.88401" lon="2.3218">
        <ele>91</ele>
        <time>2013-10-15T20:40:12.288Z</time>
      </trkpt>
      <trkpt lat="48.88405" lon="2.32192">
        <ele>93</ele>
        <time>2013-10-15T20:40:14.287Z</time>
      </trkpt>
      <trkpt lat="48.88408" lon="2.32203">
        <ele>93</ele>
        <time>2013-10-15T20:40:16.247Z</time>
      </trkpt>
      <trkpt lat="48.88411" lon="2.32217">
        <ele>89</ele>
        <time>2013-10-15T20:40:19.287Z</time>
      </trkpt>
      <trkpt lat="48.88412" lon="2.32229">
        <ele>89</ele>
        <time>2013-10-15T20:40:22.291Z</time>
      </trkpt>
      <trkpt lat="48.88415" lon="2.32231">
        <ele>93</ele>
        <time>2013-10-15T20:40:23.325Z</time>
      </trkpt>
      <trkpt lat="48.88422" lon="2.32231">
        <ele>97</ele>
        <time>2013-10-15T20:40:26.291Z</time>
      </trkpt>
      <trkpt lat="48.88424" lon="2.32229">
        <ele>97</ele>
        <time>2013-10-15T20:40:27.290Z</time>
      </trkpt>
      <trkpt lat="48.8843" lon="2.32222">
        <ele>97</ele>
        <time>2013-10-15T20:40:29.291Z</time>
      </trkpt>
      <trkpt lat="48.88433" lon="2.32218">
        <ele>94</ele>
        <time>2013-10-15T20:40:30.290Z</time>
      </trkpt>
      <trkpt lat="48.88439" lon="2.32208">
        <ele>93</ele>
        <time>2013-10-15T20:40:32.289Z</time>
      </trkpt>
      <trkpt lat="48.88442" lon="2.32202">
        <ele>92</ele>
        <time>2013-10-15T20:40:33.283Z</time>
      </trkpt>
      <trkpt lat="48.88447" lon="2.32192">
        <ele>91</ele>
        <time>2013-10-15T20:40:35.289Z</time>
      </trkpt>
      <trkpt lat="48.8845" lon="2.32186">
        <ele>88</ele>
        <time>2013-10-15T20:40:36.277Z</time>
      </trkpt>
      <trkpt lat="48.88454" lon="2.32175">
        <ele>90</ele>
        <time>2013-10-15T20:40:38.291Z</time>
      </trkpt>
      <trkpt lat="48.88457" lon="2.3217">
        <ele>91</ele>
        <time>2013-10-15T20:40:39.291Z</time>
      </trkpt>
      <trkpt lat="48.8846" lon="2.32164">
        <ele>90</ele>
        <time>2013-10-15T20:40:40.291Z</time>
      </trkpt>
      <trkpt lat="48.88463" lon="2.32158">
        <ele>89</ele>
        <time>2013-10-15T20:40:41.286Z</time>
      </trkpt>
      <trkpt lat="48.88466" lon="2.32152">
        <ele>86</ele>
        <time>2013-10-15T20:40:42.258Z</time>
      </trkpt>
      <trkpt lat="48.88469" lon="2.32147">
        <ele>88</ele>
        <time>2013-10-15T20:40:43.290Z</time>
      </trkpt>
      <trkpt lat="48.88473" lon="2.32142">
        <ele>88</ele>
        <time>2013-10-15T20:40:44.290Z</time>
      </trkpt>
      <trkpt lat="48.88476" lon="2.32137">
        <ele>87</ele>
        <time>2013-10-15T20:40:45.290Z</time>
      </trkpt>
      <trkpt lat="48.88479" lon="2.32131">
        <ele>91</ele>
        <time>2013-10-15T20:40:46.238Z</time>
      </trkpt>
      <trkpt lat="48.88482" lon="2.32125">
        <ele>91</ele>
        <time>2013-10-15T20:40:47.290Z</time>
      </trkpt>
      <trkpt lat="48.88485" lon="2.32117">
        <ele>93</ele>
        <time>2013-10-15T20:40:48.291Z</time>
      </trkpt>
      <trkpt lat="48.88488" lon="2.32111">
        <ele>93</ele>
        <time>2013-10-15T20:40:49.290Z</time>
      </trkpt>
      <trkpt lat="48.88491" lon="2.32104">
        <ele>92</ele>
        <time>2013-10-15T20:40:50.290Z</time>
      </trkpt>
      <trkpt lat="48.88494" lon="2.32096">
        <ele>94</ele>
        <time>2013-10-15T20:40:51.290Z</time>
      </trkpt>
      <trkpt lat="48.88496" lon="2.32089">
        <ele>95</ele>
        <time>2013-10-15T20:40:52.299Z</time>
      </trkpt>
      <trkpt lat="48.88499" lon="2.32083">
        <ele>93</ele>
        <time>2013-10-15T20:40:53.298Z</time>
      </trkpt>
      <trkpt lat="48.88503" lon="2.32072">
        <ele>93</ele>
        <time>2013-10-15T20:40:55.261Z</time>
      </trkpt>
      <trkpt lat="48.88505" lon="2.32067">
        <ele>92</ele>
        <time>2013-10-15T20:40:56.294Z</time>
      </trkpt>
      <trkpt lat="48.88509" lon="2.32058">
        <ele>94</ele>
        <time>2013-10-15T20:40:58.298Z</time>
      </trkpt>
      <trkpt lat="48.8851" lon="2.32053">
        <ele>97</ele>
        <time>2013-10-15T20:40:59.402Z</time>
      </trkpt>
      <trkpt lat="48.88514" lon="2.32044">
        <ele>97</ele>
        <time>2013-10-15T20:41:01.299Z</time>
      </trkpt>
      <trkpt lat="48.88516" lon="2.3204">
        <ele>95</ele>
        <time>2013-10-15T20:41:02.291Z</time>
      </trkpt>
      <trkpt lat="48.8852" lon="2.32031">
        <ele>96</ele>
        <time>2013-10-15T20:41:04.262Z</time>
      </trkpt>
      <trkpt lat="48.88522" lon="2.32027">
        <ele>96</ele>
        <time>2013-10-15T20:41:05.290Z</time>
      </trkpt>
      <trkpt lat="48.88526" lon="2.32017">
        <ele>90</ele>
        <time>2013-10-15T20:41:07.295Z</time>
      </trkpt>
      <trkpt lat="48.88528" lon="2.32011">
        <ele>89</ele>
        <time>2013-10-15T20:41:08.295Z</time>
      </trkpt>
      <trkpt lat="48.88531" lon="2.32005">
        <ele>95</ele>
        <time>2013-10-15T20:41:09.322Z</time>
      </trkpt>
      <trkpt lat="48.88533" lon="2.31999">
        <ele>92</ele>
        <time>2013-10-15T20:41:10.316Z</time>
      </trkpt>
      <trkpt lat="48.88535" lon="2.31992">
        <ele>92</ele>
        <time>2013-10-15T20:41:11.288Z</time>
      </trkpt>
      <trkpt lat="48.88537" lon="2.31985">
        <ele>91</ele>
        <time>2013-10-15T20:41:12.279Z</time>
      </trkpt>
      <trkpt lat="48.8854" lon="2.31978">
        <ele>93</ele>
        <time>2013-10-15T20:41:13.290Z</time>
      </trkpt>
      <trkpt lat="48.88545" lon="2.31966">
        <ele>92</ele>
        <time>2013-10-15T20:41:15.295Z</time>
      </trkpt>
      <trkpt lat="48.88548" lon="2.31959">
        <ele>91</ele>
        <time>2013-10-15T20:41:16.302Z</time>
      </trkpt>
      <trkpt lat="48.88552" lon="2.31954">
        <ele>92</ele>
        <time>2013-10-15T20:41:17.306Z</time>
      </trkpt>
      <trkpt lat="48.88555" lon="2.31949">
        <ele>95</ele>
        <time>2013-10-15T20:41:18.296Z</time>
      </trkpt>
      <trkpt lat="48.88559" lon="2.31945">
        <ele>94</ele>
        <time>2013-10-15T20:41:19.295Z</time>
      </trkpt>
      <trkpt lat="48.88563" lon="2.3194">
        <ele>91</ele>
        <time>2013-10-15T20:41:20.257Z</time>
      </trkpt>
      <trkpt lat="48.88566" lon="2.31935">
        <ele>91</ele>
        <time>2013-10-15T20:41:21.296Z</time>
      </trkpt>
      <trkpt lat="48.8857" lon="2.31929">
        <ele>90</ele>
        <time>2013-10-15T20:41:22.294Z</time>
      </trkpt>
      <trkpt lat="48.88573" lon="2.31924">
        <ele>92</ele>
        <time>2013-10-15T20:41:23.297Z</time>
      </trkpt>
      <trkpt lat="48.88577" lon="2.31919">
        <ele>91</ele>
        <time>2013-10-15T20:41:24.278Z</time>
      </trkpt>
      <trkpt lat="48.88581" lon="2.31914">
        <ele>90</ele>
        <time>2013-10-15T20:41:25.290Z</time>
      </trkpt>
      <trkpt lat="48.88584" lon="2.31909">
        <ele>94</ele>
        <time>2013-10-15T20:41:26.241Z</time>
      </trkpt>
      <trkpt lat="48.88588" lon="2.31904">
        <ele>93</ele>
        <time>2013-10-15T20:41:27.290Z</time>
      </trkpt>
      <trkpt lat="48.88591" lon="2.31898">
        <ele>91</ele>
        <time>2013-10-15T20:41:28.294Z</time>
      </trkpt>
      <trkpt lat="48.88594" lon="2.31892">
        <ele>91</ele>
        <time>2013-10-15T20:41:29.289Z</time>
      </trkpt>
      <trkpt lat="48.88597" lon="2.31887">
        <ele>90</ele>
        <time>2013-10-15T20:41:30.291Z</time>
      </trkpt>
      <trkpt lat="48.886" lon="2.31881">
        <ele>91</ele>
        <time>2013-10-15T20:41:31.291Z</time>
      </trkpt>
      <trkpt lat="48.88606" lon="2.31871">
        <ele>92</ele>
        <time>2013-10-15T20:41:33.376Z</time>
      </trkpt>
      <trkpt lat="48.8861" lon="2.31861">
        <ele>93</ele>
        <time>2013-10-15T20:41:35.292Z</time>
      </trkpt>
      <trkpt lat="48.88613" lon="2.31856">
        <ele>93</ele>
        <time>2013-10-15T20:41:36.292Z</time>
      </trkpt>
      <trkpt lat="48.88617" lon="2.31848">
        <ele>91</ele>
        <time>2013-10-15T20:41:38.288Z</time>
      </trkpt>
      <trkpt lat="48.88619" lon="2.31843">
        <ele>92</ele>
        <time>2013-10-15T20:41:39.295Z</time>
      </trkpt>
      <trkpt lat="48.88623" lon="2.31832">
        <ele>91</ele>
        <time>2013-10-15T20:41:41.295Z</time>
      </trkpt>
      <trkpt lat="48.88625" lon="2.31827">
        <ele>91</ele>
        <time>2013-10-15T20:41:42.295Z</time>
      </trkpt>
      <trkpt lat="48.88629" lon="2.31824">
        <ele>90</ele>
        <time>2013-10-15T20:41:43.265Z</time>
      </trkpt>
      <trkpt lat="48.88634" lon="2.31822">
        <ele>91</ele>
        <time>2013-10-15T20:41:44.299Z</time>
      </trkpt>
      <trkpt lat="48.88639" lon="2.31821">
        <ele>89</ele>
        <time>2013-10-15T20:41:45.287Z</time>
      </trkpt>
      <trkpt lat="48.88645" lon="2.31822">
        <ele>89</ele>
        <time>2013-10-15T20:41:46.297Z</time>
      </trkpt>
      <trkpt lat="48.88652" lon="2.31824">
        <ele>90</ele>
        <time>2013-10-15T20:41:47.295Z</time>
      </trkpt>
      <trkpt lat="48.88658" lon="2.31823">
        <ele>91</ele>
        <time>2013-10-15T20:41:48.293Z</time>
      </trkpt>
      <trkpt lat="48.88663" lon="2.31822">
        <ele>93</ele>
        <time>2013-10-15T20:41:49.303Z</time>
      </trkpt>
      <trkpt lat="48.88667" lon="2.31819">
        <ele>92</ele>
        <time>2013-10-15T20:41:50.297Z</time>
      </trkpt>
      <trkpt lat="48.88675" lon="2.31818">
        <ele>97</ele>
        <time>2013-10-15T20:41:52.317Z</time>
      </trkpt>
      <trkpt lat="48.88678" lon="2.31817">
        <ele>97</ele>
        <time>2013-10-15T20:41:53.310Z</time>
      </trkpt>
      <trkpt lat="48.88685" lon="2.3181">
        <ele>94</ele>
        <time>2013-10-15T20:41:56.302Z</time>
      </trkpt>
      <trkpt lat="48.88688" lon="2.31808">
        <ele>95</ele>
        <time>2013-10-15T20:41:57.311Z</time>
      </trkpt>
      <trkpt lat="48.88693" lon="2.31803">
        <ele>96</ele>
        <time>2013-10-15T20:41:59.294Z</time>
      </trkpt>
      <trkpt lat="48.88696" lon="2.318">
        <ele>95</ele>
        <time>2013-10-15T20:42:00.294Z</time>
      </trkpt>
      <trkpt lat="48.88701" lon="2.31791">
        <ele>93</ele>
        <time>2013-10-15T20:42:02.294Z</time>
      </trkpt>
      <trkpt lat="48.88704" lon="2.31786">
        <ele>93</ele>
        <time>2013-10-15T20:42:03.292Z</time>
      </trkpt>
      <trkpt lat="48.88707" lon="2.31781">
        <ele>91</ele>
        <time>2013-10-15T20:42:04.294Z</time>
      </trkpt>
      <trkpt lat="48.88709" lon="2.31775">
        <ele>91</ele>
        <time>2013-10-15T20:42:05.267Z</time>
      </trkpt>
      <trkpt lat="48.88714" lon="2.31767">
        <ele>90</ele>
        <time>2013-10-15T20:42:07.298Z</time>
      </trkpt>
      <trkpt lat="48.88717" lon="2.31765">
        <ele>89</ele>
        <time>2013-10-15T20:42:08.360Z</time>
      </trkpt>
      <trkpt lat="48.88724" lon="2.31763">
        <ele>93</ele>
        <time>2013-10-15T20:42:10.300Z</time>
      </trkpt>
      <trkpt lat="48.88728" lon="2.31763">
        <ele>90</ele>
        <time>2013-10-15T20:42:11.302Z</time>
      </trkpt>
      <trkpt lat="48.88735" lon="2.31763">
        <ele>91</ele>
        <time>2013-10-15T20:42:13.278Z</time>
      </trkpt>
      <trkpt lat="48.88738" lon="2.31762">
        <ele>97</ele>
        <time>2013-10-15T20:42:14.314Z</time>
      </trkpt>
      <trkpt lat="48.88745" lon="2.31759">
        <ele>95</ele>
        <time>2013-10-15T20:42:16.312Z</time>
      </trkpt>
      <trkpt lat="48.88749" lon="2.31758">
        <ele>95</ele>
        <time>2013-10-15T20:42:17.305Z</time>
      </trkpt>
      <trkpt lat="48.88755" lon="2.31753">
        <ele>93</ele>
        <time>2013-10-15T20:42:19.307Z</time>
      </trkpt>
      <trkpt lat="48.88758" lon="2.31751">
        <ele>93</ele>
        <time>2013-10-15T20:42:20.306Z</time>
      </trkpt>
      <trkpt lat="48.88765" lon="2.31744">
        <ele>93</ele>
        <time>2013-10-15T20:42:22.310Z</time>
      </trkpt>
      <trkpt lat="48.88769" lon="2.31739">
        <ele>93</ele>
        <time>2013-10-15T20:42:23.306Z</time>
      </trkpt>
      <trkpt lat="48.88773" lon="2.31733">
        <ele>95</ele>
        <time>2013-10-15T20:42:24.257Z</time>
      </trkpt>
      <trkpt lat="48.88777" lon="2.31728">
        <ele>94</ele>
        <time>2013-10-15T20:42:25.262Z</time>
      </trkpt>
      <trkpt lat="48.88781" lon="2.31722">
        <ele>89</ele>
        <time>2013-10-15T20:42:26.302Z</time>
      </trkpt>
      <trkpt lat="48.88785" lon="2.31716">
        <ele>89</ele>
        <time>2013-10-15T20:42:27.301Z</time>
      </trkpt>
      <trkpt lat="48.8879" lon="2.31711">
        <ele>83</ele>
        <time>2013-10-15T20:42:28.304Z</time>
      </trkpt>
      <trkpt lat="48.88794" lon="2.31704">
        <ele>86</ele>
        <time>2013-10-15T20:42:29.259Z</time>
      </trkpt>
      <trkpt lat="48.88797" lon="2.31697">
        <ele>85</ele>
        <time>2013-10-15T20:42:30.308Z</time>
      </trkpt>
      <trkpt lat="48.888" lon="2.3169">
        <ele>81</ele>
        <time>2013-10-15T20:42:31.306Z</time>
      </trkpt>
      <trkpt lat="48.88803" lon="2.31682">
        <ele>85</ele>
        <time>2013-10-15T20:42:32.307Z</time>
      </trkpt>
      <trkpt lat="48.88807" lon="2.31677">
        <ele>90</ele>
        <time>2013-10-15T20:42:33.280Z</time>
      </trkpt>
      <trkpt lat="48.88812" lon="2.31675">
        <ele>92</ele>
        <time>2013-10-15T20:42:34.300Z</time>
      </trkpt>
      <trkpt lat="48.88817" lon="2.31674">
        <ele>89</ele>
        <time>2013-10-15T20:42:35.318Z</time>
      </trkpt>
      <trkpt lat="48.88821" lon="2.31675">
        <ele>88</ele>
        <time>2013-10-15T20:42:36.276Z</time>
      </trkpt>
      <trkpt lat="48.88826" lon="2.31678">
        <ele>87</ele>
        <time>2013-10-15T20:42:37.273Z</time>
      </trkpt>
      <trkpt lat="48.8883" lon="2.31681">
        <ele>87</ele>
        <time>2013-10-15T20:42:38.276Z</time>
      </trkpt>
      <trkpt lat="48.88835" lon="2.31681">
        <ele>88</ele>
        <time>2013-10-15T20:42:39.270Z</time>
      </trkpt>
      <trkpt lat="48.88839" lon="2.31685">
        <ele>91</ele>
        <time>2013-10-15T20:42:40.262Z</time>
      </trkpt>
      <trkpt lat="48.88843" lon="2.31688">
        <ele>91</ele>
        <time>2013-10-15T20:42:41.269Z</time>
      </trkpt>
      <trkpt lat="48.8885" lon="2.31693">
        <ele>93</ele>
        <time>2013-10-15T20:42:43.273Z</time>
      </trkpt>
      <trkpt lat="48.88853" lon="2.31695">
        <ele>92</ele>
        <time>2013-10-15T20:42:44.275Z</time>
      </trkpt>
      <trkpt lat="48.88859" lon="2.31705">
        <ele>88</ele>
        <time>2013-10-15T20:42:46.231Z</time>
      </trkpt>
      <trkpt lat="48.88861" lon="2.31711">
        <ele>90</ele>
        <time>2013-10-15T20:42:47.276Z</time>
      </trkpt>
      <trkpt lat="48.88864" lon="2.31717">
        <ele>94</ele>
        <time>2013-10-15T20:42:48.263Z</time>
      </trkpt>
      <trkpt lat="48.88867" lon="2.31722">
        <ele>86</ele>
        <time>2013-10-15T20:42:49.281Z</time>
      </trkpt>
      <trkpt lat="48.88872" lon="2.31733">
        <ele>86</ele>
        <time>2013-10-15T20:42:51.273Z</time>
      </trkpt>
      <trkpt lat="48.88874" lon="2.31739">
        <ele>86</ele>
        <time>2013-10-15T20:42:52.273Z</time>
      </trkpt>
      <trkpt lat="48.88876" lon="2.31745">
        <ele>87</ele>
        <time>2013-10-15T20:42:53.273Z</time>
      </trkpt>
      <trkpt lat="48.88879" lon="2.31751">
        <ele>88</ele>
        <time>2013-10-15T20:42:54.285Z</time>
      </trkpt>
      <trkpt lat="48.88882" lon="2.31757">
        <ele>91</ele>
        <time>2013-10-15T20:42:55.271Z</time>
      </trkpt>
      <trkpt lat="48.88885" lon="2.31763">
        <ele>88</ele>
        <time>2013-10-15T20:42:56.276Z</time>
      </trkpt>
      <trkpt lat="48.88889" lon="2.31767">
        <ele>88</ele>
        <time>2013-10-15T20:42:57.276Z</time>
      </trkpt>
      <trkpt lat="48.88893" lon="2.31772">
        <ele>89</ele>
        <time>2013-10-15T20:42:58.277Z</time>
      </trkpt>
      <trkpt lat="48.889" lon="2.31779">
        <ele>90</ele>
        <time>2013-10-15T20:43:00.281Z</time>
      </trkpt>
      <trkpt lat="48.88903" lon="2.31781">
        <ele>89</ele>
        <time>2013-10-15T20:43:01.279Z</time>
      </trkpt>
      <trkpt lat="48.88909" lon="2.3179">
        <ele>89</ele>
        <time>2013-10-15T20:43:04.291Z</time>
      </trkpt>
      <trkpt lat="48.88911" lon="2.31795">
        <ele>87</ele>
        <time>2013-10-15T20:43:05.275Z</time>
      </trkpt>
      <trkpt lat="48.88915" lon="2.31803">
        <ele>90</ele>
        <time>2013-10-15T20:43:07.274Z</time>
      </trkpt>
      <trkpt lat="48.88918" lon="2.31808">
        <ele>89</ele>
        <time>2013-10-15T20:43:08.275Z</time>
      </trkpt>
      <trkpt lat="48.88924" lon="2.31817">
        <ele>87</ele>
        <time>2013-10-15T20:43:10.273Z</time>
      </trkpt>
      <trkpt lat="48.88927" lon="2.31822">
        <ele>88</ele>
        <time>2013-10-15T20:43:11.274Z</time>
      </trkpt>
      <trkpt lat="48.88931" lon="2.31827">
        <ele>81</ele>
        <time>2013-10-15T20:43:12.278Z</time>
      </trkpt>
      <trkpt lat="48.88935" lon="2.31832">
        <ele>82</ele>
        <time>2013-10-15T20:43:13.273Z</time>
      </trkpt>
      <trkpt lat="48.88938" lon="2.31837">
        <ele>81</ele>
        <time>2013-10-15T20:43:14.267Z</time>
      </trkpt>
      <trkpt lat="48.88942" lon="2.31842">
        <ele>83</ele>
        <time>2013-10-15T20:43:15.273Z</time>
      </trkpt>
      <trkpt lat="48.88945" lon="2.31847">
        <ele>83</ele>
        <time>2013-10-15T20:43:16.276Z</time>
      </trkpt>
      <trkpt lat="48.88948" lon="2.31852">
        <ele>84</ele>
        <time>2013-10-15T20:43:17.274Z</time>
      </trkpt>
      <trkpt lat="48.88952" lon="2.31861">
        <ele>87</ele>
        <time>2013-10-15T20:43:19.290Z</time>
      </trkpt>
      <trkpt lat="48.88954" lon="2.31865">
        <ele>85</ele>
        <time>2013-10-15T20:43:20.286Z</time>
      </trkpt>
      <trkpt lat="48.88958" lon="2.31873">
        <ele>84</ele>
        <time>2013-10-15T20:43:22.282Z</time>
      </trkpt>
      <trkpt lat="48.88961" lon="2.31877">
        <ele>84</ele>
        <time>2013-10-15T20:43:23.274Z</time>
      </trkpt>
      <trkpt lat="48.88966" lon="2.31884">
        <ele>84</ele>
        <time>2013-10-15T20:43:25.298Z</time>
      </trkpt>
      <trkpt lat="48.88969" lon="2.31887">
        <ele>82</ele>
        <time>2013-10-15T20:43:26.265Z</time>
      </trkpt>
      <trkpt lat="48.88975" lon="2.31892">
        <ele>78</ele>
        <time>2013-10-15T20:43:28.286Z</time>
      </trkpt>
      <trkpt lat="48.88978" lon="2.31895">
        <ele>81</ele>
        <time>2013-10-15T20:43:29.280Z</time>
      </trkpt>
      <trkpt lat="48.88985" lon="2.319">
        <ele>80</ele>
        <time>2013-10-15T20:43:31.284Z</time>
      </trkpt>
      <trkpt lat="48.88989" lon="2.31903">
        <ele>80</ele>
        <time>2013-10-15T20:43:32.283Z</time>
      </trkpt>
      <trkpt lat="48.88993" lon="2.31907">
        <ele>81</ele>
        <time>2013-10-15T20:43:33.282Z</time>
      </trkpt>
      <trkpt lat="48.88996" lon="2.31912">
        <ele>76</ele>
        <time>2013-10-15T20:43:34.283Z</time>
      </trkpt>
      <trkpt lat="48.89" lon="2.31916">
        <ele>79</ele>
        <time>2013-10-15T20:43:35.283Z</time>
      </trkpt>
      <trkpt lat="48.89003" lon="2.3192">
        <ele>82</ele>
        <time>2013-10-15T20:43:36.373Z</time>
      </trkpt>
      <trkpt lat="48.89009" lon="2.31929">
        <ele>84</ele>
        <time>2013-10-15T20:43:38.283Z</time>
      </trkpt>
      <trkpt lat="48.89012" lon="2.31933">
        <ele>87</ele>
        <time>2013-10-15T20:43:39.278Z</time>
      </trkpt>
      <trkpt lat="48.89018" lon="2.31942">
        <ele>86</ele>
        <time>2013-10-15T20:43:41.284Z</time>
      </trkpt>
      <trkpt lat="48.89021" lon="2.31947">
        <ele>87</ele>
        <time>2013-10-15T20:43:42.284Z</time>
      </trkpt>
      <trkpt lat="48.89026" lon="2.31956">
        <ele>87</ele>
        <time>2013-10-15T20:43:44.281Z</time>
      </trkpt>
      <trkpt lat="48.89029" lon="2.31961">
        <ele>86</ele>
        <time>2013-10-15T20:43:45.284Z</time>
      </trkpt>
      <trkpt lat="48.89034" lon="2.3197">
        <ele>88</ele>
        <time>2013-10-15T20:43:47.281Z</time>
      </trkpt>
      <trkpt lat="48.89036" lon="2.31974">
        <ele>90</ele>
        <time>2013-10-15T20:43:48.284Z</time>
      </trkpt>
      <trkpt lat="48.89041" lon="2.31981">
        <ele>89</ele>
        <time>2013-10-15T20:43:50.282Z</time>
      </trkpt>
      <trkpt lat="48.89044" lon="2.31984">
        <ele>89</ele>
        <time>2013-10-15T20:43:51.281Z</time>
      </trkpt>
      <trkpt lat="48.89049" lon="2.3199">
        <ele>83</ele>
        <time>2013-10-15T20:43:53.282Z</time>
      </trkpt>
      <trkpt lat="48.89052" lon="2.31993">
        <ele>88</ele>
        <time>2013-10-15T20:43:54.278Z</time>
      </trkpt>
      <trkpt lat="48.89059" lon="2.32001">
        <ele>90</ele>
        <time>2013-10-15T20:43:57.243Z</time>
      </trkpt>
      <trkpt lat="48.89061" lon="2.32003">
        <ele>87</ele>
        <time>2013-10-15T20:43:58.286Z</time>
      </trkpt>
      <trkpt lat="48.89062" lon="2.32012">
        <ele>89</ele>
        <time>2013-10-15T20:44:02.282Z</time>
      </trkpt>
      <trkpt lat="48.89061" lon="2.32019">
        <ele>92</ele>
        <time>2013-10-15T20:44:04.282Z</time>
      </trkpt>
      <trkpt lat="48.89061" lon="2.32032">
        <ele>93</ele>
        <time>2013-10-15T20:44:10.286Z</time>
      </trkpt>
      <trkpt lat="48.89063" lon="2.32033">
        <ele>91</ele>
        <time>2013-10-15T20:44:11.288Z</time>
      </trkpt>
      <trkpt lat="48.8907" lon="2.3204">
        <ele>93</ele>
        <time>2013-10-15T20:44:15.271Z</time>
      </trkpt>
      <trkpt lat="48.89071" lon="2.32042">
        <ele>94</ele>
        <time>2013-10-15T20:44:16.294Z</time>
      </trkpt>
      <trkpt lat="48.89078" lon="2.32048">
        <ele>91</ele>
        <time>2013-10-15T20:44:20.286Z</time>
      </trkpt>
      <trkpt lat="48.89081" lon="2.32049">
        <ele>91</ele>
        <time>2013-10-15T20:44:21.281Z</time>
      </trkpt>
      <trkpt lat="48.89086" lon="2.32053">
        <ele>92</ele>
        <time>2013-10-15T20:44:23.286Z</time>
      </trkpt>
      <trkpt lat="48.89089" lon="2.32054">
        <ele>92</ele>
        <time>2013-10-15T20:44:24.286Z</time>
      </trkpt>
      <trkpt lat="48.89095" lon="2.32059">
        <ele>91</ele>
        <time>2013-10-15T20:44:26.288Z</time>
      </trkpt>
      <trkpt lat="48.89099" lon="2.32061">
        <ele>90</ele>
        <time>2013-10-15T20:44:27.323Z</time>
      </trkpt>
      <trkpt lat="48.89105" lon="2.32065">
        <ele>91</ele>
        <time>2013-10-15T20:44:29.286Z</time>
      </trkpt>
      <trkpt lat="48.89109" lon="2.32067">
        <ele>94</ele>
        <time>2013-10-15T20:44:30.300Z</time>
      </trkpt>
      <trkpt lat="48.89117" lon="2.32072">
        <ele>92</ele>
        <time>2013-10-15T20:44:32.393Z</time>
      </trkpt>
      <trkpt lat="48.8912" lon="2.32074">
        <ele>92</ele>
        <time>2013-10-15T20:44:33.287Z</time>
      </trkpt>
      <trkpt lat="48.89128" lon="2.32078">
        <ele>91</ele>
        <time>2013-10-15T20:44:35.291Z</time>
      </trkpt>
      <trkpt lat="48.89131" lon="2.32082">
        <ele>92</ele>
        <time>2013-10-15T20:44:36.316Z</time>
      </trkpt>
      <trkpt lat="48.89138" lon="2.32088">
        <ele>93</ele>
        <time>2013-10-15T20:44:38.282Z</time>
      </trkpt>
      <trkpt lat="48.89142" lon="2.32091">
        <ele>93</ele>
        <time>2013-10-15T20:44:39.281Z</time>
      </trkpt>
      <trkpt lat="48.89149" lon="2.32095">
        <ele>94</ele>
        <time>2013-10-15T20:44:41.290Z</time>
      </trkpt>
      <trkpt lat="48.89152" lon="2.32097">
        <ele>90</ele>
        <time>2013-10-15T20:44:42.285Z</time>
      </trkpt>
      <trkpt lat="48.89158" lon="2.32102">
        <ele>92</ele>
        <time>2013-10-15T20:44:45.289Z</time>
      </trkpt>
      <trkpt lat="48.8916" lon="2.32104">
        <ele>91</ele>
        <time>2013-10-15T20:44:46.236Z</time>
      </trkpt>
      <trkpt lat="48.89164" lon="2.32112">
        <ele>91</ele>
        <time>2013-10-15T20:44:49.290Z</time>
      </trkpt>
      <trkpt lat="48.89166" lon="2.32116">
        <ele>88</ele>
        <time>2013-10-15T20:44:50.238Z</time>
      </trkpt>
      <trkpt lat="48.89169" lon="2.32127">
        <ele>87</ele>
        <time>2013-10-15T20:44:52.295Z</time>
      </trkpt>
      <trkpt lat="48.89171" lon="2.32134">
        <ele>87</ele>
        <time>2013-10-15T20:44:53.290Z</time>
      </trkpt>
      <trkpt lat="48.89173" lon="2.3214">
        <ele>81</ele>
        <time>2013-10-15T20:44:54.296Z</time>
      </trkpt>
      <trkpt lat="48.89175" lon="2.32146">
        <ele>79</ele>
        <time>2013-10-15T20:44:55.294Z</time>
      </trkpt>
      <trkpt lat="48.8918" lon="2.32151">
        <ele>79</ele>
        <time>2013-10-15T20:44:56.295Z</time>
      </trkpt>
      <trkpt lat="48.89183" lon="2.32157">
        <ele>79</ele>
        <time>2013-10-15T20:44:57.298Z</time>
      </trkpt>
      <trkpt lat="48.89186" lon="2.32163">
        <ele>79</ele>
        <time>2013-10-15T20:44:58.238Z</time>
      </trkpt>
      <trkpt lat="48.89188" lon="2.3217">
        <ele>77</ele>
        <time>2013-10-15T20:44:59.290Z</time>
      </trkpt>
      <trkpt lat="48.89189" lon="2.32177">
        <ele>74</ele>
        <time>2013-10-15T20:45:00.290Z</time>
      </trkpt>
      <trkpt lat="48.89188" lon="2.32184">
        <ele>73</ele>
        <time>2013-10-15T20:45:01.294Z</time>
      </trkpt>
      <trkpt lat="48.89184" lon="2.32192">
        <ele>74</ele>
        <time>2013-10-15T20:45:02.290Z</time>
      </trkpt>
      <trkpt lat="48.89179" lon="2.32201">
        <ele>69</ele>
        <time>2013-10-15T20:45:03.292Z</time>
      </trkpt>
      <trkpt lat="48.89175" lon="2.32209">
        <ele>72</ele>
        <time>2013-10-15T20:45:04.294Z</time>
      </trkpt>
      <trkpt lat="48.89172" lon="2.32218">
        <ele>68</ele>
        <time>2013-10-15T20:45:05.299Z</time>
      </trkpt>
      <trkpt lat="48.89173" lon="2.32224">
        <ele>73</ele>
        <time>2013-10-15T20:45:06.292Z</time>
      </trkpt>
      <trkpt lat="48.89168" lon="2.32283">
        <ele>86</ele>
        <time>2013-10-15T20:45:14.295Z</time>
      </trkpt>
      <trkpt lat="48.89171" lon="2.32289">
        <ele>87</ele>
        <time>2013-10-15T20:45:15.290Z</time>
      </trkpt>
      <trkpt lat="48.89175" lon="2.32296">
        <ele>85</ele>
        <time>2013-10-15T20:45:16.275Z</time>
      </trkpt>
      <trkpt lat="48.89179" lon="2.32304">
        <ele>83</ele>
        <time>2013-10-15T20:45:17.263Z</time>
      </trkpt>
      <trkpt lat="48.89183" lon="2.32311">
        <ele>82</ele>
        <time>2013-10-15T20:45:18.294Z</time>
      </trkpt>
      <trkpt lat="48.89187" lon="2.32318">
        <ele>82</ele>
        <time>2013-10-15T20:45:19.294Z</time>
      </trkpt>
      <trkpt lat="48.89191" lon="2.32325">
        <ele>83</ele>
        <time>2013-10-15T20:45:20.354Z</time>
      </trkpt>
      <trkpt lat="48.89196" lon="2.32331">
        <ele>86</ele>
        <time>2013-10-15T20:45:21.294Z</time>
      </trkpt>
      <trkpt lat="48.89199" lon="2.32338">
        <ele>85</ele>
        <time>2013-10-15T20:45:22.296Z</time>
      </trkpt>
      <trkpt lat="48.89203" lon="2.32345">
        <ele>83</ele>
        <time>2013-10-15T20:45:23.294Z</time>
      </trkpt>
      <trkpt lat="48.89206" lon="2.32352">
        <ele>85</ele>
        <time>2013-10-15T20:45:24.293Z</time>
      </trkpt>
      <trkpt lat="48.89209" lon="2.3236">
        <ele>83</ele>
        <time>2013-10-15T20:45:25.296Z</time>
      </trkpt>
      <trkpt lat="48.89211" lon="2.32367">
        <ele>83</ele>
        <time>2013-10-15T20:45:26.263Z</time>
      </trkpt>
      <trkpt lat="48.89213" lon="2.32374">
        <ele>82</ele>
        <time>2013-10-15T20:45:27.327Z</time>
      </trkpt>
      <trkpt lat="48.89215" lon="2.32381">
        <ele>83</ele>
        <time>2013-10-15T20:45:28.349Z</time>
      </trkpt>
      <trkpt lat="48.89217" lon="2.32388">
        <ele>87</ele>
        <time>2013-10-15T20:45:29.298Z</time>
      </trkpt>
      <trkpt lat="48.89219" lon="2.32396">
        <ele>86</ele>
        <time>2013-10-15T20:45:30.299Z</time>
      </trkpt>
      <trkpt lat="48.89222" lon="2.32403">
        <ele>86</ele>
        <time>2013-10-15T20:45:31.298Z</time>
      </trkpt>
      <trkpt lat="48.89224" lon="2.3241">
        <ele>88</ele>
        <time>2013-10-15T20:45:32.298Z</time>
      </trkpt>
      <trkpt lat="48.89226" lon="2.32418">
        <ele>87</ele>
        <time>2013-10-15T20:45:33.294Z</time>
      </trkpt>
      <trkpt lat="48.89228" lon="2.32424">
        <ele>87</ele>
        <time>2013-10-15T20:45:34.294Z</time>
      </trkpt>
      <trkpt lat="48.8923" lon="2.32436">
        <ele>89</ele>
        <time>2013-10-15T20:45:36.288Z</time>
      </trkpt>
      <trkpt lat="48.8923" lon="2.32442">
        <ele>91</ele>
        <time>2013-10-15T20:45:37.299Z</time>
      </trkpt>
      <trkpt lat="48.89229" lon="2.32453">
        <ele>88</ele>
        <time>2013-10-15T20:45:39.299Z</time>
      </trkpt>
      <trkpt lat="48.89227" lon="2.32459">
        <ele>87</ele>
        <time>2013-10-15T20:45:40.294Z</time>
      </trkpt>
      <trkpt lat="48.89222" lon="2.32469">
        <ele>90</ele>
        <time>2013-10-15T20:45:42.295Z</time>
      </trkpt>
      <trkpt lat="48.89213" lon="2.32495">
        <ele>87</ele>
        <time>2013-10-15T20:45:48.299Z</time>
      </trkpt>
      <trkpt lat="48.89211" lon="2.32504">
        <ele>85</ele>
        <time>2013-10-15T20:45:50.324Z</time>
      </trkpt>
      <trkpt lat="48.8921" lon="2.32509">
        <ele>82</ele>
        <time>2013-10-15T20:45:51.251Z</time>
      </trkpt>
      <trkpt lat="48.8921" lon="2.32522">
        <ele>82</ele>
        <time>2013-10-15T20:45:53.299Z</time>
      </trkpt>
      <trkpt lat="48.89211" lon="2.32529">
        <ele>82</ele>
        <time>2013-10-15T20:45:54.299Z</time>
      </trkpt>
      <trkpt lat="48.89213" lon="2.32538">
        <ele>81</ele>
        <time>2013-10-15T20:45:55.315Z</time>
      </trkpt>
      <trkpt lat="48.89217" lon="2.32545">
        <ele>80</ele>
        <time>2013-10-15T20:45:56.299Z</time>
      </trkpt>
      <trkpt lat="48.89221" lon="2.32552">
        <ele>80</ele>
        <time>2013-10-15T20:45:57.303Z</time>
      </trkpt>
      <trkpt lat="48.89225" lon="2.32559">
        <ele>80</ele>
        <time>2013-10-15T20:45:58.299Z</time>
      </trkpt>
      <trkpt lat="48.89229" lon="2.32565">
        <ele>78</ele>
        <time>2013-10-15T20:45:59.252Z</time>
      </trkpt>
      <trkpt lat="48.89234" lon="2.32571">
        <ele>77</ele>
        <time>2013-10-15T20:46:00.290Z</time>
      </trkpt>
      <trkpt lat="48.89239" lon="2.32577">
        <ele>80</ele>
        <time>2013-10-15T20:46:01.297Z</time>
      </trkpt>
      <trkpt lat="48.89244" lon="2.32582">
        <ele>83</ele>
        <time>2013-10-15T20:46:02.302Z</time>
      </trkpt>
      <trkpt lat="48.89249" lon="2.32588">
        <ele>81</ele>
        <time>2013-10-15T20:46:03.297Z</time>
      </trkpt>
      <trkpt lat="48.89253" lon="2.32594">
        <ele>79</ele>
        <time>2013-10-15T20:46:04.301Z</time>
      </trkpt>
      <trkpt lat="48.89258" lon="2.32601">
        <ele>75</ele>
        <time>2013-10-15T20:46:05.301Z</time>
      </trkpt>
      <trkpt lat="48.89262" lon="2.32607">
        <ele>77</ele>
        <time>2013-10-15T20:46:06.249Z</time>
      </trkpt>
      <trkpt lat="48.89266" lon="2.32613">
        <ele>75</ele>
        <time>2013-10-15T20:46:07.302Z</time>
      </trkpt>
      <trkpt lat="48.89269" lon="2.32619">
        <ele>80</ele>
        <time>2013-10-15T20:46:08.306Z</time>
      </trkpt>
      <trkpt lat="48.89271" lon="2.32625">
        <ele>80</ele>
        <time>2013-10-15T20:46:09.300Z</time>
      </trkpt>
      <trkpt lat="48.89274" lon="2.32631">
        <ele>82</ele>
        <time>2013-10-15T20:46:10.302Z</time>
      </trkpt>
      <trkpt lat="48.89277" lon="2.32637">
        <ele>85</ele>
        <time>2013-10-15T20:46:11.303Z</time>
      </trkpt>
      <trkpt lat="48.89279" lon="2.32643">
        <ele>85</ele>
        <time>2013-10-15T20:46:12.305Z</time>
      </trkpt>
      <trkpt lat="48.89282" lon="2.3265">
        <ele>84</ele>
        <time>2013-10-15T20:46:13.302Z</time>
      </trkpt>
      <trkpt lat="48.89285" lon="2.32657">
        <ele>84</ele>
        <time>2013-10-15T20:46:14.302Z</time>
      </trkpt>
      <trkpt lat="48.89288" lon="2.32664">
        <ele>85</ele>
        <time>2013-10-15T20:46:15.266Z</time>
      </trkpt>
      <trkpt lat="48.89292" lon="2.32671">
        <ele>85</ele>
        <time>2013-10-15T20:46:16.323Z</time>
      </trkpt>
      <trkpt lat="48.89295" lon="2.32677">
        <ele>82</ele>
        <time>2013-10-15T20:46:17.253Z</time>
      </trkpt>
      <trkpt lat="48.89298" lon="2.32684">
        <ele>82</ele>
        <time>2013-10-15T20:46:18.305Z</time>
      </trkpt>
      <trkpt lat="48.89301" lon="2.32691">
        <ele>81</ele>
        <time>2013-10-15T20:46:19.298Z</time>
      </trkpt>
      <trkpt lat="48.89304" lon="2.32696">
        <ele>84</ele>
        <time>2013-10-15T20:46:20.306Z</time>
      </trkpt>
      <trkpt lat="48.89308" lon="2.32705">
        <ele>89</ele>
        <time>2013-10-15T20:46:22.302Z</time>
      </trkpt>
      <trkpt lat="48.8931" lon="2.32709">
        <ele>93</ele>
        <time>2013-10-15T20:46:23.302Z</time>
      </trkpt>
      <trkpt lat="48.89302" lon="2.32713">
        <ele>85</ele>
        <time>2013-10-15T20:46:34.250Z</time>
      </trkpt>
      <trkpt lat="48.89302" lon="2.32713">
        <ele>85</ele>
        <time>2013-10-15T20:46:35.248Z</time>
      </trkpt>
      <trkpt lat="48.89303" lon="2.32713">
        <ele>85</ele>
        <time>2013-10-15T20:46:39.255Z</time>
      </trkpt>
    </trkseg>
  </trk>
</gpx>